<?xml version="1.0" encoding="UTF-8" standalone="no" ?>
<gpx xmlns="http://www.topografix.com/GPX/1/1" xmlns:xsi="http://www.w3.org/2001/XMLSchema-instance" xsi:schemaLocation="http://www.topografix.com/GPX/1/1 http://www.topografix.com/GPX/1/1/gpx.xsd" version="1.1" creator="VisuGPX - https://www.visugpx.com">
  <metadata>
    <name>012SG78-8064593</name>
    <desc><![CDATA[12-19
]]></desc>
  </metadata>
  <trk>
    <name><![CDATA[012SG78-8064593]]></name>
    <trkseg>
      <trkpt lat="46.69908" lon="-1.93383">
        <ele>4</ele>
        <time>2018-01-12T20:55:58Z</time>
      </trkpt>
      <trkpt lat="46.69901" lon="-1.93383">
        <ele>5</ele>
        <time>2018-01-12T20:56:58Z</time>
      </trkpt>
      <trkpt lat="46.69898" lon="-1.93383">
        <ele>5</ele>
        <time>2018-01-12T20:57:58Z</time>
      </trkpt>
      <trkpt lat="46.69892" lon="-1.93385">
        <ele>5</ele>
        <time>2018-01-12T20:58:58Z</time>
      </trkpt>
      <trkpt lat="46.69824" lon="-1.93411">
        <ele>5</ele>
        <time>2018-01-12T20:59:58Z</time>
      </trkpt>
      <trkpt lat="46.69806" lon="-1.93419">
        <ele>5</ele>
        <time>2018-01-12T21:00:58Z</time>
      </trkpt>
      <trkpt lat="46.69798" lon="-1.93421">
        <ele>5</ele>
        <time>2018-01-12T21:01:58Z</time>
      </trkpt>
      <trkpt lat="46.69797" lon="-1.93421">
        <ele>5</ele>
        <time>2018-01-12T21:02:58Z</time>
      </trkpt>
      <trkpt lat="46.69793" lon="-1.9342">
        <ele>5</ele>
        <time>2018-01-12T21:03:58Z</time>
      </trkpt>
      <trkpt lat="46.69793" lon="-1.93421">
        <ele>5</ele>
        <time>2018-01-12T21:04:58Z</time>
      </trkpt>
      <trkpt lat="46.69793" lon="-1.93422">
        <ele>5</ele>
        <time>2018-01-12T21:05:58Z</time>
      </trkpt>
      <trkpt lat="46.69793" lon="-1.93423">
        <ele>5</ele>
        <time>2018-01-12T21:06:58Z</time>
      </trkpt>
      <trkpt lat="46.69793" lon="-1.93424">
        <ele>5</ele>
        <time>2018-01-12T21:07:58Z</time>
      </trkpt>
      <trkpt lat="46.69792" lon="-1.93425">
        <ele>5</ele>
        <time>2018-01-12T21:08:58Z</time>
      </trkpt>
      <trkpt lat="46.69792" lon="-1.93426">
        <ele>5</ele>
        <time>2018-01-12T21:09:58Z</time>
      </trkpt>
      <trkpt lat="46.69791" lon="-1.93426">
        <ele>5</ele>
        <time>2018-01-12T21:10:58Z</time>
      </trkpt>
      <trkpt lat="46.69791" lon="-1.93427">
        <ele>5</ele>
        <time>2018-01-12T21:11:58Z</time>
      </trkpt>
      <trkpt lat="46.6979" lon="-1.93427">
        <ele>5</ele>
        <time>2018-01-12T21:12:58Z</time>
      </trkpt>
      <trkpt lat="46.6979" lon="-1.93428">
        <ele>5</ele>
        <time>2018-01-12T21:13:58Z</time>
      </trkpt>
      <trkpt lat="46.69789" lon="-1.93428">
        <ele>5</ele>
        <time>2018-01-12T21:14:58Z</time>
      </trkpt>
      <trkpt lat="46.69788" lon="-1.93428">
        <ele>5</ele>
        <time>2018-01-12T21:15:58Z</time>
      </trkpt>
      <trkpt lat="46.69788" lon="-1.93427">
        <ele>5</ele>
        <time>2018-01-12T21:16:58Z</time>
      </trkpt>
      <trkpt lat="46.69787" lon="-1.93427">
        <ele>5</ele>
        <time>2018-01-12T21:17:58Z</time>
      </trkpt>
      <trkpt lat="46.69787" lon="-1.93426">
        <ele>5</ele>
        <time>2018-01-12T21:18:58Z</time>
      </trkpt>
      <trkpt lat="46.69786" lon="-1.93426">
        <ele>5</ele>
        <time>2018-01-12T21:19:58Z</time>
      </trkpt>
      <trkpt lat="46.69786" lon="-1.93425">
        <ele>5</ele>
        <time>2018-01-12T21:20:58Z</time>
      </trkpt>
      <trkpt lat="46.69786" lon="-1.93424">
        <ele>5</ele>
        <time>2018-01-12T21:21:58Z</time>
      </trkpt>
      <trkpt lat="46.69785" lon="-1.93424">
        <ele>5</ele>
        <time>2018-01-12T21:22:58Z</time>
      </trkpt>
      <trkpt lat="46.69785" lon="-1.93423">
        <ele>5</ele>
        <time>2018-01-12T21:23:58Z</time>
      </trkpt>
      <trkpt lat="46.69785" lon="-1.93422">
        <ele>5</ele>
        <time>2018-01-12T21:24:58Z</time>
      </trkpt>
      <trkpt lat="46.69779" lon="-1.9342">
        <ele>5</ele>
        <time>2018-01-12T21:25:58Z</time>
      </trkpt>
      <trkpt lat="46.69776" lon="-1.9342">
        <ele>5</ele>
        <time>2018-01-12T21:26:58Z</time>
      </trkpt>
      <trkpt lat="46.69772" lon="-1.9342">
        <ele>5</ele>
        <time>2018-01-12T21:27:58Z</time>
      </trkpt>
      <trkpt lat="46.69762" lon="-1.93423">
        <ele>5</ele>
        <time>2018-01-12T21:28:58Z</time>
      </trkpt>
      <trkpt lat="46.69759" lon="-1.93424">
        <ele>5</ele>
        <time>2018-01-12T21:29:58Z</time>
      </trkpt>
      <trkpt lat="46.69721" lon="-1.93434">
        <ele>5</ele>
        <time>2018-01-12T21:30:58Z</time>
      </trkpt>
      <trkpt lat="46.69714" lon="-1.93435">
        <ele>5</ele>
        <time>2018-01-12T21:31:58Z</time>
      </trkpt>
      <trkpt lat="46.69697" lon="-1.93436">
        <ele>5</ele>
        <time>2018-01-12T21:32:58Z</time>
      </trkpt>
      <trkpt lat="46.69685" lon="-1.93435">
        <ele>5</ele>
        <time>2018-01-12T21:33:58Z</time>
      </trkpt>
      <trkpt lat="46.69633" lon="-1.93423">
        <ele>5</ele>
        <time>2018-01-12T21:34:58Z</time>
      </trkpt>
      <trkpt lat="46.69633" lon="-1.93423">
        <ele>5</ele>
        <time>2018-01-12T21:35:58Z</time>
      </trkpt>
      <trkpt lat="46.69633" lon="-1.93424">
        <ele>4</ele>
        <time>2018-01-12T21:36:58Z</time>
      </trkpt>
      <trkpt lat="46.69633" lon="-1.93425">
        <ele>4</ele>
        <time>2018-01-12T21:37:58Z</time>
      </trkpt>
      <trkpt lat="46.69633" lon="-1.93426">
        <ele>4</ele>
        <time>2018-01-12T21:38:58Z</time>
      </trkpt>
      <trkpt lat="46.69633" lon="-1.93427">
        <ele>4</ele>
        <time>2018-01-12T21:39:58Z</time>
      </trkpt>
      <trkpt lat="46.69633" lon="-1.93428">
        <ele>4</ele>
        <time>2018-01-12T21:40:58Z</time>
      </trkpt>
      <trkpt lat="46.69633" lon="-1.93429">
        <ele>4</ele>
        <time>2018-01-12T21:41:58Z</time>
      </trkpt>
      <trkpt lat="46.69633" lon="-1.9343">
        <ele>4</ele>
        <time>2018-01-12T21:42:58Z</time>
      </trkpt>
      <trkpt lat="46.69632" lon="-1.9343">
        <ele>4</ele>
        <time>2018-01-12T21:43:58Z</time>
      </trkpt>
      <trkpt lat="46.69632" lon="-1.93431">
        <ele>4</ele>
        <time>2018-01-12T21:44:58Z</time>
      </trkpt>
      <trkpt lat="46.69632" lon="-1.93432">
        <ele>4</ele>
        <time>2018-01-12T21:45:58Z</time>
      </trkpt>
      <trkpt lat="46.69631" lon="-1.93432">
        <ele>4</ele>
        <time>2018-01-12T21:46:58Z</time>
      </trkpt>
      <trkpt lat="46.69631" lon="-1.93433">
        <ele>4</ele>
        <time>2018-01-12T21:47:58Z</time>
      </trkpt>
      <trkpt lat="46.69631" lon="-1.93434">
        <ele>4</ele>
        <time>2018-01-12T21:48:58Z</time>
      </trkpt>
      <trkpt lat="46.6963" lon="-1.93434">
        <ele>4</ele>
        <time>2018-01-12T21:49:58Z</time>
      </trkpt>
      <trkpt lat="46.6963" lon="-1.93435">
        <ele>4</ele>
        <time>2018-01-12T21:50:58Z</time>
      </trkpt>
      <trkpt lat="46.69629" lon="-1.93435">
        <ele>4</ele>
        <time>2018-01-12T21:51:58Z</time>
      </trkpt>
      <trkpt lat="46.69629" lon="-1.93436">
        <ele>4</ele>
        <time>2018-01-12T21:52:58Z</time>
      </trkpt>
      <trkpt lat="46.69628" lon="-1.93436">
        <ele>4</ele>
        <time>2018-01-12T21:53:58Z</time>
      </trkpt>
      <trkpt lat="46.69627" lon="-1.93436">
        <ele>4</ele>
        <time>2018-01-12T21:54:58Z</time>
      </trkpt>
      <trkpt lat="46.69627" lon="-1.93437">
        <ele>4</ele>
        <time>2018-01-12T21:55:58Z</time>
      </trkpt>
      <trkpt lat="46.69626" lon="-1.93437">
        <ele>4</ele>
        <time>2018-01-12T21:56:58Z</time>
      </trkpt>
      <trkpt lat="46.69625" lon="-1.93437">
        <ele>4</ele>
        <time>2018-01-12T21:57:58Z</time>
      </trkpt>
      <trkpt lat="46.69624" lon="-1.93437">
        <ele>4</ele>
        <time>2018-01-12T21:58:58Z</time>
      </trkpt>
      <trkpt lat="46.69623" lon="-1.93437">
        <ele>4</ele>
        <time>2018-01-12T21:59:58Z</time>
      </trkpt>
      <trkpt lat="46.69622" lon="-1.93436">
        <ele>4</ele>
        <time>2018-01-12T22:00:58Z</time>
      </trkpt>
      <trkpt lat="46.69621" lon="-1.93436">
        <ele>4</ele>
        <time>2018-01-12T22:01:58Z</time>
      </trkpt>
      <trkpt lat="46.6962" lon="-1.93435">
        <ele>4</ele>
        <time>2018-01-12T22:02:58Z</time>
      </trkpt>
      <trkpt lat="46.69619" lon="-1.93434">
        <ele>4</ele>
        <time>2018-01-12T22:03:58Z</time>
      </trkpt>
      <trkpt lat="46.69619" lon="-1.93433">
        <ele>4</ele>
        <time>2018-01-12T22:04:58Z</time>
      </trkpt>
      <trkpt lat="46.69618" lon="-1.93433">
        <ele>4</ele>
        <time>2018-01-12T22:05:58Z</time>
      </trkpt>
      <trkpt lat="46.69618" lon="-1.93432">
        <ele>4</ele>
        <time>2018-01-12T22:06:58Z</time>
      </trkpt>
      <trkpt lat="46.69618" lon="-1.93431">
        <ele>4</ele>
        <time>2018-01-12T22:07:58Z</time>
      </trkpt>
      <trkpt lat="46.69617" lon="-1.93431">
        <ele>4</ele>
        <time>2018-01-12T22:08:58Z</time>
      </trkpt>
      <trkpt lat="46.69617" lon="-1.9343">
        <ele>4</ele>
        <time>2018-01-12T22:09:58Z</time>
      </trkpt>
      <trkpt lat="46.69617" lon="-1.93429">
        <ele>4</ele>
        <time>2018-01-12T22:10:58Z</time>
      </trkpt>
      <trkpt lat="46.69617" lon="-1.93428">
        <ele>4</ele>
        <time>2018-01-12T22:11:58Z</time>
      </trkpt>
      <trkpt lat="46.69616" lon="-1.93428">
        <ele>4</ele>
        <time>2018-01-12T22:12:58Z</time>
      </trkpt>
      <trkpt lat="46.69616" lon="-1.93427">
        <ele>4</ele>
        <time>2018-01-12T22:13:58Z</time>
      </trkpt>
      <trkpt lat="46.69616" lon="-1.93426">
        <ele>4</ele>
        <time>2018-01-12T22:14:58Z</time>
      </trkpt>
      <trkpt lat="46.69616" lon="-1.93425">
        <ele>4</ele>
        <time>2018-01-12T22:15:58Z</time>
      </trkpt>
      <trkpt lat="46.69616" lon="-1.93424">
        <ele>4</ele>
        <time>2018-01-12T22:16:58Z</time>
      </trkpt>
      <trkpt lat="46.69616" lon="-1.93423">
        <ele>4</ele>
        <time>2018-01-12T22:17:58Z</time>
      </trkpt>
      <trkpt lat="46.69616" lon="-1.93422">
        <ele>4</ele>
        <time>2018-01-12T22:18:58Z</time>
      </trkpt>
      <trkpt lat="46.69616" lon="-1.93421">
        <ele>4</ele>
        <time>2018-01-12T22:19:58Z</time>
      </trkpt>
      <trkpt lat="46.69617" lon="-1.93421">
        <ele>4</ele>
        <time>2018-01-12T22:20:58Z</time>
      </trkpt>
      <trkpt lat="46.69617" lon="-1.9342">
        <ele>4</ele>
        <time>2018-01-12T22:21:58Z</time>
      </trkpt>
      <trkpt lat="46.69607" lon="-1.93416">
        <ele>4</ele>
        <time>2018-01-12T22:22:58Z</time>
      </trkpt>
      <trkpt lat="46.69587" lon="-1.93404">
        <ele>4</ele>
        <time>2018-01-12T22:23:58Z</time>
      </trkpt>
      <trkpt lat="46.69551" lon="-1.93388">
        <ele>4</ele>
        <time>2018-01-12T22:24:58Z</time>
      </trkpt>
      <trkpt lat="46.69518" lon="-1.93374">
        <ele>4</ele>
        <time>2018-01-12T22:25:58Z</time>
      </trkpt>
      <trkpt lat="46.69507" lon="-1.9337">
        <ele>4</ele>
        <time>2018-01-12T22:26:58Z</time>
      </trkpt>
      <trkpt lat="46.69503" lon="-1.93368">
        <ele>4</ele>
        <time>2018-01-12T22:27:58Z</time>
      </trkpt>
      <trkpt lat="46.69498" lon="-1.93366">
        <ele>4</ele>
        <time>2018-01-12T22:28:58Z</time>
      </trkpt>
      <trkpt lat="46.6946" lon="-1.93349">
        <ele>4</ele>
        <time>2018-01-12T22:29:58Z</time>
      </trkpt>
      <trkpt lat="46.69431" lon="-1.93336">
        <ele>4</ele>
        <time>2018-01-12T22:30:58Z</time>
      </trkpt>
      <trkpt lat="46.69426" lon="-1.93334">
        <ele>4</ele>
        <time>2018-01-12T22:31:58Z</time>
      </trkpt>
      <trkpt lat="46.69421" lon="-1.93333">
        <ele>4</ele>
        <time>2018-01-12T22:32:58Z</time>
      </trkpt>
      <trkpt lat="46.69416" lon="-1.93331">
        <ele>4</ele>
        <time>2018-01-12T22:33:58Z</time>
      </trkpt>
      <trkpt lat="46.69405" lon="-1.9333">
        <ele>4</ele>
        <time>2018-01-12T22:34:58Z</time>
      </trkpt>
      <trkpt lat="46.69394" lon="-1.93333">
        <ele>4</ele>
        <time>2018-01-12T22:35:58Z</time>
      </trkpt>
      <trkpt lat="46.69394" lon="-1.93333">
        <ele>4</ele>
        <time>2018-01-12T22:36:58Z</time>
      </trkpt>
      <trkpt lat="46.69394" lon="-1.93334">
        <ele>4</ele>
        <time>2018-01-12T22:37:58Z</time>
      </trkpt>
      <trkpt lat="46.69394" lon="-1.93335">
        <ele>4</ele>
        <time>2018-01-12T22:38:58Z</time>
      </trkpt>
      <trkpt lat="46.69393" lon="-1.93335">
        <ele>4</ele>
        <time>2018-01-12T22:39:58Z</time>
      </trkpt>
      <trkpt lat="46.69393" lon="-1.93336">
        <ele>4</ele>
        <time>2018-01-12T22:40:58Z</time>
      </trkpt>
      <trkpt lat="46.69392" lon="-1.93336">
        <ele>4</ele>
        <time>2018-01-12T22:41:58Z</time>
      </trkpt>
      <trkpt lat="46.69392" lon="-1.93337">
        <ele>4</ele>
        <time>2018-01-12T22:42:58Z</time>
      </trkpt>
      <trkpt lat="46.69391" lon="-1.93337">
        <ele>4</ele>
        <time>2018-01-12T22:43:58Z</time>
      </trkpt>
      <trkpt lat="46.6939" lon="-1.93338">
        <ele>4</ele>
        <time>2018-01-12T22:44:58Z</time>
      </trkpt>
      <trkpt lat="46.69389" lon="-1.93338">
        <ele>4</ele>
        <time>2018-01-12T22:45:58Z</time>
      </trkpt>
      <trkpt lat="46.69388" lon="-1.93338">
        <ele>4</ele>
        <time>2018-01-12T22:46:58Z</time>
      </trkpt>
      <trkpt lat="46.69387" lon="-1.93338">
        <ele>4</ele>
        <time>2018-01-12T22:47:58Z</time>
      </trkpt>
      <trkpt lat="46.69386" lon="-1.93338">
        <ele>4</ele>
        <time>2018-01-12T22:48:58Z</time>
      </trkpt>
      <trkpt lat="46.69385" lon="-1.93338">
        <ele>4</ele>
        <time>2018-01-12T22:49:58Z</time>
      </trkpt>
      <trkpt lat="46.69384" lon="-1.93338">
        <ele>4</ele>
        <time>2018-01-12T22:50:58Z</time>
      </trkpt>
      <trkpt lat="46.69384" lon="-1.93337">
        <ele>4</ele>
        <time>2018-01-12T22:51:58Z</time>
      </trkpt>
      <trkpt lat="46.69383" lon="-1.93337">
        <ele>4</ele>
        <time>2018-01-12T22:52:58Z</time>
      </trkpt>
      <trkpt lat="46.69383" lon="-1.93336">
        <ele>4</ele>
        <time>2018-01-12T22:53:58Z</time>
      </trkpt>
      <trkpt lat="46.69382" lon="-1.93336">
        <ele>4</ele>
        <time>2018-01-12T22:54:58Z</time>
      </trkpt>
      <trkpt lat="46.69382" lon="-1.93335">
        <ele>4</ele>
        <time>2018-01-12T22:55:58Z</time>
      </trkpt>
      <trkpt lat="46.69381" lon="-1.93335">
        <ele>4</ele>
        <time>2018-01-12T22:56:58Z</time>
      </trkpt>
      <trkpt lat="46.69381" lon="-1.93334">
        <ele>4</ele>
        <time>2018-01-12T22:57:58Z</time>
      </trkpt>
      <trkpt lat="46.6938" lon="-1.93333">
        <ele>4</ele>
        <time>2018-01-12T22:58:58Z</time>
      </trkpt>
      <trkpt lat="46.6938" lon="-1.93332">
        <ele>4</ele>
        <time>2018-01-12T22:59:58Z</time>
      </trkpt>
      <trkpt lat="46.69379" lon="-1.93332">
        <ele>4</ele>
        <time>2018-01-12T23:00:58Z</time>
      </trkpt>
      <trkpt lat="46.69379" lon="-1.93331">
        <ele>4</ele>
        <time>2018-01-12T23:01:58Z</time>
      </trkpt>
      <trkpt lat="46.69379" lon="-1.9333">
        <ele>4</ele>
        <time>2018-01-12T23:02:58Z</time>
      </trkpt>
      <trkpt lat="46.69379" lon="-1.93329">
        <ele>4</ele>
        <time>2018-01-12T23:03:58Z</time>
      </trkpt>
      <trkpt lat="46.69376" lon="-1.93327">
        <ele>4</ele>
        <time>2018-01-12T23:04:58Z</time>
      </trkpt>
      <trkpt lat="46.69367" lon="-1.93325">
        <ele>4</ele>
        <time>2018-01-12T23:05:58Z</time>
      </trkpt>
      <trkpt lat="46.69363" lon="-1.93325">
        <ele>4</ele>
        <time>2018-01-12T23:06:58Z</time>
      </trkpt>
      <trkpt lat="46.69356" lon="-1.93325">
        <ele>4</ele>
        <time>2018-01-12T23:07:58Z</time>
      </trkpt>
      <trkpt lat="46.69353" lon="-1.93324">
        <ele>4</ele>
        <time>2018-01-12T23:08:58Z</time>
      </trkpt>
      <trkpt lat="46.69315" lon="-1.93317">
        <ele>4</ele>
        <time>2018-01-12T23:09:58Z</time>
      </trkpt>
      <trkpt lat="46.69286" lon="-1.93313">
        <ele>4</ele>
        <time>2018-01-12T23:10:58Z</time>
      </trkpt>
      <trkpt lat="46.6924" lon="-1.93303">
        <ele>3</ele>
        <time>2018-01-12T23:11:58Z</time>
      </trkpt>
      <trkpt lat="46.69218" lon="-1.933">
        <ele>3</ele>
        <time>2018-01-12T23:12:58Z</time>
      </trkpt>
      <trkpt lat="46.69217" lon="-1.933">
        <ele>3</ele>
        <time>2018-01-12T23:13:58Z</time>
      </trkpt>
      <trkpt lat="46.69209" lon="-1.93298">
        <ele>3</ele>
        <time>2018-01-12T23:14:58Z</time>
      </trkpt>
      <trkpt lat="46.69203" lon="-1.93298">
        <ele>3</ele>
        <time>2018-01-12T23:15:58Z</time>
      </trkpt>
      <trkpt lat="46.69197" lon="-1.93299">
        <ele>3</ele>
        <time>2018-01-12T23:16:58Z</time>
      </trkpt>
      <trkpt lat="46.69182" lon="-1.93301">
        <ele>3</ele>
        <time>2018-01-12T23:17:58Z</time>
      </trkpt>
      <trkpt lat="46.69182" lon="-1.93301">
        <ele>3</ele>
        <time>2018-01-12T23:18:58Z</time>
      </trkpt>
      <trkpt lat="46.6918" lon="-1.93305">
        <ele>3</ele>
        <time>2018-01-12T23:19:58Z</time>
      </trkpt>
      <trkpt lat="46.69177" lon="-1.93307">
        <ele>3</ele>
        <time>2018-01-12T23:20:58Z</time>
      </trkpt>
      <trkpt lat="46.69173" lon="-1.93307">
        <ele>3</ele>
        <time>2018-01-12T23:21:58Z</time>
      </trkpt>
      <trkpt lat="46.69169" lon="-1.93306">
        <ele>3</ele>
        <time>2018-01-12T23:22:58Z</time>
      </trkpt>
      <trkpt lat="46.69167" lon="-1.93304">
        <ele>3</ele>
        <time>2018-01-12T23:23:58Z</time>
      </trkpt>
      <trkpt lat="46.69165" lon="-1.93301">
        <ele>3</ele>
        <time>2018-01-12T23:24:58Z</time>
      </trkpt>
      <trkpt lat="46.69164" lon="-1.93298">
        <ele>3</ele>
        <time>2018-01-12T23:25:58Z</time>
      </trkpt>
      <trkpt lat="46.69163" lon="-1.93296">
        <ele>3</ele>
        <time>2018-01-12T23:26:58Z</time>
      </trkpt>
      <trkpt lat="46.69163" lon="-1.93293">
        <ele>2</ele>
        <time>2018-01-12T23:27:58Z</time>
      </trkpt>
      <trkpt lat="46.69163" lon="-1.93289">
        <ele>2</ele>
        <time>2018-01-12T23:28:58Z</time>
      </trkpt>
      <trkpt lat="46.69165" lon="-1.93285">
        <ele>2</ele>
        <time>2018-01-12T23:29:58Z</time>
      </trkpt>
      <trkpt lat="46.69169" lon="-1.9328">
        <ele>2</ele>
        <time>2018-01-12T23:30:58Z</time>
      </trkpt>
      <trkpt lat="46.69166" lon="-1.93273">
        <ele>2</ele>
        <time>2018-01-12T23:31:58Z</time>
      </trkpt>
      <trkpt lat="46.69166" lon="-1.93263">
        <ele>2</ele>
        <time>2018-01-12T23:32:58Z</time>
      </trkpt>
      <trkpt lat="46.69167" lon="-1.93252">
        <ele>2</ele>
        <time>2018-01-12T23:33:58Z</time>
      </trkpt>
      <trkpt lat="46.69169" lon="-1.93244">
        <ele>2</ele>
        <time>2018-01-12T23:34:58Z</time>
      </trkpt>
      <trkpt lat="46.69177" lon="-1.93193">
        <ele>4</ele>
        <time>2018-01-12T23:35:58Z</time>
      </trkpt>
      <trkpt lat="46.69179" lon="-1.9318">
        <ele>4</ele>
        <time>2018-01-12T23:36:58Z</time>
      </trkpt>
      <trkpt lat="46.69182" lon="-1.93159">
        <ele>4</ele>
        <time>2018-01-12T23:37:58Z</time>
      </trkpt>
      <trkpt lat="46.69183" lon="-1.9315">
        <ele>4</ele>
        <time>2018-01-12T23:38:58Z</time>
      </trkpt>
      <trkpt lat="46.69186" lon="-1.93138">
        <ele>4</ele>
        <time>2018-01-12T23:39:58Z</time>
      </trkpt>
      <trkpt lat="46.69187" lon="-1.93134">
        <ele>4</ele>
        <time>2018-01-12T23:40:58Z</time>
      </trkpt>
      <trkpt lat="46.6919" lon="-1.93125">
        <ele>4</ele>
        <time>2018-01-12T23:41:58Z</time>
      </trkpt>
      <trkpt lat="46.69194" lon="-1.93117">
        <ele>4</ele>
        <time>2018-01-12T23:42:58Z</time>
      </trkpt>
      <trkpt lat="46.69201" lon="-1.93103">
        <ele>4</ele>
        <time>2018-01-12T23:43:58Z</time>
      </trkpt>
      <trkpt lat="46.6921" lon="-1.93085">
        <ele>5</ele>
        <time>2018-01-12T23:44:58Z</time>
      </trkpt>
      <trkpt lat="46.69219" lon="-1.93065">
        <ele>5</ele>
        <time>2018-01-12T23:45:58Z</time>
      </trkpt>
      <trkpt lat="46.69224" lon="-1.93053">
        <ele>5</ele>
        <time>2018-01-12T23:46:58Z</time>
      </trkpt>
      <trkpt lat="46.69224" lon="-1.93053">
        <ele>5</ele>
        <time>2018-01-12T23:47:58Z</time>
      </trkpt>
      <trkpt lat="46.69217" lon="-1.93046">
        <ele>5</ele>
        <time>2018-01-12T23:48:58Z</time>
      </trkpt>
      <trkpt lat="46.69194" lon="-1.93026">
        <ele>5</ele>
        <time>2018-01-12T23:49:58Z</time>
      </trkpt>
      <trkpt lat="46.69175" lon="-1.93009">
        <ele>4</ele>
        <time>2018-01-12T23:50:58Z</time>
      </trkpt>
      <trkpt lat="46.6917" lon="-1.93005">
        <ele>4</ele>
        <time>2018-01-12T23:51:58Z</time>
      </trkpt>
      <trkpt lat="46.69154" lon="-1.92991">
        <ele>4</ele>
        <time>2018-01-12T23:52:58Z</time>
      </trkpt>
      <trkpt lat="46.69133" lon="-1.92971">
        <ele>4</ele>
        <time>2018-01-12T23:53:58Z</time>
      </trkpt>
      <trkpt lat="46.69107" lon="-1.92948">
        <ele>4</ele>
        <time>2018-01-12T23:54:58Z</time>
      </trkpt>
      <trkpt lat="46.69095" lon="-1.92938">
        <ele>4</ele>
        <time>2018-01-12T23:55:58Z</time>
      </trkpt>
      <trkpt lat="46.69068" lon="-1.92907">
        <ele>4</ele>
        <time>2018-01-12T23:56:58Z</time>
      </trkpt>
      <trkpt lat="46.69055" lon="-1.9289">
        <ele>4</ele>
        <time>2018-01-12T23:57:58Z</time>
      </trkpt>
      <trkpt lat="46.69038" lon="-1.92867">
        <ele>4</ele>
        <time>2018-01-12T23:58:58Z</time>
      </trkpt>
      <trkpt lat="46.69014" lon="-1.92836">
        <ele>4</ele>
        <time>2018-01-12T23:59:58Z</time>
      </trkpt>
      <trkpt lat="46.68993" lon="-1.92806">
        <ele>4</ele>
        <time>2018-01-13T00:00:58Z</time>
      </trkpt>
      <trkpt lat="46.68992" lon="-1.92805">
        <ele>4</ele>
        <time>2018-01-13T00:01:58Z</time>
      </trkpt>
      <trkpt lat="46.68977" lon="-1.92784">
        <ele>4</ele>
        <time>2018-01-13T00:02:58Z</time>
      </trkpt>
      <trkpt lat="46.68969" lon="-1.92774">
        <ele>4</ele>
        <time>2018-01-13T00:03:58Z</time>
      </trkpt>
      <trkpt lat="46.68965" lon="-1.92769">
        <ele>4</ele>
        <time>2018-01-13T00:04:58Z</time>
      </trkpt>
      <trkpt lat="46.68955" lon="-1.92755">
        <ele>4</ele>
        <time>2018-01-13T00:05:58Z</time>
      </trkpt>
      <trkpt lat="46.68947" lon="-1.92747">
        <ele>4</ele>
        <time>2018-01-13T00:06:58Z</time>
      </trkpt>
      <trkpt lat="46.68936" lon="-1.92737">
        <ele>4</ele>
        <time>2018-01-13T00:07:58Z</time>
      </trkpt>
      <trkpt lat="46.68926" lon="-1.9273">
        <ele>4</ele>
        <time>2018-01-13T00:08:58Z</time>
      </trkpt>
      <trkpt lat="46.68913" lon="-1.92723">
        <ele>4</ele>
        <time>2018-01-13T00:09:58Z</time>
      </trkpt>
      <trkpt lat="46.68897" lon="-1.92716">
        <ele>4</ele>
        <time>2018-01-13T00:10:58Z</time>
      </trkpt>
      <trkpt lat="46.68881" lon="-1.92711">
        <ele>5</ele>
        <time>2018-01-13T00:11:58Z</time>
      </trkpt>
      <trkpt lat="46.68869" lon="-1.92706">
        <ele>5</ele>
        <time>2018-01-13T00:12:58Z</time>
      </trkpt>
      <trkpt lat="46.6886" lon="-1.92704">
        <ele>6</ele>
        <time>2018-01-13T00:13:58Z</time>
      </trkpt>
      <trkpt lat="46.68859" lon="-1.92704">
        <ele>6</ele>
        <time>2018-01-13T00:14:58Z</time>
      </trkpt>
      <trkpt lat="46.68851" lon="-1.92698">
        <ele>6</ele>
        <time>2018-01-13T00:15:58Z</time>
      </trkpt>
      <trkpt lat="46.68851" lon="-1.92698">
        <ele>6</ele>
        <time>2018-01-13T00:16:58Z</time>
      </trkpt>
      <trkpt lat="46.68851" lon="-1.92699">
        <ele>6</ele>
        <time>2018-01-13T00:17:58Z</time>
      </trkpt>
      <trkpt lat="46.6885" lon="-1.92699">
        <ele>6</ele>
        <time>2018-01-13T00:18:58Z</time>
      </trkpt>
      <trkpt lat="46.68849" lon="-1.927">
        <ele>6</ele>
        <time>2018-01-13T00:19:58Z</time>
      </trkpt>
      <trkpt lat="46.68848" lon="-1.927">
        <ele>6</ele>
        <time>2018-01-13T00:20:58Z</time>
      </trkpt>
      <trkpt lat="46.68848" lon="-1.92701">
        <ele>6</ele>
        <time>2018-01-13T00:21:58Z</time>
      </trkpt>
      <trkpt lat="46.68847" lon="-1.92701">
        <ele>6</ele>
        <time>2018-01-13T00:22:58Z</time>
      </trkpt>
      <trkpt lat="46.68846" lon="-1.92701">
        <ele>6</ele>
        <time>2018-01-13T00:23:58Z</time>
      </trkpt>
      <trkpt lat="46.68845" lon="-1.92701">
        <ele>6</ele>
        <time>2018-01-13T00:24:58Z</time>
      </trkpt>
      <trkpt lat="46.68844" lon="-1.92701">
        <ele>7</ele>
        <time>2018-01-13T00:25:58Z</time>
      </trkpt>
      <trkpt lat="46.68844" lon="-1.927">
        <ele>7</ele>
        <time>2018-01-13T00:26:58Z</time>
      </trkpt>
      <trkpt lat="46.68843" lon="-1.927">
        <ele>7</ele>
        <time>2018-01-13T00:27:58Z</time>
      </trkpt>
      <trkpt lat="46.68842" lon="-1.92699">
        <ele>7</ele>
        <time>2018-01-13T00:28:58Z</time>
      </trkpt>
      <trkpt lat="46.68837" lon="-1.927">
        <ele>7</ele>
        <time>2018-01-13T00:29:58Z</time>
      </trkpt>
      <trkpt lat="46.68833" lon="-1.92701">
        <ele>7</ele>
        <time>2018-01-13T00:30:58Z</time>
      </trkpt>
      <trkpt lat="46.68828" lon="-1.927">
        <ele>7</ele>
        <time>2018-01-13T00:31:58Z</time>
      </trkpt>
      <trkpt lat="46.68827" lon="-1.927">
        <ele>7</ele>
        <time>2018-01-13T00:32:58Z</time>
      </trkpt>
      <trkpt lat="46.68827" lon="-1.92701">
        <ele>7</ele>
        <time>2018-01-13T00:33:58Z</time>
      </trkpt>
      <trkpt lat="46.68826" lon="-1.92701">
        <ele>7</ele>
        <time>2018-01-13T00:34:58Z</time>
      </trkpt>
      <trkpt lat="46.68826" lon="-1.92702">
        <ele>7</ele>
        <time>2018-01-13T00:35:58Z</time>
      </trkpt>
      <trkpt lat="46.68825" lon="-1.92702">
        <ele>7</ele>
        <time>2018-01-13T00:36:58Z</time>
      </trkpt>
      <trkpt lat="46.68825" lon="-1.92703">
        <ele>7</ele>
        <time>2018-01-13T00:37:58Z</time>
      </trkpt>
      <trkpt lat="46.68824" lon="-1.92703">
        <ele>7</ele>
        <time>2018-01-13T00:38:58Z</time>
      </trkpt>
      <trkpt lat="46.68823" lon="-1.92703">
        <ele>7</ele>
        <time>2018-01-13T00:39:58Z</time>
      </trkpt>
      <trkpt lat="46.68822" lon="-1.92703">
        <ele>7</ele>
        <time>2018-01-13T00:40:58Z</time>
      </trkpt>
      <trkpt lat="46.68821" lon="-1.92703">
        <ele>7</ele>
        <time>2018-01-13T00:41:58Z</time>
      </trkpt>
      <trkpt lat="46.68821" lon="-1.92702">
        <ele>7</ele>
        <time>2018-01-13T00:42:58Z</time>
      </trkpt>
      <trkpt lat="46.6882" lon="-1.92702">
        <ele>7</ele>
        <time>2018-01-13T00:43:58Z</time>
      </trkpt>
      <trkpt lat="46.6882" lon="-1.92701">
        <ele>7</ele>
        <time>2018-01-13T00:44:58Z</time>
      </trkpt>
      <trkpt lat="46.68819" lon="-1.92701">
        <ele>7</ele>
        <time>2018-01-13T00:45:58Z</time>
      </trkpt>
      <trkpt lat="46.68819" lon="-1.927">
        <ele>7</ele>
        <time>2018-01-13T00:46:58Z</time>
      </trkpt>
      <trkpt lat="46.68818" lon="-1.927">
        <ele>7</ele>
        <time>2018-01-13T00:47:58Z</time>
      </trkpt>
      <trkpt lat="46.68818" lon="-1.92699">
        <ele>7</ele>
        <time>2018-01-13T00:48:58Z</time>
      </trkpt>
      <trkpt lat="46.68818" lon="-1.92698">
        <ele>7</ele>
        <time>2018-01-13T00:49:58Z</time>
      </trkpt>
      <trkpt lat="46.68817" lon="-1.92698">
        <ele>7</ele>
        <time>2018-01-13T00:50:58Z</time>
      </trkpt>
      <trkpt lat="46.68817" lon="-1.92697">
        <ele>7</ele>
        <time>2018-01-13T00:51:58Z</time>
      </trkpt>
      <trkpt lat="46.68817" lon="-1.92696">
        <ele>7</ele>
        <time>2018-01-13T00:52:58Z</time>
      </trkpt>
      <trkpt lat="46.68817" lon="-1.92695">
        <ele>7</ele>
        <time>2018-01-13T00:53:58Z</time>
      </trkpt>
      <trkpt lat="46.68817" lon="-1.92694">
        <ele>7</ele>
        <time>2018-01-13T00:54:58Z</time>
      </trkpt>
      <trkpt lat="46.68817" lon="-1.92693">
        <ele>7</ele>
        <time>2018-01-13T00:55:58Z</time>
      </trkpt>
      <trkpt lat="46.68817" lon="-1.92692">
        <ele>7</ele>
        <time>2018-01-13T00:56:58Z</time>
      </trkpt>
      <trkpt lat="46.68817" lon="-1.92691">
        <ele>7</ele>
        <time>2018-01-13T00:57:58Z</time>
      </trkpt>
      <trkpt lat="46.68817" lon="-1.9269">
        <ele>7</ele>
        <time>2018-01-13T00:58:58Z</time>
      </trkpt>
      <trkpt lat="46.68804" lon="-1.92685">
        <ele>7</ele>
        <time>2018-01-13T00:59:58Z</time>
      </trkpt>
      <trkpt lat="46.68787" lon="-1.9268">
        <ele>8</ele>
        <time>2018-01-13T01:00:58Z</time>
      </trkpt>
      <trkpt lat="46.68776" lon="-1.92676">
        <ele>8</ele>
        <time>2018-01-13T01:01:58Z</time>
      </trkpt>
      <trkpt lat="46.6876" lon="-1.92669">
        <ele>8</ele>
        <time>2018-01-13T01:02:58Z</time>
      </trkpt>
      <trkpt lat="46.68759" lon="-1.92668">
        <ele>8</ele>
        <time>2018-01-13T01:03:58Z</time>
      </trkpt>
      <trkpt lat="46.68733" lon="-1.92654">
        <ele>8</ele>
        <time>2018-01-13T01:04:58Z</time>
      </trkpt>
      <trkpt lat="46.68732" lon="-1.92654">
        <ele>8</ele>
        <time>2018-01-13T01:05:58Z</time>
      </trkpt>
      <trkpt lat="46.68707" lon="-1.92638">
        <ele>9</ele>
        <time>2018-01-13T01:06:58Z</time>
      </trkpt>
      <trkpt lat="46.68669" lon="-1.92615">
        <ele>10</ele>
        <time>2018-01-13T01:07:58Z</time>
      </trkpt>
      <trkpt lat="46.68651" lon="-1.92602">
        <ele>10</ele>
        <time>2018-01-13T01:08:58Z</time>
      </trkpt>
      <trkpt lat="46.68644" lon="-1.92596">
        <ele>10</ele>
        <time>2018-01-13T01:09:58Z</time>
      </trkpt>
      <trkpt lat="46.68635" lon="-1.92588">
        <ele>10</ele>
        <time>2018-01-13T01:10:58Z</time>
      </trkpt>
      <trkpt lat="46.68634" lon="-1.92586">
        <ele>10</ele>
        <time>2018-01-13T01:11:58Z</time>
      </trkpt>
      <trkpt lat="46.68629" lon="-1.9258">
        <ele>10</ele>
        <time>2018-01-13T01:12:58Z</time>
      </trkpt>
      <trkpt lat="46.68625" lon="-1.92575">
        <ele>10</ele>
        <time>2018-01-13T01:13:58Z</time>
      </trkpt>
      <trkpt lat="46.68616" lon="-1.92563">
        <ele>10</ele>
        <time>2018-01-13T01:14:58Z</time>
      </trkpt>
      <trkpt lat="46.68605" lon="-1.92548">
        <ele>10</ele>
        <time>2018-01-13T01:15:58Z</time>
      </trkpt>
      <trkpt lat="46.68594" lon="-1.92534">
        <ele>10</ele>
        <time>2018-01-13T01:16:58Z</time>
      </trkpt>
      <trkpt lat="46.68589" lon="-1.92528">
        <ele>10</ele>
        <time>2018-01-13T01:17:58Z</time>
      </trkpt>
      <trkpt lat="46.68567" lon="-1.925">
        <ele>10</ele>
        <time>2018-01-13T01:18:58Z</time>
      </trkpt>
      <trkpt lat="46.68549" lon="-1.92476">
        <ele>10</ele>
        <time>2018-01-13T01:19:58Z</time>
      </trkpt>
      <trkpt lat="46.68538" lon="-1.92464">
        <ele>10</ele>
        <time>2018-01-13T01:20:58Z</time>
      </trkpt>
      <trkpt lat="46.68532" lon="-1.92456">
        <ele>10</ele>
        <time>2018-01-13T01:21:58Z</time>
      </trkpt>
      <trkpt lat="46.68528" lon="-1.9245">
        <ele>10</ele>
        <time>2018-01-13T01:22:58Z</time>
      </trkpt>
      <trkpt lat="46.68514" lon="-1.92436">
        <ele>10</ele>
        <time>2018-01-13T01:23:58Z</time>
      </trkpt>
      <trkpt lat="46.68505" lon="-1.92428">
        <ele>10</ele>
        <time>2018-01-13T01:24:58Z</time>
      </trkpt>
      <trkpt lat="46.68495" lon="-1.9242">
        <ele>10</ele>
        <time>2018-01-13T01:25:58Z</time>
      </trkpt>
      <trkpt lat="46.68487" lon="-1.92415">
        <ele>10</ele>
        <time>2018-01-13T01:26:58Z</time>
      </trkpt>
      <trkpt lat="46.68481" lon="-1.92411">
        <ele>10</ele>
        <time>2018-01-13T01:27:58Z</time>
      </trkpt>
      <trkpt lat="46.68472" lon="-1.92408">
        <ele>10</ele>
        <time>2018-01-13T01:28:58Z</time>
      </trkpt>
      <trkpt lat="46.68463" lon="-1.92406">
        <ele>10</ele>
        <time>2018-01-13T01:29:58Z</time>
      </trkpt>
      <trkpt lat="46.68454" lon="-1.92404">
        <ele>10</ele>
        <time>2018-01-13T01:30:58Z</time>
      </trkpt>
      <trkpt lat="46.68447" lon="-1.92403">
        <ele>10</ele>
        <time>2018-01-13T01:31:58Z</time>
      </trkpt>
      <trkpt lat="46.68435" lon="-1.924">
        <ele>10</ele>
        <time>2018-01-13T01:32:58Z</time>
      </trkpt>
      <trkpt lat="46.68426" lon="-1.92396">
        <ele>10</ele>
        <time>2018-01-13T01:33:58Z</time>
      </trkpt>
      <trkpt lat="46.68413" lon="-1.92388">
        <ele>10</ele>
        <time>2018-01-13T01:34:58Z</time>
      </trkpt>
      <trkpt lat="46.68403" lon="-1.9238">
        <ele>10</ele>
        <time>2018-01-13T01:35:58Z</time>
      </trkpt>
      <trkpt lat="46.68389" lon="-1.92363">
        <ele>10</ele>
        <time>2018-01-13T01:36:58Z</time>
      </trkpt>
      <trkpt lat="46.6838" lon="-1.92351">
        <ele>10</ele>
        <time>2018-01-13T01:37:58Z</time>
      </trkpt>
      <trkpt lat="46.68377" lon="-1.92346">
        <ele>10</ele>
        <time>2018-01-13T01:38:58Z</time>
      </trkpt>
      <trkpt lat="46.6837" lon="-1.92334">
        <ele>10</ele>
        <time>2018-01-13T01:39:58Z</time>
      </trkpt>
      <trkpt lat="46.68355" lon="-1.92305">
        <ele>10</ele>
        <time>2018-01-13T01:40:58Z</time>
      </trkpt>
      <trkpt lat="46.6833" lon="-1.92261">
        <ele>9</ele>
        <time>2018-01-13T01:41:58Z</time>
      </trkpt>
      <trkpt lat="46.6832" lon="-1.92245">
        <ele>9</ele>
        <time>2018-01-13T01:42:58Z</time>
      </trkpt>
      <trkpt lat="46.68306" lon="-1.92219">
        <ele>9</ele>
        <time>2018-01-13T01:43:58Z</time>
      </trkpt>
      <trkpt lat="46.68291" lon="-1.92193">
        <ele>8</ele>
        <time>2018-01-13T01:44:58Z</time>
      </trkpt>
      <trkpt lat="46.68286" lon="-1.92186">
        <ele>8</ele>
        <time>2018-01-13T01:45:58Z</time>
      </trkpt>
      <trkpt lat="46.68277" lon="-1.92172">
        <ele>8</ele>
        <time>2018-01-13T01:46:58Z</time>
      </trkpt>
      <trkpt lat="46.68267" lon="-1.92157">
        <ele>7</ele>
        <time>2018-01-13T01:47:58Z</time>
      </trkpt>
      <trkpt lat="46.68255" lon="-1.9214">
        <ele>7</ele>
        <time>2018-01-13T01:48:58Z</time>
      </trkpt>
      <trkpt lat="46.6823" lon="-1.92107">
        <ele>7</ele>
        <time>2018-01-13T01:49:58Z</time>
      </trkpt>
      <trkpt lat="46.68227" lon="-1.92103">
        <ele>7</ele>
        <time>2018-01-13T01:50:58Z</time>
      </trkpt>
      <trkpt lat="46.68224" lon="-1.92098">
        <ele>7</ele>
        <time>2018-01-13T01:51:58Z</time>
      </trkpt>
      <trkpt lat="46.68224" lon="-1.92097">
        <ele>7</ele>
        <time>2018-01-13T01:52:58Z</time>
      </trkpt>
      <trkpt lat="46.6822" lon="-1.92091">
        <ele>7</ele>
        <time>2018-01-13T01:53:58Z</time>
      </trkpt>
      <trkpt lat="46.68208" lon="-1.92073">
        <ele>7</ele>
        <time>2018-01-13T01:54:58Z</time>
      </trkpt>
      <trkpt lat="46.68198" lon="-1.92057">
        <ele>7</ele>
        <time>2018-01-13T01:55:58Z</time>
      </trkpt>
      <trkpt lat="46.68174" lon="-1.92025">
        <ele>8</ele>
        <time>2018-01-13T01:56:58Z</time>
      </trkpt>
      <trkpt lat="46.68158" lon="-1.92003">
        <ele>8</ele>
        <time>2018-01-13T01:57:58Z</time>
      </trkpt>
      <trkpt lat="46.68115" lon="-1.91941">
        <ele>8</ele>
        <time>2018-01-13T01:58:58Z</time>
      </trkpt>
      <trkpt lat="46.68083" lon="-1.91897">
        <ele>8</ele>
        <time>2018-01-13T01:59:58Z</time>
      </trkpt>
      <trkpt lat="46.68057" lon="-1.91858">
        <ele>8</ele>
        <time>2018-01-13T02:00:58Z</time>
      </trkpt>
      <trkpt lat="46.68041" lon="-1.91836">
        <ele>8</ele>
        <time>2018-01-13T02:01:58Z</time>
      </trkpt>
      <trkpt lat="46.68033" lon="-1.91825">
        <ele>8</ele>
        <time>2018-01-13T02:02:58Z</time>
      </trkpt>
      <trkpt lat="46.68022" lon="-1.91808">
        <ele>8</ele>
        <time>2018-01-13T02:03:58Z</time>
      </trkpt>
      <trkpt lat="46.68" lon="-1.91776">
        <ele>8</ele>
        <time>2018-01-13T02:04:58Z</time>
      </trkpt>
      <trkpt lat="46.67972" lon="-1.91737">
        <ele>7</ele>
        <time>2018-01-13T02:05:58Z</time>
      </trkpt>
      <trkpt lat="46.67947" lon="-1.91703">
        <ele>7</ele>
        <time>2018-01-13T02:06:58Z</time>
      </trkpt>
      <trkpt lat="46.67928" lon="-1.91675">
        <ele>7</ele>
        <time>2018-01-13T02:07:58Z</time>
      </trkpt>
      <trkpt lat="46.67898" lon="-1.91633">
        <ele>7</ele>
        <time>2018-01-13T02:08:58Z</time>
      </trkpt>
      <trkpt lat="46.67883" lon="-1.91611">
        <ele>6</ele>
        <time>2018-01-13T02:09:58Z</time>
      </trkpt>
      <trkpt lat="46.67864" lon="-1.91583">
        <ele>6</ele>
        <time>2018-01-13T02:10:58Z</time>
      </trkpt>
      <trkpt lat="46.6784" lon="-1.91552">
        <ele>6</ele>
        <time>2018-01-13T02:11:58Z</time>
      </trkpt>
      <trkpt lat="46.67831" lon="-1.91538">
        <ele>6</ele>
        <time>2018-01-13T02:12:58Z</time>
      </trkpt>
      <trkpt lat="46.67783" lon="-1.91471">
        <ele>6</ele>
        <time>2018-01-13T02:13:58Z</time>
      </trkpt>
      <trkpt lat="46.67747" lon="-1.9142">
        <ele>6</ele>
        <time>2018-01-13T02:14:58Z</time>
      </trkpt>
      <trkpt lat="46.67743" lon="-1.91414">
        <ele>6</ele>
        <time>2018-01-13T02:15:58Z</time>
      </trkpt>
      <trkpt lat="46.67704" lon="-1.91358">
        <ele>5</ele>
        <time>2018-01-13T02:16:58Z</time>
      </trkpt>
      <trkpt lat="46.67662" lon="-1.91298">
        <ele>5</ele>
        <time>2018-01-13T02:17:58Z</time>
      </trkpt>
      <trkpt lat="46.67634" lon="-1.91261">
        <ele>5</ele>
        <time>2018-01-13T02:18:58Z</time>
      </trkpt>
      <trkpt lat="46.67612" lon="-1.91228">
        <ele>5</ele>
        <time>2018-01-13T02:19:58Z</time>
      </trkpt>
      <trkpt lat="46.67587" lon="-1.91194">
        <ele>6</ele>
        <time>2018-01-13T02:20:58Z</time>
      </trkpt>
      <trkpt lat="46.67578" lon="-1.91181">
        <ele>6</ele>
        <time>2018-01-13T02:21:58Z</time>
      </trkpt>
      <trkpt lat="46.67546" lon="-1.91137">
        <ele>5</ele>
        <time>2018-01-13T02:22:58Z</time>
      </trkpt>
      <trkpt lat="46.67518" lon="-1.91097">
        <ele>5</ele>
        <time>2018-01-13T02:23:58Z</time>
      </trkpt>
      <trkpt lat="46.6749" lon="-1.9106">
        <ele>5</ele>
        <time>2018-01-13T02:24:58Z</time>
      </trkpt>
      <trkpt lat="46.67469" lon="-1.9103">
        <ele>4</ele>
        <time>2018-01-13T02:25:58Z</time>
      </trkpt>
      <trkpt lat="46.67456" lon="-1.9101">
        <ele>4</ele>
        <time>2018-01-13T02:26:58Z</time>
      </trkpt>
      <trkpt lat="46.67452" lon="-1.91005">
        <ele>4</ele>
        <time>2018-01-13T02:27:58Z</time>
      </trkpt>
      <trkpt lat="46.67446" lon="-1.90996">
        <ele>4</ele>
        <time>2018-01-13T02:28:58Z</time>
      </trkpt>
      <trkpt lat="46.6744" lon="-1.90984">
        <ele>4</ele>
        <time>2018-01-13T02:29:58Z</time>
      </trkpt>
      <trkpt lat="46.67435" lon="-1.90971">
        <ele>3</ele>
        <time>2018-01-13T02:30:58Z</time>
      </trkpt>
      <trkpt lat="46.67435" lon="-1.90971">
        <ele>3</ele>
        <time>2018-01-13T02:31:58Z</time>
      </trkpt>
      <trkpt lat="46.67432" lon="-1.90969">
        <ele>3</ele>
        <time>2018-01-13T02:32:58Z</time>
      </trkpt>
      <trkpt lat="46.6743" lon="-1.90968">
        <ele>3</ele>
        <time>2018-01-13T02:33:58Z</time>
      </trkpt>
      <trkpt lat="46.67429" lon="-1.90967">
        <ele>3</ele>
        <time>2018-01-13T02:34:58Z</time>
      </trkpt>
      <trkpt lat="46.67427" lon="-1.90965">
        <ele>3</ele>
        <time>2018-01-13T02:35:58Z</time>
      </trkpt>
      <trkpt lat="46.67426" lon="-1.90964">
        <ele>3</ele>
        <time>2018-01-13T02:36:58Z</time>
      </trkpt>
      <trkpt lat="46.67424" lon="-1.90962">
        <ele>3</ele>
        <time>2018-01-13T02:37:58Z</time>
      </trkpt>
      <trkpt lat="46.67423" lon="-1.9096">
        <ele>3</ele>
        <time>2018-01-13T02:38:58Z</time>
      </trkpt>
      <trkpt lat="46.67422" lon="-1.90958">
        <ele>3</ele>
        <time>2018-01-13T02:39:58Z</time>
      </trkpt>
      <trkpt lat="46.67421" lon="-1.90956">
        <ele>3</ele>
        <time>2018-01-13T02:40:58Z</time>
      </trkpt>
      <trkpt lat="46.6742" lon="-1.90953">
        <ele>3</ele>
        <time>2018-01-13T02:41:58Z</time>
      </trkpt>
      <trkpt lat="46.6742" lon="-1.90951">
        <ele>3</ele>
        <time>2018-01-13T02:42:58Z</time>
      </trkpt>
      <trkpt lat="46.6742" lon="-1.9095">
        <ele>3</ele>
        <time>2018-01-13T02:43:58Z</time>
      </trkpt>
      <trkpt lat="46.67419" lon="-1.9095">
        <ele>3</ele>
        <time>2018-01-13T02:44:58Z</time>
      </trkpt>
      <trkpt lat="46.67419" lon="-1.90949">
        <ele>3</ele>
        <time>2018-01-13T02:45:58Z</time>
      </trkpt>
      <trkpt lat="46.67419" lon="-1.90948">
        <ele>3</ele>
        <time>2018-01-13T02:46:58Z</time>
      </trkpt>
      <trkpt lat="46.67419" lon="-1.90947">
        <ele>3</ele>
        <time>2018-01-13T02:47:58Z</time>
      </trkpt>
      <trkpt lat="46.67419" lon="-1.90946">
        <ele>3</ele>
        <time>2018-01-13T02:48:58Z</time>
      </trkpt>
      <trkpt lat="46.67414" lon="-1.90938">
        <ele>3</ele>
        <time>2018-01-13T02:49:58Z</time>
      </trkpt>
      <trkpt lat="46.67409" lon="-1.90932">
        <ele>3</ele>
        <time>2018-01-13T02:50:58Z</time>
      </trkpt>
      <trkpt lat="46.67407" lon="-1.90929">
        <ele>3</ele>
        <time>2018-01-13T02:51:58Z</time>
      </trkpt>
      <trkpt lat="46.67405" lon="-1.90925">
        <ele>3</ele>
        <time>2018-01-13T02:52:58Z</time>
      </trkpt>
      <trkpt lat="46.67398" lon="-1.90917">
        <ele>3</ele>
        <time>2018-01-13T02:53:58Z</time>
      </trkpt>
      <trkpt lat="46.67384" lon="-1.90901">
        <ele>3</ele>
        <time>2018-01-13T02:54:58Z</time>
      </trkpt>
      <trkpt lat="46.67344" lon="-1.90854">
        <ele>2</ele>
        <time>2018-01-13T02:55:58Z</time>
      </trkpt>
      <trkpt lat="46.67339" lon="-1.90844">
        <ele>2</ele>
        <time>2018-01-13T02:56:58Z</time>
      </trkpt>
      <trkpt lat="46.67336" lon="-1.9084">
        <ele>2</ele>
        <time>2018-01-13T02:57:58Z</time>
      </trkpt>
      <trkpt lat="46.67333" lon="-1.90837">
        <ele>2</ele>
        <time>2018-01-13T02:58:58Z</time>
      </trkpt>
      <trkpt lat="46.6733" lon="-1.90833">
        <ele>2</ele>
        <time>2018-01-13T02:59:58Z</time>
      </trkpt>
      <trkpt lat="46.67327" lon="-1.90829">
        <ele>2</ele>
        <time>2018-01-13T03:00:58Z</time>
      </trkpt>
      <trkpt lat="46.67323" lon="-1.90824">
        <ele>2</ele>
        <time>2018-01-13T03:01:58Z</time>
      </trkpt>
      <trkpt lat="46.6732" lon="-1.90819">
        <ele>2</ele>
        <time>2018-01-13T03:02:58Z</time>
      </trkpt>
      <trkpt lat="46.67313" lon="-1.9081">
        <ele>2</ele>
        <time>2018-01-13T03:03:58Z</time>
      </trkpt>
      <trkpt lat="46.67301" lon="-1.90794">
        <ele>2</ele>
        <time>2018-01-13T03:04:58Z</time>
      </trkpt>
      <trkpt lat="46.67282" lon="-1.90767">
        <ele>3</ele>
        <time>2018-01-13T03:05:58Z</time>
      </trkpt>
      <trkpt lat="46.67255" lon="-1.90729">
        <ele>3</ele>
        <time>2018-01-13T03:06:58Z</time>
      </trkpt>
      <trkpt lat="46.67226" lon="-1.90688">
        <ele>4</ele>
        <time>2018-01-13T03:07:58Z</time>
      </trkpt>
      <trkpt lat="46.67205" lon="-1.90658">
        <ele>4</ele>
        <time>2018-01-13T03:08:58Z</time>
      </trkpt>
      <trkpt lat="46.67166" lon="-1.90604">
        <ele>5</ele>
        <time>2018-01-13T03:09:58Z</time>
      </trkpt>
      <trkpt lat="46.67105" lon="-1.90518">
        <ele>5</ele>
        <time>2018-01-13T03:10:58Z</time>
      </trkpt>
      <trkpt lat="46.67097" lon="-1.90511">
        <ele>5</ele>
        <time>2018-01-13T03:11:58Z</time>
      </trkpt>
      <trkpt lat="46.67055" lon="-1.90456">
        <ele>5</ele>
        <time>2018-01-13T03:12:58Z</time>
      </trkpt>
      <trkpt lat="46.67046" lon="-1.90444">
        <ele>5</ele>
        <time>2018-01-13T03:13:58Z</time>
      </trkpt>
      <trkpt lat="46.67037" lon="-1.9043">
        <ele>5</ele>
        <time>2018-01-13T03:14:58Z</time>
      </trkpt>
      <trkpt lat="46.67034" lon="-1.90427">
        <ele>5</ele>
        <time>2018-01-13T03:15:58Z</time>
      </trkpt>
      <trkpt lat="46.67019" lon="-1.90408">
        <ele>5</ele>
        <time>2018-01-13T03:16:58Z</time>
      </trkpt>
      <trkpt lat="46.67018" lon="-1.90407">
        <ele>5</ele>
        <time>2018-01-13T03:17:58Z</time>
      </trkpt>
      <trkpt lat="46.67017" lon="-1.90406">
        <ele>5</ele>
        <time>2018-01-13T03:18:58Z</time>
      </trkpt>
      <trkpt lat="46.67016" lon="-1.90404">
        <ele>5</ele>
        <time>2018-01-13T03:19:58Z</time>
      </trkpt>
      <trkpt lat="46.67014" lon="-1.90402">
        <ele>5</ele>
        <time>2018-01-13T03:20:58Z</time>
      </trkpt>
      <trkpt lat="46.67012" lon="-1.90399">
        <ele>5</ele>
        <time>2018-01-13T03:21:58Z</time>
      </trkpt>
      <trkpt lat="46.66999" lon="-1.9038">
        <ele>5</ele>
        <time>2018-01-13T03:22:58Z</time>
      </trkpt>
      <trkpt lat="46.66997" lon="-1.90377">
        <ele>5</ele>
        <time>2018-01-13T03:23:58Z</time>
      </trkpt>
      <trkpt lat="46.66995" lon="-1.90374">
        <ele>5</ele>
        <time>2018-01-13T03:24:58Z</time>
      </trkpt>
      <trkpt lat="46.66993" lon="-1.90372">
        <ele>5</ele>
        <time>2018-01-13T03:25:58Z</time>
      </trkpt>
      <trkpt lat="46.66982" lon="-1.90356">
        <ele>5</ele>
        <time>2018-01-13T03:26:58Z</time>
      </trkpt>
      <trkpt lat="46.66982" lon="-1.90356">
        <ele>5</ele>
        <time>2018-01-13T03:27:58Z</time>
      </trkpt>
      <trkpt lat="46.66981" lon="-1.90356">
        <ele>5</ele>
        <time>2018-01-13T03:28:58Z</time>
      </trkpt>
      <trkpt lat="46.66979" lon="-1.90355">
        <ele>5</ele>
        <time>2018-01-13T03:29:58Z</time>
      </trkpt>
      <trkpt lat="46.66978" lon="-1.90355">
        <ele>5</ele>
        <time>2018-01-13T03:30:58Z</time>
      </trkpt>
      <trkpt lat="46.66977" lon="-1.90354">
        <ele>5</ele>
        <time>2018-01-13T03:31:58Z</time>
      </trkpt>
      <trkpt lat="46.66976" lon="-1.90353">
        <ele>5</ele>
        <time>2018-01-13T03:32:58Z</time>
      </trkpt>
      <trkpt lat="46.66975" lon="-1.90352">
        <ele>5</ele>
        <time>2018-01-13T03:33:58Z</time>
      </trkpt>
      <trkpt lat="46.66974" lon="-1.90351">
        <ele>5</ele>
        <time>2018-01-13T03:34:58Z</time>
      </trkpt>
      <trkpt lat="46.66973" lon="-1.9035">
        <ele>5</ele>
        <time>2018-01-13T03:35:58Z</time>
      </trkpt>
      <trkpt lat="46.66972" lon="-1.90349">
        <ele>5</ele>
        <time>2018-01-13T03:36:58Z</time>
      </trkpt>
      <trkpt lat="46.66971" lon="-1.90348">
        <ele>5</ele>
        <time>2018-01-13T03:37:58Z</time>
      </trkpt>
      <trkpt lat="46.6697" lon="-1.90346">
        <ele>5</ele>
        <time>2018-01-13T03:38:58Z</time>
      </trkpt>
      <trkpt lat="46.66969" lon="-1.90345">
        <ele>5</ele>
        <time>2018-01-13T03:39:58Z</time>
      </trkpt>
      <trkpt lat="46.66969" lon="-1.90343">
        <ele>5</ele>
        <time>2018-01-13T03:40:58Z</time>
      </trkpt>
      <trkpt lat="46.66968" lon="-1.90341">
        <ele>5</ele>
        <time>2018-01-13T03:41:58Z</time>
      </trkpt>
      <trkpt lat="46.66968" lon="-1.9034">
        <ele>5</ele>
        <time>2018-01-13T03:42:58Z</time>
      </trkpt>
      <trkpt lat="46.66967" lon="-1.90338">
        <ele>5</ele>
        <time>2018-01-13T03:43:58Z</time>
      </trkpt>
      <trkpt lat="46.66967" lon="-1.90335">
        <ele>5</ele>
        <time>2018-01-13T03:44:58Z</time>
      </trkpt>
      <trkpt lat="46.66967" lon="-1.90331">
        <ele>5</ele>
        <time>2018-01-13T03:45:58Z</time>
      </trkpt>
      <trkpt lat="46.66967" lon="-1.9033">
        <ele>5</ele>
        <time>2018-01-13T03:46:58Z</time>
      </trkpt>
      <trkpt lat="46.66967" lon="-1.90328">
        <ele>5</ele>
        <time>2018-01-13T03:47:58Z</time>
      </trkpt>
      <trkpt lat="46.66967" lon="-1.90326">
        <ele>5</ele>
        <time>2018-01-13T03:48:58Z</time>
      </trkpt>
      <trkpt lat="46.66968" lon="-1.90324">
        <ele>5</ele>
        <time>2018-01-13T03:49:58Z</time>
      </trkpt>
      <trkpt lat="46.66968" lon="-1.90323">
        <ele>5</ele>
        <time>2018-01-13T03:50:58Z</time>
      </trkpt>
      <trkpt lat="46.66968" lon="-1.90321">
        <ele>5</ele>
        <time>2018-01-13T03:51:58Z</time>
      </trkpt>
      <trkpt lat="46.66969" lon="-1.90319">
        <ele>5</ele>
        <time>2018-01-13T03:52:58Z</time>
      </trkpt>
      <trkpt lat="46.6697" lon="-1.90318">
        <ele>5</ele>
        <time>2018-01-13T03:53:58Z</time>
      </trkpt>
      <trkpt lat="46.6697" lon="-1.90316">
        <ele>5</ele>
        <time>2018-01-13T03:54:58Z</time>
      </trkpt>
      <trkpt lat="46.66971" lon="-1.90315">
        <ele>5</ele>
        <time>2018-01-13T03:55:58Z</time>
      </trkpt>
      <trkpt lat="46.66972" lon="-1.90314">
        <ele>5</ele>
        <time>2018-01-13T03:56:58Z</time>
      </trkpt>
      <trkpt lat="46.66973" lon="-1.90313">
        <ele>5</ele>
        <time>2018-01-13T03:57:58Z</time>
      </trkpt>
      <trkpt lat="46.66974" lon="-1.90312">
        <ele>5</ele>
        <time>2018-01-13T03:58:58Z</time>
      </trkpt>
      <trkpt lat="46.66975" lon="-1.90311">
        <ele>6</ele>
        <time>2018-01-13T03:59:58Z</time>
      </trkpt>
      <trkpt lat="46.66976" lon="-1.9031">
        <ele>6</ele>
        <time>2018-01-13T04:00:58Z</time>
      </trkpt>
      <trkpt lat="46.66976" lon="-1.90309">
        <ele>6</ele>
        <time>2018-01-13T04:01:58Z</time>
      </trkpt>
      <trkpt lat="46.66977" lon="-1.90309">
        <ele>6</ele>
        <time>2018-01-13T04:02:58Z</time>
      </trkpt>
      <trkpt lat="46.66978" lon="-1.90309">
        <ele>6</ele>
        <time>2018-01-13T04:03:58Z</time>
      </trkpt>
      <trkpt lat="46.66978" lon="-1.90308">
        <ele>6</ele>
        <time>2018-01-13T04:04:58Z</time>
      </trkpt>
      <trkpt lat="46.66981" lon="-1.903">
        <ele>6</ele>
        <time>2018-01-13T04:05:58Z</time>
      </trkpt>
      <trkpt lat="46.66985" lon="-1.90285">
        <ele>6</ele>
        <time>2018-01-13T04:06:58Z</time>
      </trkpt>
      <trkpt lat="46.66988" lon="-1.90274">
        <ele>6</ele>
        <time>2018-01-13T04:07:58Z</time>
      </trkpt>
      <trkpt lat="46.6699" lon="-1.90259">
        <ele>7</ele>
        <time>2018-01-13T04:08:58Z</time>
      </trkpt>
      <trkpt lat="46.66985" lon="-1.90224">
        <ele>7</ele>
        <time>2018-01-13T04:09:58Z</time>
      </trkpt>
      <trkpt lat="46.66981" lon="-1.90197">
        <ele>8</ele>
        <time>2018-01-13T04:10:58Z</time>
      </trkpt>
      <trkpt lat="46.66977" lon="-1.90166">
        <ele>8</ele>
        <time>2018-01-13T04:11:58Z</time>
      </trkpt>
      <trkpt lat="46.66972" lon="-1.9013">
        <ele>9</ele>
        <time>2018-01-13T04:12:58Z</time>
      </trkpt>
      <trkpt lat="46.66968" lon="-1.90096">
        <ele>9</ele>
        <time>2018-01-13T04:13:58Z</time>
      </trkpt>
      <trkpt lat="46.66964" lon="-1.9006">
        <ele>10</ele>
        <time>2018-01-13T04:14:58Z</time>
      </trkpt>
      <trkpt lat="46.66963" lon="-1.90055">
        <ele>10</ele>
        <time>2018-01-13T04:15:58Z</time>
      </trkpt>
      <trkpt lat="46.6696" lon="-1.90028">
        <ele>10</ele>
        <time>2018-01-13T04:16:58Z</time>
      </trkpt>
      <trkpt lat="46.66955" lon="-1.89998">
        <ele>10</ele>
        <time>2018-01-13T04:17:58Z</time>
      </trkpt>
      <trkpt lat="46.66951" lon="-1.8996">
        <ele>10</ele>
        <time>2018-01-13T04:18:58Z</time>
      </trkpt>
      <trkpt lat="46.66949" lon="-1.89948">
        <ele>11</ele>
        <time>2018-01-13T04:19:58Z</time>
      </trkpt>
      <trkpt lat="46.66944" lon="-1.89914">
        <ele>11</ele>
        <time>2018-01-13T04:20:58Z</time>
      </trkpt>
      <trkpt lat="46.6694" lon="-1.89885">
        <ele>11</ele>
        <time>2018-01-13T04:21:58Z</time>
      </trkpt>
      <trkpt lat="46.66938" lon="-1.89867">
        <ele>11</ele>
        <time>2018-01-13T04:22:58Z</time>
      </trkpt>
      <trkpt lat="46.66932" lon="-1.89826">
        <ele>11</ele>
        <time>2018-01-13T04:23:58Z</time>
      </trkpt>
      <trkpt lat="46.66931" lon="-1.8982">
        <ele>11</ele>
        <time>2018-01-13T04:24:58Z</time>
      </trkpt>
      <trkpt lat="46.66928" lon="-1.89797">
        <ele>11</ele>
        <time>2018-01-13T04:25:58Z</time>
      </trkpt>
      <trkpt lat="46.66928" lon="-1.89795">
        <ele>11</ele>
        <time>2018-01-13T04:26:58Z</time>
      </trkpt>
      <trkpt lat="46.66925" lon="-1.89768">
        <ele>11</ele>
        <time>2018-01-13T04:27:58Z</time>
      </trkpt>
      <trkpt lat="46.66922" lon="-1.89752">
        <ele>11</ele>
        <time>2018-01-13T04:28:58Z</time>
      </trkpt>
      <trkpt lat="46.6692" lon="-1.89738">
        <ele>11</ele>
        <time>2018-01-13T04:29:58Z</time>
      </trkpt>
      <trkpt lat="46.66917" lon="-1.89712">
        <ele>11</ele>
        <time>2018-01-13T04:30:58Z</time>
      </trkpt>
      <trkpt lat="46.66915" lon="-1.89697">
        <ele>12</ele>
        <time>2018-01-13T04:31:58Z</time>
      </trkpt>
      <trkpt lat="46.66911" lon="-1.89666">
        <ele>12</ele>
        <time>2018-01-13T04:32:58Z</time>
      </trkpt>
      <trkpt lat="46.66911" lon="-1.89664">
        <ele>12</ele>
        <time>2018-01-13T04:33:58Z</time>
      </trkpt>
      <trkpt lat="46.66904" lon="-1.89615">
        <ele>12</ele>
        <time>2018-01-13T04:34:58Z</time>
      </trkpt>
      <trkpt lat="46.66898" lon="-1.89575">
        <ele>13</ele>
        <time>2018-01-13T04:35:58Z</time>
      </trkpt>
      <trkpt lat="46.66897" lon="-1.89564">
        <ele>13</ele>
        <time>2018-01-13T04:36:58Z</time>
      </trkpt>
      <trkpt lat="46.66896" lon="-1.89555">
        <ele>12</ele>
        <time>2018-01-13T04:37:58Z</time>
      </trkpt>
      <trkpt lat="46.66894" lon="-1.89545">
        <ele>12</ele>
        <time>2018-01-13T04:38:58Z</time>
      </trkpt>
      <trkpt lat="46.66891" lon="-1.89517">
        <ele>12</ele>
        <time>2018-01-13T04:39:58Z</time>
      </trkpt>
      <trkpt lat="46.6689" lon="-1.89515">
        <ele>12</ele>
        <time>2018-01-13T04:40:58Z</time>
      </trkpt>
      <trkpt lat="46.66888" lon="-1.89499">
        <ele>12</ele>
        <time>2018-01-13T04:41:58Z</time>
      </trkpt>
      <trkpt lat="46.66887" lon="-1.89492">
        <ele>12</ele>
        <time>2018-01-13T04:42:58Z</time>
      </trkpt>
      <trkpt lat="46.66886" lon="-1.89484">
        <ele>12</ele>
        <time>2018-01-13T04:43:58Z</time>
      </trkpt>
      <trkpt lat="46.66886" lon="-1.89475">
        <ele>12</ele>
        <time>2018-01-13T04:44:58Z</time>
      </trkpt>
      <trkpt lat="46.66885" lon="-1.89467">
        <ele>12</ele>
        <time>2018-01-13T04:45:58Z</time>
      </trkpt>
      <trkpt lat="46.66885" lon="-1.8946">
        <ele>12</ele>
        <time>2018-01-13T04:46:58Z</time>
      </trkpt>
      <trkpt lat="46.66884" lon="-1.89451">
        <ele>12</ele>
        <time>2018-01-13T04:47:58Z</time>
      </trkpt>
      <trkpt lat="46.66884" lon="-1.89439">
        <ele>12</ele>
        <time>2018-01-13T04:48:58Z</time>
      </trkpt>
      <trkpt lat="46.66884" lon="-1.89421">
        <ele>12</ele>
        <time>2018-01-13T04:49:58Z</time>
      </trkpt>
      <trkpt lat="46.66885" lon="-1.89403">
        <ele>12</ele>
        <time>2018-01-13T04:50:58Z</time>
      </trkpt>
      <trkpt lat="46.66887" lon="-1.89385">
        <ele>12</ele>
        <time>2018-01-13T04:51:58Z</time>
      </trkpt>
      <trkpt lat="46.66889" lon="-1.89376">
        <ele>12</ele>
        <time>2018-01-13T04:52:58Z</time>
      </trkpt>
      <trkpt lat="46.66892" lon="-1.89362">
        <ele>12</ele>
        <time>2018-01-13T04:53:58Z</time>
      </trkpt>
      <trkpt lat="46.66896" lon="-1.89347">
        <ele>11</ele>
        <time>2018-01-13T04:54:58Z</time>
      </trkpt>
      <trkpt lat="46.66899" lon="-1.89335">
        <ele>11</ele>
        <time>2018-01-13T04:55:58Z</time>
      </trkpt>
      <trkpt lat="46.66901" lon="-1.89329">
        <ele>11</ele>
        <time>2018-01-13T04:56:58Z</time>
      </trkpt>
      <trkpt lat="46.66906" lon="-1.89314">
        <ele>11</ele>
        <time>2018-01-13T04:57:58Z</time>
      </trkpt>
      <trkpt lat="46.66909" lon="-1.89305">
        <ele>11</ele>
        <time>2018-01-13T04:58:58Z</time>
      </trkpt>
      <trkpt lat="46.66914" lon="-1.89286">
        <ele>11</ele>
        <time>2018-01-13T04:59:58Z</time>
      </trkpt>
      <trkpt lat="46.6691" lon="-1.89283">
        <ele>11</ele>
        <time>2018-01-13T05:00:58Z</time>
      </trkpt>
      <trkpt lat="46.66909" lon="-1.89278">
        <ele>11</ele>
        <time>2018-01-13T05:01:58Z</time>
      </trkpt>
      <trkpt lat="46.66909" lon="-1.89272">
        <ele>11</ele>
        <time>2018-01-13T05:02:58Z</time>
      </trkpt>
      <trkpt lat="46.66911" lon="-1.89267">
        <ele>11</ele>
        <time>2018-01-13T05:03:58Z</time>
      </trkpt>
      <trkpt lat="46.66914" lon="-1.89264">
        <ele>11</ele>
        <time>2018-01-13T05:04:58Z</time>
      </trkpt>
      <trkpt lat="46.66917" lon="-1.89263">
        <ele>11</ele>
        <time>2018-01-13T05:05:58Z</time>
      </trkpt>
      <trkpt lat="46.66919" lon="-1.89263">
        <ele>11</ele>
        <time>2018-01-13T05:06:58Z</time>
      </trkpt>
      <trkpt lat="46.66922" lon="-1.89264">
        <ele>11</ele>
        <time>2018-01-13T05:07:58Z</time>
      </trkpt>
      <trkpt lat="46.66926" lon="-1.89253">
        <ele>11</ele>
        <time>2018-01-13T05:08:58Z</time>
      </trkpt>
      <trkpt lat="46.66929" lon="-1.89245">
        <ele>11</ele>
        <time>2018-01-13T05:09:58Z</time>
      </trkpt>
      <trkpt lat="46.66941" lon="-1.89208">
        <ele>10</ele>
        <time>2018-01-13T05:10:58Z</time>
      </trkpt>
      <trkpt lat="46.66945" lon="-1.89198">
        <ele>10</ele>
        <time>2018-01-13T05:11:58Z</time>
      </trkpt>
      <trkpt lat="46.66954" lon="-1.89171">
        <ele>10</ele>
        <time>2018-01-13T05:12:58Z</time>
      </trkpt>
      <trkpt lat="46.66961" lon="-1.89149">
        <ele>10</ele>
        <time>2018-01-13T05:13:58Z</time>
      </trkpt>
      <trkpt lat="46.66969" lon="-1.89126">
        <ele>10</ele>
        <time>2018-01-13T05:14:58Z</time>
      </trkpt>
      <trkpt lat="46.66982" lon="-1.89082">
        <ele>9</ele>
        <time>2018-01-13T05:15:58Z</time>
      </trkpt>
      <trkpt lat="46.66985" lon="-1.89069">
        <ele>9</ele>
        <time>2018-01-13T05:16:58Z</time>
      </trkpt>
      <trkpt lat="46.66988" lon="-1.89056">
        <ele>8</ele>
        <time>2018-01-13T05:17:58Z</time>
      </trkpt>
      <trkpt lat="46.6699" lon="-1.89048">
        <ele>8</ele>
        <time>2018-01-13T05:18:58Z</time>
      </trkpt>
      <trkpt lat="46.66991" lon="-1.89041">
        <ele>8</ele>
        <time>2018-01-13T05:19:58Z</time>
      </trkpt>
      <trkpt lat="46.66993" lon="-1.89033">
        <ele>8</ele>
        <time>2018-01-13T05:20:58Z</time>
      </trkpt>
      <trkpt lat="46.66995" lon="-1.89024">
        <ele>8</ele>
        <time>2018-01-13T05:21:58Z</time>
      </trkpt>
      <trkpt lat="46.66998" lon="-1.8901">
        <ele>7</ele>
        <time>2018-01-13T05:22:58Z</time>
      </trkpt>
      <trkpt lat="46.67001" lon="-1.88998">
        <ele>7</ele>
        <time>2018-01-13T05:23:58Z</time>
      </trkpt>
      <trkpt lat="46.67003" lon="-1.88989">
        <ele>7</ele>
        <time>2018-01-13T05:24:58Z</time>
      </trkpt>
      <trkpt lat="46.67008" lon="-1.88964">
        <ele>7</ele>
        <time>2018-01-13T05:25:58Z</time>
      </trkpt>
      <trkpt lat="46.6701" lon="-1.88956">
        <ele>7</ele>
        <time>2018-01-13T05:26:58Z</time>
      </trkpt>
      <trkpt lat="46.67013" lon="-1.88939">
        <ele>8</ele>
        <time>2018-01-13T05:27:58Z</time>
      </trkpt>
      <trkpt lat="46.67016" lon="-1.88929">
        <ele>8</ele>
        <time>2018-01-13T05:28:58Z</time>
      </trkpt>
      <trkpt lat="46.67023" lon="-1.88898">
        <ele>8</ele>
        <time>2018-01-13T05:29:58Z</time>
      </trkpt>
      <trkpt lat="46.67029" lon="-1.88866">
        <ele>9</ele>
        <time>2018-01-13T05:30:58Z</time>
      </trkpt>
      <trkpt lat="46.67033" lon="-1.88851">
        <ele>10</ele>
        <time>2018-01-13T05:31:58Z</time>
      </trkpt>
      <trkpt lat="46.67039" lon="-1.88825">
        <ele>10</ele>
        <time>2018-01-13T05:32:58Z</time>
      </trkpt>
      <trkpt lat="46.67041" lon="-1.88816">
        <ele>10</ele>
        <time>2018-01-13T05:33:58Z</time>
      </trkpt>
      <trkpt lat="46.67047" lon="-1.88789">
        <ele>10</ele>
        <time>2018-01-13T05:34:58Z</time>
      </trkpt>
      <trkpt lat="46.67051" lon="-1.88769">
        <ele>11</ele>
        <time>2018-01-13T05:35:58Z</time>
      </trkpt>
      <trkpt lat="46.67056" lon="-1.88749">
        <ele>11</ele>
        <time>2018-01-13T05:36:58Z</time>
      </trkpt>
      <trkpt lat="46.67053" lon="-1.88747">
        <ele>11</ele>
        <time>2018-01-13T05:37:58Z</time>
      </trkpt>
      <trkpt lat="46.67051" lon="-1.88745">
        <ele>11</ele>
        <time>2018-01-13T05:38:58Z</time>
      </trkpt>
      <trkpt lat="46.6705" lon="-1.88741">
        <ele>11</ele>
        <time>2018-01-13T05:39:58Z</time>
      </trkpt>
      <trkpt lat="46.67049" lon="-1.88737">
        <ele>11</ele>
        <time>2018-01-13T05:40:58Z</time>
      </trkpt>
      <trkpt lat="46.67049" lon="-1.88732">
        <ele>11</ele>
        <time>2018-01-13T05:41:58Z</time>
      </trkpt>
      <trkpt lat="46.6705" lon="-1.88728">
        <ele>11</ele>
        <time>2018-01-13T05:42:58Z</time>
      </trkpt>
      <trkpt lat="46.67052" lon="-1.88726">
        <ele>11</ele>
        <time>2018-01-13T05:43:58Z</time>
      </trkpt>
      <trkpt lat="46.67054" lon="-1.88725">
        <ele>11</ele>
        <time>2018-01-13T05:44:58Z</time>
      </trkpt>
      <trkpt lat="46.67057" lon="-1.88724">
        <ele>11</ele>
        <time>2018-01-13T05:45:58Z</time>
      </trkpt>
      <trkpt lat="46.67061" lon="-1.88725">
        <ele>11</ele>
        <time>2018-01-13T05:46:58Z</time>
      </trkpt>
      <trkpt lat="46.67063" lon="-1.88716">
        <ele>11</ele>
        <time>2018-01-13T05:47:58Z</time>
      </trkpt>
      <trkpt lat="46.6708" lon="-1.88641">
        <ele>12</ele>
        <time>2018-01-13T05:48:58Z</time>
      </trkpt>
      <trkpt lat="46.67081" lon="-1.88634">
        <ele>12</ele>
        <time>2018-01-13T05:49:58Z</time>
      </trkpt>
      <trkpt lat="46.67091" lon="-1.8859">
        <ele>12</ele>
        <time>2018-01-13T05:50:58Z</time>
      </trkpt>
      <trkpt lat="46.67092" lon="-1.88586">
        <ele>12</ele>
        <time>2018-01-13T05:51:58Z</time>
      </trkpt>
      <trkpt lat="46.67103" lon="-1.88538">
        <ele>12</ele>
        <time>2018-01-13T05:52:58Z</time>
      </trkpt>
      <trkpt lat="46.67108" lon="-1.8852">
        <ele>12</ele>
        <time>2018-01-13T05:53:58Z</time>
      </trkpt>
      <trkpt lat="46.67113" lon="-1.88499">
        <ele>11</ele>
        <time>2018-01-13T05:54:58Z</time>
      </trkpt>
      <trkpt lat="46.6712" lon="-1.88468">
        <ele>11</ele>
        <time>2018-01-13T05:55:58Z</time>
      </trkpt>
      <trkpt lat="46.67128" lon="-1.88428">
        <ele>10</ele>
        <time>2018-01-13T05:56:58Z</time>
      </trkpt>
      <trkpt lat="46.67133" lon="-1.88408">
        <ele>10</ele>
        <time>2018-01-13T05:57:58Z</time>
      </trkpt>
      <trkpt lat="46.67135" lon="-1.88398">
        <ele>10</ele>
        <time>2018-01-13T05:58:58Z</time>
      </trkpt>
      <trkpt lat="46.67136" lon="-1.88388">
        <ele>10</ele>
        <time>2018-01-13T05:59:58Z</time>
      </trkpt>
      <trkpt lat="46.67138" lon="-1.88377">
        <ele>10</ele>
        <time>2018-01-13T06:00:58Z</time>
      </trkpt>
      <trkpt lat="46.67138" lon="-1.88369">
        <ele>9</ele>
        <time>2018-01-13T06:01:58Z</time>
      </trkpt>
      <trkpt lat="46.67139" lon="-1.88365">
        <ele>9</ele>
        <time>2018-01-13T06:02:58Z</time>
      </trkpt>
      <trkpt lat="46.67139" lon="-1.88356">
        <ele>9</ele>
        <time>2018-01-13T06:03:58Z</time>
      </trkpt>
      <trkpt lat="46.67139" lon="-1.88342">
        <ele>9</ele>
        <time>2018-01-13T06:04:58Z</time>
      </trkpt>
      <trkpt lat="46.67139" lon="-1.88336">
        <ele>9</ele>
        <time>2018-01-13T06:05:58Z</time>
      </trkpt>
      <trkpt lat="46.67139" lon="-1.8833">
        <ele>9</ele>
        <time>2018-01-13T06:06:58Z</time>
      </trkpt>
      <trkpt lat="46.67139" lon="-1.88324">
        <ele>9</ele>
        <time>2018-01-13T06:07:58Z</time>
      </trkpt>
      <trkpt lat="46.6714" lon="-1.88317">
        <ele>9</ele>
        <time>2018-01-13T06:08:58Z</time>
      </trkpt>
      <trkpt lat="46.67141" lon="-1.88306">
        <ele>9</ele>
        <time>2018-01-13T06:09:58Z</time>
      </trkpt>
      <trkpt lat="46.67141" lon="-1.88301">
        <ele>9</ele>
        <time>2018-01-13T06:10:58Z</time>
      </trkpt>
      <trkpt lat="46.67142" lon="-1.88295">
        <ele>9</ele>
        <time>2018-01-13T06:11:58Z</time>
      </trkpt>
      <trkpt lat="46.67143" lon="-1.88289">
        <ele>9</ele>
        <time>2018-01-13T06:12:58Z</time>
      </trkpt>
      <trkpt lat="46.67146" lon="-1.88277">
        <ele>8</ele>
        <time>2018-01-13T06:13:58Z</time>
      </trkpt>
      <trkpt lat="46.67148" lon="-1.8827">
        <ele>8</ele>
        <time>2018-01-13T06:14:58Z</time>
      </trkpt>
      <trkpt lat="46.67149" lon="-1.88266">
        <ele>8</ele>
        <time>2018-01-13T06:15:58Z</time>
      </trkpt>
      <trkpt lat="46.67152" lon="-1.88256">
        <ele>8</ele>
        <time>2018-01-13T06:16:58Z</time>
      </trkpt>
      <trkpt lat="46.67155" lon="-1.88246">
        <ele>8</ele>
        <time>2018-01-13T06:17:58Z</time>
      </trkpt>
      <trkpt lat="46.67156" lon="-1.88241">
        <ele>8</ele>
        <time>2018-01-13T06:18:58Z</time>
      </trkpt>
      <trkpt lat="46.67158" lon="-1.88235">
        <ele>8</ele>
        <time>2018-01-13T06:19:58Z</time>
      </trkpt>
      <trkpt lat="46.67159" lon="-1.8823">
        <ele>8</ele>
        <time>2018-01-13T06:20:58Z</time>
      </trkpt>
      <trkpt lat="46.67159" lon="-1.88229">
        <ele>8</ele>
        <time>2018-01-13T06:21:58Z</time>
      </trkpt>
      <trkpt lat="46.67162" lon="-1.8822">
        <ele>8</ele>
        <time>2018-01-13T06:22:58Z</time>
      </trkpt>
      <trkpt lat="46.67161" lon="-1.8822">
        <ele>8</ele>
        <time>2018-01-13T06:23:58Z</time>
      </trkpt>
      <trkpt lat="46.67161" lon="-1.88219">
        <ele>8</ele>
        <time>2018-01-13T06:24:58Z</time>
      </trkpt>
      <trkpt lat="46.6716" lon="-1.88219">
        <ele>8</ele>
        <time>2018-01-13T06:25:58Z</time>
      </trkpt>
      <trkpt lat="46.6716" lon="-1.88218">
        <ele>8</ele>
        <time>2018-01-13T06:26:58Z</time>
      </trkpt>
      <trkpt lat="46.67159" lon="-1.88218">
        <ele>8</ele>
        <time>2018-01-13T06:27:58Z</time>
      </trkpt>
      <trkpt lat="46.67159" lon="-1.88217">
        <ele>8</ele>
        <time>2018-01-13T06:28:58Z</time>
      </trkpt>
      <trkpt lat="46.67158" lon="-1.88216">
        <ele>8</ele>
        <time>2018-01-13T06:29:58Z</time>
      </trkpt>
      <trkpt lat="46.67158" lon="-1.88215">
        <ele>7</ele>
        <time>2018-01-13T06:30:58Z</time>
      </trkpt>
      <trkpt lat="46.67157" lon="-1.88215">
        <ele>7</ele>
        <time>2018-01-13T06:31:58Z</time>
      </trkpt>
      <trkpt lat="46.67157" lon="-1.88214">
        <ele>7</ele>
        <time>2018-01-13T06:32:58Z</time>
      </trkpt>
      <trkpt lat="46.67157" lon="-1.88213">
        <ele>7</ele>
        <time>2018-01-13T06:33:58Z</time>
      </trkpt>
      <trkpt lat="46.67157" lon="-1.88212">
        <ele>7</ele>
        <time>2018-01-13T06:34:58Z</time>
      </trkpt>
      <trkpt lat="46.67157" lon="-1.88211">
        <ele>7</ele>
        <time>2018-01-13T06:35:58Z</time>
      </trkpt>
      <trkpt lat="46.67156" lon="-1.8821">
        <ele>7</ele>
        <time>2018-01-13T06:36:58Z</time>
      </trkpt>
      <trkpt lat="46.67156" lon="-1.88209">
        <ele>7</ele>
        <time>2018-01-13T06:37:58Z</time>
      </trkpt>
      <trkpt lat="46.67156" lon="-1.88208">
        <ele>7</ele>
        <time>2018-01-13T06:38:58Z</time>
      </trkpt>
      <trkpt lat="46.67156" lon="-1.88207">
        <ele>7</ele>
        <time>2018-01-13T06:39:58Z</time>
      </trkpt>
      <trkpt lat="46.67156" lon="-1.88206">
        <ele>7</ele>
        <time>2018-01-13T06:40:58Z</time>
      </trkpt>
      <trkpt lat="46.67157" lon="-1.88205">
        <ele>7</ele>
        <time>2018-01-13T06:41:58Z</time>
      </trkpt>
      <trkpt lat="46.67157" lon="-1.88204">
        <ele>7</ele>
        <time>2018-01-13T06:42:58Z</time>
      </trkpt>
      <trkpt lat="46.67157" lon="-1.88203">
        <ele>7</ele>
        <time>2018-01-13T06:43:58Z</time>
      </trkpt>
      <trkpt lat="46.67157" lon="-1.88202">
        <ele>7</ele>
        <time>2018-01-13T06:44:58Z</time>
      </trkpt>
      <trkpt lat="46.67158" lon="-1.88201">
        <ele>7</ele>
        <time>2018-01-13T06:45:58Z</time>
      </trkpt>
      <trkpt lat="46.67158" lon="-1.882">
        <ele>7</ele>
        <time>2018-01-13T06:46:58Z</time>
      </trkpt>
      <trkpt lat="46.67159" lon="-1.88199">
        <ele>7</ele>
        <time>2018-01-13T06:47:58Z</time>
      </trkpt>
      <trkpt lat="46.67159" lon="-1.88198">
        <ele>7</ele>
        <time>2018-01-13T06:48:58Z</time>
      </trkpt>
      <trkpt lat="46.6716" lon="-1.88198">
        <ele>7</ele>
        <time>2018-01-13T06:49:58Z</time>
      </trkpt>
      <trkpt lat="46.6716" lon="-1.88197">
        <ele>7</ele>
        <time>2018-01-13T06:50:58Z</time>
      </trkpt>
      <trkpt lat="46.67161" lon="-1.88197">
        <ele>7</ele>
        <time>2018-01-13T06:51:58Z</time>
      </trkpt>
      <trkpt lat="46.67161" lon="-1.88196">
        <ele>7</ele>
        <time>2018-01-13T06:52:58Z</time>
      </trkpt>
      <trkpt lat="46.67162" lon="-1.88196">
        <ele>7</ele>
        <time>2018-01-13T06:53:58Z</time>
      </trkpt>
      <trkpt lat="46.67162" lon="-1.88195">
        <ele>7</ele>
        <time>2018-01-13T06:54:58Z</time>
      </trkpt>
      <trkpt lat="46.67163" lon="-1.88195">
        <ele>7</ele>
        <time>2018-01-13T06:55:58Z</time>
      </trkpt>
      <trkpt lat="46.67164" lon="-1.88195">
        <ele>7</ele>
        <time>2018-01-13T06:56:58Z</time>
      </trkpt>
      <trkpt lat="46.67165" lon="-1.88195">
        <ele>7</ele>
        <time>2018-01-13T06:57:58Z</time>
      </trkpt>
      <trkpt lat="46.67166" lon="-1.88195">
        <ele>7</ele>
        <time>2018-01-13T06:58:58Z</time>
      </trkpt>
      <trkpt lat="46.67167" lon="-1.88195">
        <ele>7</ele>
        <time>2018-01-13T06:59:58Z</time>
      </trkpt>
      <trkpt lat="46.67168" lon="-1.88195">
        <ele>7</ele>
        <time>2018-01-13T07:00:58Z</time>
      </trkpt>
      <trkpt lat="46.67172" lon="-1.88182">
        <ele>7</ele>
        <time>2018-01-13T07:01:58Z</time>
      </trkpt>
      <trkpt lat="46.67173" lon="-1.88176">
        <ele>7</ele>
        <time>2018-01-13T07:02:58Z</time>
      </trkpt>
      <trkpt lat="46.67174" lon="-1.8817">
        <ele>7</ele>
        <time>2018-01-13T07:03:58Z</time>
      </trkpt>
      <trkpt lat="46.67178" lon="-1.88145">
        <ele>8</ele>
        <time>2018-01-13T07:04:58Z</time>
      </trkpt>
      <trkpt lat="46.67183" lon="-1.88109">
        <ele>8</ele>
        <time>2018-01-13T07:05:58Z</time>
      </trkpt>
      <trkpt lat="46.67187" lon="-1.88081">
        <ele>9</ele>
        <time>2018-01-13T07:06:58Z</time>
      </trkpt>
      <trkpt lat="46.67193" lon="-1.88041">
        <ele>9</ele>
        <time>2018-01-13T07:07:58Z</time>
      </trkpt>
      <trkpt lat="46.67198" lon="-1.88006">
        <ele>10</ele>
        <time>2018-01-13T07:08:58Z</time>
      </trkpt>
      <trkpt lat="46.67202" lon="-1.87978">
        <ele>10</ele>
        <time>2018-01-13T07:09:58Z</time>
      </trkpt>
      <trkpt lat="46.67205" lon="-1.87955">
        <ele>10</ele>
        <time>2018-01-13T07:10:58Z</time>
      </trkpt>
      <trkpt lat="46.67208" lon="-1.87929">
        <ele>10</ele>
        <time>2018-01-13T07:11:58Z</time>
      </trkpt>
      <trkpt lat="46.67211" lon="-1.87909">
        <ele>10</ele>
        <time>2018-01-13T07:12:58Z</time>
      </trkpt>
      <trkpt lat="46.67213" lon="-1.87887">
        <ele>10</ele>
        <time>2018-01-13T07:13:58Z</time>
      </trkpt>
      <trkpt lat="46.67213" lon="-1.87872">
        <ele>10</ele>
        <time>2018-01-13T07:14:58Z</time>
      </trkpt>
      <trkpt lat="46.67213" lon="-1.87857">
        <ele>10</ele>
        <time>2018-01-13T07:15:58Z</time>
      </trkpt>
      <trkpt lat="46.67213" lon="-1.87839">
        <ele>10</ele>
        <time>2018-01-13T07:16:58Z</time>
      </trkpt>
      <trkpt lat="46.67213" lon="-1.87822">
        <ele>10</ele>
        <time>2018-01-13T07:17:58Z</time>
      </trkpt>
      <trkpt lat="46.67212" lon="-1.878">
        <ele>10</ele>
        <time>2018-01-13T07:18:58Z</time>
      </trkpt>
      <trkpt lat="46.67212" lon="-1.87783">
        <ele>10</ele>
        <time>2018-01-13T07:19:58Z</time>
      </trkpt>
      <trkpt lat="46.67212" lon="-1.87767">
        <ele>10</ele>
        <time>2018-01-13T07:20:58Z</time>
      </trkpt>
      <trkpt lat="46.67213" lon="-1.87744">
        <ele>10</ele>
        <time>2018-01-13T07:21:58Z</time>
      </trkpt>
      <trkpt lat="46.67214" lon="-1.87723">
        <ele>10</ele>
        <time>2018-01-13T07:22:58Z</time>
      </trkpt>
      <trkpt lat="46.67215" lon="-1.87698">
        <ele>11</ele>
        <time>2018-01-13T07:23:58Z</time>
      </trkpt>
      <trkpt lat="46.67217" lon="-1.87673">
        <ele>11</ele>
        <time>2018-01-13T07:24:58Z</time>
      </trkpt>
      <trkpt lat="46.67218" lon="-1.87652">
        <ele>11</ele>
        <time>2018-01-13T07:25:58Z</time>
      </trkpt>
      <trkpt lat="46.67219" lon="-1.87634">
        <ele>11</ele>
        <time>2018-01-13T07:26:58Z</time>
      </trkpt>
      <trkpt lat="46.67221" lon="-1.87616">
        <ele>11</ele>
        <time>2018-01-13T07:27:58Z</time>
      </trkpt>
      <trkpt lat="46.67224" lon="-1.87603">
        <ele>12</ele>
        <time>2018-01-13T07:28:58Z</time>
      </trkpt>
      <trkpt lat="46.67225" lon="-1.87591">
        <ele>12</ele>
        <time>2018-01-13T07:29:58Z</time>
      </trkpt>
      <trkpt lat="46.67226" lon="-1.8758">
        <ele>12</ele>
        <time>2018-01-13T07:30:58Z</time>
      </trkpt>
      <trkpt lat="46.6723" lon="-1.8755">
        <ele>12</ele>
        <time>2018-01-13T07:31:58Z</time>
      </trkpt>
      <trkpt lat="46.67232" lon="-1.87531">
        <ele>12</ele>
        <time>2018-01-13T07:32:58Z</time>
      </trkpt>
      <trkpt lat="46.67236" lon="-1.87498">
        <ele>12</ele>
        <time>2018-01-13T07:33:58Z</time>
      </trkpt>
      <trkpt lat="46.67243" lon="-1.87445">
        <ele>12</ele>
        <time>2018-01-13T07:34:58Z</time>
      </trkpt>
      <trkpt lat="46.67247" lon="-1.87411">
        <ele>12</ele>
        <time>2018-01-13T07:35:58Z</time>
      </trkpt>
      <trkpt lat="46.67247" lon="-1.87407">
        <ele>12</ele>
        <time>2018-01-13T07:36:58Z</time>
      </trkpt>
      <trkpt lat="46.6725" lon="-1.87377">
        <ele>12</ele>
        <time>2018-01-13T07:37:58Z</time>
      </trkpt>
      <trkpt lat="46.67251" lon="-1.87373">
        <ele>12</ele>
        <time>2018-01-13T07:38:58Z</time>
      </trkpt>
      <trkpt lat="46.67254" lon="-1.87333">
        <ele>11</ele>
        <time>2018-01-13T07:39:58Z</time>
      </trkpt>
      <trkpt lat="46.67256" lon="-1.87307">
        <ele>11</ele>
        <time>2018-01-13T07:40:58Z</time>
      </trkpt>
      <trkpt lat="46.6726" lon="-1.87256">
        <ele>10</ele>
        <time>2018-01-13T07:41:58Z</time>
      </trkpt>
      <trkpt lat="46.67261" lon="-1.87244">
        <ele>9</ele>
        <time>2018-01-13T07:42:58Z</time>
      </trkpt>
      <trkpt lat="46.67263" lon="-1.87218">
        <ele>9</ele>
        <time>2018-01-13T07:43:58Z</time>
      </trkpt>
      <trkpt lat="46.67264" lon="-1.87205">
        <ele>9</ele>
        <time>2018-01-13T07:44:58Z</time>
      </trkpt>
      <trkpt lat="46.67265" lon="-1.8718">
        <ele>8</ele>
        <time>2018-01-13T07:45:58Z</time>
      </trkpt>
      <trkpt lat="46.67267" lon="-1.87155">
        <ele>8</ele>
        <time>2018-01-13T07:46:58Z</time>
      </trkpt>
      <trkpt lat="46.67269" lon="-1.8713">
        <ele>9</ele>
        <time>2018-01-13T07:47:58Z</time>
      </trkpt>
      <trkpt lat="46.67272" lon="-1.87082">
        <ele>9</ele>
        <time>2018-01-13T07:48:58Z</time>
      </trkpt>
      <trkpt lat="46.67272" lon="-1.8707">
        <ele>9</ele>
        <time>2018-01-13T07:49:58Z</time>
      </trkpt>
      <trkpt lat="46.67273" lon="-1.87048">
        <ele>9</ele>
        <time>2018-01-13T07:50:58Z</time>
      </trkpt>
      <trkpt lat="46.67273" lon="-1.87028">
        <ele>8</ele>
        <time>2018-01-13T07:51:58Z</time>
      </trkpt>
      <trkpt lat="46.67271" lon="-1.87013">
        <ele>8</ele>
        <time>2018-01-13T07:52:58Z</time>
      </trkpt>
      <trkpt lat="46.67269" lon="-1.87004">
        <ele>7</ele>
        <time>2018-01-13T07:53:58Z</time>
      </trkpt>
      <trkpt lat="46.67267" lon="-1.86994">
        <ele>7</ele>
        <time>2018-01-13T07:54:58Z</time>
      </trkpt>
      <trkpt lat="46.67263" lon="-1.86983">
        <ele>6</ele>
        <time>2018-01-13T07:55:58Z</time>
      </trkpt>
      <trkpt lat="46.6726" lon="-1.86974">
        <ele>6</ele>
        <time>2018-01-13T07:56:58Z</time>
      </trkpt>
      <trkpt lat="46.67256" lon="-1.86965">
        <ele>5</ele>
        <time>2018-01-13T07:57:58Z</time>
      </trkpt>
      <trkpt lat="46.67251" lon="-1.86955">
        <ele>5</ele>
        <time>2018-01-13T07:58:58Z</time>
      </trkpt>
      <trkpt lat="46.67246" lon="-1.86946">
        <ele>5</ele>
        <time>2018-01-13T07:59:58Z</time>
      </trkpt>
      <trkpt lat="46.67228" lon="-1.8691">
        <ele>4</ele>
        <time>2018-01-13T08:00:58Z</time>
      </trkpt>
      <trkpt lat="46.67213" lon="-1.86883">
        <ele>3</ele>
        <time>2018-01-13T08:01:58Z</time>
      </trkpt>
      <trkpt lat="46.67209" lon="-1.86876">
        <ele>3</ele>
        <time>2018-01-13T08:02:58Z</time>
      </trkpt>
      <trkpt lat="46.67205" lon="-1.86869">
        <ele>3</ele>
        <time>2018-01-13T08:03:58Z</time>
      </trkpt>
      <trkpt lat="46.67202" lon="-1.86862">
        <ele>3</ele>
        <time>2018-01-13T08:04:58Z</time>
      </trkpt>
      <trkpt lat="46.67189" lon="-1.86841">
        <ele>3</ele>
        <time>2018-01-13T08:05:58Z</time>
      </trkpt>
      <trkpt lat="46.6718" lon="-1.86819">
        <ele>4</ele>
        <time>2018-01-13T08:06:58Z</time>
      </trkpt>
      <trkpt lat="46.67179" lon="-1.86815">
        <ele>4</ele>
        <time>2018-01-13T08:07:58Z</time>
      </trkpt>
      <trkpt lat="46.67177" lon="-1.86808">
        <ele>4</ele>
        <time>2018-01-13T08:08:58Z</time>
      </trkpt>
      <trkpt lat="46.67173" lon="-1.86797">
        <ele>4</ele>
        <time>2018-01-13T08:09:58Z</time>
      </trkpt>
      <trkpt lat="46.6717" lon="-1.86785">
        <ele>4</ele>
        <time>2018-01-13T08:10:58Z</time>
      </trkpt>
      <trkpt lat="46.67169" lon="-1.86772">
        <ele>5</ele>
        <time>2018-01-13T08:11:58Z</time>
      </trkpt>
      <trkpt lat="46.67167" lon="-1.86759">
        <ele>5</ele>
        <time>2018-01-13T08:12:58Z</time>
      </trkpt>
      <trkpt lat="46.67166" lon="-1.8675">
        <ele>5</ele>
        <time>2018-01-13T08:13:58Z</time>
      </trkpt>
      <trkpt lat="46.67166" lon="-1.86747">
        <ele>5</ele>
        <time>2018-01-13T08:14:58Z</time>
      </trkpt>
      <trkpt lat="46.67166" lon="-1.86732">
        <ele>6</ele>
        <time>2018-01-13T08:15:58Z</time>
      </trkpt>
      <trkpt lat="46.67166" lon="-1.86708">
        <ele>7</ele>
        <time>2018-01-13T08:16:58Z</time>
      </trkpt>
      <trkpt lat="46.67166" lon="-1.86704">
        <ele>7</ele>
        <time>2018-01-13T08:17:58Z</time>
      </trkpt>
      <trkpt lat="46.67166" lon="-1.86696">
        <ele>7</ele>
        <time>2018-01-13T08:18:58Z</time>
      </trkpt>
      <trkpt lat="46.67167" lon="-1.86684">
        <ele>7</ele>
        <time>2018-01-13T08:19:58Z</time>
      </trkpt>
      <trkpt lat="46.67168" lon="-1.86673">
        <ele>8</ele>
        <time>2018-01-13T08:20:58Z</time>
      </trkpt>
      <trkpt lat="46.67168" lon="-1.86671">
        <ele>8</ele>
        <time>2018-01-13T08:21:58Z</time>
      </trkpt>
      <trkpt lat="46.6717" lon="-1.86659">
        <ele>8</ele>
        <time>2018-01-13T08:22:58Z</time>
      </trkpt>
      <trkpt lat="46.67171" lon="-1.86648">
        <ele>8</ele>
        <time>2018-01-13T08:23:58Z</time>
      </trkpt>
      <trkpt lat="46.67172" lon="-1.86647">
        <ele>8</ele>
        <time>2018-01-13T08:24:58Z</time>
      </trkpt>
      <trkpt lat="46.67174" lon="-1.86635">
        <ele>8</ele>
        <time>2018-01-13T08:25:58Z</time>
      </trkpt>
      <trkpt lat="46.67176" lon="-1.86622">
        <ele>8</ele>
        <time>2018-01-13T08:26:58Z</time>
      </trkpt>
      <trkpt lat="46.67179" lon="-1.8661">
        <ele>8</ele>
        <time>2018-01-13T08:27:58Z</time>
      </trkpt>
      <trkpt lat="46.67183" lon="-1.86598">
        <ele>8</ele>
        <time>2018-01-13T08:28:58Z</time>
      </trkpt>
      <trkpt lat="46.6719" lon="-1.86574">
        <ele>8</ele>
        <time>2018-01-13T08:29:58Z</time>
      </trkpt>
      <trkpt lat="46.67196" lon="-1.86555">
        <ele>8</ele>
        <time>2018-01-13T08:30:58Z</time>
      </trkpt>
      <trkpt lat="46.67196" lon="-1.86553">
        <ele>8</ele>
        <time>2018-01-13T08:31:58Z</time>
      </trkpt>
      <trkpt lat="46.67202" lon="-1.86536">
        <ele>9</ele>
        <time>2018-01-13T08:32:58Z</time>
      </trkpt>
      <trkpt lat="46.67206" lon="-1.86523">
        <ele>9</ele>
        <time>2018-01-13T08:33:58Z</time>
      </trkpt>
      <trkpt lat="46.67214" lon="-1.86498">
        <ele>9</ele>
        <time>2018-01-13T08:34:58Z</time>
      </trkpt>
      <trkpt lat="46.67223" lon="-1.86467">
        <ele>10</ele>
        <time>2018-01-13T08:35:58Z</time>
      </trkpt>
      <trkpt lat="46.67229" lon="-1.86444">
        <ele>10</ele>
        <time>2018-01-13T08:36:58Z</time>
      </trkpt>
      <trkpt lat="46.67234" lon="-1.86421">
        <ele>10</ele>
        <time>2018-01-13T08:37:58Z</time>
      </trkpt>
      <trkpt lat="46.67235" lon="-1.86411">
        <ele>10</ele>
        <time>2018-01-13T08:38:58Z</time>
      </trkpt>
      <trkpt lat="46.67237" lon="-1.86399">
        <ele>10</ele>
        <time>2018-01-13T08:39:58Z</time>
      </trkpt>
      <trkpt lat="46.67241" lon="-1.8637">
        <ele>10</ele>
        <time>2018-01-13T08:40:58Z</time>
      </trkpt>
      <trkpt lat="46.67243" lon="-1.86336">
        <ele>10</ele>
        <time>2018-01-13T08:41:58Z</time>
      </trkpt>
      <trkpt lat="46.67245" lon="-1.863">
        <ele>10</ele>
        <time>2018-01-13T08:42:58Z</time>
      </trkpt>
      <trkpt lat="46.67246" lon="-1.86272">
        <ele>10</ele>
        <time>2018-01-13T08:43:58Z</time>
      </trkpt>
      <trkpt lat="46.67248" lon="-1.86257">
        <ele>10</ele>
        <time>2018-01-13T08:44:58Z</time>
      </trkpt>
      <trkpt lat="46.6725" lon="-1.86243">
        <ele>10</ele>
        <time>2018-01-13T08:45:58Z</time>
      </trkpt>
      <trkpt lat="46.67252" lon="-1.86237">
        <ele>11</ele>
        <time>2018-01-13T08:46:58Z</time>
      </trkpt>
      <trkpt lat="46.67255" lon="-1.86227">
        <ele>11</ele>
        <time>2018-01-13T08:47:58Z</time>
      </trkpt>
      <trkpt lat="46.67262" lon="-1.86208">
        <ele>11</ele>
        <time>2018-01-13T08:48:58Z</time>
      </trkpt>
      <trkpt lat="46.6727" lon="-1.86185">
        <ele>12</ele>
        <time>2018-01-13T08:49:58Z</time>
      </trkpt>
      <trkpt lat="46.67276" lon="-1.86168">
        <ele>12</ele>
        <time>2018-01-13T08:50:58Z</time>
      </trkpt>
      <trkpt lat="46.67277" lon="-1.86165">
        <ele>12</ele>
        <time>2018-01-13T08:51:58Z</time>
      </trkpt>
      <trkpt lat="46.67283" lon="-1.86141">
        <ele>12</ele>
        <time>2018-01-13T08:52:58Z</time>
      </trkpt>
      <trkpt lat="46.67288" lon="-1.8612">
        <ele>12</ele>
        <time>2018-01-13T08:53:58Z</time>
      </trkpt>
      <trkpt lat="46.67292" lon="-1.86098">
        <ele>12</ele>
        <time>2018-01-13T08:54:58Z</time>
      </trkpt>
      <trkpt lat="46.67295" lon="-1.86076">
        <ele>13</ele>
        <time>2018-01-13T08:55:58Z</time>
      </trkpt>
      <trkpt lat="46.67296" lon="-1.86068">
        <ele>13</ele>
        <time>2018-01-13T08:56:58Z</time>
      </trkpt>
      <trkpt lat="46.67298" lon="-1.86053">
        <ele>13</ele>
        <time>2018-01-13T08:57:58Z</time>
      </trkpt>
      <trkpt lat="46.673" lon="-1.86038">
        <ele>13</ele>
        <time>2018-01-13T08:58:58Z</time>
      </trkpt>
      <trkpt lat="46.67301" lon="-1.86022">
        <ele>14</ele>
        <time>2018-01-13T08:59:58Z</time>
      </trkpt>
      <trkpt lat="46.67305" lon="-1.85977">
        <ele>15</ele>
        <time>2018-01-13T09:00:58Z</time>
      </trkpt>
      <trkpt lat="46.67306" lon="-1.85959">
        <ele>15</ele>
        <time>2018-01-13T09:01:58Z</time>
      </trkpt>
      <trkpt lat="46.67306" lon="-1.8593">
        <ele>15</ele>
        <time>2018-01-13T09:02:58Z</time>
      </trkpt>
      <trkpt lat="46.67306" lon="-1.859">
        <ele>15</ele>
        <time>2018-01-13T09:03:58Z</time>
      </trkpt>
      <trkpt lat="46.67305" lon="-1.85869">
        <ele>16</ele>
        <time>2018-01-13T09:04:58Z</time>
      </trkpt>
      <trkpt lat="46.67304" lon="-1.8584">
        <ele>16</ele>
        <time>2018-01-13T09:05:58Z</time>
      </trkpt>
      <trkpt lat="46.67302" lon="-1.8581">
        <ele>16</ele>
        <time>2018-01-13T09:06:58Z</time>
      </trkpt>
      <trkpt lat="46.67299" lon="-1.85767">
        <ele>16</ele>
        <time>2018-01-13T09:07:58Z</time>
      </trkpt>
      <trkpt lat="46.67295" lon="-1.85721">
        <ele>15</ele>
        <time>2018-01-13T09:08:58Z</time>
      </trkpt>
      <trkpt lat="46.67291" lon="-1.85677">
        <ele>15</ele>
        <time>2018-01-13T09:09:58Z</time>
      </trkpt>
      <trkpt lat="46.67288" lon="-1.85647">
        <ele>15</ele>
        <time>2018-01-13T09:10:58Z</time>
      </trkpt>
      <trkpt lat="46.67285" lon="-1.85601">
        <ele>16</ele>
        <time>2018-01-13T09:11:58Z</time>
      </trkpt>
      <trkpt lat="46.67281" lon="-1.85556">
        <ele>17</ele>
        <time>2018-01-13T09:12:58Z</time>
      </trkpt>
      <trkpt lat="46.67279" lon="-1.85526">
        <ele>17</ele>
        <time>2018-01-13T09:13:58Z</time>
      </trkpt>
      <trkpt lat="46.67275" lon="-1.8548">
        <ele>18</ele>
        <time>2018-01-13T09:14:58Z</time>
      </trkpt>
      <trkpt lat="46.67271" lon="-1.85421">
        <ele>18</ele>
        <time>2018-01-13T09:15:58Z</time>
      </trkpt>
      <trkpt lat="46.67269" lon="-1.85388">
        <ele>19</ele>
        <time>2018-01-13T09:16:58Z</time>
      </trkpt>
      <trkpt lat="46.67266" lon="-1.85362">
        <ele>19</ele>
        <time>2018-01-13T09:17:58Z</time>
      </trkpt>
      <trkpt lat="46.67263" lon="-1.85339">
        <ele>20</ele>
        <time>2018-01-13T09:18:58Z</time>
      </trkpt>
      <trkpt lat="46.6726" lon="-1.85321">
        <ele>20</ele>
        <time>2018-01-13T09:19:58Z</time>
      </trkpt>
      <trkpt lat="46.67255" lon="-1.85296">
        <ele>19</ele>
        <time>2018-01-13T09:20:58Z</time>
      </trkpt>
      <trkpt lat="46.67248" lon="-1.85268">
        <ele>19</ele>
        <time>2018-01-13T09:21:58Z</time>
      </trkpt>
      <trkpt lat="46.67239" lon="-1.85237">
        <ele>19</ele>
        <time>2018-01-13T09:22:58Z</time>
      </trkpt>
      <trkpt lat="46.67224" lon="-1.85184">
        <ele>19</ele>
        <time>2018-01-13T09:23:58Z</time>
      </trkpt>
      <trkpt lat="46.67214" lon="-1.8515">
        <ele>19</ele>
        <time>2018-01-13T09:24:58Z</time>
      </trkpt>
      <trkpt lat="46.67201" lon="-1.85109">
        <ele>19</ele>
        <time>2018-01-13T09:25:58Z</time>
      </trkpt>
      <trkpt lat="46.6719" lon="-1.85073">
        <ele>19</ele>
        <time>2018-01-13T09:26:58Z</time>
      </trkpt>
      <trkpt lat="46.67185" lon="-1.85055">
        <ele>19</ele>
        <time>2018-01-13T09:27:58Z</time>
      </trkpt>
      <trkpt lat="46.67178" lon="-1.85027">
        <ele>19</ele>
        <time>2018-01-13T09:28:58Z</time>
      </trkpt>
      <trkpt lat="46.67175" lon="-1.85014">
        <ele>18</ele>
        <time>2018-01-13T09:29:58Z</time>
      </trkpt>
      <trkpt lat="46.67172" lon="-1.84999">
        <ele>18</ele>
        <time>2018-01-13T09:30:58Z</time>
      </trkpt>
      <trkpt lat="46.67168" lon="-1.84972">
        <ele>18</ele>
        <time>2018-01-13T09:31:58Z</time>
      </trkpt>
      <trkpt lat="46.67166" lon="-1.84956">
        <ele>18</ele>
        <time>2018-01-13T09:32:58Z</time>
      </trkpt>
      <trkpt lat="46.67165" lon="-1.84941">
        <ele>18</ele>
        <time>2018-01-13T09:33:58Z</time>
      </trkpt>
      <trkpt lat="46.67164" lon="-1.84926">
        <ele>18</ele>
        <time>2018-01-13T09:34:58Z</time>
      </trkpt>
      <trkpt lat="46.67164" lon="-1.84898">
        <ele>18</ele>
        <time>2018-01-13T09:35:58Z</time>
      </trkpt>
      <trkpt lat="46.67164" lon="-1.84883">
        <ele>18</ele>
        <time>2018-01-13T09:36:58Z</time>
      </trkpt>
      <trkpt lat="46.67165" lon="-1.84868">
        <ele>18</ele>
        <time>2018-01-13T09:37:58Z</time>
      </trkpt>
      <trkpt lat="46.67167" lon="-1.8484">
        <ele>18</ele>
        <time>2018-01-13T09:38:58Z</time>
      </trkpt>
      <trkpt lat="46.67171" lon="-1.84811">
        <ele>18</ele>
        <time>2018-01-13T09:39:58Z</time>
      </trkpt>
      <trkpt lat="46.67175" lon="-1.8478">
        <ele>19</ele>
        <time>2018-01-13T09:40:58Z</time>
      </trkpt>
      <trkpt lat="46.67175" lon="-1.84769">
        <ele>19</ele>
        <time>2018-01-13T09:41:58Z</time>
      </trkpt>
      <trkpt lat="46.67182" lon="-1.84714">
        <ele>20</ele>
        <time>2018-01-13T09:42:58Z</time>
      </trkpt>
      <trkpt lat="46.67191" lon="-1.84651">
        <ele>20</ele>
        <time>2018-01-13T09:43:58Z</time>
      </trkpt>
      <trkpt lat="46.67198" lon="-1.84599">
        <ele>20</ele>
        <time>2018-01-13T09:44:58Z</time>
      </trkpt>
      <trkpt lat="46.67205" lon="-1.84549">
        <ele>20</ele>
        <time>2018-01-13T09:45:58Z</time>
      </trkpt>
      <trkpt lat="46.67212" lon="-1.84497">
        <ele>21</ele>
        <time>2018-01-13T09:46:58Z</time>
      </trkpt>
      <trkpt lat="46.67219" lon="-1.84446">
        <ele>21</ele>
        <time>2018-01-13T09:47:58Z</time>
      </trkpt>
      <trkpt lat="46.67224" lon="-1.84411">
        <ele>21</ele>
        <time>2018-01-13T09:48:58Z</time>
      </trkpt>
      <trkpt lat="46.67226" lon="-1.84398">
        <ele>21</ele>
        <time>2018-01-13T09:49:58Z</time>
      </trkpt>
      <trkpt lat="46.6723" lon="-1.84361">
        <ele>21</ele>
        <time>2018-01-13T09:50:58Z</time>
      </trkpt>
      <trkpt lat="46.67237" lon="-1.84309">
        <ele>22</ele>
        <time>2018-01-13T09:51:58Z</time>
      </trkpt>
      <trkpt lat="46.67241" lon="-1.84276">
        <ele>22</ele>
        <time>2018-01-13T09:52:58Z</time>
      </trkpt>
      <trkpt lat="46.67245" lon="-1.84242">
        <ele>22</ele>
        <time>2018-01-13T09:53:58Z</time>
      </trkpt>
      <trkpt lat="46.67247" lon="-1.84225">
        <ele>21</ele>
        <time>2018-01-13T09:54:58Z</time>
      </trkpt>
      <trkpt lat="46.67248" lon="-1.84207">
        <ele>21</ele>
        <time>2018-01-13T09:55:58Z</time>
      </trkpt>
      <trkpt lat="46.6725" lon="-1.84185">
        <ele>20</ele>
        <time>2018-01-13T09:56:58Z</time>
      </trkpt>
      <trkpt lat="46.67251" lon="-1.84138">
        <ele>20</ele>
        <time>2018-01-13T09:57:58Z</time>
      </trkpt>
      <trkpt lat="46.67252" lon="-1.84121">
        <ele>20</ele>
        <time>2018-01-13T09:58:58Z</time>
      </trkpt>
      <trkpt lat="46.67254" lon="-1.84058">
        <ele>21</ele>
        <time>2018-01-13T09:59:58Z</time>
      </trkpt>
      <trkpt lat="46.67256" lon="-1.83985">
        <ele>22</ele>
        <time>2018-01-13T10:00:58Z</time>
      </trkpt>
      <trkpt lat="46.67257" lon="-1.83925">
        <ele>23</ele>
        <time>2018-01-13T10:01:58Z</time>
      </trkpt>
      <trkpt lat="46.67257" lon="-1.83897">
        <ele>23</ele>
        <time>2018-01-13T10:02:58Z</time>
      </trkpt>
      <trkpt lat="46.67256" lon="-1.83874">
        <ele>23</ele>
        <time>2018-01-13T10:03:58Z</time>
      </trkpt>
      <trkpt lat="46.67254" lon="-1.83845">
        <ele>23</ele>
        <time>2018-01-13T10:04:58Z</time>
      </trkpt>
      <trkpt lat="46.67252" lon="-1.83824">
        <ele>23</ele>
        <time>2018-01-13T10:05:58Z</time>
      </trkpt>
      <trkpt lat="46.67252" lon="-1.8382">
        <ele>23</ele>
        <time>2018-01-13T10:06:58Z</time>
      </trkpt>
      <trkpt lat="46.67251" lon="-1.83814">
        <ele>23</ele>
        <time>2018-01-13T10:07:58Z</time>
      </trkpt>
      <trkpt lat="46.67246" lon="-1.83765">
        <ele>23</ele>
        <time>2018-01-13T10:08:58Z</time>
      </trkpt>
      <trkpt lat="46.67241" lon="-1.83718">
        <ele>22</ele>
        <time>2018-01-13T10:09:58Z</time>
      </trkpt>
      <trkpt lat="46.67236" lon="-1.83657">
        <ele>21</ele>
        <time>2018-01-13T10:10:58Z</time>
      </trkpt>
      <trkpt lat="46.67229" lon="-1.83588">
        <ele>20</ele>
        <time>2018-01-13T10:11:58Z</time>
      </trkpt>
      <trkpt lat="46.67226" lon="-1.83557">
        <ele>20</ele>
        <time>2018-01-13T10:12:58Z</time>
      </trkpt>
      <trkpt lat="46.67223" lon="-1.8354">
        <ele>20</ele>
        <time>2018-01-13T10:13:58Z</time>
      </trkpt>
      <trkpt lat="46.67218" lon="-1.83519">
        <ele>20</ele>
        <time>2018-01-13T10:14:58Z</time>
      </trkpt>
      <trkpt lat="46.67214" lon="-1.83501">
        <ele>21</ele>
        <time>2018-01-13T10:15:58Z</time>
      </trkpt>
      <trkpt lat="46.67207" lon="-1.83477">
        <ele>21</ele>
        <time>2018-01-13T10:16:58Z</time>
      </trkpt>
      <trkpt lat="46.67201" lon="-1.83461">
        <ele>21</ele>
        <time>2018-01-13T10:17:58Z</time>
      </trkpt>
      <trkpt lat="46.67196" lon="-1.83446">
        <ele>21</ele>
        <time>2018-01-13T10:18:58Z</time>
      </trkpt>
      <trkpt lat="46.67186" lon="-1.83413">
        <ele>21</ele>
        <time>2018-01-13T10:19:58Z</time>
      </trkpt>
      <trkpt lat="46.67174" lon="-1.83374">
        <ele>22</ele>
        <time>2018-01-13T10:20:58Z</time>
      </trkpt>
      <trkpt lat="46.6716" lon="-1.83332">
        <ele>23</ele>
        <time>2018-01-13T10:21:58Z</time>
      </trkpt>
      <trkpt lat="46.67147" lon="-1.83295">
        <ele>22</ele>
        <time>2018-01-13T10:22:58Z</time>
      </trkpt>
      <trkpt lat="46.67135" lon="-1.83267">
        <ele>22</ele>
        <time>2018-01-13T10:23:58Z</time>
      </trkpt>
      <trkpt lat="46.6712" lon="-1.8323">
        <ele>22</ele>
        <time>2018-01-13T10:24:58Z</time>
      </trkpt>
      <trkpt lat="46.67104" lon="-1.83196">
        <ele>21</ele>
        <time>2018-01-13T10:25:58Z</time>
      </trkpt>
      <trkpt lat="46.67088" lon="-1.83161">
        <ele>21</ele>
        <time>2018-01-13T10:26:58Z</time>
      </trkpt>
      <trkpt lat="46.67068" lon="-1.83121">
        <ele>20</ele>
        <time>2018-01-13T10:27:58Z</time>
      </trkpt>
      <trkpt lat="46.67064" lon="-1.83112">
        <ele>20</ele>
        <time>2018-01-13T10:28:58Z</time>
      </trkpt>
      <trkpt lat="46.67063" lon="-1.83109">
        <ele>20</ele>
        <time>2018-01-13T10:29:58Z</time>
      </trkpt>
      <trkpt lat="46.67051" lon="-1.83086">
        <ele>19</ele>
        <time>2018-01-13T10:30:58Z</time>
      </trkpt>
      <trkpt lat="46.6704" lon="-1.83062">
        <ele>19</ele>
        <time>2018-01-13T10:31:58Z</time>
      </trkpt>
      <trkpt lat="46.67035" lon="-1.8305">
        <ele>18</ele>
        <time>2018-01-13T10:32:58Z</time>
      </trkpt>
      <trkpt lat="46.6703" lon="-1.83036">
        <ele>18</ele>
        <time>2018-01-13T10:33:58Z</time>
      </trkpt>
      <trkpt lat="46.67022" lon="-1.8301">
        <ele>18</ele>
        <time>2018-01-13T10:34:58Z</time>
      </trkpt>
      <trkpt lat="46.67014" lon="-1.82981">
        <ele>18</ele>
        <time>2018-01-13T10:35:58Z</time>
      </trkpt>
      <trkpt lat="46.67012" lon="-1.82975">
        <ele>18</ele>
        <time>2018-01-13T10:36:58Z</time>
      </trkpt>
      <trkpt lat="46.67012" lon="-1.82973">
        <ele>18</ele>
        <time>2018-01-13T10:37:58Z</time>
      </trkpt>
      <trkpt lat="46.67007" lon="-1.82957">
        <ele>18</ele>
        <time>2018-01-13T10:38:58Z</time>
      </trkpt>
      <trkpt lat="46.67005" lon="-1.82947">
        <ele>18</ele>
        <time>2018-01-13T10:39:58Z</time>
      </trkpt>
      <trkpt lat="46.67001" lon="-1.8293">
        <ele>18</ele>
        <time>2018-01-13T10:40:58Z</time>
      </trkpt>
      <trkpt lat="46.66997" lon="-1.82913">
        <ele>18</ele>
        <time>2018-01-13T10:41:58Z</time>
      </trkpt>
      <trkpt lat="46.66996" lon="-1.82904">
        <ele>18</ele>
        <time>2018-01-13T10:42:58Z</time>
      </trkpt>
      <trkpt lat="46.66995" lon="-1.82892">
        <ele>18</ele>
        <time>2018-01-13T10:43:58Z</time>
      </trkpt>
      <trkpt lat="46.66995" lon="-1.82876">
        <ele>18</ele>
        <time>2018-01-13T10:44:58Z</time>
      </trkpt>
      <trkpt lat="46.66995" lon="-1.82867">
        <ele>18</ele>
        <time>2018-01-13T10:45:58Z</time>
      </trkpt>
      <trkpt lat="46.66995" lon="-1.8286">
        <ele>18</ele>
        <time>2018-01-13T10:46:58Z</time>
      </trkpt>
      <trkpt lat="46.66995" lon="-1.82856">
        <ele>18</ele>
        <time>2018-01-13T10:47:58Z</time>
      </trkpt>
      <trkpt lat="46.66996" lon="-1.8285">
        <ele>18</ele>
        <time>2018-01-13T10:48:58Z</time>
      </trkpt>
      <trkpt lat="46.66997" lon="-1.82846">
        <ele>18</ele>
        <time>2018-01-13T10:49:58Z</time>
      </trkpt>
      <trkpt lat="46.67002" lon="-1.82833">
        <ele>18</ele>
        <time>2018-01-13T10:50:58Z</time>
      </trkpt>
      <trkpt lat="46.6701" lon="-1.82811">
        <ele>18</ele>
        <time>2018-01-13T10:51:58Z</time>
      </trkpt>
      <trkpt lat="46.67016" lon="-1.82794">
        <ele>18</ele>
        <time>2018-01-13T10:52:58Z</time>
      </trkpt>
      <trkpt lat="46.67021" lon="-1.82782">
        <ele>18</ele>
        <time>2018-01-13T10:53:58Z</time>
      </trkpt>
      <trkpt lat="46.67025" lon="-1.82771">
        <ele>18</ele>
        <time>2018-01-13T10:54:58Z</time>
      </trkpt>
      <trkpt lat="46.67029" lon="-1.82759">
        <ele>18</ele>
        <time>2018-01-13T10:55:58Z</time>
      </trkpt>
      <trkpt lat="46.67034" lon="-1.8274">
        <ele>19</ele>
        <time>2018-01-13T10:56:58Z</time>
      </trkpt>
      <trkpt lat="46.67039" lon="-1.82724">
        <ele>20</ele>
        <time>2018-01-13T10:57:58Z</time>
      </trkpt>
      <trkpt lat="46.67042" lon="-1.82709">
        <ele>20</ele>
        <time>2018-01-13T10:58:58Z</time>
      </trkpt>
      <trkpt lat="46.67043" lon="-1.82709">
        <ele>21</ele>
        <time>2018-01-13T10:59:58Z</time>
      </trkpt>
      <trkpt lat="46.67045" lon="-1.82699">
        <ele>21</ele>
        <time>2018-01-13T11:00:58Z</time>
      </trkpt>
      <trkpt lat="46.67045" lon="-1.82694">
        <ele>21</ele>
        <time>2018-01-13T11:01:58Z</time>
      </trkpt>
      <trkpt lat="46.67045" lon="-1.82694">
        <ele>21</ele>
        <time>2018-01-13T11:02:58Z</time>
      </trkpt>
      <trkpt lat="46.67045" lon="-1.82687">
        <ele>22</ele>
        <time>2018-01-13T11:03:58Z</time>
      </trkpt>
      <trkpt lat="46.67048" lon="-1.82684">
        <ele>22</ele>
        <time>2018-01-13T11:04:58Z</time>
      </trkpt>
      <trkpt lat="46.67059" lon="-1.82675">
        <ele>22</ele>
        <time>2018-01-13T11:05:58Z</time>
      </trkpt>
      <trkpt lat="46.67059" lon="-1.82675">
        <ele>22</ele>
        <time>2018-01-13T11:06:58Z</time>
      </trkpt>
      <trkpt lat="46.6706" lon="-1.82674">
        <ele>22</ele>
        <time>2018-01-13T11:07:58Z</time>
      </trkpt>
      <trkpt lat="46.6706" lon="-1.82673">
        <ele>22</ele>
        <time>2018-01-13T11:08:58Z</time>
      </trkpt>
      <trkpt lat="46.6706" lon="-1.82672">
        <ele>22</ele>
        <time>2018-01-13T11:09:58Z</time>
      </trkpt>
      <trkpt lat="46.6706" lon="-1.82671">
        <ele>23</ele>
        <time>2018-01-13T11:10:58Z</time>
      </trkpt>
      <trkpt lat="46.67061" lon="-1.8267">
        <ele>23</ele>
        <time>2018-01-13T11:11:58Z</time>
      </trkpt>
      <trkpt lat="46.67061" lon="-1.82669">
        <ele>23</ele>
        <time>2018-01-13T11:12:58Z</time>
      </trkpt>
      <trkpt lat="46.67061" lon="-1.82668">
        <ele>23</ele>
        <time>2018-01-13T11:13:58Z</time>
      </trkpt>
      <trkpt lat="46.67062" lon="-1.82667">
        <ele>23</ele>
        <time>2018-01-13T11:14:58Z</time>
      </trkpt>
      <trkpt lat="46.67063" lon="-1.82666">
        <ele>23</ele>
        <time>2018-01-13T11:15:58Z</time>
      </trkpt>
      <trkpt lat="46.67063" lon="-1.82665">
        <ele>23</ele>
        <time>2018-01-13T11:16:58Z</time>
      </trkpt>
      <trkpt lat="46.67064" lon="-1.82665">
        <ele>23</ele>
        <time>2018-01-13T11:17:58Z</time>
      </trkpt>
      <trkpt lat="46.67064" lon="-1.82664">
        <ele>23</ele>
        <time>2018-01-13T11:18:58Z</time>
      </trkpt>
      <trkpt lat="46.67065" lon="-1.82663">
        <ele>23</ele>
        <time>2018-01-13T11:19:58Z</time>
      </trkpt>
      <trkpt lat="46.67066" lon="-1.82663">
        <ele>23</ele>
        <time>2018-01-13T11:20:58Z</time>
      </trkpt>
      <trkpt lat="46.67067" lon="-1.82662">
        <ele>23</ele>
        <time>2018-01-13T11:21:58Z</time>
      </trkpt>
      <trkpt lat="46.67068" lon="-1.82662">
        <ele>23</ele>
        <time>2018-01-13T11:22:58Z</time>
      </trkpt>
      <trkpt lat="46.67069" lon="-1.82662">
        <ele>23</ele>
        <time>2018-01-13T11:23:58Z</time>
      </trkpt>
      <trkpt lat="46.67069" lon="-1.82661">
        <ele>23</ele>
        <time>2018-01-13T11:24:58Z</time>
      </trkpt>
      <trkpt lat="46.6707" lon="-1.82661">
        <ele>23</ele>
        <time>2018-01-13T11:25:58Z</time>
      </trkpt>
      <trkpt lat="46.67074" lon="-1.82649">
        <ele>24</ele>
        <time>2018-01-13T11:26:58Z</time>
      </trkpt>
      <trkpt lat="46.67077" lon="-1.82641">
        <ele>24</ele>
        <time>2018-01-13T11:27:58Z</time>
      </trkpt>
      <trkpt lat="46.67078" lon="-1.82634">
        <ele>25</ele>
        <time>2018-01-13T11:28:58Z</time>
      </trkpt>
      <trkpt lat="46.67079" lon="-1.82617">
        <ele>25</ele>
        <time>2018-01-13T11:29:58Z</time>
      </trkpt>
      <trkpt lat="46.6708" lon="-1.82612">
        <ele>26</ele>
        <time>2018-01-13T11:30:58Z</time>
      </trkpt>
      <trkpt lat="46.6708" lon="-1.82607">
        <ele>26</ele>
        <time>2018-01-13T11:31:58Z</time>
      </trkpt>
      <trkpt lat="46.67082" lon="-1.82601">
        <ele>26</ele>
        <time>2018-01-13T11:32:58Z</time>
      </trkpt>
      <trkpt lat="46.67084" lon="-1.82595">
        <ele>26</ele>
        <time>2018-01-13T11:33:58Z</time>
      </trkpt>
      <trkpt lat="46.67086" lon="-1.82589">
        <ele>27</ele>
        <time>2018-01-13T11:34:58Z</time>
      </trkpt>
      <trkpt lat="46.67088" lon="-1.82583">
        <ele>27</ele>
        <time>2018-01-13T11:35:58Z</time>
      </trkpt>
      <trkpt lat="46.67092" lon="-1.82577">
        <ele>27</ele>
        <time>2018-01-13T11:36:58Z</time>
      </trkpt>
      <trkpt lat="46.67098" lon="-1.82565">
        <ele>28</ele>
        <time>2018-01-13T11:37:58Z</time>
      </trkpt>
      <trkpt lat="46.67106" lon="-1.82553">
        <ele>29</ele>
        <time>2018-01-13T11:38:58Z</time>
      </trkpt>
      <trkpt lat="46.67113" lon="-1.82541">
        <ele>29</ele>
        <time>2018-01-13T11:39:58Z</time>
      </trkpt>
      <trkpt lat="46.67128" lon="-1.82518">
        <ele>30</ele>
        <time>2018-01-13T11:40:58Z</time>
      </trkpt>
      <trkpt lat="46.67136" lon="-1.82506">
        <ele>31</ele>
        <time>2018-01-13T11:41:58Z</time>
      </trkpt>
      <trkpt lat="46.67143" lon="-1.82493">
        <ele>31</ele>
        <time>2018-01-13T11:42:58Z</time>
      </trkpt>
      <trkpt lat="46.67149" lon="-1.8248">
        <ele>31</ele>
        <time>2018-01-13T11:43:58Z</time>
      </trkpt>
      <trkpt lat="46.67158" lon="-1.82461">
        <ele>31</ele>
        <time>2018-01-13T11:44:58Z</time>
      </trkpt>
      <trkpt lat="46.67172" lon="-1.82433">
        <ele>31</ele>
        <time>2018-01-13T11:45:58Z</time>
      </trkpt>
      <trkpt lat="46.67192" lon="-1.8239">
        <ele>32</ele>
        <time>2018-01-13T11:46:58Z</time>
      </trkpt>
      <trkpt lat="46.67207" lon="-1.82355">
        <ele>32</ele>
        <time>2018-01-13T11:47:58Z</time>
      </trkpt>
      <trkpt lat="46.67223" lon="-1.82319">
        <ele>32</ele>
        <time>2018-01-13T11:48:58Z</time>
      </trkpt>
      <trkpt lat="46.67229" lon="-1.82304">
        <ele>32</ele>
        <time>2018-01-13T11:49:58Z</time>
      </trkpt>
      <trkpt lat="46.67235" lon="-1.82289">
        <ele>32</ele>
        <time>2018-01-13T11:50:58Z</time>
      </trkpt>
      <trkpt lat="46.67245" lon="-1.82267">
        <ele>32</ele>
        <time>2018-01-13T11:51:58Z</time>
      </trkpt>
      <trkpt lat="46.67251" lon="-1.82252">
        <ele>32</ele>
        <time>2018-01-13T11:52:58Z</time>
      </trkpt>
      <trkpt lat="46.67261" lon="-1.8223">
        <ele>32</ele>
        <time>2018-01-13T11:53:58Z</time>
      </trkpt>
      <trkpt lat="46.6727" lon="-1.82207">
        <ele>32</ele>
        <time>2018-01-13T11:54:58Z</time>
      </trkpt>
      <trkpt lat="46.6728" lon="-1.82178">
        <ele>32</ele>
        <time>2018-01-13T11:55:58Z</time>
      </trkpt>
      <trkpt lat="46.67285" lon="-1.82162">
        <ele>32</ele>
        <time>2018-01-13T11:56:58Z</time>
      </trkpt>
      <trkpt lat="46.6729" lon="-1.82148">
        <ele>32</ele>
        <time>2018-01-13T11:57:58Z</time>
      </trkpt>
      <trkpt lat="46.67305" lon="-1.82105">
        <ele>32</ele>
        <time>2018-01-13T11:58:58Z</time>
      </trkpt>
      <trkpt lat="46.6731" lon="-1.8209">
        <ele>32</ele>
        <time>2018-01-13T11:59:58Z</time>
      </trkpt>
      <trkpt lat="46.67317" lon="-1.82062">
        <ele>33</ele>
        <time>2018-01-13T12:00:58Z</time>
      </trkpt>
      <trkpt lat="46.67327" lon="-1.82026">
        <ele>33</ele>
        <time>2018-01-13T12:01:58Z</time>
      </trkpt>
      <trkpt lat="46.6733" lon="-1.82015">
        <ele>33</ele>
        <time>2018-01-13T12:02:58Z</time>
      </trkpt>
      <trkpt lat="46.67337" lon="-1.81992">
        <ele>33</ele>
        <time>2018-01-13T12:03:58Z</time>
      </trkpt>
      <trkpt lat="46.67347" lon="-1.8196">
        <ele>33</ele>
        <time>2018-01-13T12:04:58Z</time>
      </trkpt>
      <trkpt lat="46.67353" lon="-1.81943">
        <ele>33</ele>
        <time>2018-01-13T12:05:58Z</time>
      </trkpt>
      <trkpt lat="46.67364" lon="-1.81917">
        <ele>32</ele>
        <time>2018-01-13T12:06:58Z</time>
      </trkpt>
      <trkpt lat="46.67373" lon="-1.81897">
        <ele>32</ele>
        <time>2018-01-13T12:07:58Z</time>
      </trkpt>
      <trkpt lat="46.67386" lon="-1.81865">
        <ele>32</ele>
        <time>2018-01-13T12:08:58Z</time>
      </trkpt>
      <trkpt lat="46.67391" lon="-1.81851">
        <ele>32</ele>
        <time>2018-01-13T12:09:58Z</time>
      </trkpt>
      <trkpt lat="46.67395" lon="-1.81838">
        <ele>32</ele>
        <time>2018-01-13T12:10:58Z</time>
      </trkpt>
      <trkpt lat="46.67399" lon="-1.81824">
        <ele>32</ele>
        <time>2018-01-13T12:11:58Z</time>
      </trkpt>
      <trkpt lat="46.67402" lon="-1.81808">
        <ele>32</ele>
        <time>2018-01-13T12:12:58Z</time>
      </trkpt>
      <trkpt lat="46.67406" lon="-1.81783">
        <ele>32</ele>
        <time>2018-01-13T12:13:58Z</time>
      </trkpt>
      <trkpt lat="46.6741" lon="-1.8174">
        <ele>32</ele>
        <time>2018-01-13T12:14:58Z</time>
      </trkpt>
      <trkpt lat="46.67414" lon="-1.81695">
        <ele>32</ele>
        <time>2018-01-13T12:15:58Z</time>
      </trkpt>
      <trkpt lat="46.67416" lon="-1.81674">
        <ele>32</ele>
        <time>2018-01-13T12:16:58Z</time>
      </trkpt>
      <trkpt lat="46.67418" lon="-1.81652">
        <ele>32</ele>
        <time>2018-01-13T12:17:58Z</time>
      </trkpt>
      <trkpt lat="46.67422" lon="-1.81623">
        <ele>32</ele>
        <time>2018-01-13T12:18:58Z</time>
      </trkpt>
      <trkpt lat="46.67426" lon="-1.81595">
        <ele>32</ele>
        <time>2018-01-13T12:19:58Z</time>
      </trkpt>
      <trkpt lat="46.67432" lon="-1.81568">
        <ele>33</ele>
        <time>2018-01-13T12:20:58Z</time>
      </trkpt>
      <trkpt lat="46.67442" lon="-1.81528">
        <ele>34</ele>
        <time>2018-01-13T12:21:58Z</time>
      </trkpt>
      <trkpt lat="46.67449" lon="-1.81501">
        <ele>35</ele>
        <time>2018-01-13T12:22:58Z</time>
      </trkpt>
      <trkpt lat="46.67457" lon="-1.81468">
        <ele>35</ele>
        <time>2018-01-13T12:23:58Z</time>
      </trkpt>
      <trkpt lat="46.67465" lon="-1.81438">
        <ele>35</ele>
        <time>2018-01-13T12:24:58Z</time>
      </trkpt>
      <trkpt lat="46.67471" lon="-1.8142">
        <ele>35</ele>
        <time>2018-01-13T12:25:58Z</time>
      </trkpt>
      <trkpt lat="46.67481" lon="-1.81393">
        <ele>35</ele>
        <time>2018-01-13T12:26:58Z</time>
      </trkpt>
      <trkpt lat="46.67488" lon="-1.8137">
        <ele>35</ele>
        <time>2018-01-13T12:27:58Z</time>
      </trkpt>
      <trkpt lat="46.67493" lon="-1.81347">
        <ele>35</ele>
        <time>2018-01-13T12:28:58Z</time>
      </trkpt>
      <trkpt lat="46.67498" lon="-1.81323">
        <ele>35</ele>
        <time>2018-01-13T12:29:58Z</time>
      </trkpt>
      <trkpt lat="46.67501" lon="-1.81301">
        <ele>35</ele>
        <time>2018-01-13T12:30:58Z</time>
      </trkpt>
      <trkpt lat="46.67503" lon="-1.81276">
        <ele>36</ele>
        <time>2018-01-13T12:31:58Z</time>
      </trkpt>
      <trkpt lat="46.67504" lon="-1.81254">
        <ele>36</ele>
        <time>2018-01-13T12:32:58Z</time>
      </trkpt>
      <trkpt lat="46.67504" lon="-1.81229">
        <ele>36</ele>
        <time>2018-01-13T12:33:58Z</time>
      </trkpt>
      <trkpt lat="46.67505" lon="-1.81206">
        <ele>35</ele>
        <time>2018-01-13T12:34:58Z</time>
      </trkpt>
      <trkpt lat="46.67505" lon="-1.81181">
        <ele>34</ele>
        <time>2018-01-13T12:35:58Z</time>
      </trkpt>
      <trkpt lat="46.67506" lon="-1.81156">
        <ele>34</ele>
        <time>2018-01-13T12:36:58Z</time>
      </trkpt>
      <trkpt lat="46.67506" lon="-1.81131">
        <ele>33</ele>
        <time>2018-01-13T12:37:58Z</time>
      </trkpt>
      <trkpt lat="46.67508" lon="-1.81105">
        <ele>32</ele>
        <time>2018-01-13T12:38:58Z</time>
      </trkpt>
      <trkpt lat="46.67511" lon="-1.81078">
        <ele>31</ele>
        <time>2018-01-13T12:39:58Z</time>
      </trkpt>
      <trkpt lat="46.67514" lon="-1.81053">
        <ele>32</ele>
        <time>2018-01-13T12:40:58Z</time>
      </trkpt>
      <trkpt lat="46.67518" lon="-1.81026">
        <ele>32</ele>
        <time>2018-01-13T12:41:58Z</time>
      </trkpt>
      <trkpt lat="46.67521" lon="-1.81013">
        <ele>32</ele>
        <time>2018-01-13T12:42:58Z</time>
      </trkpt>
      <trkpt lat="46.67525" lon="-1.80989">
        <ele>33</ele>
        <time>2018-01-13T12:43:58Z</time>
      </trkpt>
      <trkpt lat="46.67545" lon="-1.80903">
        <ele>35</ele>
        <time>2018-01-13T12:44:58Z</time>
      </trkpt>
      <trkpt lat="46.67555" lon="-1.80865">
        <ele>35</ele>
        <time>2018-01-13T12:45:58Z</time>
      </trkpt>
      <trkpt lat="46.67562" lon="-1.80834">
        <ele>35</ele>
        <time>2018-01-13T12:46:58Z</time>
      </trkpt>
      <trkpt lat="46.67565" lon="-1.80813">
        <ele>36</ele>
        <time>2018-01-13T12:47:58Z</time>
      </trkpt>
      <trkpt lat="46.67569" lon="-1.80785">
        <ele>36</ele>
        <time>2018-01-13T12:48:58Z</time>
      </trkpt>
      <trkpt lat="46.67571" lon="-1.80759">
        <ele>36</ele>
        <time>2018-01-13T12:49:58Z</time>
      </trkpt>
      <trkpt lat="46.67573" lon="-1.80732">
        <ele>36</ele>
        <time>2018-01-13T12:50:58Z</time>
      </trkpt>
      <trkpt lat="46.67573" lon="-1.80715">
        <ele>36</ele>
        <time>2018-01-13T12:51:58Z</time>
      </trkpt>
      <trkpt lat="46.67572" lon="-1.80697">
        <ele>37</ele>
        <time>2018-01-13T12:52:58Z</time>
      </trkpt>
      <trkpt lat="46.67571" lon="-1.80684">
        <ele>37</ele>
        <time>2018-01-13T12:53:58Z</time>
      </trkpt>
      <trkpt lat="46.6757" lon="-1.80645">
        <ele>37</ele>
        <time>2018-01-13T12:54:58Z</time>
      </trkpt>
      <trkpt lat="46.67571" lon="-1.80611">
        <ele>38</ele>
        <time>2018-01-13T12:55:58Z</time>
      </trkpt>
      <trkpt lat="46.67571" lon="-1.80579">
        <ele>38</ele>
        <time>2018-01-13T12:56:58Z</time>
      </trkpt>
      <trkpt lat="46.67572" lon="-1.80542">
        <ele>37</ele>
        <time>2018-01-13T12:57:58Z</time>
      </trkpt>
      <trkpt lat="46.67572" lon="-1.80522">
        <ele>37</ele>
        <time>2018-01-13T12:58:58Z</time>
      </trkpt>
      <trkpt lat="46.67571" lon="-1.80495">
        <ele>37</ele>
        <time>2018-01-13T12:59:58Z</time>
      </trkpt>
      <trkpt lat="46.67571" lon="-1.80464">
        <ele>37</ele>
        <time>2018-01-13T13:00:58Z</time>
      </trkpt>
      <trkpt lat="46.67571" lon="-1.80439">
        <ele>37</ele>
        <time>2018-01-13T13:01:58Z</time>
      </trkpt>
      <trkpt lat="46.6757" lon="-1.80409">
        <ele>37</ele>
        <time>2018-01-13T13:02:58Z</time>
      </trkpt>
      <trkpt lat="46.6757" lon="-1.80378">
        <ele>37</ele>
        <time>2018-01-13T13:03:58Z</time>
      </trkpt>
      <trkpt lat="46.6757" lon="-1.80352">
        <ele>37</ele>
        <time>2018-01-13T13:04:58Z</time>
      </trkpt>
      <trkpt lat="46.67569" lon="-1.80328">
        <ele>37</ele>
        <time>2018-01-13T13:05:58Z</time>
      </trkpt>
      <trkpt lat="46.67569" lon="-1.8031">
        <ele>37</ele>
        <time>2018-01-13T13:06:58Z</time>
      </trkpt>
      <trkpt lat="46.67566" lon="-1.80289">
        <ele>36</ele>
        <time>2018-01-13T13:07:58Z</time>
      </trkpt>
      <trkpt lat="46.67564" lon="-1.80267">
        <ele>36</ele>
        <time>2018-01-13T13:08:58Z</time>
      </trkpt>
      <trkpt lat="46.67559" lon="-1.80243">
        <ele>36</ele>
        <time>2018-01-13T13:09:58Z</time>
      </trkpt>
      <trkpt lat="46.67555" lon="-1.80217">
        <ele>36</ele>
        <time>2018-01-13T13:10:58Z</time>
      </trkpt>
      <trkpt lat="46.67551" lon="-1.80193">
        <ele>36</ele>
        <time>2018-01-13T13:11:58Z</time>
      </trkpt>
      <trkpt lat="46.67549" lon="-1.80168">
        <ele>37</ele>
        <time>2018-01-13T13:12:58Z</time>
      </trkpt>
      <trkpt lat="46.67548" lon="-1.8014">
        <ele>37</ele>
        <time>2018-01-13T13:13:58Z</time>
      </trkpt>
      <trkpt lat="46.67548" lon="-1.80112">
        <ele>38</ele>
        <time>2018-01-13T13:14:58Z</time>
      </trkpt>
      <trkpt lat="46.67549" lon="-1.80084">
        <ele>38</ele>
        <time>2018-01-13T13:15:58Z</time>
      </trkpt>
      <trkpt lat="46.6755" lon="-1.80059">
        <ele>38</ele>
        <time>2018-01-13T13:16:58Z</time>
      </trkpt>
      <trkpt lat="46.67553" lon="-1.80032">
        <ele>39</ele>
        <time>2018-01-13T13:17:58Z</time>
      </trkpt>
      <trkpt lat="46.67553" lon="-1.80026">
        <ele>39</ele>
        <time>2018-01-13T13:18:58Z</time>
      </trkpt>
      <trkpt lat="46.67556" lon="-1.79998">
        <ele>39</ele>
        <time>2018-01-13T13:19:58Z</time>
      </trkpt>
      <trkpt lat="46.67558" lon="-1.79986">
        <ele>39</ele>
        <time>2018-01-13T13:20:58Z</time>
      </trkpt>
      <trkpt lat="46.6756" lon="-1.79973">
        <ele>39</ele>
        <time>2018-01-13T13:21:58Z</time>
      </trkpt>
      <trkpt lat="46.67561" lon="-1.79961">
        <ele>40</ele>
        <time>2018-01-13T13:22:58Z</time>
      </trkpt>
      <trkpt lat="46.67568" lon="-1.79939">
        <ele>40</ele>
        <time>2018-01-13T13:23:58Z</time>
      </trkpt>
      <trkpt lat="46.67575" lon="-1.79917">
        <ele>41</ele>
        <time>2018-01-13T13:24:58Z</time>
      </trkpt>
      <trkpt lat="46.67579" lon="-1.79906">
        <ele>41</ele>
        <time>2018-01-13T13:25:58Z</time>
      </trkpt>
      <trkpt lat="46.67583" lon="-1.79895">
        <ele>41</ele>
        <time>2018-01-13T13:26:58Z</time>
      </trkpt>
      <trkpt lat="46.67589" lon="-1.79878">
        <ele>42</ele>
        <time>2018-01-13T13:27:58Z</time>
      </trkpt>
      <trkpt lat="46.67594" lon="-1.79861">
        <ele>42</ele>
        <time>2018-01-13T13:28:58Z</time>
      </trkpt>
      <trkpt lat="46.67597" lon="-1.79849">
        <ele>42</ele>
        <time>2018-01-13T13:29:58Z</time>
      </trkpt>
      <trkpt lat="46.67599" lon="-1.79837">
        <ele>42</ele>
        <time>2018-01-13T13:30:58Z</time>
      </trkpt>
      <trkpt lat="46.67601" lon="-1.79826">
        <ele>42</ele>
        <time>2018-01-13T13:31:58Z</time>
      </trkpt>
      <trkpt lat="46.67603" lon="-1.79809">
        <ele>42</ele>
        <time>2018-01-13T13:32:58Z</time>
      </trkpt>
      <trkpt lat="46.67604" lon="-1.79787">
        <ele>42</ele>
        <time>2018-01-13T13:33:58Z</time>
      </trkpt>
      <trkpt lat="46.67605" lon="-1.79761">
        <ele>41</ele>
        <time>2018-01-13T13:34:58Z</time>
      </trkpt>
      <trkpt lat="46.67607" lon="-1.79732">
        <ele>41</ele>
        <time>2018-01-13T13:35:58Z</time>
      </trkpt>
      <trkpt lat="46.6761" lon="-1.79707">
        <ele>41</ele>
        <time>2018-01-13T13:36:58Z</time>
      </trkpt>
      <trkpt lat="46.67613" lon="-1.79687">
        <ele>41</ele>
        <time>2018-01-13T13:37:58Z</time>
      </trkpt>
      <trkpt lat="46.6762" lon="-1.79658">
        <ele>40</ele>
        <time>2018-01-13T13:38:58Z</time>
      </trkpt>
      <trkpt lat="46.67625" lon="-1.79639">
        <ele>40</ele>
        <time>2018-01-13T13:39:58Z</time>
      </trkpt>
      <trkpt lat="46.6763" lon="-1.79615">
        <ele>40</ele>
        <time>2018-01-13T13:40:58Z</time>
      </trkpt>
      <trkpt lat="46.67633" lon="-1.79592">
        <ele>40</ele>
        <time>2018-01-13T13:41:58Z</time>
      </trkpt>
      <trkpt lat="46.67634" lon="-1.79568">
        <ele>40</ele>
        <time>2018-01-13T13:42:58Z</time>
      </trkpt>
      <trkpt lat="46.67634" lon="-1.79556">
        <ele>40</ele>
        <time>2018-01-13T13:43:58Z</time>
      </trkpt>
      <trkpt lat="46.67634" lon="-1.79544">
        <ele>40</ele>
        <time>2018-01-13T13:44:58Z</time>
      </trkpt>
      <trkpt lat="46.67631" lon="-1.79521">
        <ele>39</ele>
        <time>2018-01-13T13:45:58Z</time>
      </trkpt>
      <trkpt lat="46.67629" lon="-1.79509">
        <ele>39</ele>
        <time>2018-01-13T13:46:58Z</time>
      </trkpt>
      <trkpt lat="46.67627" lon="-1.79499">
        <ele>39</ele>
        <time>2018-01-13T13:47:58Z</time>
      </trkpt>
      <trkpt lat="46.67623" lon="-1.79488">
        <ele>40</ele>
        <time>2018-01-13T13:48:58Z</time>
      </trkpt>
      <trkpt lat="46.6762" lon="-1.79477">
        <ele>40</ele>
        <time>2018-01-13T13:49:58Z</time>
      </trkpt>
      <trkpt lat="46.67609" lon="-1.7945">
        <ele>40</ele>
        <time>2018-01-13T13:50:58Z</time>
      </trkpt>
      <trkpt lat="46.67599" lon="-1.79426">
        <ele>41</ele>
        <time>2018-01-13T13:51:58Z</time>
      </trkpt>
      <trkpt lat="46.67596" lon="-1.79417">
        <ele>41</ele>
        <time>2018-01-13T13:52:58Z</time>
      </trkpt>
      <trkpt lat="46.67593" lon="-1.79407">
        <ele>41</ele>
        <time>2018-01-13T13:53:58Z</time>
      </trkpt>
      <trkpt lat="46.6759" lon="-1.79398">
        <ele>41</ele>
        <time>2018-01-13T13:54:58Z</time>
      </trkpt>
      <trkpt lat="46.67586" lon="-1.79387">
        <ele>41</ele>
        <time>2018-01-13T13:55:58Z</time>
      </trkpt>
      <trkpt lat="46.67583" lon="-1.79372">
        <ele>42</ele>
        <time>2018-01-13T13:56:58Z</time>
      </trkpt>
      <trkpt lat="46.67581" lon="-1.79355">
        <ele>42</ele>
        <time>2018-01-13T13:57:58Z</time>
      </trkpt>
      <trkpt lat="46.6758" lon="-1.7934">
        <ele>42</ele>
        <time>2018-01-13T13:58:58Z</time>
      </trkpt>
      <trkpt lat="46.6758" lon="-1.79328">
        <ele>42</ele>
        <time>2018-01-13T13:59:58Z</time>
      </trkpt>
      <trkpt lat="46.67579" lon="-1.79279">
        <ele>43</ele>
        <time>2018-01-13T14:00:58Z</time>
      </trkpt>
      <trkpt lat="46.67578" lon="-1.79253">
        <ele>43</ele>
        <time>2018-01-13T14:01:58Z</time>
      </trkpt>
      <trkpt lat="46.67577" lon="-1.79214">
        <ele>43</ele>
        <time>2018-01-13T14:02:58Z</time>
      </trkpt>
      <trkpt lat="46.67576" lon="-1.79175">
        <ele>43</ele>
        <time>2018-01-13T14:03:58Z</time>
      </trkpt>
      <trkpt lat="46.67576" lon="-1.79159">
        <ele>43</ele>
        <time>2018-01-13T14:04:58Z</time>
      </trkpt>
      <trkpt lat="46.67576" lon="-1.79128">
        <ele>42</ele>
        <time>2018-01-13T14:05:58Z</time>
      </trkpt>
      <trkpt lat="46.67575" lon="-1.79106">
        <ele>42</ele>
        <time>2018-01-13T14:06:58Z</time>
      </trkpt>
      <trkpt lat="46.67572" lon="-1.79082">
        <ele>42</ele>
        <time>2018-01-13T14:07:58Z</time>
      </trkpt>
      <trkpt lat="46.67569" lon="-1.79056">
        <ele>41</ele>
        <time>2018-01-13T14:08:58Z</time>
      </trkpt>
      <trkpt lat="46.67565" lon="-1.79025">
        <ele>41</ele>
        <time>2018-01-13T14:09:58Z</time>
      </trkpt>
      <trkpt lat="46.67559" lon="-1.7899">
        <ele>40</ele>
        <time>2018-01-13T14:10:58Z</time>
      </trkpt>
      <trkpt lat="46.67556" lon="-1.78967">
        <ele>39</ele>
        <time>2018-01-13T14:11:58Z</time>
      </trkpt>
      <trkpt lat="46.67551" lon="-1.78936">
        <ele>37</ele>
        <time>2018-01-13T14:12:58Z</time>
      </trkpt>
      <trkpt lat="46.67545" lon="-1.78909">
        <ele>36</ele>
        <time>2018-01-13T14:13:58Z</time>
      </trkpt>
      <trkpt lat="46.6754" lon="-1.78889">
        <ele>36</ele>
        <time>2018-01-13T14:14:58Z</time>
      </trkpt>
      <trkpt lat="46.67532" lon="-1.7886">
        <ele>36</ele>
        <time>2018-01-13T14:15:58Z</time>
      </trkpt>
      <trkpt lat="46.67527" lon="-1.78838">
        <ele>36</ele>
        <time>2018-01-13T14:16:58Z</time>
      </trkpt>
      <trkpt lat="46.67523" lon="-1.78821">
        <ele>36</ele>
        <time>2018-01-13T14:17:58Z</time>
      </trkpt>
      <trkpt lat="46.67515" lon="-1.78791">
        <ele>36</ele>
        <time>2018-01-13T14:18:58Z</time>
      </trkpt>
      <trkpt lat="46.67513" lon="-1.78783">
        <ele>36</ele>
        <time>2018-01-13T14:19:58Z</time>
      </trkpt>
      <trkpt lat="46.67506" lon="-1.78755">
        <ele>36</ele>
        <time>2018-01-13T14:20:58Z</time>
      </trkpt>
      <trkpt lat="46.67499" lon="-1.78726">
        <ele>36</ele>
        <time>2018-01-13T14:21:58Z</time>
      </trkpt>
      <trkpt lat="46.67491" lon="-1.78695">
        <ele>36</ele>
        <time>2018-01-13T14:22:58Z</time>
      </trkpt>
      <trkpt lat="46.67481" lon="-1.78658">
        <ele>36</ele>
        <time>2018-01-13T14:23:58Z</time>
      </trkpt>
      <trkpt lat="46.67471" lon="-1.78619">
        <ele>35</ele>
        <time>2018-01-13T14:24:58Z</time>
      </trkpt>
      <trkpt lat="46.67465" lon="-1.78601">
        <ele>35</ele>
        <time>2018-01-13T14:25:58Z</time>
      </trkpt>
      <trkpt lat="46.67462" lon="-1.78591">
        <ele>35</ele>
        <time>2018-01-13T14:26:58Z</time>
      </trkpt>
      <trkpt lat="46.67457" lon="-1.78584">
        <ele>36</ele>
        <time>2018-01-13T14:27:58Z</time>
      </trkpt>
      <trkpt lat="46.67454" lon="-1.78576">
        <ele>36</ele>
        <time>2018-01-13T14:28:58Z</time>
      </trkpt>
      <trkpt lat="46.6745" lon="-1.7857">
        <ele>36</ele>
        <time>2018-01-13T14:29:58Z</time>
      </trkpt>
      <trkpt lat="46.67448" lon="-1.78566">
        <ele>36</ele>
        <time>2018-01-13T14:30:58Z</time>
      </trkpt>
      <trkpt lat="46.67445" lon="-1.78562">
        <ele>36</ele>
        <time>2018-01-13T14:31:58Z</time>
      </trkpt>
      <trkpt lat="46.67442" lon="-1.78559">
        <ele>36</ele>
        <time>2018-01-13T14:32:58Z</time>
      </trkpt>
      <trkpt lat="46.67435" lon="-1.78542">
        <ele>36</ele>
        <time>2018-01-13T14:33:58Z</time>
      </trkpt>
      <trkpt lat="46.67433" lon="-1.78533">
        <ele>36</ele>
        <time>2018-01-13T14:34:58Z</time>
      </trkpt>
      <trkpt lat="46.67431" lon="-1.78524">
        <ele>36</ele>
        <time>2018-01-13T14:35:58Z</time>
      </trkpt>
      <trkpt lat="46.67421" lon="-1.78499">
        <ele>36</ele>
        <time>2018-01-13T14:36:58Z</time>
      </trkpt>
      <trkpt lat="46.6741" lon="-1.78476">
        <ele>36</ele>
        <time>2018-01-13T14:37:58Z</time>
      </trkpt>
      <trkpt lat="46.67402" lon="-1.78457">
        <ele>37</ele>
        <time>2018-01-13T14:38:58Z</time>
      </trkpt>
      <trkpt lat="46.67389" lon="-1.78426">
        <ele>37</ele>
        <time>2018-01-13T14:39:58Z</time>
      </trkpt>
      <trkpt lat="46.67379" lon="-1.78401">
        <ele>37</ele>
        <time>2018-01-13T14:40:58Z</time>
      </trkpt>
      <trkpt lat="46.67373" lon="-1.78382">
        <ele>37</ele>
        <time>2018-01-13T14:41:58Z</time>
      </trkpt>
      <trkpt lat="46.67368" lon="-1.78363">
        <ele>37</ele>
        <time>2018-01-13T14:42:58Z</time>
      </trkpt>
      <trkpt lat="46.67362" lon="-1.78345">
        <ele>37</ele>
        <time>2018-01-13T14:43:58Z</time>
      </trkpt>
      <trkpt lat="46.67355" lon="-1.78325">
        <ele>37</ele>
        <time>2018-01-13T14:44:58Z</time>
      </trkpt>
      <trkpt lat="46.67351" lon="-1.78317">
        <ele>37</ele>
        <time>2018-01-13T14:45:58Z</time>
      </trkpt>
      <trkpt lat="46.67347" lon="-1.78309">
        <ele>37</ele>
        <time>2018-01-13T14:46:58Z</time>
      </trkpt>
      <trkpt lat="46.67341" lon="-1.78301">
        <ele>37</ele>
        <time>2018-01-13T14:47:58Z</time>
      </trkpt>
      <trkpt lat="46.67336" lon="-1.78294">
        <ele>37</ele>
        <time>2018-01-13T14:48:58Z</time>
      </trkpt>
      <trkpt lat="46.6733" lon="-1.78289">
        <ele>37</ele>
        <time>2018-01-13T14:49:58Z</time>
      </trkpt>
      <trkpt lat="46.67324" lon="-1.78284">
        <ele>37</ele>
        <time>2018-01-13T14:50:58Z</time>
      </trkpt>
      <trkpt lat="46.67315" lon="-1.78278">
        <ele>37</ele>
        <time>2018-01-13T14:51:58Z</time>
      </trkpt>
      <trkpt lat="46.67307" lon="-1.78274">
        <ele>37</ele>
        <time>2018-01-13T14:52:58Z</time>
      </trkpt>
      <trkpt lat="46.67273" lon="-1.78259">
        <ele>37</ele>
        <time>2018-01-13T14:53:58Z</time>
      </trkpt>
      <trkpt lat="46.67251" lon="-1.78249">
        <ele>37</ele>
        <time>2018-01-13T14:54:58Z</time>
      </trkpt>
      <trkpt lat="46.67221" lon="-1.78237">
        <ele>38</ele>
        <time>2018-01-13T14:55:58Z</time>
      </trkpt>
      <trkpt lat="46.67208" lon="-1.7823">
        <ele>38</ele>
        <time>2018-01-13T14:56:58Z</time>
      </trkpt>
      <trkpt lat="46.67201" lon="-1.78226">
        <ele>38</ele>
        <time>2018-01-13T14:57:58Z</time>
      </trkpt>
      <trkpt lat="46.67196" lon="-1.78221">
        <ele>39</ele>
        <time>2018-01-13T14:58:58Z</time>
      </trkpt>
      <trkpt lat="46.67186" lon="-1.78212">
        <ele>39</ele>
        <time>2018-01-13T14:59:58Z</time>
      </trkpt>
      <trkpt lat="46.67181" lon="-1.78202">
        <ele>39</ele>
        <time>2018-01-13T15:00:58Z</time>
      </trkpt>
      <trkpt lat="46.67176" lon="-1.78192">
        <ele>39</ele>
        <time>2018-01-13T15:01:58Z</time>
      </trkpt>
      <trkpt lat="46.67174" lon="-1.78185">
        <ele>40</ele>
        <time>2018-01-13T15:02:58Z</time>
      </trkpt>
      <trkpt lat="46.67172" lon="-1.78177">
        <ele>40</ele>
        <time>2018-01-13T15:03:58Z</time>
      </trkpt>
      <trkpt lat="46.67169" lon="-1.78158">
        <ele>40</ele>
        <time>2018-01-13T15:04:58Z</time>
      </trkpt>
      <trkpt lat="46.67165" lon="-1.78136">
        <ele>40</ele>
        <time>2018-01-13T15:05:58Z</time>
      </trkpt>
      <trkpt lat="46.67161" lon="-1.78106">
        <ele>41</ele>
        <time>2018-01-13T15:06:58Z</time>
      </trkpt>
      <trkpt lat="46.67158" lon="-1.78077">
        <ele>41</ele>
        <time>2018-01-13T15:07:58Z</time>
      </trkpt>
      <trkpt lat="46.67157" lon="-1.7806">
        <ele>41</ele>
        <time>2018-01-13T15:08:58Z</time>
      </trkpt>
      <trkpt lat="46.67155" lon="-1.78038">
        <ele>41</ele>
        <time>2018-01-13T15:09:58Z</time>
      </trkpt>
      <trkpt lat="46.67155" lon="-1.78015">
        <ele>41</ele>
        <time>2018-01-13T15:10:58Z</time>
      </trkpt>
      <trkpt lat="46.67154" lon="-1.77993">
        <ele>41</ele>
        <time>2018-01-13T15:11:58Z</time>
      </trkpt>
      <trkpt lat="46.67152" lon="-1.77971">
        <ele>42</ele>
        <time>2018-01-13T15:12:58Z</time>
      </trkpt>
      <trkpt lat="46.67147" lon="-1.77951">
        <ele>42</ele>
        <time>2018-01-13T15:13:58Z</time>
      </trkpt>
      <trkpt lat="46.6714" lon="-1.77931">
        <ele>42</ele>
        <time>2018-01-13T15:14:58Z</time>
      </trkpt>
      <trkpt lat="46.67132" lon="-1.77911">
        <ele>43</ele>
        <time>2018-01-13T15:15:58Z</time>
      </trkpt>
      <trkpt lat="46.67116" lon="-1.77878">
        <ele>43</ele>
        <time>2018-01-13T15:16:58Z</time>
      </trkpt>
      <trkpt lat="46.67095" lon="-1.77835">
        <ele>43</ele>
        <time>2018-01-13T15:17:58Z</time>
      </trkpt>
      <trkpt lat="46.67069" lon="-1.77781">
        <ele>44</ele>
        <time>2018-01-13T15:18:58Z</time>
      </trkpt>
      <trkpt lat="46.6706" lon="-1.77764">
        <ele>44</ele>
        <time>2018-01-13T15:19:58Z</time>
      </trkpt>
      <trkpt lat="46.67055" lon="-1.77752">
        <ele>44</ele>
        <time>2018-01-13T15:20:58Z</time>
      </trkpt>
      <trkpt lat="46.67054" lon="-1.7775">
        <ele>44</ele>
        <time>2018-01-13T15:21:58Z</time>
      </trkpt>
      <trkpt lat="46.67033" lon="-1.77706">
        <ele>45</ele>
        <time>2018-01-13T15:22:58Z</time>
      </trkpt>
      <trkpt lat="46.67016" lon="-1.77669">
        <ele>45</ele>
        <time>2018-01-13T15:23:58Z</time>
      </trkpt>
      <trkpt lat="46.66998" lon="-1.77631">
        <ele>45</ele>
        <time>2018-01-13T15:24:58Z</time>
      </trkpt>
      <trkpt lat="46.66984" lon="-1.77605">
        <ele>46</ele>
        <time>2018-01-13T15:25:58Z</time>
      </trkpt>
      <trkpt lat="46.66971" lon="-1.77577">
        <ele>46</ele>
        <time>2018-01-13T15:26:58Z</time>
      </trkpt>
      <trkpt lat="46.66962" lon="-1.77558">
        <ele>46</ele>
        <time>2018-01-13T15:27:58Z</time>
      </trkpt>
      <trkpt lat="46.6696" lon="-1.77551">
        <ele>46</ele>
        <time>2018-01-13T15:28:58Z</time>
      </trkpt>
      <trkpt lat="46.66959" lon="-1.77544">
        <ele>46</ele>
        <time>2018-01-13T15:29:58Z</time>
      </trkpt>
      <trkpt lat="46.66958" lon="-1.77537">
        <ele>47</ele>
        <time>2018-01-13T15:30:58Z</time>
      </trkpt>
      <trkpt lat="46.66957" lon="-1.77528">
        <ele>47</ele>
        <time>2018-01-13T15:31:58Z</time>
      </trkpt>
      <trkpt lat="46.66957" lon="-1.7752">
        <ele>47</ele>
        <time>2018-01-13T15:32:58Z</time>
      </trkpt>
      <trkpt lat="46.66957" lon="-1.77515">
        <ele>47</ele>
        <time>2018-01-13T15:33:58Z</time>
      </trkpt>
      <trkpt lat="46.66957" lon="-1.7751">
        <ele>47</ele>
        <time>2018-01-13T15:34:58Z</time>
      </trkpt>
      <trkpt lat="46.66958" lon="-1.77501">
        <ele>47</ele>
        <time>2018-01-13T15:35:58Z</time>
      </trkpt>
      <trkpt lat="46.6696" lon="-1.77493">
        <ele>47</ele>
        <time>2018-01-13T15:36:58Z</time>
      </trkpt>
      <trkpt lat="46.66962" lon="-1.77484">
        <ele>47</ele>
        <time>2018-01-13T15:37:58Z</time>
      </trkpt>
      <trkpt lat="46.66964" lon="-1.77476">
        <ele>47</ele>
        <time>2018-01-13T15:38:58Z</time>
      </trkpt>
      <trkpt lat="46.66967" lon="-1.77465">
        <ele>47</ele>
        <time>2018-01-13T15:39:58Z</time>
      </trkpt>
      <trkpt lat="46.66971" lon="-1.77451">
        <ele>47</ele>
        <time>2018-01-13T15:40:58Z</time>
      </trkpt>
      <trkpt lat="46.6698" lon="-1.77417">
        <ele>47</ele>
        <time>2018-01-13T15:41:58Z</time>
      </trkpt>
      <trkpt lat="46.66988" lon="-1.77391">
        <ele>47</ele>
        <time>2018-01-13T15:42:58Z</time>
      </trkpt>
      <trkpt lat="46.66994" lon="-1.77369">
        <ele>47</ele>
        <time>2018-01-13T15:43:58Z</time>
      </trkpt>
      <trkpt lat="46.67001" lon="-1.77341">
        <ele>48</ele>
        <time>2018-01-13T15:44:58Z</time>
      </trkpt>
      <trkpt lat="46.67005" lon="-1.77325">
        <ele>48</ele>
        <time>2018-01-13T15:45:58Z</time>
      </trkpt>
      <trkpt lat="46.67008" lon="-1.77312">
        <ele>48</ele>
        <time>2018-01-13T15:46:58Z</time>
      </trkpt>
      <trkpt lat="46.6701" lon="-1.77298">
        <ele>48</ele>
        <time>2018-01-13T15:47:58Z</time>
      </trkpt>
      <trkpt lat="46.67015" lon="-1.77269">
        <ele>49</ele>
        <time>2018-01-13T15:48:58Z</time>
      </trkpt>
      <trkpt lat="46.67021" lon="-1.77237">
        <ele>49</ele>
        <time>2018-01-13T15:49:58Z</time>
      </trkpt>
      <trkpt lat="46.6703" lon="-1.77186">
        <ele>49</ele>
        <time>2018-01-13T15:50:58Z</time>
      </trkpt>
      <trkpt lat="46.67038" lon="-1.77144">
        <ele>50</ele>
        <time>2018-01-13T15:51:58Z</time>
      </trkpt>
      <trkpt lat="46.67044" lon="-1.77105">
        <ele>50</ele>
        <time>2018-01-13T15:52:58Z</time>
      </trkpt>
      <trkpt lat="46.67048" lon="-1.77084">
        <ele>51</ele>
        <time>2018-01-13T15:53:58Z</time>
      </trkpt>
      <trkpt lat="46.6705" lon="-1.77071">
        <ele>51</ele>
        <time>2018-01-13T15:54:58Z</time>
      </trkpt>
      <trkpt lat="46.6705" lon="-1.77066">
        <ele>51</ele>
        <time>2018-01-13T15:55:58Z</time>
      </trkpt>
      <trkpt lat="46.67052" lon="-1.77057">
        <ele>51</ele>
        <time>2018-01-13T15:56:58Z</time>
      </trkpt>
      <trkpt lat="46.67053" lon="-1.77046">
        <ele>51</ele>
        <time>2018-01-13T15:57:58Z</time>
      </trkpt>
      <trkpt lat="46.67055" lon="-1.77029">
        <ele>51</ele>
        <time>2018-01-13T15:58:58Z</time>
      </trkpt>
      <trkpt lat="46.67061" lon="-1.7699">
        <ele>52</ele>
        <time>2018-01-13T15:59:58Z</time>
      </trkpt>
      <trkpt lat="46.67067" lon="-1.76944">
        <ele>52</ele>
        <time>2018-01-13T16:00:58Z</time>
      </trkpt>
      <trkpt lat="46.6707" lon="-1.76927">
        <ele>52</ele>
        <time>2018-01-13T16:01:58Z</time>
      </trkpt>
      <trkpt lat="46.67073" lon="-1.76914">
        <ele>52</ele>
        <time>2018-01-13T16:02:58Z</time>
      </trkpt>
      <trkpt lat="46.67075" lon="-1.76904">
        <ele>52</ele>
        <time>2018-01-13T16:03:58Z</time>
      </trkpt>
      <trkpt lat="46.67084" lon="-1.76857">
        <ele>52</ele>
        <time>2018-01-13T16:04:58Z</time>
      </trkpt>
      <trkpt lat="46.67095" lon="-1.76807">
        <ele>52</ele>
        <time>2018-01-13T16:05:58Z</time>
      </trkpt>
      <trkpt lat="46.67103" lon="-1.76772">
        <ele>52</ele>
        <time>2018-01-13T16:06:58Z</time>
      </trkpt>
      <trkpt lat="46.67104" lon="-1.76764">
        <ele>52</ele>
        <time>2018-01-13T16:07:58Z</time>
      </trkpt>
      <trkpt lat="46.67107" lon="-1.76753">
        <ele>52</ele>
        <time>2018-01-13T16:08:58Z</time>
      </trkpt>
      <trkpt lat="46.67108" lon="-1.76743">
        <ele>52</ele>
        <time>2018-01-13T16:09:58Z</time>
      </trkpt>
      <trkpt lat="46.67109" lon="-1.76734">
        <ele>52</ele>
        <time>2018-01-13T16:10:58Z</time>
      </trkpt>
      <trkpt lat="46.6711" lon="-1.76721">
        <ele>52</ele>
        <time>2018-01-13T16:11:58Z</time>
      </trkpt>
      <trkpt lat="46.67112" lon="-1.76704">
        <ele>52</ele>
        <time>2018-01-13T16:12:58Z</time>
      </trkpt>
      <trkpt lat="46.67114" lon="-1.76683">
        <ele>51</ele>
        <time>2018-01-13T16:13:58Z</time>
      </trkpt>
      <trkpt lat="46.67115" lon="-1.76663">
        <ele>51</ele>
        <time>2018-01-13T16:14:58Z</time>
      </trkpt>
      <trkpt lat="46.67117" lon="-1.7664">
        <ele>51</ele>
        <time>2018-01-13T16:15:58Z</time>
      </trkpt>
      <trkpt lat="46.67119" lon="-1.76618">
        <ele>51</ele>
        <time>2018-01-13T16:16:58Z</time>
      </trkpt>
      <trkpt lat="46.67121" lon="-1.76604">
        <ele>50</ele>
        <time>2018-01-13T16:17:58Z</time>
      </trkpt>
      <trkpt lat="46.67121" lon="-1.76598">
        <ele>50</ele>
        <time>2018-01-13T16:18:58Z</time>
      </trkpt>
      <trkpt lat="46.67123" lon="-1.76589">
        <ele>50</ele>
        <time>2018-01-13T16:19:58Z</time>
      </trkpt>
      <trkpt lat="46.67125" lon="-1.76581">
        <ele>50</ele>
        <time>2018-01-13T16:20:58Z</time>
      </trkpt>
      <trkpt lat="46.67126" lon="-1.76576">
        <ele>50</ele>
        <time>2018-01-13T16:21:58Z</time>
      </trkpt>
      <trkpt lat="46.6713" lon="-1.7656">
        <ele>50</ele>
        <time>2018-01-13T16:22:58Z</time>
      </trkpt>
      <trkpt lat="46.67133" lon="-1.76546">
        <ele>50</ele>
        <time>2018-01-13T16:23:58Z</time>
      </trkpt>
      <trkpt lat="46.6714" lon="-1.76523">
        <ele>50</ele>
        <time>2018-01-13T16:24:58Z</time>
      </trkpt>
      <trkpt lat="46.6715" lon="-1.76484">
        <ele>50</ele>
        <time>2018-01-13T16:25:58Z</time>
      </trkpt>
      <trkpt lat="46.67166" lon="-1.76425">
        <ele>50</ele>
        <time>2018-01-13T16:26:58Z</time>
      </trkpt>
      <trkpt lat="46.67171" lon="-1.76406">
        <ele>50</ele>
        <time>2018-01-13T16:27:58Z</time>
      </trkpt>
      <trkpt lat="46.67176" lon="-1.76389">
        <ele>51</ele>
        <time>2018-01-13T16:28:58Z</time>
      </trkpt>
      <trkpt lat="46.6718" lon="-1.7638">
        <ele>51</ele>
        <time>2018-01-13T16:29:58Z</time>
      </trkpt>
      <trkpt lat="46.67182" lon="-1.76374">
        <ele>51</ele>
        <time>2018-01-13T16:30:58Z</time>
      </trkpt>
      <trkpt lat="46.67184" lon="-1.76371">
        <ele>51</ele>
        <time>2018-01-13T16:31:58Z</time>
      </trkpt>
      <trkpt lat="46.67187" lon="-1.76364">
        <ele>51</ele>
        <time>2018-01-13T16:32:58Z</time>
      </trkpt>
      <trkpt lat="46.672" lon="-1.76338">
        <ele>51</ele>
        <time>2018-01-13T16:33:58Z</time>
      </trkpt>
      <trkpt lat="46.67207" lon="-1.76324">
        <ele>51</ele>
        <time>2018-01-13T16:34:58Z</time>
      </trkpt>
      <trkpt lat="46.67214" lon="-1.76309">
        <ele>51</ele>
        <time>2018-01-13T16:35:58Z</time>
      </trkpt>
      <trkpt lat="46.67226" lon="-1.76284">
        <ele>51</ele>
        <time>2018-01-13T16:36:58Z</time>
      </trkpt>
      <trkpt lat="46.67234" lon="-1.76268">
        <ele>51</ele>
        <time>2018-01-13T16:37:58Z</time>
      </trkpt>
      <trkpt lat="46.67244" lon="-1.76243">
        <ele>51</ele>
        <time>2018-01-13T16:38:58Z</time>
      </trkpt>
      <trkpt lat="46.67249" lon="-1.76231">
        <ele>51</ele>
        <time>2018-01-13T16:39:58Z</time>
      </trkpt>
      <trkpt lat="46.67255" lon="-1.76217">
        <ele>51</ele>
        <time>2018-01-13T16:40:58Z</time>
      </trkpt>
      <trkpt lat="46.67262" lon="-1.76199">
        <ele>52</ele>
        <time>2018-01-13T16:41:58Z</time>
      </trkpt>
      <trkpt lat="46.67267" lon="-1.76183">
        <ele>52</ele>
        <time>2018-01-13T16:42:58Z</time>
      </trkpt>
      <trkpt lat="46.67269" lon="-1.76175">
        <ele>52</ele>
        <time>2018-01-13T16:43:58Z</time>
      </trkpt>
      <trkpt lat="46.6727" lon="-1.76168">
        <ele>52</ele>
        <time>2018-01-13T16:44:58Z</time>
      </trkpt>
      <trkpt lat="46.67272" lon="-1.76156">
        <ele>52</ele>
        <time>2018-01-13T16:45:58Z</time>
      </trkpt>
      <trkpt lat="46.67274" lon="-1.76138">
        <ele>52</ele>
        <time>2018-01-13T16:46:58Z</time>
      </trkpt>
      <trkpt lat="46.67277" lon="-1.76114">
        <ele>52</ele>
        <time>2018-01-13T16:47:58Z</time>
      </trkpt>
      <trkpt lat="46.67281" lon="-1.7608">
        <ele>52</ele>
        <time>2018-01-13T16:48:58Z</time>
      </trkpt>
      <trkpt lat="46.67285" lon="-1.76045">
        <ele>52</ele>
        <time>2018-01-13T16:49:58Z</time>
      </trkpt>
      <trkpt lat="46.67289" lon="-1.76008">
        <ele>52</ele>
        <time>2018-01-13T16:50:58Z</time>
      </trkpt>
      <trkpt lat="46.67292" lon="-1.75975">
        <ele>52</ele>
        <time>2018-01-13T16:51:58Z</time>
      </trkpt>
      <trkpt lat="46.67295" lon="-1.75945">
        <ele>52</ele>
        <time>2018-01-13T16:52:58Z</time>
      </trkpt>
      <trkpt lat="46.67298" lon="-1.75924">
        <ele>52</ele>
        <time>2018-01-13T16:53:58Z</time>
      </trkpt>
      <trkpt lat="46.67296" lon="-1.75918">
        <ele>52</ele>
        <time>2018-01-13T16:54:58Z</time>
      </trkpt>
      <trkpt lat="46.67297" lon="-1.75892">
        <ele>52</ele>
        <time>2018-01-13T16:55:58Z</time>
      </trkpt>
      <trkpt lat="46.67296" lon="-1.75877">
        <ele>52</ele>
        <time>2018-01-13T16:56:58Z</time>
      </trkpt>
      <trkpt lat="46.67296" lon="-1.75873">
        <ele>52</ele>
        <time>2018-01-13T16:57:58Z</time>
      </trkpt>
      <trkpt lat="46.67296" lon="-1.75864">
        <ele>52</ele>
        <time>2018-01-13T16:58:58Z</time>
      </trkpt>
      <trkpt lat="46.67296" lon="-1.75854">
        <ele>52</ele>
        <time>2018-01-13T16:59:58Z</time>
      </trkpt>
      <trkpt lat="46.67296" lon="-1.75839">
        <ele>52</ele>
        <time>2018-01-13T17:00:58Z</time>
      </trkpt>
      <trkpt lat="46.67296" lon="-1.75835">
        <ele>52</ele>
        <time>2018-01-13T17:01:58Z</time>
      </trkpt>
      <trkpt lat="46.67292" lon="-1.75796">
        <ele>52</ele>
        <time>2018-01-13T17:02:58Z</time>
      </trkpt>
      <trkpt lat="46.67293" lon="-1.75779">
        <ele>52</ele>
        <time>2018-01-13T17:03:58Z</time>
      </trkpt>
      <trkpt lat="46.6729" lon="-1.75767">
        <ele>52</ele>
        <time>2018-01-13T17:04:58Z</time>
      </trkpt>
      <trkpt lat="46.67288" lon="-1.75759">
        <ele>52</ele>
        <time>2018-01-13T17:05:58Z</time>
      </trkpt>
      <trkpt lat="46.67286" lon="-1.75751">
        <ele>52</ele>
        <time>2018-01-13T17:06:58Z</time>
      </trkpt>
      <trkpt lat="46.67285" lon="-1.75745">
        <ele>52</ele>
        <time>2018-01-13T17:07:58Z</time>
      </trkpt>
      <trkpt lat="46.67283" lon="-1.75731">
        <ele>52</ele>
        <time>2018-01-13T17:08:58Z</time>
      </trkpt>
      <trkpt lat="46.67278" lon="-1.75703">
        <ele>51</ele>
        <time>2018-01-13T17:09:58Z</time>
      </trkpt>
      <trkpt lat="46.67273" lon="-1.75664">
        <ele>51</ele>
        <time>2018-01-13T17:10:58Z</time>
      </trkpt>
      <trkpt lat="46.67268" lon="-1.7563">
        <ele>51</ele>
        <time>2018-01-13T17:11:58Z</time>
      </trkpt>
      <trkpt lat="46.67265" lon="-1.75607">
        <ele>50</ele>
        <time>2018-01-13T17:12:58Z</time>
      </trkpt>
      <trkpt lat="46.67262" lon="-1.75584">
        <ele>50</ele>
        <time>2018-01-13T17:13:58Z</time>
      </trkpt>
      <trkpt lat="46.67258" lon="-1.75551">
        <ele>51</ele>
        <time>2018-01-13T17:14:58Z</time>
      </trkpt>
      <trkpt lat="46.67253" lon="-1.75521">
        <ele>51</ele>
        <time>2018-01-13T17:15:58Z</time>
      </trkpt>
      <trkpt lat="46.6725" lon="-1.75503">
        <ele>51</ele>
        <time>2018-01-13T17:16:58Z</time>
      </trkpt>
      <trkpt lat="46.67246" lon="-1.75487">
        <ele>51</ele>
        <time>2018-01-13T17:17:58Z</time>
      </trkpt>
      <trkpt lat="46.67244" lon="-1.75477">
        <ele>51</ele>
        <time>2018-01-13T17:18:58Z</time>
      </trkpt>
      <trkpt lat="46.67241" lon="-1.75466">
        <ele>51</ele>
        <time>2018-01-13T17:19:58Z</time>
      </trkpt>
      <trkpt lat="46.67235" lon="-1.75442">
        <ele>51</ele>
        <time>2018-01-13T17:20:58Z</time>
      </trkpt>
      <trkpt lat="46.67227" lon="-1.75411">
        <ele>51</ele>
        <time>2018-01-13T17:21:58Z</time>
      </trkpt>
      <trkpt lat="46.67226" lon="-1.75404">
        <ele>51</ele>
        <time>2018-01-13T17:22:58Z</time>
      </trkpt>
      <trkpt lat="46.67225" lon="-1.75397">
        <ele>51</ele>
        <time>2018-01-13T17:23:58Z</time>
      </trkpt>
      <trkpt lat="46.67224" lon="-1.75388">
        <ele>52</ele>
        <time>2018-01-13T17:24:58Z</time>
      </trkpt>
      <trkpt lat="46.67224" lon="-1.75382">
        <ele>52</ele>
        <time>2018-01-13T17:25:58Z</time>
      </trkpt>
      <trkpt lat="46.67223" lon="-1.75374">
        <ele>52</ele>
        <time>2018-01-13T17:26:58Z</time>
      </trkpt>
      <trkpt lat="46.67223" lon="-1.75364">
        <ele>52</ele>
        <time>2018-01-13T17:27:58Z</time>
      </trkpt>
      <trkpt lat="46.67224" lon="-1.75333">
        <ele>53</ele>
        <time>2018-01-13T17:28:58Z</time>
      </trkpt>
      <trkpt lat="46.67224" lon="-1.75307">
        <ele>54</ele>
        <time>2018-01-13T17:29:58Z</time>
      </trkpt>
      <trkpt lat="46.67225" lon="-1.75255">
        <ele>55</ele>
        <time>2018-01-13T17:30:58Z</time>
      </trkpt>
      <trkpt lat="46.67226" lon="-1.75212">
        <ele>54</ele>
        <time>2018-01-13T17:31:58Z</time>
      </trkpt>
      <trkpt lat="46.67226" lon="-1.75207">
        <ele>54</ele>
        <time>2018-01-13T17:32:58Z</time>
      </trkpt>
      <trkpt lat="46.67226" lon="-1.75202">
        <ele>54</ele>
        <time>2018-01-13T17:33:58Z</time>
      </trkpt>
      <trkpt lat="46.67227" lon="-1.75197">
        <ele>54</ele>
        <time>2018-01-13T17:34:58Z</time>
      </trkpt>
      <trkpt lat="46.67228" lon="-1.75191">
        <ele>54</ele>
        <time>2018-01-13T17:35:58Z</time>
      </trkpt>
      <trkpt lat="46.67229" lon="-1.75188">
        <ele>54</ele>
        <time>2018-01-13T17:36:58Z</time>
      </trkpt>
      <trkpt lat="46.67231" lon="-1.75183">
        <ele>54</ele>
        <time>2018-01-13T17:37:58Z</time>
      </trkpt>
      <trkpt lat="46.67233" lon="-1.75177">
        <ele>54</ele>
        <time>2018-01-13T17:38:58Z</time>
      </trkpt>
      <trkpt lat="46.67237" lon="-1.75172">
        <ele>54</ele>
        <time>2018-01-13T17:39:58Z</time>
      </trkpt>
      <trkpt lat="46.67244" lon="-1.75162">
        <ele>54</ele>
        <time>2018-01-13T17:40:58Z</time>
      </trkpt>
      <trkpt lat="46.67246" lon="-1.75157">
        <ele>54</ele>
        <time>2018-01-13T17:41:58Z</time>
      </trkpt>
      <trkpt lat="46.67253" lon="-1.75145">
        <ele>54</ele>
        <time>2018-01-13T17:42:58Z</time>
      </trkpt>
      <trkpt lat="46.67264" lon="-1.7513">
        <ele>54</ele>
        <time>2018-01-13T17:43:58Z</time>
      </trkpt>
      <trkpt lat="46.67282" lon="-1.75101">
        <ele>54</ele>
        <time>2018-01-13T17:44:58Z</time>
      </trkpt>
      <trkpt lat="46.67286" lon="-1.75095">
        <ele>54</ele>
        <time>2018-01-13T17:45:58Z</time>
      </trkpt>
      <trkpt lat="46.67293" lon="-1.75087">
        <ele>55</ele>
        <time>2018-01-13T17:46:58Z</time>
      </trkpt>
      <trkpt lat="46.67296" lon="-1.75081">
        <ele>55</ele>
        <time>2018-01-13T17:47:58Z</time>
      </trkpt>
      <trkpt lat="46.67299" lon="-1.75077">
        <ele>55</ele>
        <time>2018-01-13T17:48:58Z</time>
      </trkpt>
      <trkpt lat="46.673" lon="-1.75074">
        <ele>55</ele>
        <time>2018-01-13T17:49:58Z</time>
      </trkpt>
      <trkpt lat="46.67302" lon="-1.7507">
        <ele>55</ele>
        <time>2018-01-13T17:50:58Z</time>
      </trkpt>
      <trkpt lat="46.67305" lon="-1.75064">
        <ele>55</ele>
        <time>2018-01-13T17:51:58Z</time>
      </trkpt>
      <trkpt lat="46.67307" lon="-1.75056">
        <ele>55</ele>
        <time>2018-01-13T17:52:58Z</time>
      </trkpt>
      <trkpt lat="46.67312" lon="-1.75037">
        <ele>55</ele>
        <time>2018-01-13T17:53:58Z</time>
      </trkpt>
      <trkpt lat="46.67315" lon="-1.75025">
        <ele>55</ele>
        <time>2018-01-13T17:54:58Z</time>
      </trkpt>
      <trkpt lat="46.67317" lon="-1.75017">
        <ele>55</ele>
        <time>2018-01-13T17:55:58Z</time>
      </trkpt>
      <trkpt lat="46.67318" lon="-1.75011">
        <ele>56</ele>
        <time>2018-01-13T17:56:58Z</time>
      </trkpt>
      <trkpt lat="46.6732" lon="-1.75006">
        <ele>56</ele>
        <time>2018-01-13T17:57:58Z</time>
      </trkpt>
      <trkpt lat="46.67323" lon="-1.74998">
        <ele>56</ele>
        <time>2018-01-13T17:58:58Z</time>
      </trkpt>
      <trkpt lat="46.67329" lon="-1.74984">
        <ele>56</ele>
        <time>2018-01-13T17:59:58Z</time>
      </trkpt>
      <trkpt lat="46.6733" lon="-1.74979">
        <ele>56</ele>
        <time>2018-01-13T18:00:58Z</time>
      </trkpt>
      <trkpt lat="46.67331" lon="-1.74975">
        <ele>56</ele>
        <time>2018-01-13T18:01:58Z</time>
      </trkpt>
      <trkpt lat="46.67333" lon="-1.74969">
        <ele>56</ele>
        <time>2018-01-13T18:02:58Z</time>
      </trkpt>
      <trkpt lat="46.67334" lon="-1.74964">
        <ele>56</ele>
        <time>2018-01-13T18:03:58Z</time>
      </trkpt>
      <trkpt lat="46.67336" lon="-1.74959">
        <ele>56</ele>
        <time>2018-01-13T18:04:58Z</time>
      </trkpt>
      <trkpt lat="46.67337" lon="-1.74956">
        <ele>56</ele>
        <time>2018-01-13T18:05:58Z</time>
      </trkpt>
      <trkpt lat="46.67338" lon="-1.74952">
        <ele>56</ele>
        <time>2018-01-13T18:06:58Z</time>
      </trkpt>
      <trkpt lat="46.6734" lon="-1.74943">
        <ele>56</ele>
        <time>2018-01-13T18:07:58Z</time>
      </trkpt>
      <trkpt lat="46.67344" lon="-1.74923">
        <ele>56</ele>
        <time>2018-01-13T18:08:58Z</time>
      </trkpt>
      <trkpt lat="46.67349" lon="-1.74904">
        <ele>56</ele>
        <time>2018-01-13T18:09:58Z</time>
      </trkpt>
      <trkpt lat="46.67351" lon="-1.74898">
        <ele>56</ele>
        <time>2018-01-13T18:10:58Z</time>
      </trkpt>
      <trkpt lat="46.67353" lon="-1.7489">
        <ele>56</ele>
        <time>2018-01-13T18:11:58Z</time>
      </trkpt>
      <trkpt lat="46.67354" lon="-1.74887">
        <ele>56</ele>
        <time>2018-01-13T18:12:58Z</time>
      </trkpt>
      <trkpt lat="46.67356" lon="-1.74883">
        <ele>56</ele>
        <time>2018-01-13T18:13:58Z</time>
      </trkpt>
      <trkpt lat="46.67358" lon="-1.74879">
        <ele>56</ele>
        <time>2018-01-13T18:14:58Z</time>
      </trkpt>
      <trkpt lat="46.67367" lon="-1.7486">
        <ele>56</ele>
        <time>2018-01-13T18:15:58Z</time>
      </trkpt>
      <trkpt lat="46.6738" lon="-1.74835">
        <ele>56</ele>
        <time>2018-01-13T18:16:58Z</time>
      </trkpt>
      <trkpt lat="46.67402" lon="-1.74791">
        <ele>56</ele>
        <time>2018-01-13T18:17:58Z</time>
      </trkpt>
      <trkpt lat="46.67414" lon="-1.74767">
        <ele>57</ele>
        <time>2018-01-13T18:18:58Z</time>
      </trkpt>
      <trkpt lat="46.67419" lon="-1.74759">
        <ele>57</ele>
        <time>2018-01-13T18:19:58Z</time>
      </trkpt>
      <trkpt lat="46.67434" lon="-1.74731">
        <ele>57</ele>
        <time>2018-01-13T18:20:58Z</time>
      </trkpt>
      <trkpt lat="46.67453" lon="-1.74697">
        <ele>58</ele>
        <time>2018-01-13T18:21:58Z</time>
      </trkpt>
      <trkpt lat="46.6746" lon="-1.74685">
        <ele>58</ele>
        <time>2018-01-13T18:22:58Z</time>
      </trkpt>
      <trkpt lat="46.67464" lon="-1.74677">
        <ele>58</ele>
        <time>2018-01-13T18:23:58Z</time>
      </trkpt>
      <trkpt lat="46.6747" lon="-1.74665">
        <ele>58</ele>
        <time>2018-01-13T18:24:58Z</time>
      </trkpt>
      <trkpt lat="46.67472" lon="-1.74661">
        <ele>58</ele>
        <time>2018-01-13T18:25:58Z</time>
      </trkpt>
      <trkpt lat="46.67479" lon="-1.74645">
        <ele>58</ele>
        <time>2018-01-13T18:26:58Z</time>
      </trkpt>
      <trkpt lat="46.67483" lon="-1.74636">
        <ele>58</ele>
        <time>2018-01-13T18:27:58Z</time>
      </trkpt>
      <trkpt lat="46.67486" lon="-1.7463">
        <ele>58</ele>
        <time>2018-01-13T18:28:58Z</time>
      </trkpt>
      <trkpt lat="46.6749" lon="-1.7462">
        <ele>58</ele>
        <time>2018-01-13T18:29:58Z</time>
      </trkpt>
      <trkpt lat="46.67493" lon="-1.74612">
        <ele>58</ele>
        <time>2018-01-13T18:30:58Z</time>
      </trkpt>
      <trkpt lat="46.67496" lon="-1.74603">
        <ele>58</ele>
        <time>2018-01-13T18:31:58Z</time>
      </trkpt>
      <trkpt lat="46.675" lon="-1.74593">
        <ele>58</ele>
        <time>2018-01-13T18:32:58Z</time>
      </trkpt>
      <trkpt lat="46.67502" lon="-1.74587">
        <ele>58</ele>
        <time>2018-01-13T18:33:58Z</time>
      </trkpt>
      <trkpt lat="46.67504" lon="-1.74584">
        <ele>58</ele>
        <time>2018-01-13T18:34:58Z</time>
      </trkpt>
      <trkpt lat="46.67505" lon="-1.7458">
        <ele>58</ele>
        <time>2018-01-13T18:35:58Z</time>
      </trkpt>
      <trkpt lat="46.67508" lon="-1.74569">
        <ele>57</ele>
        <time>2018-01-13T18:36:58Z</time>
      </trkpt>
      <trkpt lat="46.67513" lon="-1.74555">
        <ele>57</ele>
        <time>2018-01-13T18:37:58Z</time>
      </trkpt>
      <trkpt lat="46.67517" lon="-1.74543">
        <ele>57</ele>
        <time>2018-01-13T18:38:58Z</time>
      </trkpt>
      <trkpt lat="46.6752" lon="-1.74532">
        <ele>56</ele>
        <time>2018-01-13T18:39:58Z</time>
      </trkpt>
      <trkpt lat="46.67523" lon="-1.7452">
        <ele>56</ele>
        <time>2018-01-13T18:40:58Z</time>
      </trkpt>
      <trkpt lat="46.67528" lon="-1.74505">
        <ele>56</ele>
        <time>2018-01-13T18:41:58Z</time>
      </trkpt>
      <trkpt lat="46.67532" lon="-1.74489">
        <ele>56</ele>
        <time>2018-01-13T18:42:58Z</time>
      </trkpt>
      <trkpt lat="46.67533" lon="-1.74483">
        <ele>56</ele>
        <time>2018-01-13T18:43:58Z</time>
      </trkpt>
      <trkpt lat="46.67535" lon="-1.74478">
        <ele>56</ele>
        <time>2018-01-13T18:44:58Z</time>
      </trkpt>
      <trkpt lat="46.67536" lon="-1.74472">
        <ele>56</ele>
        <time>2018-01-13T18:45:58Z</time>
      </trkpt>
      <trkpt lat="46.67537" lon="-1.74466">
        <ele>56</ele>
        <time>2018-01-13T18:46:58Z</time>
      </trkpt>
      <trkpt lat="46.67539" lon="-1.7445">
        <ele>56</ele>
        <time>2018-01-13T18:47:58Z</time>
      </trkpt>
      <trkpt lat="46.67541" lon="-1.7444">
        <ele>56</ele>
        <time>2018-01-13T18:48:58Z</time>
      </trkpt>
      <trkpt lat="46.67546" lon="-1.74405">
        <ele>56</ele>
        <time>2018-01-13T18:49:58Z</time>
      </trkpt>
      <trkpt lat="46.67548" lon="-1.7439">
        <ele>56</ele>
        <time>2018-01-13T18:50:58Z</time>
      </trkpt>
      <trkpt lat="46.6755" lon="-1.74375">
        <ele>56</ele>
        <time>2018-01-13T18:51:58Z</time>
      </trkpt>
      <trkpt lat="46.6755" lon="-1.74368">
        <ele>56</ele>
        <time>2018-01-13T18:52:58Z</time>
      </trkpt>
      <trkpt lat="46.67551" lon="-1.74362">
        <ele>56</ele>
        <time>2018-01-13T18:53:58Z</time>
      </trkpt>
      <trkpt lat="46.67551" lon="-1.74355">
        <ele>56</ele>
        <time>2018-01-13T18:54:58Z</time>
      </trkpt>
      <trkpt lat="46.67551" lon="-1.74348">
        <ele>55</ele>
        <time>2018-01-13T18:55:58Z</time>
      </trkpt>
      <trkpt lat="46.67551" lon="-1.74341">
        <ele>55</ele>
        <time>2018-01-13T18:56:58Z</time>
      </trkpt>
      <trkpt lat="46.67551" lon="-1.74311">
        <ele>55</ele>
        <time>2018-01-13T18:57:58Z</time>
      </trkpt>
      <trkpt lat="46.6755" lon="-1.74269">
        <ele>56</ele>
        <time>2018-01-13T18:58:58Z</time>
      </trkpt>
      <trkpt lat="46.6755" lon="-1.74219">
        <ele>56</ele>
        <time>2018-01-13T18:59:58Z</time>
      </trkpt>
      <trkpt lat="46.6755" lon="-1.74196">
        <ele>56</ele>
        <time>2018-01-13T19:00:58Z</time>
      </trkpt>
      <trkpt lat="46.67551" lon="-1.74185">
        <ele>55</ele>
        <time>2018-01-13T19:01:58Z</time>
      </trkpt>
      <trkpt lat="46.67551" lon="-1.74173">
        <ele>55</ele>
        <time>2018-01-13T19:02:58Z</time>
      </trkpt>
      <trkpt lat="46.67553" lon="-1.74134">
        <ele>56</ele>
        <time>2018-01-13T19:03:58Z</time>
      </trkpt>
      <trkpt lat="46.67554" lon="-1.74112">
        <ele>56</ele>
        <time>2018-01-13T19:04:58Z</time>
      </trkpt>
      <trkpt lat="46.67556" lon="-1.74086">
        <ele>56</ele>
        <time>2018-01-13T19:05:58Z</time>
      </trkpt>
      <trkpt lat="46.67558" lon="-1.7407">
        <ele>56</ele>
        <time>2018-01-13T19:06:58Z</time>
      </trkpt>
      <trkpt lat="46.67559" lon="-1.74058">
        <ele>56</ele>
        <time>2018-01-13T19:07:58Z</time>
      </trkpt>
      <trkpt lat="46.67561" lon="-1.74041">
        <ele>56</ele>
        <time>2018-01-13T19:08:58Z</time>
      </trkpt>
      <trkpt lat="46.67562" lon="-1.7403">
        <ele>56</ele>
        <time>2018-01-13T19:09:58Z</time>
      </trkpt>
      <trkpt lat="46.67564" lon="-1.7402">
        <ele>56</ele>
        <time>2018-01-13T19:10:58Z</time>
      </trkpt>
      <trkpt lat="46.67565" lon="-1.74013">
        <ele>56</ele>
        <time>2018-01-13T19:11:58Z</time>
      </trkpt>
      <trkpt lat="46.67567" lon="-1.74002">
        <ele>56</ele>
        <time>2018-01-13T19:12:58Z</time>
      </trkpt>
      <trkpt lat="46.6757" lon="-1.73991">
        <ele>56</ele>
        <time>2018-01-13T19:13:58Z</time>
      </trkpt>
      <trkpt lat="46.67573" lon="-1.73977">
        <ele>56</ele>
        <time>2018-01-13T19:14:58Z</time>
      </trkpt>
      <trkpt lat="46.67584" lon="-1.73933">
        <ele>57</ele>
        <time>2018-01-13T19:15:58Z</time>
      </trkpt>
      <trkpt lat="46.67588" lon="-1.73917">
        <ele>57</ele>
        <time>2018-01-13T19:16:58Z</time>
      </trkpt>
      <trkpt lat="46.676" lon="-1.7387">
        <ele>57</ele>
        <time>2018-01-13T19:17:58Z</time>
      </trkpt>
      <trkpt lat="46.67616" lon="-1.73811">
        <ele>57</ele>
        <time>2018-01-13T19:18:58Z</time>
      </trkpt>
      <trkpt lat="46.67626" lon="-1.73772">
        <ele>56</ele>
        <time>2018-01-13T19:19:58Z</time>
      </trkpt>
      <trkpt lat="46.67628" lon="-1.73767">
        <ele>56</ele>
        <time>2018-01-13T19:20:58Z</time>
      </trkpt>
      <trkpt lat="46.6763" lon="-1.7376">
        <ele>56</ele>
        <time>2018-01-13T19:21:58Z</time>
      </trkpt>
      <trkpt lat="46.67635" lon="-1.73748">
        <ele>56</ele>
        <time>2018-01-13T19:22:58Z</time>
      </trkpt>
      <trkpt lat="46.67638" lon="-1.73739">
        <ele>56</ele>
        <time>2018-01-13T19:23:58Z</time>
      </trkpt>
      <trkpt lat="46.67641" lon="-1.73732">
        <ele>56</ele>
        <time>2018-01-13T19:24:58Z</time>
      </trkpt>
      <trkpt lat="46.67646" lon="-1.73722">
        <ele>55</ele>
        <time>2018-01-13T19:25:58Z</time>
      </trkpt>
      <trkpt lat="46.67649" lon="-1.73715">
        <ele>55</ele>
        <time>2018-01-13T19:26:58Z</time>
      </trkpt>
      <trkpt lat="46.67654" lon="-1.73705">
        <ele>55</ele>
        <time>2018-01-13T19:27:58Z</time>
      </trkpt>
      <trkpt lat="46.67673" lon="-1.7367">
        <ele>55</ele>
        <time>2018-01-13T19:28:58Z</time>
      </trkpt>
      <trkpt lat="46.67688" lon="-1.73647">
        <ele>55</ele>
        <time>2018-01-13T19:29:58Z</time>
      </trkpt>
      <trkpt lat="46.67702" lon="-1.73625">
        <ele>56</ele>
        <time>2018-01-13T19:30:58Z</time>
      </trkpt>
      <trkpt lat="46.67717" lon="-1.73602">
        <ele>56</ele>
        <time>2018-01-13T19:31:58Z</time>
      </trkpt>
      <trkpt lat="46.67736" lon="-1.73571">
        <ele>56</ele>
        <time>2018-01-13T19:32:58Z</time>
      </trkpt>
      <trkpt lat="46.6776" lon="-1.73529">
        <ele>57</ele>
        <time>2018-01-13T19:33:58Z</time>
      </trkpt>
      <trkpt lat="46.6778" lon="-1.73487">
        <ele>57</ele>
        <time>2018-01-13T19:34:58Z</time>
      </trkpt>
      <trkpt lat="46.67788" lon="-1.73472">
        <ele>56</ele>
        <time>2018-01-13T19:35:58Z</time>
      </trkpt>
      <trkpt lat="46.67794" lon="-1.7346">
        <ele>56</ele>
        <time>2018-01-13T19:36:58Z</time>
      </trkpt>
      <trkpt lat="46.67807" lon="-1.73435">
        <ele>55</ele>
        <time>2018-01-13T19:37:58Z</time>
      </trkpt>
      <trkpt lat="46.67828" lon="-1.734">
        <ele>55</ele>
        <time>2018-01-13T19:38:58Z</time>
      </trkpt>
      <trkpt lat="46.67858" lon="-1.7336">
        <ele>54</ele>
        <time>2018-01-13T19:39:58Z</time>
      </trkpt>
      <trkpt lat="46.67883" lon="-1.73328">
        <ele>54</ele>
        <time>2018-01-13T19:40:58Z</time>
      </trkpt>
      <trkpt lat="46.67895" lon="-1.73314">
        <ele>54</ele>
        <time>2018-01-13T19:41:58Z</time>
      </trkpt>
      <trkpt lat="46.67918" lon="-1.73284">
        <ele>55</ele>
        <time>2018-01-13T19:42:58Z</time>
      </trkpt>
      <trkpt lat="46.67943" lon="-1.73253">
        <ele>55</ele>
        <time>2018-01-13T19:43:58Z</time>
      </trkpt>
      <trkpt lat="46.67973" lon="-1.73214">
        <ele>56</ele>
        <time>2018-01-13T19:44:58Z</time>
      </trkpt>
      <trkpt lat="46.6799" lon="-1.7319">
        <ele>56</ele>
        <time>2018-01-13T19:45:58Z</time>
      </trkpt>
      <trkpt lat="46.68017" lon="-1.73152">
        <ele>57</ele>
        <time>2018-01-13T19:46:58Z</time>
      </trkpt>
      <trkpt lat="46.6804" lon="-1.73107">
        <ele>57</ele>
        <time>2018-01-13T19:47:58Z</time>
      </trkpt>
      <trkpt lat="46.68052" lon="-1.73087">
        <ele>57</ele>
        <time>2018-01-13T19:48:58Z</time>
      </trkpt>
      <trkpt lat="46.68058" lon="-1.73071">
        <ele>57</ele>
        <time>2018-01-13T19:49:58Z</time>
      </trkpt>
      <trkpt lat="46.68075" lon="-1.73037">
        <ele>57</ele>
        <time>2018-01-13T19:50:58Z</time>
      </trkpt>
      <trkpt lat="46.68099" lon="-1.72985">
        <ele>57</ele>
        <time>2018-01-13T19:51:58Z</time>
      </trkpt>
      <trkpt lat="46.68124" lon="-1.72932">
        <ele>57</ele>
        <time>2018-01-13T19:52:58Z</time>
      </trkpt>
      <trkpt lat="46.68155" lon="-1.72862">
        <ele>57</ele>
        <time>2018-01-13T19:53:58Z</time>
      </trkpt>
      <trkpt lat="46.68164" lon="-1.72843">
        <ele>57</ele>
        <time>2018-01-13T19:54:58Z</time>
      </trkpt>
      <trkpt lat="46.68183" lon="-1.72801">
        <ele>56</ele>
        <time>2018-01-13T19:55:58Z</time>
      </trkpt>
      <trkpt lat="46.68205" lon="-1.72753">
        <ele>56</ele>
        <time>2018-01-13T19:56:58Z</time>
      </trkpt>
      <trkpt lat="46.68228" lon="-1.72705">
        <ele>56</ele>
        <time>2018-01-13T19:57:58Z</time>
      </trkpt>
      <trkpt lat="46.68252" lon="-1.72655">
        <ele>56</ele>
        <time>2018-01-13T19:58:58Z</time>
      </trkpt>
      <trkpt lat="46.68263" lon="-1.72627">
        <ele>56</ele>
        <time>2018-01-13T19:59:58Z</time>
      </trkpt>
      <trkpt lat="46.68266" lon="-1.72621">
        <ele>56</ele>
        <time>2018-01-13T20:00:58Z</time>
      </trkpt>
      <trkpt lat="46.68269" lon="-1.7261">
        <ele>56</ele>
        <time>2018-01-13T20:01:58Z</time>
      </trkpt>
      <trkpt lat="46.68278" lon="-1.72575">
        <ele>57</ele>
        <time>2018-01-13T20:02:58Z</time>
      </trkpt>
      <trkpt lat="46.68278" lon="-1.72575">
        <ele>57</ele>
        <time>2018-01-13T20:03:58Z</time>
      </trkpt>
      <trkpt lat="46.68268" lon="-1.72563">
        <ele>56</ele>
        <time>2018-01-13T20:04:58Z</time>
      </trkpt>
      <trkpt lat="46.68236" lon="-1.72517">
        <ele>56</ele>
        <time>2018-01-13T20:05:58Z</time>
      </trkpt>
      <trkpt lat="46.68214" lon="-1.72483">
        <ele>55</ele>
        <time>2018-01-13T20:06:58Z</time>
      </trkpt>
      <trkpt lat="46.68188" lon="-1.72444">
        <ele>54</ele>
        <time>2018-01-13T20:07:58Z</time>
      </trkpt>
      <trkpt lat="46.68168" lon="-1.72413">
        <ele>54</ele>
        <time>2018-01-13T20:08:58Z</time>
      </trkpt>
      <trkpt lat="46.68159" lon="-1.72389">
        <ele>53</ele>
        <time>2018-01-13T20:09:58Z</time>
      </trkpt>
      <trkpt lat="46.68158" lon="-1.72384">
        <ele>53</ele>
        <time>2018-01-13T20:10:58Z</time>
      </trkpt>
      <trkpt lat="46.68158" lon="-1.72367">
        <ele>53</ele>
        <time>2018-01-13T20:11:58Z</time>
      </trkpt>
      <trkpt lat="46.68164" lon="-1.72334">
        <ele>52</ele>
        <time>2018-01-13T20:12:58Z</time>
      </trkpt>
      <trkpt lat="46.68165" lon="-1.72324">
        <ele>52</ele>
        <time>2018-01-13T20:13:58Z</time>
      </trkpt>
      <trkpt lat="46.68172" lon="-1.72282">
        <ele>52</ele>
        <time>2018-01-13T20:14:58Z</time>
      </trkpt>
      <trkpt lat="46.6818" lon="-1.7223">
        <ele>52</ele>
        <time>2018-01-13T20:15:58Z</time>
      </trkpt>
      <trkpt lat="46.68184" lon="-1.72208">
        <ele>53</ele>
        <time>2018-01-13T20:16:58Z</time>
      </trkpt>
      <trkpt lat="46.68193" lon="-1.72148">
        <ele>53</ele>
        <time>2018-01-13T20:17:58Z</time>
      </trkpt>
      <trkpt lat="46.68196" lon="-1.72131">
        <ele>53</ele>
        <time>2018-01-13T20:18:58Z</time>
      </trkpt>
      <trkpt lat="46.68206" lon="-1.72075">
        <ele>54</ele>
        <time>2018-01-13T20:19:58Z</time>
      </trkpt>
      <trkpt lat="46.68214" lon="-1.7203">
        <ele>54</ele>
        <time>2018-01-13T20:20:58Z</time>
      </trkpt>
      <trkpt lat="46.68218" lon="-1.72009">
        <ele>54</ele>
        <time>2018-01-13T20:21:58Z</time>
      </trkpt>
      <trkpt lat="46.68225" lon="-1.71977">
        <ele>54</ele>
        <time>2018-01-13T20:22:58Z</time>
      </trkpt>
      <trkpt lat="46.68225" lon="-1.71977">
        <ele>54</ele>
        <time>2018-01-13T20:23:58Z</time>
      </trkpt>
      <trkpt lat="46.6823" lon="-1.71961">
        <ele>54</ele>
        <time>2018-01-13T20:24:58Z</time>
      </trkpt>
      <trkpt lat="46.68232" lon="-1.71954">
        <ele>54</ele>
        <time>2018-01-13T20:25:58Z</time>
      </trkpt>
      <trkpt lat="46.68238" lon="-1.71947">
        <ele>54</ele>
        <time>2018-01-13T20:26:58Z</time>
      </trkpt>
      <trkpt lat="46.6825" lon="-1.71931">
        <ele>54</ele>
        <time>2018-01-13T20:27:58Z</time>
      </trkpt>
      <trkpt lat="46.68255" lon="-1.71923">
        <ele>54</ele>
        <time>2018-01-13T20:28:58Z</time>
      </trkpt>
      <trkpt lat="46.68256" lon="-1.7192">
        <ele>54</ele>
        <time>2018-01-13T20:29:58Z</time>
      </trkpt>
      <trkpt lat="46.68257" lon="-1.71918">
        <ele>54</ele>
        <time>2018-01-13T20:30:58Z</time>
      </trkpt>
      <trkpt lat="46.68261" lon="-1.71902">
        <ele>54</ele>
        <time>2018-01-13T20:31:58Z</time>
      </trkpt>
      <trkpt lat="46.68264" lon="-1.71881">
        <ele>53</ele>
        <time>2018-01-13T20:32:58Z</time>
      </trkpt>
      <trkpt lat="46.68271" lon="-1.7184">
        <ele>51</ele>
        <time>2018-01-13T20:33:58Z</time>
      </trkpt>
      <trkpt lat="46.68279" lon="-1.71789">
        <ele>50</ele>
        <time>2018-01-13T20:34:58Z</time>
      </trkpt>
      <trkpt lat="46.68286" lon="-1.71739">
        <ele>49</ele>
        <time>2018-01-13T20:35:58Z</time>
      </trkpt>
      <trkpt lat="46.68294" lon="-1.71693">
        <ele>50</ele>
        <time>2018-01-13T20:36:58Z</time>
      </trkpt>
      <trkpt lat="46.68303" lon="-1.71634">
        <ele>49</ele>
        <time>2018-01-13T20:37:58Z</time>
      </trkpt>
      <trkpt lat="46.68311" lon="-1.71582">
        <ele>49</ele>
        <time>2018-01-13T20:38:58Z</time>
      </trkpt>
      <trkpt lat="46.68318" lon="-1.71539">
        <ele>50</ele>
        <time>2018-01-13T20:39:58Z</time>
      </trkpt>
      <trkpt lat="46.68323" lon="-1.71507">
        <ele>50</ele>
        <time>2018-01-13T20:40:58Z</time>
      </trkpt>
      <trkpt lat="46.68329" lon="-1.71466">
        <ele>51</ele>
        <time>2018-01-13T20:41:58Z</time>
      </trkpt>
      <trkpt lat="46.68337" lon="-1.71414">
        <ele>51</ele>
        <time>2018-01-13T20:42:58Z</time>
      </trkpt>
      <trkpt lat="46.68343" lon="-1.71375">
        <ele>51</ele>
        <time>2018-01-13T20:43:58Z</time>
      </trkpt>
      <trkpt lat="46.68351" lon="-1.71325">
        <ele>52</ele>
        <time>2018-01-13T20:44:58Z</time>
      </trkpt>
      <trkpt lat="46.68358" lon="-1.71278">
        <ele>53</ele>
        <time>2018-01-13T20:45:58Z</time>
      </trkpt>
      <trkpt lat="46.68365" lon="-1.71235">
        <ele>53</ele>
        <time>2018-01-13T20:46:58Z</time>
      </trkpt>
      <trkpt lat="46.68367" lon="-1.71208">
        <ele>54</ele>
        <time>2018-01-13T20:47:58Z</time>
      </trkpt>
      <trkpt lat="46.6837" lon="-1.71179">
        <ele>54</ele>
        <time>2018-01-13T20:48:58Z</time>
      </trkpt>
      <trkpt lat="46.68372" lon="-1.71141">
        <ele>54</ele>
        <time>2018-01-13T20:49:58Z</time>
      </trkpt>
      <trkpt lat="46.68374" lon="-1.71103">
        <ele>54</ele>
        <time>2018-01-13T20:50:58Z</time>
      </trkpt>
      <trkpt lat="46.68377" lon="-1.71036">
        <ele>54</ele>
        <time>2018-01-13T20:51:58Z</time>
      </trkpt>
      <trkpt lat="46.68379" lon="-1.71001">
        <ele>53</ele>
        <time>2018-01-13T20:52:58Z</time>
      </trkpt>
      <trkpt lat="46.6838" lon="-1.70975">
        <ele>53</ele>
        <time>2018-01-13T20:53:58Z</time>
      </trkpt>
      <trkpt lat="46.68381" lon="-1.70947">
        <ele>52</ele>
        <time>2018-01-13T20:54:58Z</time>
      </trkpt>
      <trkpt lat="46.6838" lon="-1.70922">
        <ele>52</ele>
        <time>2018-01-13T20:55:58Z</time>
      </trkpt>
      <trkpt lat="46.68379" lon="-1.70903">
        <ele>52</ele>
        <time>2018-01-13T20:56:58Z</time>
      </trkpt>
      <trkpt lat="46.68375" lon="-1.70873">
        <ele>51</ele>
        <time>2018-01-13T20:57:58Z</time>
      </trkpt>
      <trkpt lat="46.68368" lon="-1.70831">
        <ele>50</ele>
        <time>2018-01-13T20:58:58Z</time>
      </trkpt>
      <trkpt lat="46.68356" lon="-1.70784">
        <ele>50</ele>
        <time>2018-01-13T20:59:58Z</time>
      </trkpt>
      <trkpt lat="46.68339" lon="-1.70714">
        <ele>48</ele>
        <time>2018-01-13T21:00:58Z</time>
      </trkpt>
      <trkpt lat="46.68317" lon="-1.70631">
        <ele>47</ele>
        <time>2018-01-13T21:01:58Z</time>
      </trkpt>
      <trkpt lat="46.68299" lon="-1.70552">
        <ele>46</ele>
        <time>2018-01-13T21:02:58Z</time>
      </trkpt>
      <trkpt lat="46.68284" lon="-1.70491">
        <ele>45</ele>
        <time>2018-01-13T21:03:58Z</time>
      </trkpt>
      <trkpt lat="46.68271" lon="-1.70435">
        <ele>45</ele>
        <time>2018-01-13T21:04:58Z</time>
      </trkpt>
      <trkpt lat="46.68263" lon="-1.70381">
        <ele>43</ele>
        <time>2018-01-13T21:05:58Z</time>
      </trkpt>
      <trkpt lat="46.68259" lon="-1.70337">
        <ele>42</ele>
        <time>2018-01-13T21:06:58Z</time>
      </trkpt>
      <trkpt lat="46.68258" lon="-1.70316">
        <ele>41</ele>
        <time>2018-01-13T21:07:58Z</time>
      </trkpt>
      <trkpt lat="46.68258" lon="-1.70271">
        <ele>40</ele>
        <time>2018-01-13T21:08:58Z</time>
      </trkpt>
      <trkpt lat="46.68257" lon="-1.70221">
        <ele>38</ele>
        <time>2018-01-13T21:09:58Z</time>
      </trkpt>
      <trkpt lat="46.68257" lon="-1.70169">
        <ele>37</ele>
        <time>2018-01-13T21:10:58Z</time>
      </trkpt>
      <trkpt lat="46.68255" lon="-1.70143">
        <ele>36</ele>
        <time>2018-01-13T21:11:58Z</time>
      </trkpt>
      <trkpt lat="46.6825" lon="-1.70114">
        <ele>36</ele>
        <time>2018-01-13T21:12:58Z</time>
      </trkpt>
      <trkpt lat="46.68244" lon="-1.70092">
        <ele>35</ele>
        <time>2018-01-13T21:13:58Z</time>
      </trkpt>
      <trkpt lat="46.68238" lon="-1.70077">
        <ele>35</ele>
        <time>2018-01-13T21:14:58Z</time>
      </trkpt>
      <trkpt lat="46.68231" lon="-1.70062">
        <ele>35</ele>
        <time>2018-01-13T21:15:58Z</time>
      </trkpt>
      <trkpt lat="46.68215" lon="-1.70038">
        <ele>36</ele>
        <time>2018-01-13T21:16:58Z</time>
      </trkpt>
      <trkpt lat="46.68194" lon="-1.70014">
        <ele>37</ele>
        <time>2018-01-13T21:17:58Z</time>
      </trkpt>
      <trkpt lat="46.68177" lon="-1.69992">
        <ele>37</ele>
        <time>2018-01-13T21:18:58Z</time>
      </trkpt>
      <trkpt lat="46.68163" lon="-1.69978">
        <ele>38</ele>
        <time>2018-01-13T21:19:58Z</time>
      </trkpt>
      <trkpt lat="46.68148" lon="-1.69959">
        <ele>37</ele>
        <time>2018-01-13T21:20:58Z</time>
      </trkpt>
      <trkpt lat="46.68136" lon="-1.69944">
        <ele>36</ele>
        <time>2018-01-13T21:21:58Z</time>
      </trkpt>
      <trkpt lat="46.68128" lon="-1.69931">
        <ele>35</ele>
        <time>2018-01-13T21:22:58Z</time>
      </trkpt>
      <trkpt lat="46.68121" lon="-1.69918">
        <ele>35</ele>
        <time>2018-01-13T21:23:58Z</time>
      </trkpt>
      <trkpt lat="46.6811" lon="-1.69893">
        <ele>34</ele>
        <time>2018-01-13T21:24:58Z</time>
      </trkpt>
      <trkpt lat="46.681" lon="-1.69864">
        <ele>34</ele>
        <time>2018-01-13T21:25:58Z</time>
      </trkpt>
      <trkpt lat="46.68096" lon="-1.69846">
        <ele>34</ele>
        <time>2018-01-13T21:26:58Z</time>
      </trkpt>
      <trkpt lat="46.68071" lon="-1.69728">
        <ele>29</ele>
        <time>2018-01-13T21:27:58Z</time>
      </trkpt>
      <trkpt lat="46.68064" lon="-1.69679">
        <ele>27</ele>
        <time>2018-01-13T21:28:58Z</time>
      </trkpt>
      <trkpt lat="46.68058" lon="-1.69624">
        <ele>25</ele>
        <time>2018-01-13T21:29:58Z</time>
      </trkpt>
      <trkpt lat="46.68055" lon="-1.69572">
        <ele>24</ele>
        <time>2018-01-13T21:30:58Z</time>
      </trkpt>
      <trkpt lat="46.68054" lon="-1.69532">
        <ele>24</ele>
        <time>2018-01-13T21:31:58Z</time>
      </trkpt>
      <trkpt lat="46.68053" lon="-1.69491">
        <ele>24</ele>
        <time>2018-01-13T21:32:58Z</time>
      </trkpt>
      <trkpt lat="46.68051" lon="-1.69451">
        <ele>24</ele>
        <time>2018-01-13T21:33:58Z</time>
      </trkpt>
      <trkpt lat="46.6805" lon="-1.69409">
        <ele>24</ele>
        <time>2018-01-13T21:34:58Z</time>
      </trkpt>
      <trkpt lat="46.68048" lon="-1.69369">
        <ele>25</ele>
        <time>2018-01-13T21:35:58Z</time>
      </trkpt>
      <trkpt lat="46.68047" lon="-1.69326">
        <ele>26</ele>
        <time>2018-01-13T21:36:58Z</time>
      </trkpt>
      <trkpt lat="46.68047" lon="-1.69306">
        <ele>26</ele>
        <time>2018-01-13T21:37:58Z</time>
      </trkpt>
      <trkpt lat="46.68046" lon="-1.69285">
        <ele>26</ele>
        <time>2018-01-13T21:38:58Z</time>
      </trkpt>
      <trkpt lat="46.68044" lon="-1.69245">
        <ele>26</ele>
        <time>2018-01-13T21:39:58Z</time>
      </trkpt>
      <trkpt lat="46.68043" lon="-1.69141">
        <ele>25</ele>
        <time>2018-01-13T21:40:58Z</time>
      </trkpt>
      <trkpt lat="46.68044" lon="-1.69117">
        <ele>26</ele>
        <time>2018-01-13T21:41:58Z</time>
      </trkpt>
      <trkpt lat="46.68046" lon="-1.69093">
        <ele>26</ele>
        <time>2018-01-13T21:42:58Z</time>
      </trkpt>
      <trkpt lat="46.68054" lon="-1.69036">
        <ele>27</ele>
        <time>2018-01-13T21:43:58Z</time>
      </trkpt>
      <trkpt lat="46.68056" lon="-1.69016">
        <ele>27</ele>
        <time>2018-01-13T21:44:58Z</time>
      </trkpt>
      <trkpt lat="46.68058" lon="-1.68992">
        <ele>27</ele>
        <time>2018-01-13T21:45:58Z</time>
      </trkpt>
      <trkpt lat="46.68061" lon="-1.68962">
        <ele>27</ele>
        <time>2018-01-13T21:46:58Z</time>
      </trkpt>
      <trkpt lat="46.68064" lon="-1.68919">
        <ele>27</ele>
        <time>2018-01-13T21:47:58Z</time>
      </trkpt>
      <trkpt lat="46.68066" lon="-1.68888">
        <ele>26</ele>
        <time>2018-01-13T21:48:58Z</time>
      </trkpt>
      <trkpt lat="46.68066" lon="-1.6887">
        <ele>26</ele>
        <time>2018-01-13T21:49:58Z</time>
      </trkpt>
      <trkpt lat="46.68064" lon="-1.6885">
        <ele>25</ele>
        <time>2018-01-13T21:50:58Z</time>
      </trkpt>
      <trkpt lat="46.68062" lon="-1.68838">
        <ele>25</ele>
        <time>2018-01-13T21:51:58Z</time>
      </trkpt>
      <trkpt lat="46.68058" lon="-1.68823">
        <ele>24</ele>
        <time>2018-01-13T21:52:58Z</time>
      </trkpt>
      <trkpt lat="46.68052" lon="-1.68809">
        <ele>23</ele>
        <time>2018-01-13T21:53:58Z</time>
      </trkpt>
      <trkpt lat="46.68046" lon="-1.68801">
        <ele>23</ele>
        <time>2018-01-13T21:54:58Z</time>
      </trkpt>
      <trkpt lat="46.68042" lon="-1.68796">
        <ele>23</ele>
        <time>2018-01-13T21:55:58Z</time>
      </trkpt>
      <trkpt lat="46.68036" lon="-1.68789">
        <ele>22</ele>
        <time>2018-01-13T21:56:58Z</time>
      </trkpt>
      <trkpt lat="46.68028" lon="-1.68784">
        <ele>22</ele>
        <time>2018-01-13T21:57:58Z</time>
      </trkpt>
      <trkpt lat="46.68022" lon="-1.68779">
        <ele>22</ele>
        <time>2018-01-13T21:58:58Z</time>
      </trkpt>
      <trkpt lat="46.68014" lon="-1.68775">
        <ele>21</ele>
        <time>2018-01-13T21:59:58Z</time>
      </trkpt>
      <trkpt lat="46.68001" lon="-1.68769">
        <ele>21</ele>
        <time>2018-01-13T22:00:58Z</time>
      </trkpt>
      <trkpt lat="46.67982" lon="-1.6876">
        <ele>21</ele>
        <time>2018-01-13T22:01:58Z</time>
      </trkpt>
      <trkpt lat="46.67963" lon="-1.68751">
        <ele>22</ele>
        <time>2018-01-13T22:02:58Z</time>
      </trkpt>
      <trkpt lat="46.67957" lon="-1.68748">
        <ele>22</ele>
        <time>2018-01-13T22:03:58Z</time>
      </trkpt>
      <trkpt lat="46.6795" lon="-1.68744">
        <ele>22</ele>
        <time>2018-01-13T22:04:58Z</time>
      </trkpt>
      <trkpt lat="46.67943" lon="-1.68741">
        <ele>23</ele>
        <time>2018-01-13T22:05:58Z</time>
      </trkpt>
      <trkpt lat="46.67937" lon="-1.68738">
        <ele>23</ele>
        <time>2018-01-13T22:06:58Z</time>
      </trkpt>
      <trkpt lat="46.67931" lon="-1.68735">
        <ele>23</ele>
        <time>2018-01-13T22:07:58Z</time>
      </trkpt>
      <trkpt lat="46.67918" lon="-1.68729">
        <ele>23</ele>
        <time>2018-01-13T22:08:58Z</time>
      </trkpt>
      <trkpt lat="46.67899" lon="-1.68719">
        <ele>24</ele>
        <time>2018-01-13T22:09:58Z</time>
      </trkpt>
      <trkpt lat="46.67881" lon="-1.68709">
        <ele>24</ele>
        <time>2018-01-13T22:10:58Z</time>
      </trkpt>
      <trkpt lat="46.67864" lon="-1.687">
        <ele>25</ele>
        <time>2018-01-13T22:11:58Z</time>
      </trkpt>
      <trkpt lat="46.67848" lon="-1.68691">
        <ele>25</ele>
        <time>2018-01-13T22:12:58Z</time>
      </trkpt>
      <trkpt lat="46.67833" lon="-1.68682">
        <ele>25</ele>
        <time>2018-01-13T22:13:58Z</time>
      </trkpt>
      <trkpt lat="46.67827" lon="-1.68677">
        <ele>26</ele>
        <time>2018-01-13T22:14:58Z</time>
      </trkpt>
      <trkpt lat="46.6782" lon="-1.68671">
        <ele>26</ele>
        <time>2018-01-13T22:15:58Z</time>
      </trkpt>
      <trkpt lat="46.67814" lon="-1.68665">
        <ele>26</ele>
        <time>2018-01-13T22:16:58Z</time>
      </trkpt>
      <trkpt lat="46.67808" lon="-1.68657">
        <ele>26</ele>
        <time>2018-01-13T22:17:58Z</time>
      </trkpt>
      <trkpt lat="46.67802" lon="-1.68648">
        <ele>26</ele>
        <time>2018-01-13T22:18:58Z</time>
      </trkpt>
      <trkpt lat="46.67796" lon="-1.68635">
        <ele>26</ele>
        <time>2018-01-13T22:19:58Z</time>
      </trkpt>
      <trkpt lat="46.67794" lon="-1.6863">
        <ele>26</ele>
        <time>2018-01-13T22:20:58Z</time>
      </trkpt>
      <trkpt lat="46.67791" lon="-1.68624">
        <ele>26</ele>
        <time>2018-01-13T22:21:58Z</time>
      </trkpt>
      <trkpt lat="46.67787" lon="-1.68611">
        <ele>26</ele>
        <time>2018-01-13T22:22:58Z</time>
      </trkpt>
      <trkpt lat="46.67783" lon="-1.68599">
        <ele>26</ele>
        <time>2018-01-13T22:23:58Z</time>
      </trkpt>
      <trkpt lat="46.6778" lon="-1.68583">
        <ele>27</ele>
        <time>2018-01-13T22:24:58Z</time>
      </trkpt>
      <trkpt lat="46.67772" lon="-1.68539">
        <ele>26</ele>
        <time>2018-01-13T22:25:58Z</time>
      </trkpt>
      <trkpt lat="46.67766" lon="-1.685">
        <ele>26</ele>
        <time>2018-01-13T22:26:58Z</time>
      </trkpt>
      <trkpt lat="46.67765" lon="-1.68493">
        <ele>26</ele>
        <time>2018-01-13T22:27:58Z</time>
      </trkpt>
      <trkpt lat="46.67762" lon="-1.6848">
        <ele>25</ele>
        <time>2018-01-13T22:28:58Z</time>
      </trkpt>
      <trkpt lat="46.6776" lon="-1.68469">
        <ele>25</ele>
        <time>2018-01-13T22:29:58Z</time>
      </trkpt>
      <trkpt lat="46.6776" lon="-1.68466">
        <ele>25</ele>
        <time>2018-01-13T22:30:58Z</time>
      </trkpt>
      <trkpt lat="46.67756" lon="-1.68448">
        <ele>25</ele>
        <time>2018-01-13T22:31:58Z</time>
      </trkpt>
      <trkpt lat="46.67753" lon="-1.68427">
        <ele>25</ele>
        <time>2018-01-13T22:32:58Z</time>
      </trkpt>
      <trkpt lat="46.67749" lon="-1.68409">
        <ele>25</ele>
        <time>2018-01-13T22:33:58Z</time>
      </trkpt>
      <trkpt lat="46.67746" lon="-1.68391">
        <ele>25</ele>
        <time>2018-01-13T22:34:58Z</time>
      </trkpt>
      <trkpt lat="46.67742" lon="-1.68373">
        <ele>24</ele>
        <time>2018-01-13T22:35:58Z</time>
      </trkpt>
      <trkpt lat="46.67737" lon="-1.68347">
        <ele>24</ele>
        <time>2018-01-13T22:36:58Z</time>
      </trkpt>
      <trkpt lat="46.67733" lon="-1.68322">
        <ele>24</ele>
        <time>2018-01-13T22:37:58Z</time>
      </trkpt>
      <trkpt lat="46.67728" lon="-1.68296">
        <ele>24</ele>
        <time>2018-01-13T22:38:58Z</time>
      </trkpt>
      <trkpt lat="46.67724" lon="-1.68273">
        <ele>25</ele>
        <time>2018-01-13T22:39:58Z</time>
      </trkpt>
      <trkpt lat="46.6772" lon="-1.68252">
        <ele>25</ele>
        <time>2018-01-13T22:40:58Z</time>
      </trkpt>
      <trkpt lat="46.67717" lon="-1.6824">
        <ele>25</ele>
        <time>2018-01-13T22:41:58Z</time>
      </trkpt>
      <trkpt lat="46.67711" lon="-1.68208">
        <ele>26</ele>
        <time>2018-01-13T22:42:58Z</time>
      </trkpt>
      <trkpt lat="46.67707" lon="-1.68183">
        <ele>26</ele>
        <time>2018-01-13T22:43:58Z</time>
      </trkpt>
      <trkpt lat="46.67706" lon="-1.68176">
        <ele>27</ele>
        <time>2018-01-13T22:44:58Z</time>
      </trkpt>
      <trkpt lat="46.67706" lon="-1.68173">
        <ele>27</ele>
        <time>2018-01-13T22:45:58Z</time>
      </trkpt>
      <trkpt lat="46.67703" lon="-1.68151">
        <ele>27</ele>
        <time>2018-01-13T22:46:58Z</time>
      </trkpt>
      <trkpt lat="46.67701" lon="-1.68136">
        <ele>28</ele>
        <time>2018-01-13T22:47:58Z</time>
      </trkpt>
      <trkpt lat="46.677" lon="-1.68132">
        <ele>28</ele>
        <time>2018-01-13T22:48:58Z</time>
      </trkpt>
      <trkpt lat="46.67699" lon="-1.68128">
        <ele>28</ele>
        <time>2018-01-13T22:49:58Z</time>
      </trkpt>
      <trkpt lat="46.67697" lon="-1.68121">
        <ele>29</ele>
        <time>2018-01-13T22:50:58Z</time>
      </trkpt>
      <trkpt lat="46.67694" lon="-1.68112">
        <ele>29</ele>
        <time>2018-01-13T22:51:58Z</time>
      </trkpt>
      <trkpt lat="46.67691" lon="-1.68099">
        <ele>30</ele>
        <time>2018-01-13T22:52:58Z</time>
      </trkpt>
      <trkpt lat="46.67682" lon="-1.6806">
        <ele>31</ele>
        <time>2018-01-13T22:53:58Z</time>
      </trkpt>
      <trkpt lat="46.67673" lon="-1.68018">
        <ele>33</ele>
        <time>2018-01-13T22:54:58Z</time>
      </trkpt>
      <trkpt lat="46.67665" lon="-1.67984">
        <ele>33</ele>
        <time>2018-01-13T22:55:58Z</time>
      </trkpt>
      <trkpt lat="46.67656" lon="-1.67946">
        <ele>34</ele>
        <time>2018-01-13T22:56:58Z</time>
      </trkpt>
      <trkpt lat="46.6764" lon="-1.67875">
        <ele>36</ele>
        <time>2018-01-13T22:57:58Z</time>
      </trkpt>
      <trkpt lat="46.67636" lon="-1.67849">
        <ele>36</ele>
        <time>2018-01-13T22:58:58Z</time>
      </trkpt>
      <trkpt lat="46.67634" lon="-1.67839">
        <ele>36</ele>
        <time>2018-01-13T22:59:58Z</time>
      </trkpt>
      <trkpt lat="46.67634" lon="-1.67839">
        <ele>36</ele>
        <time>2018-01-13T23:00:58Z</time>
      </trkpt>
      <trkpt lat="46.67658" lon="-1.67827">
        <ele>35</ele>
        <time>2018-01-13T23:01:58Z</time>
      </trkpt>
      <trkpt lat="46.67673" lon="-1.67819">
        <ele>34</ele>
        <time>2018-01-13T23:02:58Z</time>
      </trkpt>
      <trkpt lat="46.6769" lon="-1.67816">
        <ele>33</ele>
        <time>2018-01-13T23:03:58Z</time>
      </trkpt>
      <trkpt lat="46.67707" lon="-1.67815">
        <ele>33</ele>
        <time>2018-01-13T23:04:58Z</time>
      </trkpt>
      <trkpt lat="46.67729" lon="-1.67816">
        <ele>32</ele>
        <time>2018-01-13T23:05:58Z</time>
      </trkpt>
      <trkpt lat="46.67754" lon="-1.67816">
        <ele>32</ele>
        <time>2018-01-13T23:06:58Z</time>
      </trkpt>
      <trkpt lat="46.67773" lon="-1.67815">
        <ele>32</ele>
        <time>2018-01-13T23:07:58Z</time>
      </trkpt>
      <trkpt lat="46.67778" lon="-1.67815">
        <ele>32</ele>
        <time>2018-01-13T23:08:58Z</time>
      </trkpt>
      <trkpt lat="46.67789" lon="-1.67812">
        <ele>32</ele>
        <time>2018-01-13T23:09:58Z</time>
      </trkpt>
      <trkpt lat="46.67807" lon="-1.67808">
        <ele>32</ele>
        <time>2018-01-13T23:10:58Z</time>
      </trkpt>
      <trkpt lat="46.67834" lon="-1.67801">
        <ele>32</ele>
        <time>2018-01-13T23:11:58Z</time>
      </trkpt>
      <trkpt lat="46.67846" lon="-1.67799">
        <ele>32</ele>
        <time>2018-01-13T23:12:58Z</time>
      </trkpt>
      <trkpt lat="46.67864" lon="-1.67797">
        <ele>31</ele>
        <time>2018-01-13T23:13:58Z</time>
      </trkpt>
      <trkpt lat="46.67876" lon="-1.67799">
        <ele>31</ele>
        <time>2018-01-13T23:14:58Z</time>
      </trkpt>
      <trkpt lat="46.67889" lon="-1.67801">
        <ele>31</ele>
        <time>2018-01-13T23:15:58Z</time>
      </trkpt>
      <trkpt lat="46.67907" lon="-1.67808">
        <ele>30</ele>
        <time>2018-01-13T23:16:58Z</time>
      </trkpt>
      <trkpt lat="46.67925" lon="-1.67815">
        <ele>30</ele>
        <time>2018-01-13T23:17:58Z</time>
      </trkpt>
      <trkpt lat="46.67943" lon="-1.67824">
        <ele>30</ele>
        <time>2018-01-13T23:18:58Z</time>
      </trkpt>
      <trkpt lat="46.67954" lon="-1.6783">
        <ele>30</ele>
        <time>2018-01-13T23:19:58Z</time>
      </trkpt>
      <trkpt lat="46.67959" lon="-1.67833">
        <ele>31</ele>
        <time>2018-01-13T23:20:58Z</time>
      </trkpt>
      <trkpt lat="46.67982" lon="-1.67844">
        <ele>31</ele>
        <time>2018-01-13T23:21:58Z</time>
      </trkpt>
      <trkpt lat="46.68012" lon="-1.67859">
        <ele>30</ele>
        <time>2018-01-13T23:22:58Z</time>
      </trkpt>
      <trkpt lat="46.68036" lon="-1.6787">
        <ele>29</ele>
        <time>2018-01-13T23:23:58Z</time>
      </trkpt>
      <trkpt lat="46.68062" lon="-1.67881">
        <ele>28</ele>
        <time>2018-01-13T23:24:58Z</time>
      </trkpt>
      <trkpt lat="46.6808" lon="-1.67885">
        <ele>27</ele>
        <time>2018-01-13T23:25:58Z</time>
      </trkpt>
      <trkpt lat="46.68097" lon="-1.67885">
        <ele>27</ele>
        <time>2018-01-13T23:26:58Z</time>
      </trkpt>
      <trkpt lat="46.68107" lon="-1.67883">
        <ele>26</ele>
        <time>2018-01-13T23:27:58Z</time>
      </trkpt>
      <trkpt lat="46.6811" lon="-1.67882">
        <ele>26</ele>
        <time>2018-01-13T23:28:58Z</time>
      </trkpt>
      <trkpt lat="46.68121" lon="-1.67872">
        <ele>26</ele>
        <time>2018-01-13T23:29:58Z</time>
      </trkpt>
      <trkpt lat="46.68123" lon="-1.67867">
        <ele>26</ele>
        <time>2018-01-13T23:30:58Z</time>
      </trkpt>
      <trkpt lat="46.68126" lon="-1.67861">
        <ele>26</ele>
        <time>2018-01-13T23:31:58Z</time>
      </trkpt>
      <trkpt lat="46.68129" lon="-1.67854">
        <ele>26</ele>
        <time>2018-01-13T23:32:58Z</time>
      </trkpt>
      <trkpt lat="46.6813" lon="-1.67846">
        <ele>25</ele>
        <time>2018-01-13T23:33:58Z</time>
      </trkpt>
      <trkpt lat="46.68132" lon="-1.67837">
        <ele>25</ele>
        <time>2018-01-13T23:34:58Z</time>
      </trkpt>
      <trkpt lat="46.68135" lon="-1.67818">
        <ele>25</ele>
        <time>2018-01-13T23:35:58Z</time>
      </trkpt>
      <trkpt lat="46.6814" lon="-1.67777">
        <ele>25</ele>
        <time>2018-01-13T23:36:58Z</time>
      </trkpt>
      <trkpt lat="46.68146" lon="-1.67733">
        <ele>25</ele>
        <time>2018-01-13T23:37:58Z</time>
      </trkpt>
      <trkpt lat="46.68152" lon="-1.67687">
        <ele>24</ele>
        <time>2018-01-13T23:38:58Z</time>
      </trkpt>
      <trkpt lat="46.68157" lon="-1.67644">
        <ele>25</ele>
        <time>2018-01-13T23:39:58Z</time>
      </trkpt>
      <trkpt lat="46.6816" lon="-1.67623">
        <ele>26</ele>
        <time>2018-01-13T23:40:58Z</time>
      </trkpt>
      <trkpt lat="46.68165" lon="-1.67591">
        <ele>27</ele>
        <time>2018-01-13T23:41:58Z</time>
      </trkpt>
      <trkpt lat="46.68168" lon="-1.67571">
        <ele>27</ele>
        <time>2018-01-13T23:42:58Z</time>
      </trkpt>
      <trkpt lat="46.68172" lon="-1.67539">
        <ele>29</ele>
        <time>2018-01-13T23:43:58Z</time>
      </trkpt>
      <trkpt lat="46.68176" lon="-1.67509">
        <ele>30</ele>
        <time>2018-01-13T23:44:58Z</time>
      </trkpt>
      <trkpt lat="46.68178" lon="-1.67489">
        <ele>31</ele>
        <time>2018-01-13T23:45:58Z</time>
      </trkpt>
      <trkpt lat="46.6818" lon="-1.6748">
        <ele>31</ele>
        <time>2018-01-13T23:46:58Z</time>
      </trkpt>
      <trkpt lat="46.68181" lon="-1.67469">
        <ele>32</ele>
        <time>2018-01-13T23:47:58Z</time>
      </trkpt>
      <trkpt lat="46.68184" lon="-1.67443">
        <ele>33</ele>
        <time>2018-01-13T23:48:58Z</time>
      </trkpt>
      <trkpt lat="46.68187" lon="-1.67433">
        <ele>33</ele>
        <time>2018-01-13T23:49:58Z</time>
      </trkpt>
      <trkpt lat="46.68189" lon="-1.67422">
        <ele>34</ele>
        <time>2018-01-13T23:50:58Z</time>
      </trkpt>
      <trkpt lat="46.68194" lon="-1.67405">
        <ele>34</ele>
        <time>2018-01-13T23:51:58Z</time>
      </trkpt>
      <trkpt lat="46.68196" lon="-1.67396">
        <ele>34</ele>
        <time>2018-01-13T23:52:58Z</time>
      </trkpt>
      <trkpt lat="46.682" lon="-1.67388">
        <ele>34</ele>
        <time>2018-01-13T23:53:58Z</time>
      </trkpt>
      <trkpt lat="46.68203" lon="-1.67379">
        <ele>34</ele>
        <time>2018-01-13T23:54:58Z</time>
      </trkpt>
      <trkpt lat="46.68207" lon="-1.67371">
        <ele>34</ele>
        <time>2018-01-13T23:55:58Z</time>
      </trkpt>
      <trkpt lat="46.68215" lon="-1.67355">
        <ele>35</ele>
        <time>2018-01-13T23:56:58Z</time>
      </trkpt>
      <trkpt lat="46.68233" lon="-1.67323">
        <ele>35</ele>
        <time>2018-01-13T23:57:58Z</time>
      </trkpt>
      <trkpt lat="46.68242" lon="-1.67308">
        <ele>35</ele>
        <time>2018-01-13T23:58:58Z</time>
      </trkpt>
      <trkpt lat="46.68251" lon="-1.67292">
        <ele>35</ele>
        <time>2018-01-13T23:59:58Z</time>
      </trkpt>
      <trkpt lat="46.68256" lon="-1.67284">
        <ele>35</ele>
        <time>2018-01-14T00:00:58Z</time>
      </trkpt>
      <trkpt lat="46.68265" lon="-1.67269">
        <ele>35</ele>
        <time>2018-01-14T00:01:58Z</time>
      </trkpt>
      <trkpt lat="46.68275" lon="-1.67253">
        <ele>35</ele>
        <time>2018-01-14T00:02:58Z</time>
      </trkpt>
      <trkpt lat="46.6829" lon="-1.67229">
        <ele>36</ele>
        <time>2018-01-14T00:03:58Z</time>
      </trkpt>
      <trkpt lat="46.68305" lon="-1.67205">
        <ele>36</ele>
        <time>2018-01-14T00:04:58Z</time>
      </trkpt>
      <trkpt lat="46.68314" lon="-1.67188">
        <ele>37</ele>
        <time>2018-01-14T00:05:58Z</time>
      </trkpt>
      <trkpt lat="46.68324" lon="-1.67172">
        <ele>37</ele>
        <time>2018-01-14T00:06:58Z</time>
      </trkpt>
      <trkpt lat="46.68339" lon="-1.67147">
        <ele>37</ele>
        <time>2018-01-14T00:07:58Z</time>
      </trkpt>
      <trkpt lat="46.68354" lon="-1.67122">
        <ele>36</ele>
        <time>2018-01-14T00:08:58Z</time>
      </trkpt>
      <trkpt lat="46.68373" lon="-1.67091">
        <ele>36</ele>
        <time>2018-01-14T00:09:58Z</time>
      </trkpt>
      <trkpt lat="46.68387" lon="-1.67066">
        <ele>35</ele>
        <time>2018-01-14T00:10:58Z</time>
      </trkpt>
      <trkpt lat="46.68406" lon="-1.67034">
        <ele>34</ele>
        <time>2018-01-14T00:11:58Z</time>
      </trkpt>
      <trkpt lat="46.68426" lon="-1.67002">
        <ele>33</ele>
        <time>2018-01-14T00:12:58Z</time>
      </trkpt>
      <trkpt lat="46.68442" lon="-1.66981">
        <ele>34</ele>
        <time>2018-01-14T00:13:58Z</time>
      </trkpt>
      <trkpt lat="46.68459" lon="-1.66965">
        <ele>34</ele>
        <time>2018-01-14T00:14:58Z</time>
      </trkpt>
      <trkpt lat="46.68471" lon="-1.66954">
        <ele>34</ele>
        <time>2018-01-14T00:15:58Z</time>
      </trkpt>
      <trkpt lat="46.68512" lon="-1.66921">
        <ele>36</ele>
        <time>2018-01-14T00:16:58Z</time>
      </trkpt>
      <trkpt lat="46.68538" lon="-1.66901">
        <ele>35</ele>
        <time>2018-01-14T00:17:58Z</time>
      </trkpt>
      <trkpt lat="46.68563" lon="-1.66881">
        <ele>35</ele>
        <time>2018-01-14T00:18:58Z</time>
      </trkpt>
      <trkpt lat="46.68577" lon="-1.66869">
        <ele>35</ele>
        <time>2018-01-14T00:19:58Z</time>
      </trkpt>
      <trkpt lat="46.68582" lon="-1.66862">
        <ele>35</ele>
        <time>2018-01-14T00:20:58Z</time>
      </trkpt>
      <trkpt lat="46.68584" lon="-1.66854">
        <ele>35</ele>
        <time>2018-01-14T00:21:58Z</time>
      </trkpt>
      <trkpt lat="46.68638" lon="-1.66814">
        <ele>35</ele>
        <time>2018-01-14T00:22:58Z</time>
      </trkpt>
      <trkpt lat="46.68655" lon="-1.66801">
        <ele>35</ele>
        <time>2018-01-14T00:23:58Z</time>
      </trkpt>
      <trkpt lat="46.6871" lon="-1.66756">
        <ele>35</ele>
        <time>2018-01-14T00:24:58Z</time>
      </trkpt>
      <trkpt lat="46.68781" lon="-1.66699">
        <ele>32</ele>
        <time>2018-01-14T00:25:58Z</time>
      </trkpt>
      <trkpt lat="46.68799" lon="-1.66684">
        <ele>31</ele>
        <time>2018-01-14T00:26:58Z</time>
      </trkpt>
      <trkpt lat="46.68854" lon="-1.66642">
        <ele>29</ele>
        <time>2018-01-14T00:27:58Z</time>
      </trkpt>
      <trkpt lat="46.68865" lon="-1.66633">
        <ele>28</ele>
        <time>2018-01-14T00:28:58Z</time>
      </trkpt>
      <trkpt lat="46.6887" lon="-1.66628">
        <ele>28</ele>
        <time>2018-01-14T00:29:58Z</time>
      </trkpt>
      <trkpt lat="46.68873" lon="-1.66626">
        <ele>28</ele>
        <time>2018-01-14T00:30:58Z</time>
      </trkpt>
      <trkpt lat="46.68881" lon="-1.66618">
        <ele>27</ele>
        <time>2018-01-14T00:31:58Z</time>
      </trkpt>
      <trkpt lat="46.68889" lon="-1.6661">
        <ele>27</ele>
        <time>2018-01-14T00:32:58Z</time>
      </trkpt>
      <trkpt lat="46.68896" lon="-1.66602">
        <ele>26</ele>
        <time>2018-01-14T00:33:58Z</time>
      </trkpt>
      <trkpt lat="46.68903" lon="-1.66593">
        <ele>26</ele>
        <time>2018-01-14T00:34:58Z</time>
      </trkpt>
      <trkpt lat="46.68912" lon="-1.6658">
        <ele>25</ele>
        <time>2018-01-14T00:35:58Z</time>
      </trkpt>
      <trkpt lat="46.68918" lon="-1.66569">
        <ele>25</ele>
        <time>2018-01-14T00:36:58Z</time>
      </trkpt>
      <trkpt lat="46.68925" lon="-1.66556">
        <ele>24</ele>
        <time>2018-01-14T00:37:58Z</time>
      </trkpt>
      <trkpt lat="46.68931" lon="-1.66545">
        <ele>24</ele>
        <time>2018-01-14T00:38:58Z</time>
      </trkpt>
      <trkpt lat="46.6894" lon="-1.66523">
        <ele>24</ele>
        <time>2018-01-14T00:39:58Z</time>
      </trkpt>
      <trkpt lat="46.68952" lon="-1.66497">
        <ele>23</ele>
        <time>2018-01-14T00:40:58Z</time>
      </trkpt>
      <trkpt lat="46.68965" lon="-1.66464">
        <ele>23</ele>
        <time>2018-01-14T00:41:58Z</time>
      </trkpt>
      <trkpt lat="46.68988" lon="-1.66413">
        <ele>23</ele>
        <time>2018-01-14T00:42:58Z</time>
      </trkpt>
      <trkpt lat="46.68991" lon="-1.66405">
        <ele>22</ele>
        <time>2018-01-14T00:43:58Z</time>
      </trkpt>
      <trkpt lat="46.69004" lon="-1.66378">
        <ele>22</ele>
        <time>2018-01-14T00:44:58Z</time>
      </trkpt>
      <trkpt lat="46.69008" lon="-1.66371">
        <ele>22</ele>
        <time>2018-01-14T00:45:58Z</time>
      </trkpt>
      <trkpt lat="46.69013" lon="-1.66362">
        <ele>22</ele>
        <time>2018-01-14T00:46:58Z</time>
      </trkpt>
      <trkpt lat="46.69019" lon="-1.66353">
        <ele>22</ele>
        <time>2018-01-14T00:47:58Z</time>
      </trkpt>
      <trkpt lat="46.69024" lon="-1.66348">
        <ele>22</ele>
        <time>2018-01-14T00:48:58Z</time>
      </trkpt>
      <trkpt lat="46.69027" lon="-1.66346">
        <ele>22</ele>
        <time>2018-01-14T00:49:58Z</time>
      </trkpt>
      <trkpt lat="46.69042" lon="-1.66336">
        <ele>22</ele>
        <time>2018-01-14T00:50:58Z</time>
      </trkpt>
      <trkpt lat="46.69053" lon="-1.6633">
        <ele>22</ele>
        <time>2018-01-14T00:51:58Z</time>
      </trkpt>
      <trkpt lat="46.69067" lon="-1.66323">
        <ele>22</ele>
        <time>2018-01-14T00:52:58Z</time>
      </trkpt>
      <trkpt lat="46.6907" lon="-1.66322">
        <ele>22</ele>
        <time>2018-01-14T00:53:58Z</time>
      </trkpt>
      <trkpt lat="46.69083" lon="-1.66317">
        <ele>22</ele>
        <time>2018-01-14T00:54:58Z</time>
      </trkpt>
      <trkpt lat="46.69094" lon="-1.66312">
        <ele>23</ele>
        <time>2018-01-14T00:55:58Z</time>
      </trkpt>
      <trkpt lat="46.69103" lon="-1.6631">
        <ele>23</ele>
        <time>2018-01-14T00:56:58Z</time>
      </trkpt>
      <trkpt lat="46.69113" lon="-1.66309">
        <ele>24</ele>
        <time>2018-01-14T00:57:58Z</time>
      </trkpt>
      <trkpt lat="46.69123" lon="-1.66309">
        <ele>25</ele>
        <time>2018-01-14T00:58:58Z</time>
      </trkpt>
      <trkpt lat="46.69131" lon="-1.6631">
        <ele>25</ele>
        <time>2018-01-14T00:59:58Z</time>
      </trkpt>
      <trkpt lat="46.69139" lon="-1.66313">
        <ele>26</ele>
        <time>2018-01-14T01:00:58Z</time>
      </trkpt>
      <trkpt lat="46.69151" lon="-1.6632">
        <ele>27</ele>
        <time>2018-01-14T01:01:58Z</time>
      </trkpt>
      <trkpt lat="46.6917" lon="-1.66333">
        <ele>28</ele>
        <time>2018-01-14T01:02:58Z</time>
      </trkpt>
      <trkpt lat="46.69209" lon="-1.66362">
        <ele>29</ele>
        <time>2018-01-14T01:03:58Z</time>
      </trkpt>
      <trkpt lat="46.69225" lon="-1.66373">
        <ele>30</ele>
        <time>2018-01-14T01:04:58Z</time>
      </trkpt>
      <trkpt lat="46.69233" lon="-1.66377">
        <ele>30</ele>
        <time>2018-01-14T01:05:58Z</time>
      </trkpt>
      <trkpt lat="46.69241" lon="-1.6638">
        <ele>30</ele>
        <time>2018-01-14T01:06:58Z</time>
      </trkpt>
      <trkpt lat="46.69248" lon="-1.66383">
        <ele>30</ele>
        <time>2018-01-14T01:07:58Z</time>
      </trkpt>
      <trkpt lat="46.69257" lon="-1.66385">
        <ele>31</ele>
        <time>2018-01-14T01:08:58Z</time>
      </trkpt>
      <trkpt lat="46.69267" lon="-1.66387">
        <ele>31</ele>
        <time>2018-01-14T01:09:58Z</time>
      </trkpt>
      <trkpt lat="46.69276" lon="-1.66388">
        <ele>31</ele>
        <time>2018-01-14T01:10:58Z</time>
      </trkpt>
      <trkpt lat="46.69284" lon="-1.66389">
        <ele>32</ele>
        <time>2018-01-14T01:11:58Z</time>
      </trkpt>
      <trkpt lat="46.69294" lon="-1.66388">
        <ele>32</ele>
        <time>2018-01-14T01:12:58Z</time>
      </trkpt>
      <trkpt lat="46.69305" lon="-1.66387">
        <ele>32</ele>
        <time>2018-01-14T01:13:58Z</time>
      </trkpt>
      <trkpt lat="46.69315" lon="-1.66386">
        <ele>33</ele>
        <time>2018-01-14T01:14:58Z</time>
      </trkpt>
      <trkpt lat="46.69333" lon="-1.66382">
        <ele>33</ele>
        <time>2018-01-14T01:15:58Z</time>
      </trkpt>
      <trkpt lat="46.69348" lon="-1.66378">
        <ele>33</ele>
        <time>2018-01-14T01:16:58Z</time>
      </trkpt>
      <trkpt lat="46.69357" lon="-1.66377">
        <ele>34</ele>
        <time>2018-01-14T01:17:58Z</time>
      </trkpt>
      <trkpt lat="46.69367" lon="-1.66375">
        <ele>34</ele>
        <time>2018-01-14T01:18:58Z</time>
      </trkpt>
      <trkpt lat="46.69376" lon="-1.66375">
        <ele>34</ele>
        <time>2018-01-14T01:19:58Z</time>
      </trkpt>
      <trkpt lat="46.69387" lon="-1.66374">
        <ele>34</ele>
        <time>2018-01-14T01:20:58Z</time>
      </trkpt>
      <trkpt lat="46.69391" lon="-1.66375">
        <ele>34</ele>
        <time>2018-01-14T01:21:58Z</time>
      </trkpt>
      <trkpt lat="46.69405" lon="-1.66375">
        <ele>35</ele>
        <time>2018-01-14T01:22:58Z</time>
      </trkpt>
      <trkpt lat="46.69468" lon="-1.66378">
        <ele>35</ele>
        <time>2018-01-14T01:23:58Z</time>
      </trkpt>
      <trkpt lat="46.69514" lon="-1.6638">
        <ele>36</ele>
        <time>2018-01-14T01:24:58Z</time>
      </trkpt>
      <trkpt lat="46.69542" lon="-1.66382">
        <ele>37</ele>
        <time>2018-01-14T01:25:58Z</time>
      </trkpt>
      <trkpt lat="46.69563" lon="-1.66383">
        <ele>37</ele>
        <time>2018-01-14T01:26:58Z</time>
      </trkpt>
      <trkpt lat="46.6958" lon="-1.66384">
        <ele>38</ele>
        <time>2018-01-14T01:27:58Z</time>
      </trkpt>
      <trkpt lat="46.69587" lon="-1.66383">
        <ele>38</ele>
        <time>2018-01-14T01:28:58Z</time>
      </trkpt>
      <trkpt lat="46.69594" lon="-1.66382">
        <ele>38</ele>
        <time>2018-01-14T01:29:58Z</time>
      </trkpt>
      <trkpt lat="46.69601" lon="-1.66381">
        <ele>39</ele>
        <time>2018-01-14T01:30:58Z</time>
      </trkpt>
      <trkpt lat="46.69606" lon="-1.66378">
        <ele>39</ele>
        <time>2018-01-14T01:31:58Z</time>
      </trkpt>
      <trkpt lat="46.69613" lon="-1.66375">
        <ele>40</ele>
        <time>2018-01-14T01:32:58Z</time>
      </trkpt>
      <trkpt lat="46.69617" lon="-1.66372">
        <ele>40</ele>
        <time>2018-01-14T01:33:58Z</time>
      </trkpt>
      <trkpt lat="46.6962" lon="-1.6637">
        <ele>40</ele>
        <time>2018-01-14T01:34:58Z</time>
      </trkpt>
      <trkpt lat="46.69629" lon="-1.66364">
        <ele>41</ele>
        <time>2018-01-14T01:35:58Z</time>
      </trkpt>
      <trkpt lat="46.69648" lon="-1.66343">
        <ele>42</ele>
        <time>2018-01-14T01:36:58Z</time>
      </trkpt>
      <trkpt lat="46.69666" lon="-1.66322">
        <ele>43</ele>
        <time>2018-01-14T01:37:58Z</time>
      </trkpt>
      <trkpt lat="46.69686" lon="-1.66298">
        <ele>43</ele>
        <time>2018-01-14T01:38:58Z</time>
      </trkpt>
      <trkpt lat="46.69699" lon="-1.66282">
        <ele>43</ele>
        <time>2018-01-14T01:39:58Z</time>
      </trkpt>
      <trkpt lat="46.69707" lon="-1.66273">
        <ele>43</ele>
        <time>2018-01-14T01:40:58Z</time>
      </trkpt>
      <trkpt lat="46.69714" lon="-1.66264">
        <ele>43</ele>
        <time>2018-01-14T01:41:58Z</time>
      </trkpt>
      <trkpt lat="46.69729" lon="-1.66247">
        <ele>43</ele>
        <time>2018-01-14T01:42:58Z</time>
      </trkpt>
      <trkpt lat="46.69743" lon="-1.6623">
        <ele>44</ele>
        <time>2018-01-14T01:43:58Z</time>
      </trkpt>
      <trkpt lat="46.69765" lon="-1.66204">
        <ele>44</ele>
        <time>2018-01-14T01:44:58Z</time>
      </trkpt>
      <trkpt lat="46.69779" lon="-1.66187">
        <ele>45</ele>
        <time>2018-01-14T01:45:58Z</time>
      </trkpt>
      <trkpt lat="46.69801" lon="-1.66161">
        <ele>45</ele>
        <time>2018-01-14T01:46:58Z</time>
      </trkpt>
      <trkpt lat="46.69812" lon="-1.66148">
        <ele>46</ele>
        <time>2018-01-14T01:47:58Z</time>
      </trkpt>
      <trkpt lat="46.69823" lon="-1.66135">
        <ele>46</ele>
        <time>2018-01-14T01:48:58Z</time>
      </trkpt>
      <trkpt lat="46.69844" lon="-1.6611">
        <ele>46</ele>
        <time>2018-01-14T01:49:58Z</time>
      </trkpt>
      <trkpt lat="46.69867" lon="-1.66083">
        <ele>46</ele>
        <time>2018-01-14T01:50:58Z</time>
      </trkpt>
      <trkpt lat="46.69889" lon="-1.66056">
        <ele>46</ele>
        <time>2018-01-14T01:51:58Z</time>
      </trkpt>
      <trkpt lat="46.69903" lon="-1.66039">
        <ele>46</ele>
        <time>2018-01-14T01:52:58Z</time>
      </trkpt>
      <trkpt lat="46.69909" lon="-1.66031">
        <ele>46</ele>
        <time>2018-01-14T01:53:58Z</time>
      </trkpt>
      <trkpt lat="46.69925" lon="-1.66014">
        <ele>46</ele>
        <time>2018-01-14T01:54:58Z</time>
      </trkpt>
      <trkpt lat="46.69952" lon="-1.65981">
        <ele>46</ele>
        <time>2018-01-14T01:55:58Z</time>
      </trkpt>
      <trkpt lat="46.69972" lon="-1.65957">
        <ele>46</ele>
        <time>2018-01-14T01:56:58Z</time>
      </trkpt>
      <trkpt lat="46.69991" lon="-1.65934">
        <ele>47</ele>
        <time>2018-01-14T01:57:58Z</time>
      </trkpt>
      <trkpt lat="46.70004" lon="-1.6592">
        <ele>47</ele>
        <time>2018-01-14T01:58:58Z</time>
      </trkpt>
      <trkpt lat="46.70022" lon="-1.65898">
        <ele>47</ele>
        <time>2018-01-14T01:59:58Z</time>
      </trkpt>
      <trkpt lat="46.7004" lon="-1.65877">
        <ele>47</ele>
        <time>2018-01-14T02:00:58Z</time>
      </trkpt>
      <trkpt lat="46.70057" lon="-1.65856">
        <ele>46</ele>
        <time>2018-01-14T02:01:58Z</time>
      </trkpt>
      <trkpt lat="46.70068" lon="-1.65843">
        <ele>46</ele>
        <time>2018-01-14T02:02:58Z</time>
      </trkpt>
      <trkpt lat="46.70078" lon="-1.65831">
        <ele>46</ele>
        <time>2018-01-14T02:03:58Z</time>
      </trkpt>
      <trkpt lat="46.70088" lon="-1.6582">
        <ele>46</ele>
        <time>2018-01-14T02:04:58Z</time>
      </trkpt>
      <trkpt lat="46.70102" lon="-1.65803">
        <ele>45</ele>
        <time>2018-01-14T02:05:58Z</time>
      </trkpt>
      <trkpt lat="46.70114" lon="-1.65788">
        <ele>45</ele>
        <time>2018-01-14T02:06:58Z</time>
      </trkpt>
      <trkpt lat="46.70127" lon="-1.65773">
        <ele>44</ele>
        <time>2018-01-14T02:07:58Z</time>
      </trkpt>
      <trkpt lat="46.70137" lon="-1.65761">
        <ele>44</ele>
        <time>2018-01-14T02:08:58Z</time>
      </trkpt>
      <trkpt lat="46.70147" lon="-1.6575">
        <ele>43</ele>
        <time>2018-01-14T02:09:58Z</time>
      </trkpt>
      <trkpt lat="46.70153" lon="-1.65742">
        <ele>43</ele>
        <time>2018-01-14T02:10:58Z</time>
      </trkpt>
      <trkpt lat="46.70157" lon="-1.65738">
        <ele>43</ele>
        <time>2018-01-14T02:11:58Z</time>
      </trkpt>
      <trkpt lat="46.70157" lon="-1.65738">
        <ele>43</ele>
        <time>2018-01-14T02:12:58Z</time>
      </trkpt>
      <trkpt lat="46.70178" lon="-1.65713">
        <ele>42</ele>
        <time>2018-01-14T02:13:58Z</time>
      </trkpt>
      <trkpt lat="46.70201" lon="-1.65685">
        <ele>41</ele>
        <time>2018-01-14T02:14:58Z</time>
      </trkpt>
      <trkpt lat="46.70201" lon="-1.65685">
        <ele>41</ele>
        <time>2018-01-14T02:15:58Z</time>
      </trkpt>
      <trkpt lat="46.70202" lon="-1.65684">
        <ele>40</ele>
        <time>2018-01-14T02:16:58Z</time>
      </trkpt>
      <trkpt lat="46.70232" lon="-1.65647">
        <ele>39</ele>
        <time>2018-01-14T02:17:58Z</time>
      </trkpt>
      <trkpt lat="46.70258" lon="-1.65616">
        <ele>38</ele>
        <time>2018-01-14T02:18:58Z</time>
      </trkpt>
      <trkpt lat="46.70279" lon="-1.65592">
        <ele>37</ele>
        <time>2018-01-14T02:19:58Z</time>
      </trkpt>
      <trkpt lat="46.70293" lon="-1.65575">
        <ele>36</ele>
        <time>2018-01-14T02:20:58Z</time>
      </trkpt>
      <trkpt lat="46.70303" lon="-1.65562">
        <ele>36</ele>
        <time>2018-01-14T02:21:58Z</time>
      </trkpt>
      <trkpt lat="46.70314" lon="-1.6555">
        <ele>36</ele>
        <time>2018-01-14T02:22:58Z</time>
      </trkpt>
      <trkpt lat="46.70343" lon="-1.65515">
        <ele>36</ele>
        <time>2018-01-14T02:23:58Z</time>
      </trkpt>
      <trkpt lat="46.70373" lon="-1.65481">
        <ele>34</ele>
        <time>2018-01-14T02:24:58Z</time>
      </trkpt>
      <trkpt lat="46.70394" lon="-1.65455">
        <ele>33</ele>
        <time>2018-01-14T02:25:58Z</time>
      </trkpt>
      <trkpt lat="46.70424" lon="-1.65419">
        <ele>31</ele>
        <time>2018-01-14T02:26:58Z</time>
      </trkpt>
      <trkpt lat="46.70448" lon="-1.65391">
        <ele>30</ele>
        <time>2018-01-14T02:27:58Z</time>
      </trkpt>
      <trkpt lat="46.70471" lon="-1.65363">
        <ele>30</ele>
        <time>2018-01-14T02:28:58Z</time>
      </trkpt>
      <trkpt lat="46.70496" lon="-1.65334">
        <ele>31</ele>
        <time>2018-01-14T02:29:58Z</time>
      </trkpt>
      <trkpt lat="46.7052" lon="-1.65306">
        <ele>31</ele>
        <time>2018-01-14T02:30:58Z</time>
      </trkpt>
      <trkpt lat="46.70552" lon="-1.65267">
        <ele>31</ele>
        <time>2018-01-14T02:31:58Z</time>
      </trkpt>
      <trkpt lat="46.70577" lon="-1.65238">
        <ele>31</ele>
        <time>2018-01-14T02:32:58Z</time>
      </trkpt>
      <trkpt lat="46.70593" lon="-1.65219">
        <ele>31</ele>
        <time>2018-01-14T02:33:58Z</time>
      </trkpt>
      <trkpt lat="46.70618" lon="-1.65191">
        <ele>32</ele>
        <time>2018-01-14T02:34:58Z</time>
      </trkpt>
      <trkpt lat="46.70642" lon="-1.65162">
        <ele>31</ele>
        <time>2018-01-14T02:35:58Z</time>
      </trkpt>
      <trkpt lat="46.70665" lon="-1.65133">
        <ele>31</ele>
        <time>2018-01-14T02:36:58Z</time>
      </trkpt>
      <trkpt lat="46.70689" lon="-1.65105">
        <ele>33</ele>
        <time>2018-01-14T02:37:58Z</time>
      </trkpt>
      <trkpt lat="46.70705" lon="-1.65086">
        <ele>34</ele>
        <time>2018-01-14T02:38:58Z</time>
      </trkpt>
      <trkpt lat="46.70721" lon="-1.65067">
        <ele>35</ele>
        <time>2018-01-14T02:39:58Z</time>
      </trkpt>
      <trkpt lat="46.70736" lon="-1.65048">
        <ele>35</ele>
        <time>2018-01-14T02:40:58Z</time>
      </trkpt>
      <trkpt lat="46.70759" lon="-1.65021">
        <ele>36</ele>
        <time>2018-01-14T02:41:58Z</time>
      </trkpt>
      <trkpt lat="46.70773" lon="-1.65004">
        <ele>37</ele>
        <time>2018-01-14T02:42:58Z</time>
      </trkpt>
      <trkpt lat="46.70788" lon="-1.64986">
        <ele>38</ele>
        <time>2018-01-14T02:43:58Z</time>
      </trkpt>
      <trkpt lat="46.70802" lon="-1.64969">
        <ele>38</ele>
        <time>2018-01-14T02:44:58Z</time>
      </trkpt>
      <trkpt lat="46.70816" lon="-1.64951">
        <ele>39</ele>
        <time>2018-01-14T02:45:58Z</time>
      </trkpt>
      <trkpt lat="46.70829" lon="-1.64935">
        <ele>39</ele>
        <time>2018-01-14T02:46:58Z</time>
      </trkpt>
      <trkpt lat="46.70838" lon="-1.6492">
        <ele>40</ele>
        <time>2018-01-14T02:47:58Z</time>
      </trkpt>
      <trkpt lat="46.70846" lon="-1.64904">
        <ele>41</ele>
        <time>2018-01-14T02:48:58Z</time>
      </trkpt>
      <trkpt lat="46.70851" lon="-1.64893">
        <ele>41</ele>
        <time>2018-01-14T02:49:58Z</time>
      </trkpt>
      <trkpt lat="46.70855" lon="-1.64881">
        <ele>42</ele>
        <time>2018-01-14T02:50:58Z</time>
      </trkpt>
      <trkpt lat="46.70859" lon="-1.6487">
        <ele>42</ele>
        <time>2018-01-14T02:51:58Z</time>
      </trkpt>
      <trkpt lat="46.70862" lon="-1.64858">
        <ele>43</ele>
        <time>2018-01-14T02:52:58Z</time>
      </trkpt>
      <trkpt lat="46.70864" lon="-1.64845">
        <ele>43</ele>
        <time>2018-01-14T02:53:58Z</time>
      </trkpt>
      <trkpt lat="46.70866" lon="-1.64831">
        <ele>44</ele>
        <time>2018-01-14T02:54:58Z</time>
      </trkpt>
      <trkpt lat="46.70869" lon="-1.64806">
        <ele>44</ele>
        <time>2018-01-14T02:55:58Z</time>
      </trkpt>
      <trkpt lat="46.70873" lon="-1.64765">
        <ele>45</ele>
        <time>2018-01-14T02:56:58Z</time>
      </trkpt>
      <trkpt lat="46.70876" lon="-1.64725">
        <ele>46</ele>
        <time>2018-01-14T02:57:58Z</time>
      </trkpt>
      <trkpt lat="46.70879" lon="-1.64685">
        <ele>46</ele>
        <time>2018-01-14T02:58:58Z</time>
      </trkpt>
      <trkpt lat="46.70884" lon="-1.64632">
        <ele>47</ele>
        <time>2018-01-14T02:59:58Z</time>
      </trkpt>
      <trkpt lat="46.70887" lon="-1.64594">
        <ele>49</ele>
        <time>2018-01-14T03:00:58Z</time>
      </trkpt>
      <trkpt lat="46.70891" lon="-1.64557">
        <ele>50</ele>
        <time>2018-01-14T03:01:58Z</time>
      </trkpt>
      <trkpt lat="46.70895" lon="-1.64536">
        <ele>50</ele>
        <time>2018-01-14T03:02:58Z</time>
      </trkpt>
      <trkpt lat="46.70899" lon="-1.64514">
        <ele>50</ele>
        <time>2018-01-14T03:03:58Z</time>
      </trkpt>
      <trkpt lat="46.70906" lon="-1.64494">
        <ele>51</ele>
        <time>2018-01-14T03:04:58Z</time>
      </trkpt>
      <trkpt lat="46.7092" lon="-1.64457">
        <ele>51</ele>
        <time>2018-01-14T03:05:58Z</time>
      </trkpt>
      <trkpt lat="46.7094" lon="-1.6441">
        <ele>51</ele>
        <time>2018-01-14T03:06:58Z</time>
      </trkpt>
      <trkpt lat="46.70956" lon="-1.64371">
        <ele>51</ele>
        <time>2018-01-14T03:07:58Z</time>
      </trkpt>
      <trkpt lat="46.70964" lon="-1.64355">
        <ele>51</ele>
        <time>2018-01-14T03:08:58Z</time>
      </trkpt>
      <trkpt lat="46.70979" lon="-1.64325">
        <ele>51</ele>
        <time>2018-01-14T03:09:58Z</time>
      </trkpt>
      <trkpt lat="46.7099" lon="-1.64313">
        <ele>51</ele>
        <time>2018-01-14T03:10:58Z</time>
      </trkpt>
      <trkpt lat="46.70997" lon="-1.64305">
        <ele>51</ele>
        <time>2018-01-14T03:11:58Z</time>
      </trkpt>
      <trkpt lat="46.71014" lon="-1.64289">
        <ele>51</ele>
        <time>2018-01-14T03:12:58Z</time>
      </trkpt>
      <trkpt lat="46.7103" lon="-1.64279">
        <ele>51</ele>
        <time>2018-01-14T03:13:58Z</time>
      </trkpt>
      <trkpt lat="46.71049" lon="-1.6427">
        <ele>51</ele>
        <time>2018-01-14T03:14:58Z</time>
      </trkpt>
      <trkpt lat="46.71061" lon="-1.64264">
        <ele>52</ele>
        <time>2018-01-14T03:15:58Z</time>
      </trkpt>
      <trkpt lat="46.71081" lon="-1.64255">
        <ele>52</ele>
        <time>2018-01-14T03:16:58Z</time>
      </trkpt>
      <trkpt lat="46.711" lon="-1.64247">
        <ele>52</ele>
        <time>2018-01-14T03:17:58Z</time>
      </trkpt>
      <trkpt lat="46.71113" lon="-1.6424">
        <ele>52</ele>
        <time>2018-01-14T03:18:58Z</time>
      </trkpt>
      <trkpt lat="46.71119" lon="-1.64235">
        <ele>52</ele>
        <time>2018-01-14T03:19:58Z</time>
      </trkpt>
      <trkpt lat="46.71125" lon="-1.64231">
        <ele>52</ele>
        <time>2018-01-14T03:20:58Z</time>
      </trkpt>
      <trkpt lat="46.71133" lon="-1.64222">
        <ele>52</ele>
        <time>2018-01-14T03:21:58Z</time>
      </trkpt>
      <trkpt lat="46.71144" lon="-1.64207">
        <ele>52</ele>
        <time>2018-01-14T03:22:58Z</time>
      </trkpt>
      <trkpt lat="46.71148" lon="-1.64199">
        <ele>52</ele>
        <time>2018-01-14T03:23:58Z</time>
      </trkpt>
      <trkpt lat="46.71151" lon="-1.64191">
        <ele>52</ele>
        <time>2018-01-14T03:24:58Z</time>
      </trkpt>
      <trkpt lat="46.71159" lon="-1.64172">
        <ele>53</ele>
        <time>2018-01-14T03:25:58Z</time>
      </trkpt>
      <trkpt lat="46.71165" lon="-1.6415">
        <ele>52</ele>
        <time>2018-01-14T03:26:58Z</time>
      </trkpt>
      <trkpt lat="46.71174" lon="-1.64119">
        <ele>51</ele>
        <time>2018-01-14T03:27:58Z</time>
      </trkpt>
      <trkpt lat="46.71182" lon="-1.64088">
        <ele>50</ele>
        <time>2018-01-14T03:28:58Z</time>
      </trkpt>
      <trkpt lat="46.71193" lon="-1.64046">
        <ele>50</ele>
        <time>2018-01-14T03:29:58Z</time>
      </trkpt>
      <trkpt lat="46.71204" lon="-1.64005">
        <ele>50</ele>
        <time>2018-01-14T03:30:58Z</time>
      </trkpt>
      <trkpt lat="46.71213" lon="-1.63974">
        <ele>50</ele>
        <time>2018-01-14T03:31:58Z</time>
      </trkpt>
      <trkpt lat="46.71222" lon="-1.63943">
        <ele>49</ele>
        <time>2018-01-14T03:32:58Z</time>
      </trkpt>
      <trkpt lat="46.7123" lon="-1.63913">
        <ele>49</ele>
        <time>2018-01-14T03:33:58Z</time>
      </trkpt>
      <trkpt lat="46.71237" lon="-1.63882">
        <ele>48</ele>
        <time>2018-01-14T03:34:58Z</time>
      </trkpt>
      <trkpt lat="46.71243" lon="-1.63852">
        <ele>48</ele>
        <time>2018-01-14T03:35:58Z</time>
      </trkpt>
      <trkpt lat="46.71249" lon="-1.63821">
        <ele>48</ele>
        <time>2018-01-14T03:36:58Z</time>
      </trkpt>
      <trkpt lat="46.71253" lon="-1.6379">
        <ele>47</ele>
        <time>2018-01-14T03:37:58Z</time>
      </trkpt>
      <trkpt lat="46.7126" lon="-1.63751">
        <ele>47</ele>
        <time>2018-01-14T03:38:58Z</time>
      </trkpt>
      <trkpt lat="46.71268" lon="-1.63711">
        <ele>47</ele>
        <time>2018-01-14T03:39:58Z</time>
      </trkpt>
      <trkpt lat="46.71273" lon="-1.63682">
        <ele>47</ele>
        <time>2018-01-14T03:40:58Z</time>
      </trkpt>
      <trkpt lat="46.71276" lon="-1.63663">
        <ele>47</ele>
        <time>2018-01-14T03:41:58Z</time>
      </trkpt>
      <trkpt lat="46.71279" lon="-1.63645">
        <ele>47</ele>
        <time>2018-01-14T03:42:58Z</time>
      </trkpt>
      <trkpt lat="46.71285" lon="-1.63608">
        <ele>47</ele>
        <time>2018-01-14T03:43:58Z</time>
      </trkpt>
      <trkpt lat="46.71292" lon="-1.63579">
        <ele>47</ele>
        <time>2018-01-14T03:44:58Z</time>
      </trkpt>
      <trkpt lat="46.71297" lon="-1.63551">
        <ele>48</ele>
        <time>2018-01-14T03:45:58Z</time>
      </trkpt>
      <trkpt lat="46.71306" lon="-1.63513">
        <ele>48</ele>
        <time>2018-01-14T03:46:58Z</time>
      </trkpt>
      <trkpt lat="46.71317" lon="-1.63465">
        <ele>50</ele>
        <time>2018-01-14T03:47:58Z</time>
      </trkpt>
      <trkpt lat="46.71348" lon="-1.63342">
        <ele>49</ele>
        <time>2018-01-14T03:48:58Z</time>
      </trkpt>
      <trkpt lat="46.71352" lon="-1.63329">
        <ele>49</ele>
        <time>2018-01-14T03:49:58Z</time>
      </trkpt>
      <trkpt lat="46.71359" lon="-1.633">
        <ele>49</ele>
        <time>2018-01-14T03:50:58Z</time>
      </trkpt>
      <trkpt lat="46.71366" lon="-1.63271">
        <ele>49</ele>
        <time>2018-01-14T03:51:58Z</time>
      </trkpt>
      <trkpt lat="46.71374" lon="-1.63241">
        <ele>49</ele>
        <time>2018-01-14T03:52:58Z</time>
      </trkpt>
      <trkpt lat="46.71378" lon="-1.6322">
        <ele>49</ele>
        <time>2018-01-14T03:53:58Z</time>
      </trkpt>
      <trkpt lat="46.71385" lon="-1.63189">
        <ele>49</ele>
        <time>2018-01-14T03:54:58Z</time>
      </trkpt>
      <trkpt lat="46.7139" lon="-1.63169">
        <ele>50</ele>
        <time>2018-01-14T03:55:58Z</time>
      </trkpt>
      <trkpt lat="46.71397" lon="-1.63137">
        <ele>50</ele>
        <time>2018-01-14T03:56:58Z</time>
      </trkpt>
      <trkpt lat="46.714" lon="-1.63127">
        <ele>50</ele>
        <time>2018-01-14T03:57:58Z</time>
      </trkpt>
      <trkpt lat="46.71402" lon="-1.63116">
        <ele>50</ele>
        <time>2018-01-14T03:58:58Z</time>
      </trkpt>
      <trkpt lat="46.71405" lon="-1.63106">
        <ele>50</ele>
        <time>2018-01-14T03:59:58Z</time>
      </trkpt>
      <trkpt lat="46.7141" lon="-1.63084">
        <ele>51</ele>
        <time>2018-01-14T04:00:58Z</time>
      </trkpt>
      <trkpt lat="46.71416" lon="-1.63063">
        <ele>51</ele>
        <time>2018-01-14T04:01:58Z</time>
      </trkpt>
      <trkpt lat="46.71425" lon="-1.63031">
        <ele>51</ele>
        <time>2018-01-14T04:02:58Z</time>
      </trkpt>
      <trkpt lat="46.7143" lon="-1.6301">
        <ele>52</ele>
        <time>2018-01-14T04:03:58Z</time>
      </trkpt>
      <trkpt lat="46.71438" lon="-1.62977">
        <ele>52</ele>
        <time>2018-01-14T04:04:58Z</time>
      </trkpt>
      <trkpt lat="46.71446" lon="-1.62944">
        <ele>51</ele>
        <time>2018-01-14T04:05:58Z</time>
      </trkpt>
      <trkpt lat="46.7145" lon="-1.62922">
        <ele>51</ele>
        <time>2018-01-14T04:06:58Z</time>
      </trkpt>
      <trkpt lat="46.71452" lon="-1.62911">
        <ele>51</ele>
        <time>2018-01-14T04:07:58Z</time>
      </trkpt>
      <trkpt lat="46.71453" lon="-1.62899">
        <ele>51</ele>
        <time>2018-01-14T04:08:58Z</time>
      </trkpt>
      <trkpt lat="46.71453" lon="-1.62887">
        <ele>51</ele>
        <time>2018-01-14T04:09:58Z</time>
      </trkpt>
      <trkpt lat="46.71453" lon="-1.62875">
        <ele>51</ele>
        <time>2018-01-14T04:10:58Z</time>
      </trkpt>
      <trkpt lat="46.71453" lon="-1.62863">
        <ele>51</ele>
        <time>2018-01-14T04:11:58Z</time>
      </trkpt>
      <trkpt lat="46.71453" lon="-1.62851">
        <ele>51</ele>
        <time>2018-01-14T04:12:58Z</time>
      </trkpt>
      <trkpt lat="46.71453" lon="-1.6284">
        <ele>51</ele>
        <time>2018-01-14T04:13:58Z</time>
      </trkpt>
      <trkpt lat="46.71454" lon="-1.62828">
        <ele>51</ele>
        <time>2018-01-14T04:14:58Z</time>
      </trkpt>
      <trkpt lat="46.71455" lon="-1.62816">
        <ele>51</ele>
        <time>2018-01-14T04:15:58Z</time>
      </trkpt>
      <trkpt lat="46.71457" lon="-1.62805">
        <ele>52</ele>
        <time>2018-01-14T04:16:58Z</time>
      </trkpt>
      <trkpt lat="46.71459" lon="-1.62793">
        <ele>52</ele>
        <time>2018-01-14T04:17:58Z</time>
      </trkpt>
      <trkpt lat="46.71462" lon="-1.62782">
        <ele>52</ele>
        <time>2018-01-14T04:18:58Z</time>
      </trkpt>
      <trkpt lat="46.71466" lon="-1.62771">
        <ele>52</ele>
        <time>2018-01-14T04:19:58Z</time>
      </trkpt>
      <trkpt lat="46.7147" lon="-1.6276">
        <ele>52</ele>
        <time>2018-01-14T04:20:58Z</time>
      </trkpt>
      <trkpt lat="46.71474" lon="-1.62749">
        <ele>52</ele>
        <time>2018-01-14T04:21:58Z</time>
      </trkpt>
      <trkpt lat="46.71479" lon="-1.62739">
        <ele>52</ele>
        <time>2018-01-14T04:22:58Z</time>
      </trkpt>
      <trkpt lat="46.71489" lon="-1.62719">
        <ele>52</ele>
        <time>2018-01-14T04:23:58Z</time>
      </trkpt>
      <trkpt lat="46.715" lon="-1.62699">
        <ele>52</ele>
        <time>2018-01-14T04:24:58Z</time>
      </trkpt>
      <trkpt lat="46.71518" lon="-1.62671">
        <ele>52</ele>
        <time>2018-01-14T04:25:58Z</time>
      </trkpt>
      <trkpt lat="46.71531" lon="-1.62652">
        <ele>51</ele>
        <time>2018-01-14T04:26:58Z</time>
      </trkpt>
      <trkpt lat="46.71543" lon="-1.62633">
        <ele>51</ele>
        <time>2018-01-14T04:27:58Z</time>
      </trkpt>
      <trkpt lat="46.71555" lon="-1.62614">
        <ele>52</ele>
        <time>2018-01-14T04:28:58Z</time>
      </trkpt>
      <trkpt lat="46.71562" lon="-1.62605">
        <ele>52</ele>
        <time>2018-01-14T04:29:58Z</time>
      </trkpt>
      <trkpt lat="46.71568" lon="-1.62595">
        <ele>52</ele>
        <time>2018-01-14T04:30:58Z</time>
      </trkpt>
      <trkpt lat="46.71574" lon="-1.62586">
        <ele>52</ele>
        <time>2018-01-14T04:31:58Z</time>
      </trkpt>
      <trkpt lat="46.71581" lon="-1.62576">
        <ele>52</ele>
        <time>2018-01-14T04:32:58Z</time>
      </trkpt>
      <trkpt lat="46.716" lon="-1.62546">
        <ele>53</ele>
        <time>2018-01-14T04:33:58Z</time>
      </trkpt>
      <trkpt lat="46.71613" lon="-1.62526">
        <ele>53</ele>
        <time>2018-01-14T04:34:58Z</time>
      </trkpt>
      <trkpt lat="46.71626" lon="-1.62507">
        <ele>53</ele>
        <time>2018-01-14T04:35:58Z</time>
      </trkpt>
      <trkpt lat="46.71639" lon="-1.62487">
        <ele>54</ele>
        <time>2018-01-14T04:36:58Z</time>
      </trkpt>
      <trkpt lat="46.71652" lon="-1.62467">
        <ele>54</ele>
        <time>2018-01-14T04:37:58Z</time>
      </trkpt>
      <trkpt lat="46.71658" lon="-1.62457">
        <ele>54</ele>
        <time>2018-01-14T04:38:58Z</time>
      </trkpt>
      <trkpt lat="46.71663" lon="-1.6245">
        <ele>55</ele>
        <time>2018-01-14T04:39:58Z</time>
      </trkpt>
      <trkpt lat="46.71671" lon="-1.62438">
        <ele>55</ele>
        <time>2018-01-14T04:40:58Z</time>
      </trkpt>
      <trkpt lat="46.71677" lon="-1.62428">
        <ele>55</ele>
        <time>2018-01-14T04:41:58Z</time>
      </trkpt>
      <trkpt lat="46.71683" lon="-1.62419">
        <ele>55</ele>
        <time>2018-01-14T04:42:58Z</time>
      </trkpt>
      <trkpt lat="46.71689" lon="-1.6241">
        <ele>55</ele>
        <time>2018-01-14T04:43:58Z</time>
      </trkpt>
      <trkpt lat="46.71695" lon="-1.624">
        <ele>55</ele>
        <time>2018-01-14T04:44:58Z</time>
      </trkpt>
      <trkpt lat="46.71707" lon="-1.62382">
        <ele>55</ele>
        <time>2018-01-14T04:45:58Z</time>
      </trkpt>
      <trkpt lat="46.71713" lon="-1.62374">
        <ele>55</ele>
        <time>2018-01-14T04:46:58Z</time>
      </trkpt>
      <trkpt lat="46.71723" lon="-1.62363">
        <ele>55</ele>
        <time>2018-01-14T04:47:58Z</time>
      </trkpt>
      <trkpt lat="46.71741" lon="-1.62346">
        <ele>55</ele>
        <time>2018-01-14T04:48:58Z</time>
      </trkpt>
      <trkpt lat="46.71757" lon="-1.62336">
        <ele>55</ele>
        <time>2018-01-14T04:49:58Z</time>
      </trkpt>
      <trkpt lat="46.71773" lon="-1.62326">
        <ele>55</ele>
        <time>2018-01-14T04:50:58Z</time>
      </trkpt>
      <trkpt lat="46.71789" lon="-1.62316">
        <ele>55</ele>
        <time>2018-01-14T04:51:58Z</time>
      </trkpt>
      <trkpt lat="46.71806" lon="-1.62306">
        <ele>55</ele>
        <time>2018-01-14T04:52:58Z</time>
      </trkpt>
      <trkpt lat="46.71823" lon="-1.62296">
        <ele>55</ele>
        <time>2018-01-14T04:53:58Z</time>
      </trkpt>
      <trkpt lat="46.71839" lon="-1.62287">
        <ele>54</ele>
        <time>2018-01-14T04:54:58Z</time>
      </trkpt>
      <trkpt lat="46.71855" lon="-1.62276">
        <ele>54</ele>
        <time>2018-01-14T04:55:58Z</time>
      </trkpt>
      <trkpt lat="46.7187" lon="-1.62263">
        <ele>54</ele>
        <time>2018-01-14T04:56:58Z</time>
      </trkpt>
      <trkpt lat="46.71885" lon="-1.62249">
        <ele>54</ele>
        <time>2018-01-14T04:57:58Z</time>
      </trkpt>
      <trkpt lat="46.71898" lon="-1.62233">
        <ele>54</ele>
        <time>2018-01-14T04:58:58Z</time>
      </trkpt>
      <trkpt lat="46.71912" lon="-1.62213">
        <ele>54</ele>
        <time>2018-01-14T04:59:58Z</time>
      </trkpt>
      <trkpt lat="46.71924" lon="-1.62195">
        <ele>55</ele>
        <time>2018-01-14T05:00:58Z</time>
      </trkpt>
      <trkpt lat="46.71942" lon="-1.62166">
        <ele>55</ele>
        <time>2018-01-14T05:01:58Z</time>
      </trkpt>
      <trkpt lat="46.71948" lon="-1.62157">
        <ele>56</ele>
        <time>2018-01-14T05:02:58Z</time>
      </trkpt>
      <trkpt lat="46.71956" lon="-1.62144">
        <ele>56</ele>
        <time>2018-01-14T05:03:58Z</time>
      </trkpt>
      <trkpt lat="46.71967" lon="-1.62131">
        <ele>56</ele>
        <time>2018-01-14T05:04:58Z</time>
      </trkpt>
      <trkpt lat="46.71987" lon="-1.62107">
        <ele>56</ele>
        <time>2018-01-14T05:05:58Z</time>
      </trkpt>
      <trkpt lat="46.72015" lon="-1.62078">
        <ele>57</ele>
        <time>2018-01-14T05:06:58Z</time>
      </trkpt>
      <trkpt lat="46.72045" lon="-1.62053">
        <ele>56</ele>
        <time>2018-01-14T05:07:58Z</time>
      </trkpt>
      <trkpt lat="46.72075" lon="-1.62029">
        <ele>56</ele>
        <time>2018-01-14T05:08:58Z</time>
      </trkpt>
      <trkpt lat="46.72105" lon="-1.62004">
        <ele>55</ele>
        <time>2018-01-14T05:09:58Z</time>
      </trkpt>
      <trkpt lat="46.72144" lon="-1.61975">
        <ele>55</ele>
        <time>2018-01-14T05:10:58Z</time>
      </trkpt>
      <trkpt lat="46.72189" lon="-1.61945">
        <ele>54</ele>
        <time>2018-01-14T05:11:58Z</time>
      </trkpt>
      <trkpt lat="46.72219" lon="-1.61925">
        <ele>54</ele>
        <time>2018-01-14T05:12:58Z</time>
      </trkpt>
      <trkpt lat="46.72259" lon="-1.61898">
        <ele>53</ele>
        <time>2018-01-14T05:13:58Z</time>
      </trkpt>
      <trkpt lat="46.7229" lon="-1.61877">
        <ele>53</ele>
        <time>2018-01-14T05:14:58Z</time>
      </trkpt>
      <trkpt lat="46.72319" lon="-1.61857">
        <ele>52</ele>
        <time>2018-01-14T05:15:58Z</time>
      </trkpt>
      <trkpt lat="46.72334" lon="-1.61846">
        <ele>52</ele>
        <time>2018-01-14T05:16:58Z</time>
      </trkpt>
      <trkpt lat="46.72352" lon="-1.61834">
        <ele>53</ele>
        <time>2018-01-14T05:17:58Z</time>
      </trkpt>
      <trkpt lat="46.72358" lon="-1.61831">
        <ele>53</ele>
        <time>2018-01-14T05:18:58Z</time>
      </trkpt>
      <trkpt lat="46.72362" lon="-1.61827">
        <ele>53</ele>
        <time>2018-01-14T05:19:58Z</time>
      </trkpt>
      <trkpt lat="46.72371" lon="-1.6182">
        <ele>53</ele>
        <time>2018-01-14T05:20:58Z</time>
      </trkpt>
      <trkpt lat="46.72383" lon="-1.61809">
        <ele>54</ele>
        <time>2018-01-14T05:21:58Z</time>
      </trkpt>
      <trkpt lat="46.72412" lon="-1.61786">
        <ele>55</ele>
        <time>2018-01-14T05:22:58Z</time>
      </trkpt>
      <trkpt lat="46.7243" lon="-1.61771">
        <ele>56</ele>
        <time>2018-01-14T05:23:58Z</time>
      </trkpt>
      <trkpt lat="46.72447" lon="-1.61757">
        <ele>56</ele>
        <time>2018-01-14T05:24:58Z</time>
      </trkpt>
      <trkpt lat="46.72461" lon="-1.61745">
        <ele>57</ele>
        <time>2018-01-14T05:25:58Z</time>
      </trkpt>
      <trkpt lat="46.72493" lon="-1.6172">
        <ele>59</ele>
        <time>2018-01-14T05:26:58Z</time>
      </trkpt>
      <trkpt lat="46.72531" lon="-1.61689">
        <ele>59</ele>
        <time>2018-01-14T05:27:58Z</time>
      </trkpt>
      <trkpt lat="46.72555" lon="-1.6167">
        <ele>60</ele>
        <time>2018-01-14T05:28:58Z</time>
      </trkpt>
      <trkpt lat="46.72572" lon="-1.61656">
        <ele>60</ele>
        <time>2018-01-14T05:29:58Z</time>
      </trkpt>
      <trkpt lat="46.72586" lon="-1.61646">
        <ele>60</ele>
        <time>2018-01-14T05:30:58Z</time>
      </trkpt>
      <trkpt lat="46.72616" lon="-1.61622">
        <ele>60</ele>
        <time>2018-01-14T05:31:58Z</time>
      </trkpt>
      <trkpt lat="46.72639" lon="-1.61605">
        <ele>59</ele>
        <time>2018-01-14T05:32:58Z</time>
      </trkpt>
      <trkpt lat="46.72662" lon="-1.61588">
        <ele>59</ele>
        <time>2018-01-14T05:33:58Z</time>
      </trkpt>
      <trkpt lat="46.72697" lon="-1.6156">
        <ele>59</ele>
        <time>2018-01-14T05:34:58Z</time>
      </trkpt>
      <trkpt lat="46.72723" lon="-1.61536">
        <ele>59</ele>
        <time>2018-01-14T05:35:58Z</time>
      </trkpt>
      <trkpt lat="46.72733" lon="-1.61526">
        <ele>60</ele>
        <time>2018-01-14T05:36:58Z</time>
      </trkpt>
      <trkpt lat="46.72768" lon="-1.61492">
        <ele>60</ele>
        <time>2018-01-14T05:37:58Z</time>
      </trkpt>
      <trkpt lat="46.72784" lon="-1.61477">
        <ele>60</ele>
        <time>2018-01-14T05:38:58Z</time>
      </trkpt>
      <trkpt lat="46.72821" lon="-1.61438">
        <ele>60</ele>
        <time>2018-01-14T05:39:58Z</time>
      </trkpt>
      <trkpt lat="46.72824" lon="-1.61433">
        <ele>60</ele>
        <time>2018-01-14T05:40:58Z</time>
      </trkpt>
      <trkpt lat="46.72831" lon="-1.61427">
        <ele>60</ele>
        <time>2018-01-14T05:41:58Z</time>
      </trkpt>
      <trkpt lat="46.72848" lon="-1.61408">
        <ele>60</ele>
        <time>2018-01-14T05:42:58Z</time>
      </trkpt>
      <trkpt lat="46.72856" lon="-1.61396">
        <ele>60</ele>
        <time>2018-01-14T05:43:58Z</time>
      </trkpt>
      <trkpt lat="46.72865" lon="-1.6138">
        <ele>60</ele>
        <time>2018-01-14T05:44:58Z</time>
      </trkpt>
      <trkpt lat="46.72875" lon="-1.6135">
        <ele>59</ele>
        <time>2018-01-14T05:45:58Z</time>
      </trkpt>
      <trkpt lat="46.72879" lon="-1.61339">
        <ele>59</ele>
        <time>2018-01-14T05:46:58Z</time>
      </trkpt>
      <trkpt lat="46.72892" lon="-1.61306">
        <ele>59</ele>
        <time>2018-01-14T05:47:58Z</time>
      </trkpt>
      <trkpt lat="46.72898" lon="-1.61287">
        <ele>58</ele>
        <time>2018-01-14T05:48:58Z</time>
      </trkpt>
      <trkpt lat="46.72908" lon="-1.61258">
        <ele>58</ele>
        <time>2018-01-14T05:49:58Z</time>
      </trkpt>
      <trkpt lat="46.72917" lon="-1.61234">
        <ele>58</ele>
        <time>2018-01-14T05:50:58Z</time>
      </trkpt>
      <trkpt lat="46.72925" lon="-1.61213">
        <ele>58</ele>
        <time>2018-01-14T05:51:58Z</time>
      </trkpt>
      <trkpt lat="46.72929" lon="-1.61204">
        <ele>58</ele>
        <time>2018-01-14T05:52:58Z</time>
      </trkpt>
      <trkpt lat="46.72937" lon="-1.61191">
        <ele>58</ele>
        <time>2018-01-14T05:53:58Z</time>
      </trkpt>
      <trkpt lat="46.72948" lon="-1.61175">
        <ele>58</ele>
        <time>2018-01-14T05:54:58Z</time>
      </trkpt>
      <trkpt lat="46.72963" lon="-1.61156">
        <ele>59</ele>
        <time>2018-01-14T05:55:58Z</time>
      </trkpt>
      <trkpt lat="46.72979" lon="-1.6114">
        <ele>59</ele>
        <time>2018-01-14T05:56:58Z</time>
      </trkpt>
      <trkpt lat="46.72985" lon="-1.61134">
        <ele>59</ele>
        <time>2018-01-14T05:57:58Z</time>
      </trkpt>
      <trkpt lat="46.72995" lon="-1.61125">
        <ele>59</ele>
        <time>2018-01-14T05:58:58Z</time>
      </trkpt>
      <trkpt lat="46.73004" lon="-1.61118">
        <ele>59</ele>
        <time>2018-01-14T05:59:58Z</time>
      </trkpt>
      <trkpt lat="46.73014" lon="-1.61111">
        <ele>59</ele>
        <time>2018-01-14T06:00:58Z</time>
      </trkpt>
      <trkpt lat="46.73018" lon="-1.61107">
        <ele>59</ele>
        <time>2018-01-14T06:01:58Z</time>
      </trkpt>
      <trkpt lat="46.73021" lon="-1.61103">
        <ele>59</ele>
        <time>2018-01-14T06:02:58Z</time>
      </trkpt>
      <trkpt lat="46.73021" lon="-1.61103">
        <ele>59</ele>
        <time>2018-01-14T06:03:58Z</time>
      </trkpt>
      <trkpt lat="46.73023" lon="-1.61099">
        <ele>59</ele>
        <time>2018-01-14T06:04:58Z</time>
      </trkpt>
      <trkpt lat="46.7303" lon="-1.61105">
        <ele>58</ele>
        <time>2018-01-14T06:05:58Z</time>
      </trkpt>
      <trkpt lat="46.73033" lon="-1.61107">
        <ele>58</ele>
        <time>2018-01-14T06:06:58Z</time>
      </trkpt>
      <trkpt lat="46.73043" lon="-1.61117">
        <ele>58</ele>
        <time>2018-01-14T06:07:58Z</time>
      </trkpt>
      <trkpt lat="46.73063" lon="-1.61129">
        <ele>56</ele>
        <time>2018-01-14T06:08:58Z</time>
      </trkpt>
      <trkpt lat="46.73087" lon="-1.61146">
        <ele>55</ele>
        <time>2018-01-14T06:09:58Z</time>
      </trkpt>
      <trkpt lat="46.73089" lon="-1.61149">
        <ele>55</ele>
        <time>2018-01-14T06:10:58Z</time>
      </trkpt>
      <trkpt lat="46.7309" lon="-1.6115">
        <ele>55</ele>
        <time>2018-01-14T06:11:58Z</time>
      </trkpt>
      <trkpt lat="46.73108" lon="-1.61163">
        <ele>54</ele>
        <time>2018-01-14T06:12:58Z</time>
      </trkpt>
      <trkpt lat="46.73121" lon="-1.61171">
        <ele>54</ele>
        <time>2018-01-14T06:13:58Z</time>
      </trkpt>
      <trkpt lat="46.73157" lon="-1.61194">
        <ele>53</ele>
        <time>2018-01-14T06:14:58Z</time>
      </trkpt>
      <trkpt lat="46.73173" lon="-1.61203">
        <ele>53</ele>
        <time>2018-01-14T06:15:58Z</time>
      </trkpt>
      <trkpt lat="46.73188" lon="-1.6121">
        <ele>52</ele>
        <time>2018-01-14T06:16:58Z</time>
      </trkpt>
      <trkpt lat="46.73198" lon="-1.61213">
        <ele>52</ele>
        <time>2018-01-14T06:17:58Z</time>
      </trkpt>
      <trkpt lat="46.73206" lon="-1.61213">
        <ele>52</ele>
        <time>2018-01-14T06:18:58Z</time>
      </trkpt>
      <trkpt lat="46.73221" lon="-1.61216">
        <ele>51</ele>
        <time>2018-01-14T06:19:58Z</time>
      </trkpt>
      <trkpt lat="46.73233" lon="-1.61215">
        <ele>51</ele>
        <time>2018-01-14T06:20:58Z</time>
      </trkpt>
      <trkpt lat="46.73242" lon="-1.61212">
        <ele>50</ele>
        <time>2018-01-14T06:21:58Z</time>
      </trkpt>
      <trkpt lat="46.73242" lon="-1.61212">
        <ele>50</ele>
        <time>2018-01-14T06:22:58Z</time>
      </trkpt>
      <trkpt lat="46.73243" lon="-1.61211">
        <ele>50</ele>
        <time>2018-01-14T06:23:58Z</time>
      </trkpt>
      <trkpt lat="46.73244" lon="-1.6121">
        <ele>50</ele>
        <time>2018-01-14T06:24:58Z</time>
      </trkpt>
      <trkpt lat="46.73245" lon="-1.61208">
        <ele>50</ele>
        <time>2018-01-14T06:25:58Z</time>
      </trkpt>
      <trkpt lat="46.73246" lon="-1.61207">
        <ele>50</ele>
        <time>2018-01-14T06:26:58Z</time>
      </trkpt>
      <trkpt lat="46.73247" lon="-1.61206">
        <ele>50</ele>
        <time>2018-01-14T06:27:58Z</time>
      </trkpt>
      <trkpt lat="46.73248" lon="-1.61205">
        <ele>50</ele>
        <time>2018-01-14T06:28:58Z</time>
      </trkpt>
      <trkpt lat="46.73249" lon="-1.61204">
        <ele>50</ele>
        <time>2018-01-14T06:29:58Z</time>
      </trkpt>
      <trkpt lat="46.7325" lon="-1.61204">
        <ele>50</ele>
        <time>2018-01-14T06:30:58Z</time>
      </trkpt>
      <trkpt lat="46.73251" lon="-1.61203">
        <ele>50</ele>
        <time>2018-01-14T06:31:58Z</time>
      </trkpt>
      <trkpt lat="46.73252" lon="-1.61202">
        <ele>50</ele>
        <time>2018-01-14T06:32:58Z</time>
      </trkpt>
      <trkpt lat="46.73254" lon="-1.61202">
        <ele>50</ele>
        <time>2018-01-14T06:33:58Z</time>
      </trkpt>
      <trkpt lat="46.73255" lon="-1.61202">
        <ele>50</ele>
        <time>2018-01-14T06:34:58Z</time>
      </trkpt>
      <trkpt lat="46.73256" lon="-1.61201">
        <ele>49</ele>
        <time>2018-01-14T06:35:58Z</time>
      </trkpt>
      <trkpt lat="46.73257" lon="-1.61201">
        <ele>49</ele>
        <time>2018-01-14T06:36:58Z</time>
      </trkpt>
      <trkpt lat="46.73259" lon="-1.61201">
        <ele>49</ele>
        <time>2018-01-14T06:37:58Z</time>
      </trkpt>
      <trkpt lat="46.7326" lon="-1.61201">
        <ele>49</ele>
        <time>2018-01-14T06:38:58Z</time>
      </trkpt>
      <trkpt lat="46.73261" lon="-1.61202">
        <ele>49</ele>
        <time>2018-01-14T06:39:58Z</time>
      </trkpt>
      <trkpt lat="46.73262" lon="-1.61202">
        <ele>49</ele>
        <time>2018-01-14T06:40:58Z</time>
      </trkpt>
      <trkpt lat="46.73263" lon="-1.61203">
        <ele>49</ele>
        <time>2018-01-14T06:41:58Z</time>
      </trkpt>
      <trkpt lat="46.73265" lon="-1.61203">
        <ele>49</ele>
        <time>2018-01-14T06:42:58Z</time>
      </trkpt>
      <trkpt lat="46.73266" lon="-1.61204">
        <ele>49</ele>
        <time>2018-01-14T06:43:58Z</time>
      </trkpt>
      <trkpt lat="46.73267" lon="-1.61205">
        <ele>49</ele>
        <time>2018-01-14T06:44:58Z</time>
      </trkpt>
      <trkpt lat="46.73268" lon="-1.61206">
        <ele>49</ele>
        <time>2018-01-14T06:45:58Z</time>
      </trkpt>
      <trkpt lat="46.73286" lon="-1.61201">
        <ele>48</ele>
        <time>2018-01-14T06:46:58Z</time>
      </trkpt>
      <trkpt lat="46.7329" lon="-1.61201">
        <ele>48</ele>
        <time>2018-01-14T06:47:58Z</time>
      </trkpt>
      <trkpt lat="46.73296" lon="-1.61196">
        <ele>48</ele>
        <time>2018-01-14T06:48:58Z</time>
      </trkpt>
      <trkpt lat="46.73299" lon="-1.61194">
        <ele>48</ele>
        <time>2018-01-14T06:49:58Z</time>
      </trkpt>
      <trkpt lat="46.73309" lon="-1.61187">
        <ele>47</ele>
        <time>2018-01-14T06:50:58Z</time>
      </trkpt>
      <trkpt lat="46.73315" lon="-1.61183">
        <ele>47</ele>
        <time>2018-01-14T06:51:58Z</time>
      </trkpt>
      <trkpt lat="46.73325" lon="-1.61178">
        <ele>46</ele>
        <time>2018-01-14T06:52:58Z</time>
      </trkpt>
      <trkpt lat="46.73334" lon="-1.61172">
        <ele>46</ele>
        <time>2018-01-14T06:53:58Z</time>
      </trkpt>
      <trkpt lat="46.73338" lon="-1.61165">
        <ele>46</ele>
        <time>2018-01-14T06:54:58Z</time>
      </trkpt>
      <trkpt lat="46.73342" lon="-1.61159">
        <ele>46</ele>
        <time>2018-01-14T06:55:58Z</time>
      </trkpt>
      <trkpt lat="46.73348" lon="-1.61152">
        <ele>46</ele>
        <time>2018-01-14T06:56:58Z</time>
      </trkpt>
      <trkpt lat="46.73348" lon="-1.61152">
        <ele>46</ele>
        <time>2018-01-14T06:57:58Z</time>
      </trkpt>
      <trkpt lat="46.73348" lon="-1.6115">
        <ele>46</ele>
        <time>2018-01-14T06:58:58Z</time>
      </trkpt>
      <trkpt lat="46.73348" lon="-1.61148">
        <ele>46</ele>
        <time>2018-01-14T06:59:58Z</time>
      </trkpt>
      <trkpt lat="46.73348" lon="-1.61146">
        <ele>47</ele>
        <time>2018-01-14T07:00:58Z</time>
      </trkpt>
      <trkpt lat="46.73349" lon="-1.61144">
        <ele>47</ele>
        <time>2018-01-14T07:01:58Z</time>
      </trkpt>
      <trkpt lat="46.73349" lon="-1.61142">
        <ele>47</ele>
        <time>2018-01-14T07:02:58Z</time>
      </trkpt>
      <trkpt lat="46.7335" lon="-1.6114">
        <ele>47</ele>
        <time>2018-01-14T07:03:58Z</time>
      </trkpt>
      <trkpt lat="46.7335" lon="-1.61138">
        <ele>47</ele>
        <time>2018-01-14T07:04:58Z</time>
      </trkpt>
      <trkpt lat="46.73351" lon="-1.61136">
        <ele>47</ele>
        <time>2018-01-14T07:05:58Z</time>
      </trkpt>
      <trkpt lat="46.73352" lon="-1.61135">
        <ele>47</ele>
        <time>2018-01-14T07:06:58Z</time>
      </trkpt>
      <trkpt lat="46.73352" lon="-1.61133">
        <ele>47</ele>
        <time>2018-01-14T07:07:58Z</time>
      </trkpt>
      <trkpt lat="46.73353" lon="-1.61132">
        <ele>47</ele>
        <time>2018-01-14T07:08:58Z</time>
      </trkpt>
      <trkpt lat="46.73354" lon="-1.6113">
        <ele>47</ele>
        <time>2018-01-14T07:09:58Z</time>
      </trkpt>
      <trkpt lat="46.73356" lon="-1.61129">
        <ele>47</ele>
        <time>2018-01-14T07:10:58Z</time>
      </trkpt>
      <trkpt lat="46.73357" lon="-1.61128">
        <ele>47</ele>
        <time>2018-01-14T07:11:58Z</time>
      </trkpt>
      <trkpt lat="46.73358" lon="-1.61127">
        <ele>47</ele>
        <time>2018-01-14T07:12:58Z</time>
      </trkpt>
      <trkpt lat="46.73359" lon="-1.61126">
        <ele>47</ele>
        <time>2018-01-14T07:13:58Z</time>
      </trkpt>
      <trkpt lat="46.73362" lon="-1.61125">
        <ele>47</ele>
        <time>2018-01-14T07:14:58Z</time>
      </trkpt>
      <trkpt lat="46.73363" lon="-1.61125">
        <ele>47</ele>
        <time>2018-01-14T07:15:58Z</time>
      </trkpt>
      <trkpt lat="46.73364" lon="-1.61125">
        <ele>47</ele>
        <time>2018-01-14T07:16:58Z</time>
      </trkpt>
      <trkpt lat="46.73365" lon="-1.61125">
        <ele>47</ele>
        <time>2018-01-14T07:17:58Z</time>
      </trkpt>
      <trkpt lat="46.73367" lon="-1.61125">
        <ele>47</ele>
        <time>2018-01-14T07:18:58Z</time>
      </trkpt>
      <trkpt lat="46.73368" lon="-1.61125">
        <ele>47</ele>
        <time>2018-01-14T07:19:58Z</time>
      </trkpt>
      <trkpt lat="46.73369" lon="-1.61125">
        <ele>47</ele>
        <time>2018-01-14T07:20:58Z</time>
      </trkpt>
      <trkpt lat="46.73371" lon="-1.61126">
        <ele>47</ele>
        <time>2018-01-14T07:21:58Z</time>
      </trkpt>
      <trkpt lat="46.73372" lon="-1.61126">
        <ele>47</ele>
        <time>2018-01-14T07:22:58Z</time>
      </trkpt>
      <trkpt lat="46.73373" lon="-1.61127">
        <ele>47</ele>
        <time>2018-01-14T07:23:58Z</time>
      </trkpt>
      <trkpt lat="46.73374" lon="-1.61128">
        <ele>47</ele>
        <time>2018-01-14T07:24:58Z</time>
      </trkpt>
      <trkpt lat="46.73375" lon="-1.61129">
        <ele>47</ele>
        <time>2018-01-14T07:25:58Z</time>
      </trkpt>
      <trkpt lat="46.73376" lon="-1.6113">
        <ele>47</ele>
        <time>2018-01-14T07:26:58Z</time>
      </trkpt>
      <trkpt lat="46.73377" lon="-1.61131">
        <ele>47</ele>
        <time>2018-01-14T07:27:58Z</time>
      </trkpt>
      <trkpt lat="46.73378" lon="-1.61132">
        <ele>47</ele>
        <time>2018-01-14T07:28:58Z</time>
      </trkpt>
      <trkpt lat="46.73379" lon="-1.61134">
        <ele>47</ele>
        <time>2018-01-14T07:29:58Z</time>
      </trkpt>
      <trkpt lat="46.7338" lon="-1.61135">
        <ele>47</ele>
        <time>2018-01-14T07:30:58Z</time>
      </trkpt>
      <trkpt lat="46.73387" lon="-1.6114">
        <ele>47</ele>
        <time>2018-01-14T07:31:58Z</time>
      </trkpt>
      <trkpt lat="46.73391" lon="-1.61143">
        <ele>47</ele>
        <time>2018-01-14T07:32:58Z</time>
      </trkpt>
      <trkpt lat="46.734" lon="-1.61142">
        <ele>48</ele>
        <time>2018-01-14T07:33:58Z</time>
      </trkpt>
      <trkpt lat="46.7341" lon="-1.61139">
        <ele>48</ele>
        <time>2018-01-14T07:34:58Z</time>
      </trkpt>
      <trkpt lat="46.73412" lon="-1.61138">
        <ele>48</ele>
        <time>2018-01-14T07:35:58Z</time>
      </trkpt>
      <trkpt lat="46.73435" lon="-1.61109">
        <ele>50</ele>
        <time>2018-01-14T07:36:58Z</time>
      </trkpt>
      <trkpt lat="46.73462" lon="-1.61074">
        <ele>51</ele>
        <time>2018-01-14T07:37:58Z</time>
      </trkpt>
      <trkpt lat="46.73486" lon="-1.61042">
        <ele>53</ele>
        <time>2018-01-14T07:38:58Z</time>
      </trkpt>
      <trkpt lat="46.73491" lon="-1.61031">
        <ele>53</ele>
        <time>2018-01-14T07:39:58Z</time>
      </trkpt>
      <trkpt lat="46.73499" lon="-1.61021">
        <ele>53</ele>
        <time>2018-01-14T07:40:58Z</time>
      </trkpt>
      <trkpt lat="46.73506" lon="-1.61012">
        <ele>54</ele>
        <time>2018-01-14T07:41:58Z</time>
      </trkpt>
      <trkpt lat="46.73517" lon="-1.61">
        <ele>54</ele>
        <time>2018-01-14T07:42:58Z</time>
      </trkpt>
      <trkpt lat="46.73522" lon="-1.60995">
        <ele>54</ele>
        <time>2018-01-14T07:43:58Z</time>
      </trkpt>
      <trkpt lat="46.73524" lon="-1.60994">
        <ele>54</ele>
        <time>2018-01-14T07:44:58Z</time>
      </trkpt>
      <trkpt lat="46.73536" lon="-1.60984">
        <ele>54</ele>
        <time>2018-01-14T07:45:58Z</time>
      </trkpt>
      <trkpt lat="46.73551" lon="-1.60971">
        <ele>55</ele>
        <time>2018-01-14T07:46:58Z</time>
      </trkpt>
      <trkpt lat="46.73565" lon="-1.60964">
        <ele>55</ele>
        <time>2018-01-14T07:47:58Z</time>
      </trkpt>
      <trkpt lat="46.73575" lon="-1.6096">
        <ele>55</ele>
        <time>2018-01-14T07:48:58Z</time>
      </trkpt>
      <trkpt lat="46.73582" lon="-1.60958">
        <ele>55</ele>
        <time>2018-01-14T07:49:58Z</time>
      </trkpt>
      <trkpt lat="46.73586" lon="-1.60958">
        <ele>55</ele>
        <time>2018-01-14T07:50:58Z</time>
      </trkpt>
      <trkpt lat="46.736" lon="-1.60958">
        <ele>55</ele>
        <time>2018-01-14T07:51:58Z</time>
      </trkpt>
      <trkpt lat="46.73636" lon="-1.60964">
        <ele>55</ele>
        <time>2018-01-14T07:52:58Z</time>
      </trkpt>
      <trkpt lat="46.73644" lon="-1.60968">
        <ele>55</ele>
        <time>2018-01-14T07:53:58Z</time>
      </trkpt>
      <trkpt lat="46.73695" lon="-1.60978">
        <ele>55</ele>
        <time>2018-01-14T07:54:58Z</time>
      </trkpt>
      <trkpt lat="46.73716" lon="-1.60982">
        <ele>55</ele>
        <time>2018-01-14T07:55:58Z</time>
      </trkpt>
      <trkpt lat="46.73753" lon="-1.60988">
        <ele>55</ele>
        <time>2018-01-14T07:56:58Z</time>
      </trkpt>
      <trkpt lat="46.73761" lon="-1.60989">
        <ele>55</ele>
        <time>2018-01-14T07:57:58Z</time>
      </trkpt>
      <trkpt lat="46.73768" lon="-1.6099">
        <ele>55</ele>
        <time>2018-01-14T07:58:58Z</time>
      </trkpt>
      <trkpt lat="46.73768" lon="-1.6099">
        <ele>55</ele>
        <time>2018-01-14T07:59:58Z</time>
      </trkpt>
      <trkpt lat="46.73768" lon="-1.60989">
        <ele>56</ele>
        <time>2018-01-14T08:00:58Z</time>
      </trkpt>
      <trkpt lat="46.73769" lon="-1.60989">
        <ele>56</ele>
        <time>2018-01-14T08:01:58Z</time>
      </trkpt>
      <trkpt lat="46.7377" lon="-1.60989">
        <ele>56</ele>
        <time>2018-01-14T08:02:58Z</time>
      </trkpt>
      <trkpt lat="46.7377" lon="-1.60988">
        <ele>56</ele>
        <time>2018-01-14T08:03:58Z</time>
      </trkpt>
      <trkpt lat="46.73771" lon="-1.60988">
        <ele>56</ele>
        <time>2018-01-14T08:04:58Z</time>
      </trkpt>
      <trkpt lat="46.73772" lon="-1.60988">
        <ele>56</ele>
        <time>2018-01-14T08:05:58Z</time>
      </trkpt>
      <trkpt lat="46.73773" lon="-1.60988">
        <ele>56</ele>
        <time>2018-01-14T08:06:58Z</time>
      </trkpt>
      <trkpt lat="46.73774" lon="-1.60988">
        <ele>56</ele>
        <time>2018-01-14T08:07:58Z</time>
      </trkpt>
      <trkpt lat="46.73775" lon="-1.60988">
        <ele>56</ele>
        <time>2018-01-14T08:08:58Z</time>
      </trkpt>
      <trkpt lat="46.73775" lon="-1.60989">
        <ele>56</ele>
        <time>2018-01-14T08:09:58Z</time>
      </trkpt>
      <trkpt lat="46.73776" lon="-1.60989">
        <ele>56</ele>
        <time>2018-01-14T08:10:58Z</time>
      </trkpt>
      <trkpt lat="46.73776" lon="-1.6099">
        <ele>56</ele>
        <time>2018-01-14T08:11:58Z</time>
      </trkpt>
      <trkpt lat="46.73777" lon="-1.6099">
        <ele>56</ele>
        <time>2018-01-14T08:12:58Z</time>
      </trkpt>
      <trkpt lat="46.73784" lon="-1.60987">
        <ele>56</ele>
        <time>2018-01-14T08:13:58Z</time>
      </trkpt>
      <trkpt lat="46.73797" lon="-1.60985">
        <ele>56</ele>
        <time>2018-01-14T08:14:58Z</time>
      </trkpt>
      <trkpt lat="46.73797" lon="-1.60985">
        <ele>56</ele>
        <time>2018-01-14T08:15:58Z</time>
      </trkpt>
      <trkpt lat="46.73797" lon="-1.60984">
        <ele>56</ele>
        <time>2018-01-14T08:16:58Z</time>
      </trkpt>
      <trkpt lat="46.73798" lon="-1.60984">
        <ele>56</ele>
        <time>2018-01-14T08:17:58Z</time>
      </trkpt>
      <trkpt lat="46.73799" lon="-1.60984">
        <ele>56</ele>
        <time>2018-01-14T08:18:58Z</time>
      </trkpt>
      <trkpt lat="46.73799" lon="-1.60983">
        <ele>56</ele>
        <time>2018-01-14T08:19:58Z</time>
      </trkpt>
      <trkpt lat="46.738" lon="-1.60983">
        <ele>56</ele>
        <time>2018-01-14T08:20:58Z</time>
      </trkpt>
      <trkpt lat="46.73801" lon="-1.60983">
        <ele>56</ele>
        <time>2018-01-14T08:21:58Z</time>
      </trkpt>
      <trkpt lat="46.73804" lon="-1.60978">
        <ele>56</ele>
        <time>2018-01-14T08:22:58Z</time>
      </trkpt>
      <trkpt lat="46.73812" lon="-1.60969">
        <ele>56</ele>
        <time>2018-01-14T08:23:58Z</time>
      </trkpt>
      <trkpt lat="46.73818" lon="-1.60957">
        <ele>56</ele>
        <time>2018-01-14T08:24:58Z</time>
      </trkpt>
      <trkpt lat="46.73826" lon="-1.60943">
        <ele>56</ele>
        <time>2018-01-14T08:25:58Z</time>
      </trkpt>
      <trkpt lat="46.7384" lon="-1.60915">
        <ele>56</ele>
        <time>2018-01-14T08:26:58Z</time>
      </trkpt>
      <trkpt lat="46.73844" lon="-1.60905">
        <ele>56</ele>
        <time>2018-01-14T08:27:58Z</time>
      </trkpt>
      <trkpt lat="46.73858" lon="-1.60874">
        <ele>57</ele>
        <time>2018-01-14T08:28:58Z</time>
      </trkpt>
      <trkpt lat="46.7387" lon="-1.60848">
        <ele>57</ele>
        <time>2018-01-14T08:29:58Z</time>
      </trkpt>
      <trkpt lat="46.73889" lon="-1.60807">
        <ele>58</ele>
        <time>2018-01-14T08:30:58Z</time>
      </trkpt>
      <trkpt lat="46.73902" lon="-1.60777">
        <ele>57</ele>
        <time>2018-01-14T08:31:58Z</time>
      </trkpt>
      <trkpt lat="46.73927" lon="-1.60725">
        <ele>58</ele>
        <time>2018-01-14T08:32:58Z</time>
      </trkpt>
      <trkpt lat="46.73929" lon="-1.6072">
        <ele>58</ele>
        <time>2018-01-14T08:33:58Z</time>
      </trkpt>
      <trkpt lat="46.73929" lon="-1.6072">
        <ele>58</ele>
        <time>2018-01-14T08:34:58Z</time>
      </trkpt>
      <trkpt lat="46.73928" lon="-1.6072">
        <ele>58</ele>
        <time>2018-01-14T08:35:58Z</time>
      </trkpt>
      <trkpt lat="46.73928" lon="-1.60719">
        <ele>58</ele>
        <time>2018-01-14T08:36:58Z</time>
      </trkpt>
      <trkpt lat="46.73928" lon="-1.60718">
        <ele>58</ele>
        <time>2018-01-14T08:37:58Z</time>
      </trkpt>
      <trkpt lat="46.73927" lon="-1.60717">
        <ele>58</ele>
        <time>2018-01-14T08:38:58Z</time>
      </trkpt>
      <trkpt lat="46.73927" lon="-1.60716">
        <ele>58</ele>
        <time>2018-01-14T08:39:58Z</time>
      </trkpt>
      <trkpt lat="46.73927" lon="-1.60715">
        <ele>58</ele>
        <time>2018-01-14T08:40:58Z</time>
      </trkpt>
      <trkpt lat="46.73927" lon="-1.60714">
        <ele>58</ele>
        <time>2018-01-14T08:41:58Z</time>
      </trkpt>
      <trkpt lat="46.73927" lon="-1.60713">
        <ele>58</ele>
        <time>2018-01-14T08:42:58Z</time>
      </trkpt>
      <trkpt lat="46.73927" lon="-1.60712">
        <ele>58</ele>
        <time>2018-01-14T08:43:58Z</time>
      </trkpt>
      <trkpt lat="46.73927" lon="-1.60711">
        <ele>58</ele>
        <time>2018-01-14T08:44:58Z</time>
      </trkpt>
      <trkpt lat="46.73928" lon="-1.60711">
        <ele>58</ele>
        <time>2018-01-14T08:45:58Z</time>
      </trkpt>
      <trkpt lat="46.73928" lon="-1.6071">
        <ele>58</ele>
        <time>2018-01-14T08:46:58Z</time>
      </trkpt>
      <trkpt lat="46.73928" lon="-1.60709">
        <ele>58</ele>
        <time>2018-01-14T08:47:58Z</time>
      </trkpt>
      <trkpt lat="46.73929" lon="-1.60709">
        <ele>58</ele>
        <time>2018-01-14T08:48:58Z</time>
      </trkpt>
      <trkpt lat="46.73929" lon="-1.60708">
        <ele>58</ele>
        <time>2018-01-14T08:49:58Z</time>
      </trkpt>
      <trkpt lat="46.7393" lon="-1.60708">
        <ele>58</ele>
        <time>2018-01-14T08:50:58Z</time>
      </trkpt>
      <trkpt lat="46.73931" lon="-1.60708">
        <ele>59</ele>
        <time>2018-01-14T08:51:58Z</time>
      </trkpt>
      <trkpt lat="46.73932" lon="-1.60708">
        <ele>59</ele>
        <time>2018-01-14T08:52:58Z</time>
      </trkpt>
      <trkpt lat="46.73933" lon="-1.60708">
        <ele>59</ele>
        <time>2018-01-14T08:53:58Z</time>
      </trkpt>
      <trkpt lat="46.73934" lon="-1.60708">
        <ele>59</ele>
        <time>2018-01-14T08:54:58Z</time>
      </trkpt>
      <trkpt lat="46.73934" lon="-1.60709">
        <ele>59</ele>
        <time>2018-01-14T08:55:58Z</time>
      </trkpt>
      <trkpt lat="46.73935" lon="-1.60709">
        <ele>59</ele>
        <time>2018-01-14T08:56:58Z</time>
      </trkpt>
      <trkpt lat="46.73935" lon="-1.6071">
        <ele>59</ele>
        <time>2018-01-14T08:57:58Z</time>
      </trkpt>
      <trkpt lat="46.73936" lon="-1.6071">
        <ele>59</ele>
        <time>2018-01-14T08:58:58Z</time>
      </trkpt>
      <trkpt lat="46.73936" lon="-1.60711">
        <ele>59</ele>
        <time>2018-01-14T08:59:58Z</time>
      </trkpt>
      <trkpt lat="46.73936" lon="-1.60712">
        <ele>59</ele>
        <time>2018-01-14T09:00:58Z</time>
      </trkpt>
      <trkpt lat="46.73936" lon="-1.60713">
        <ele>59</ele>
        <time>2018-01-14T09:01:58Z</time>
      </trkpt>
      <trkpt lat="46.73936" lon="-1.60714">
        <ele>59</ele>
        <time>2018-01-14T09:02:58Z</time>
      </trkpt>
      <trkpt lat="46.73936" lon="-1.60715">
        <ele>59</ele>
        <time>2018-01-14T09:03:58Z</time>
      </trkpt>
      <trkpt lat="46.73936" lon="-1.60716">
        <ele>59</ele>
        <time>2018-01-14T09:04:58Z</time>
      </trkpt>
      <trkpt lat="46.73936" lon="-1.60717">
        <ele>59</ele>
        <time>2018-01-14T09:05:58Z</time>
      </trkpt>
      <trkpt lat="46.73936" lon="-1.60718">
        <ele>59</ele>
        <time>2018-01-14T09:06:58Z</time>
      </trkpt>
      <trkpt lat="46.73935" lon="-1.60718">
        <ele>58</ele>
        <time>2018-01-14T09:07:58Z</time>
      </trkpt>
      <trkpt lat="46.73935" lon="-1.60719">
        <ele>58</ele>
        <time>2018-01-14T09:08:58Z</time>
      </trkpt>
      <trkpt lat="46.73935" lon="-1.6072">
        <ele>58</ele>
        <time>2018-01-14T09:09:58Z</time>
      </trkpt>
      <trkpt lat="46.73934" lon="-1.6072">
        <ele>58</ele>
        <time>2018-01-14T09:10:58Z</time>
      </trkpt>
      <trkpt lat="46.73977" lon="-1.60769">
        <ele>60</ele>
        <time>2018-01-14T09:11:58Z</time>
      </trkpt>
      <trkpt lat="46.73978" lon="-1.60769">
        <ele>60</ele>
        <time>2018-01-14T09:12:58Z</time>
      </trkpt>
      <trkpt lat="46.73978" lon="-1.60768">
        <ele>60</ele>
        <time>2018-01-14T09:13:58Z</time>
      </trkpt>
      <trkpt lat="46.73979" lon="-1.60768">
        <ele>60</ele>
        <time>2018-01-14T09:14:58Z</time>
      </trkpt>
      <trkpt lat="46.7398" lon="-1.60768">
        <ele>60</ele>
        <time>2018-01-14T09:15:58Z</time>
      </trkpt>
      <trkpt lat="46.7398" lon="-1.60767">
        <ele>60</ele>
        <time>2018-01-14T09:16:58Z</time>
      </trkpt>
      <trkpt lat="46.73981" lon="-1.60767">
        <ele>60</ele>
        <time>2018-01-14T09:17:58Z</time>
      </trkpt>
      <trkpt lat="46.73981" lon="-1.60768">
        <ele>60</ele>
        <time>2018-01-14T09:18:58Z</time>
      </trkpt>
      <trkpt lat="46.73982" lon="-1.60768">
        <ele>60</ele>
        <time>2018-01-14T09:19:58Z</time>
      </trkpt>
      <trkpt lat="46.73982" lon="-1.60768">
        <ele>60</ele>
        <time>2018-01-14T09:20:58Z</time>
      </trkpt>
      <trkpt lat="46.73985" lon="-1.60756">
        <ele>60</ele>
        <time>2018-01-14T09:21:58Z</time>
      </trkpt>
      <trkpt lat="46.73986" lon="-1.60738">
        <ele>60</ele>
        <time>2018-01-14T09:22:58Z</time>
      </trkpt>
      <trkpt lat="46.73987" lon="-1.60729">
        <ele>60</ele>
        <time>2018-01-14T09:23:58Z</time>
      </trkpt>
      <trkpt lat="46.73987" lon="-1.60725">
        <ele>60</ele>
        <time>2018-01-14T09:24:58Z</time>
      </trkpt>
      <trkpt lat="46.73988" lon="-1.60721">
        <ele>61</ele>
        <time>2018-01-14T09:25:58Z</time>
      </trkpt>
      <trkpt lat="46.73989" lon="-1.60717">
        <ele>61</ele>
        <time>2018-01-14T09:26:58Z</time>
      </trkpt>
      <trkpt lat="46.7399" lon="-1.60714">
        <ele>61</ele>
        <time>2018-01-14T09:27:58Z</time>
      </trkpt>
      <trkpt lat="46.73993" lon="-1.60709">
        <ele>61</ele>
        <time>2018-01-14T09:28:58Z</time>
      </trkpt>
      <trkpt lat="46.73996" lon="-1.60704">
        <ele>61</ele>
        <time>2018-01-14T09:29:58Z</time>
      </trkpt>
      <trkpt lat="46.73998" lon="-1.60699">
        <ele>61</ele>
        <time>2018-01-14T09:30:58Z</time>
      </trkpt>
      <trkpt lat="46.74" lon="-1.60698">
        <ele>61</ele>
        <time>2018-01-14T09:31:58Z</time>
      </trkpt>
      <trkpt lat="46.74006" lon="-1.60692">
        <ele>61</ele>
        <time>2018-01-14T09:32:58Z</time>
      </trkpt>
      <trkpt lat="46.74012" lon="-1.60688">
        <ele>61</ele>
        <time>2018-01-14T09:33:58Z</time>
      </trkpt>
      <trkpt lat="46.74018" lon="-1.60684">
        <ele>61</ele>
        <time>2018-01-14T09:34:58Z</time>
      </trkpt>
      <trkpt lat="46.74023" lon="-1.60682">
        <ele>62</ele>
        <time>2018-01-14T09:35:58Z</time>
      </trkpt>
      <trkpt lat="46.74034" lon="-1.60677">
        <ele>62</ele>
        <time>2018-01-14T09:36:58Z</time>
      </trkpt>
      <trkpt lat="46.74042" lon="-1.60672">
        <ele>62</ele>
        <time>2018-01-14T09:37:58Z</time>
      </trkpt>
      <trkpt lat="46.74051" lon="-1.60666">
        <ele>62</ele>
        <time>2018-01-14T09:38:58Z</time>
      </trkpt>
      <trkpt lat="46.7406" lon="-1.60654">
        <ele>63</ele>
        <time>2018-01-14T09:39:58Z</time>
      </trkpt>
      <trkpt lat="46.74067" lon="-1.60644">
        <ele>63</ele>
        <time>2018-01-14T09:40:58Z</time>
      </trkpt>
      <trkpt lat="46.74075" lon="-1.6063">
        <ele>64</ele>
        <time>2018-01-14T09:41:58Z</time>
      </trkpt>
      <trkpt lat="46.74085" lon="-1.60612">
        <ele>65</ele>
        <time>2018-01-14T09:42:58Z</time>
      </trkpt>
      <trkpt lat="46.74094" lon="-1.60595">
        <ele>66</ele>
        <time>2018-01-14T09:43:58Z</time>
      </trkpt>
      <trkpt lat="46.74099" lon="-1.60585">
        <ele>67</ele>
        <time>2018-01-14T09:44:58Z</time>
      </trkpt>
      <trkpt lat="46.74103" lon="-1.60578">
        <ele>67</ele>
        <time>2018-01-14T09:45:58Z</time>
      </trkpt>
      <trkpt lat="46.74107" lon="-1.60572">
        <ele>67</ele>
        <time>2018-01-14T09:46:58Z</time>
      </trkpt>
      <trkpt lat="46.74113" lon="-1.60566">
        <ele>67</ele>
        <time>2018-01-14T09:47:58Z</time>
      </trkpt>
      <trkpt lat="46.74121" lon="-1.60558">
        <ele>67</ele>
        <time>2018-01-14T09:48:58Z</time>
      </trkpt>
      <trkpt lat="46.74126" lon="-1.60555">
        <ele>68</ele>
        <time>2018-01-14T09:49:58Z</time>
      </trkpt>
      <trkpt lat="46.7413" lon="-1.60553">
        <ele>68</ele>
        <time>2018-01-14T09:50:58Z</time>
      </trkpt>
      <trkpt lat="46.74133" lon="-1.60551">
        <ele>68</ele>
        <time>2018-01-14T09:51:58Z</time>
      </trkpt>
      <trkpt lat="46.74136" lon="-1.6055">
        <ele>68</ele>
        <time>2018-01-14T09:52:58Z</time>
      </trkpt>
      <trkpt lat="46.7414" lon="-1.6055">
        <ele>68</ele>
        <time>2018-01-14T09:53:58Z</time>
      </trkpt>
      <trkpt lat="46.74143" lon="-1.6055">
        <ele>68</ele>
        <time>2018-01-14T09:54:58Z</time>
      </trkpt>
      <trkpt lat="46.74146" lon="-1.6055">
        <ele>68</ele>
        <time>2018-01-14T09:55:58Z</time>
      </trkpt>
      <trkpt lat="46.7415" lon="-1.6055">
        <ele>68</ele>
        <time>2018-01-14T09:56:58Z</time>
      </trkpt>
      <trkpt lat="46.74152" lon="-1.60551">
        <ele>68</ele>
        <time>2018-01-14T09:57:58Z</time>
      </trkpt>
      <trkpt lat="46.7416" lon="-1.60553">
        <ele>68</ele>
        <time>2018-01-14T09:58:58Z</time>
      </trkpt>
      <trkpt lat="46.74202" lon="-1.60566">
        <ele>69</ele>
        <time>2018-01-14T09:59:58Z</time>
      </trkpt>
      <trkpt lat="46.74234" lon="-1.60577">
        <ele>69</ele>
        <time>2018-01-14T10:00:58Z</time>
      </trkpt>
      <trkpt lat="46.7425" lon="-1.60582">
        <ele>69</ele>
        <time>2018-01-14T10:01:58Z</time>
      </trkpt>
      <trkpt lat="46.7426" lon="-1.60585">
        <ele>69</ele>
        <time>2018-01-14T10:02:58Z</time>
      </trkpt>
      <trkpt lat="46.74273" lon="-1.60587">
        <ele>69</ele>
        <time>2018-01-14T10:03:58Z</time>
      </trkpt>
      <trkpt lat="46.74273" lon="-1.60587">
        <ele>69</ele>
        <time>2018-01-14T10:04:58Z</time>
      </trkpt>
      <trkpt lat="46.74281" lon="-1.60574">
        <ele>69</ele>
        <time>2018-01-14T10:05:58Z</time>
      </trkpt>
      <trkpt lat="46.7429" lon="-1.60564">
        <ele>70</ele>
        <time>2018-01-14T10:06:58Z</time>
      </trkpt>
      <trkpt lat="46.74293" lon="-1.60559">
        <ele>70</ele>
        <time>2018-01-14T10:07:58Z</time>
      </trkpt>
      <trkpt lat="46.74307" lon="-1.60542">
        <ele>70</ele>
        <time>2018-01-14T10:08:58Z</time>
      </trkpt>
      <trkpt lat="46.74318" lon="-1.60526">
        <ele>71</ele>
        <time>2018-01-14T10:09:58Z</time>
      </trkpt>
      <trkpt lat="46.74336" lon="-1.60492">
        <ele>71</ele>
        <time>2018-01-14T10:10:58Z</time>
      </trkpt>
      <trkpt lat="46.74348" lon="-1.60471">
        <ele>71</ele>
        <time>2018-01-14T10:11:58Z</time>
      </trkpt>
      <trkpt lat="46.74355" lon="-1.6046">
        <ele>71</ele>
        <time>2018-01-14T10:12:58Z</time>
      </trkpt>
      <trkpt lat="46.74365" lon="-1.60448">
        <ele>71</ele>
        <time>2018-01-14T10:13:58Z</time>
      </trkpt>
      <trkpt lat="46.74378" lon="-1.60432">
        <ele>71</ele>
        <time>2018-01-14T10:14:58Z</time>
      </trkpt>
      <trkpt lat="46.74397" lon="-1.60409">
        <ele>71</ele>
        <time>2018-01-14T10:15:58Z</time>
      </trkpt>
      <trkpt lat="46.74421" lon="-1.6038">
        <ele>71</ele>
        <time>2018-01-14T10:16:58Z</time>
      </trkpt>
      <trkpt lat="46.74444" lon="-1.60352">
        <ele>71</ele>
        <time>2018-01-14T10:17:58Z</time>
      </trkpt>
      <trkpt lat="46.74461" lon="-1.60331">
        <ele>71</ele>
        <time>2018-01-14T10:18:58Z</time>
      </trkpt>
      <trkpt lat="46.74478" lon="-1.6031">
        <ele>71</ele>
        <time>2018-01-14T10:19:58Z</time>
      </trkpt>
      <trkpt lat="46.74507" lon="-1.60268">
        <ele>71</ele>
        <time>2018-01-14T10:20:58Z</time>
      </trkpt>
      <trkpt lat="46.74534" lon="-1.60229">
        <ele>71</ele>
        <time>2018-01-14T10:21:58Z</time>
      </trkpt>
      <trkpt lat="46.74543" lon="-1.60216">
        <ele>72</ele>
        <time>2018-01-14T10:22:58Z</time>
      </trkpt>
      <trkpt lat="46.74571" lon="-1.60177">
        <ele>72</ele>
        <time>2018-01-14T10:23:58Z</time>
      </trkpt>
      <trkpt lat="46.74603" lon="-1.60131">
        <ele>73</ele>
        <time>2018-01-14T10:24:58Z</time>
      </trkpt>
      <trkpt lat="46.74613" lon="-1.60117">
        <ele>72</ele>
        <time>2018-01-14T10:25:58Z</time>
      </trkpt>
      <trkpt lat="46.74621" lon="-1.60104">
        <ele>72</ele>
        <time>2018-01-14T10:26:58Z</time>
      </trkpt>
      <trkpt lat="46.74635" lon="-1.60082">
        <ele>72</ele>
        <time>2018-01-14T10:27:58Z</time>
      </trkpt>
      <trkpt lat="46.74643" lon="-1.60065">
        <ele>72</ele>
        <time>2018-01-14T10:28:58Z</time>
      </trkpt>
      <trkpt lat="46.74642" lon="-1.60063">
        <ele>72</ele>
        <time>2018-01-14T10:29:58Z</time>
      </trkpt>
      <trkpt lat="46.74641" lon="-1.60062">
        <ele>72</ele>
        <time>2018-01-14T10:30:58Z</time>
      </trkpt>
      <trkpt lat="46.74641" lon="-1.6006">
        <ele>72</ele>
        <time>2018-01-14T10:31:58Z</time>
      </trkpt>
      <trkpt lat="46.7464" lon="-1.60058">
        <ele>72</ele>
        <time>2018-01-14T10:32:58Z</time>
      </trkpt>
      <trkpt lat="46.7464" lon="-1.60056">
        <ele>72</ele>
        <time>2018-01-14T10:33:58Z</time>
      </trkpt>
      <trkpt lat="46.7464" lon="-1.60054">
        <ele>72</ele>
        <time>2018-01-14T10:34:58Z</time>
      </trkpt>
      <trkpt lat="46.74641" lon="-1.60052">
        <ele>72</ele>
        <time>2018-01-14T10:35:58Z</time>
      </trkpt>
      <trkpt lat="46.74641" lon="-1.60051">
        <ele>72</ele>
        <time>2018-01-14T10:36:58Z</time>
      </trkpt>
      <trkpt lat="46.74642" lon="-1.60049">
        <ele>72</ele>
        <time>2018-01-14T10:37:58Z</time>
      </trkpt>
      <trkpt lat="46.74644" lon="-1.60048">
        <ele>72</ele>
        <time>2018-01-14T10:38:58Z</time>
      </trkpt>
      <trkpt lat="46.74645" lon="-1.60048">
        <ele>72</ele>
        <time>2018-01-14T10:39:58Z</time>
      </trkpt>
      <trkpt lat="46.74646" lon="-1.60048">
        <ele>72</ele>
        <time>2018-01-14T10:40:58Z</time>
      </trkpt>
      <trkpt lat="46.74648" lon="-1.60048">
        <ele>72</ele>
        <time>2018-01-14T10:41:58Z</time>
      </trkpt>
      <trkpt lat="46.74649" lon="-1.60048">
        <ele>72</ele>
        <time>2018-01-14T10:42:58Z</time>
      </trkpt>
      <trkpt lat="46.7465" lon="-1.60049">
        <ele>72</ele>
        <time>2018-01-14T10:43:58Z</time>
      </trkpt>
      <trkpt lat="46.74659" lon="-1.6003">
        <ele>72</ele>
        <time>2018-01-14T10:44:58Z</time>
      </trkpt>
      <trkpt lat="46.74678" lon="-1.59997">
        <ele>72</ele>
        <time>2018-01-14T10:45:58Z</time>
      </trkpt>
      <trkpt lat="46.74697" lon="-1.59964">
        <ele>71</ele>
        <time>2018-01-14T10:46:58Z</time>
      </trkpt>
      <trkpt lat="46.74713" lon="-1.59932">
        <ele>71</ele>
        <time>2018-01-14T10:47:58Z</time>
      </trkpt>
      <trkpt lat="46.74727" lon="-1.59903">
        <ele>71</ele>
        <time>2018-01-14T10:48:58Z</time>
      </trkpt>
      <trkpt lat="46.74736" lon="-1.59889">
        <ele>71</ele>
        <time>2018-01-14T10:49:58Z</time>
      </trkpt>
      <trkpt lat="46.74746" lon="-1.59874">
        <ele>72</ele>
        <time>2018-01-14T10:50:58Z</time>
      </trkpt>
      <trkpt lat="46.74756" lon="-1.59859">
        <ele>72</ele>
        <time>2018-01-14T10:51:58Z</time>
      </trkpt>
      <trkpt lat="46.74775" lon="-1.59829">
        <ele>72</ele>
        <time>2018-01-14T10:52:58Z</time>
      </trkpt>
      <trkpt lat="46.74797" lon="-1.59799">
        <ele>72</ele>
        <time>2018-01-14T10:53:58Z</time>
      </trkpt>
      <trkpt lat="46.74801" lon="-1.59792">
        <ele>72</ele>
        <time>2018-01-14T10:54:58Z</time>
      </trkpt>
      <trkpt lat="46.74801" lon="-1.59792">
        <ele>72</ele>
        <time>2018-01-14T10:55:58Z</time>
      </trkpt>
      <trkpt lat="46.74826" lon="-1.59759">
        <ele>72</ele>
        <time>2018-01-14T10:56:58Z</time>
      </trkpt>
      <trkpt lat="46.74835" lon="-1.59748">
        <ele>72</ele>
        <time>2018-01-14T10:57:58Z</time>
      </trkpt>
      <trkpt lat="46.74843" lon="-1.59738">
        <ele>72</ele>
        <time>2018-01-14T10:58:58Z</time>
      </trkpt>
      <trkpt lat="46.74853" lon="-1.59727">
        <ele>71</ele>
        <time>2018-01-14T10:59:58Z</time>
      </trkpt>
      <trkpt lat="46.74882" lon="-1.59695">
        <ele>70</ele>
        <time>2018-01-14T11:00:58Z</time>
      </trkpt>
      <trkpt lat="46.74901" lon="-1.59674">
        <ele>70</ele>
        <time>2018-01-14T11:01:58Z</time>
      </trkpt>
      <trkpt lat="46.74918" lon="-1.59656">
        <ele>70</ele>
        <time>2018-01-14T11:02:58Z</time>
      </trkpt>
      <trkpt lat="46.74935" lon="-1.59638">
        <ele>71</ele>
        <time>2018-01-14T11:03:58Z</time>
      </trkpt>
      <trkpt lat="46.74944" lon="-1.59632">
        <ele>71</ele>
        <time>2018-01-14T11:04:58Z</time>
      </trkpt>
      <trkpt lat="46.74952" lon="-1.5963">
        <ele>71</ele>
        <time>2018-01-14T11:05:58Z</time>
      </trkpt>
      <trkpt lat="46.74967" lon="-1.59629">
        <ele>71</ele>
        <time>2018-01-14T11:06:58Z</time>
      </trkpt>
      <trkpt lat="46.74993" lon="-1.59631">
        <ele>71</ele>
        <time>2018-01-14T11:07:58Z</time>
      </trkpt>
      <trkpt lat="46.75009" lon="-1.59631">
        <ele>71</ele>
        <time>2018-01-14T11:08:58Z</time>
      </trkpt>
      <trkpt lat="46.75029" lon="-1.59629">
        <ele>71</ele>
        <time>2018-01-14T11:09:58Z</time>
      </trkpt>
      <trkpt lat="46.75055" lon="-1.59626">
        <ele>71</ele>
        <time>2018-01-14T11:10:58Z</time>
      </trkpt>
      <trkpt lat="46.75065" lon="-1.59623">
        <ele>70</ele>
        <time>2018-01-14T11:11:58Z</time>
      </trkpt>
      <trkpt lat="46.75075" lon="-1.59619">
        <ele>70</ele>
        <time>2018-01-14T11:12:58Z</time>
      </trkpt>
      <trkpt lat="46.75095" lon="-1.59608">
        <ele>69</ele>
        <time>2018-01-14T11:13:58Z</time>
      </trkpt>
      <trkpt lat="46.75099" lon="-1.59605">
        <ele>69</ele>
        <time>2018-01-14T11:14:58Z</time>
      </trkpt>
      <trkpt lat="46.7513" lon="-1.59582">
        <ele>68</ele>
        <time>2018-01-14T11:15:58Z</time>
      </trkpt>
      <trkpt lat="46.75143" lon="-1.59573">
        <ele>68</ele>
        <time>2018-01-14T11:16:58Z</time>
      </trkpt>
      <trkpt lat="46.75192" lon="-1.59539">
        <ele>66</ele>
        <time>2018-01-14T11:17:58Z</time>
      </trkpt>
      <trkpt lat="46.75221" lon="-1.59515">
        <ele>65</ele>
        <time>2018-01-14T11:18:58Z</time>
      </trkpt>
      <trkpt lat="46.75231" lon="-1.59505">
        <ele>65</ele>
        <time>2018-01-14T11:19:58Z</time>
      </trkpt>
      <trkpt lat="46.75252" lon="-1.59481">
        <ele>65</ele>
        <time>2018-01-14T11:20:58Z</time>
      </trkpt>
      <trkpt lat="46.75278" lon="-1.5945">
        <ele>64</ele>
        <time>2018-01-14T11:21:58Z</time>
      </trkpt>
      <trkpt lat="46.75305" lon="-1.59418">
        <ele>63</ele>
        <time>2018-01-14T11:22:58Z</time>
      </trkpt>
      <trkpt lat="46.75335" lon="-1.59384">
        <ele>62</ele>
        <time>2018-01-14T11:23:58Z</time>
      </trkpt>
      <trkpt lat="46.75353" lon="-1.59365">
        <ele>62</ele>
        <time>2018-01-14T11:24:58Z</time>
      </trkpt>
      <trkpt lat="46.75379" lon="-1.59344">
        <ele>61</ele>
        <time>2018-01-14T11:25:58Z</time>
      </trkpt>
      <trkpt lat="46.75408" lon="-1.59319">
        <ele>61</ele>
        <time>2018-01-14T11:26:58Z</time>
      </trkpt>
      <trkpt lat="46.75435" lon="-1.59296">
        <ele>61</ele>
        <time>2018-01-14T11:27:58Z</time>
      </trkpt>
      <trkpt lat="46.75439" lon="-1.59291">
        <ele>61</ele>
        <time>2018-01-14T11:28:58Z</time>
      </trkpt>
      <trkpt lat="46.75451" lon="-1.59278">
        <ele>60</ele>
        <time>2018-01-14T11:29:58Z</time>
      </trkpt>
      <trkpt lat="46.75456" lon="-1.5927">
        <ele>60</ele>
        <time>2018-01-14T11:30:58Z</time>
      </trkpt>
      <trkpt lat="46.75462" lon="-1.59261">
        <ele>60</ele>
        <time>2018-01-14T11:31:58Z</time>
      </trkpt>
      <trkpt lat="46.75467" lon="-1.59251">
        <ele>60</ele>
        <time>2018-01-14T11:32:58Z</time>
      </trkpt>
      <trkpt lat="46.7547" lon="-1.59245">
        <ele>60</ele>
        <time>2018-01-14T11:33:58Z</time>
      </trkpt>
      <trkpt lat="46.75475" lon="-1.59234">
        <ele>60</ele>
        <time>2018-01-14T11:34:58Z</time>
      </trkpt>
      <trkpt lat="46.75479" lon="-1.59225">
        <ele>60</ele>
        <time>2018-01-14T11:35:58Z</time>
      </trkpt>
      <trkpt lat="46.75485" lon="-1.59211">
        <ele>60</ele>
        <time>2018-01-14T11:36:58Z</time>
      </trkpt>
      <trkpt lat="46.75496" lon="-1.59183">
        <ele>61</ele>
        <time>2018-01-14T11:37:58Z</time>
      </trkpt>
      <trkpt lat="46.75518" lon="-1.59127">
        <ele>63</ele>
        <time>2018-01-14T11:38:58Z</time>
      </trkpt>
      <trkpt lat="46.75537" lon="-1.5908">
        <ele>64</ele>
        <time>2018-01-14T11:39:58Z</time>
      </trkpt>
      <trkpt lat="46.75537" lon="-1.5908">
        <ele>64</ele>
        <time>2018-01-14T11:40:58Z</time>
      </trkpt>
      <trkpt lat="46.7554" lon="-1.59072">
        <ele>64</ele>
        <time>2018-01-14T11:41:58Z</time>
      </trkpt>
      <trkpt lat="46.75545" lon="-1.59063">
        <ele>64</ele>
        <time>2018-01-14T11:42:58Z</time>
      </trkpt>
      <trkpt lat="46.75556" lon="-1.59036">
        <ele>63</ele>
        <time>2018-01-14T11:43:58Z</time>
      </trkpt>
      <trkpt lat="46.7557" lon="-1.59002">
        <ele>63</ele>
        <time>2018-01-14T11:44:58Z</time>
      </trkpt>
      <trkpt lat="46.75581" lon="-1.58974">
        <ele>63</ele>
        <time>2018-01-14T11:45:58Z</time>
      </trkpt>
      <trkpt lat="46.75592" lon="-1.58946">
        <ele>63</ele>
        <time>2018-01-14T11:46:58Z</time>
      </trkpt>
      <trkpt lat="46.75597" lon="-1.58931">
        <ele>63</ele>
        <time>2018-01-14T11:47:58Z</time>
      </trkpt>
      <trkpt lat="46.75599" lon="-1.58921">
        <ele>63</ele>
        <time>2018-01-14T11:48:58Z</time>
      </trkpt>
      <trkpt lat="46.75602" lon="-1.58905">
        <ele>63</ele>
        <time>2018-01-14T11:49:58Z</time>
      </trkpt>
      <trkpt lat="46.75604" lon="-1.58892">
        <ele>63</ele>
        <time>2018-01-14T11:50:58Z</time>
      </trkpt>
      <trkpt lat="46.75605" lon="-1.58883">
        <ele>63</ele>
        <time>2018-01-14T11:51:58Z</time>
      </trkpt>
      <trkpt lat="46.75605" lon="-1.58868">
        <ele>63</ele>
        <time>2018-01-14T11:52:58Z</time>
      </trkpt>
      <trkpt lat="46.75606" lon="-1.58836">
        <ele>64</ele>
        <time>2018-01-14T11:53:58Z</time>
      </trkpt>
      <trkpt lat="46.75609" lon="-1.58798">
        <ele>65</ele>
        <time>2018-01-14T11:54:58Z</time>
      </trkpt>
      <trkpt lat="46.7561" lon="-1.58788">
        <ele>65</ele>
        <time>2018-01-14T11:55:58Z</time>
      </trkpt>
      <trkpt lat="46.75612" lon="-1.58776">
        <ele>66</ele>
        <time>2018-01-14T11:56:58Z</time>
      </trkpt>
      <trkpt lat="46.75618" lon="-1.58752">
        <ele>66</ele>
        <time>2018-01-14T11:57:58Z</time>
      </trkpt>
      <trkpt lat="46.75628" lon="-1.58721">
        <ele>66</ele>
        <time>2018-01-14T11:58:58Z</time>
      </trkpt>
      <trkpt lat="46.75634" lon="-1.58701">
        <ele>66</ele>
        <time>2018-01-14T11:59:58Z</time>
      </trkpt>
      <trkpt lat="46.75647" lon="-1.58659">
        <ele>66</ele>
        <time>2018-01-14T12:00:58Z</time>
      </trkpt>
      <trkpt lat="46.75648" lon="-1.58656">
        <ele>66</ele>
        <time>2018-01-14T12:01:58Z</time>
      </trkpt>
      <trkpt lat="46.75652" lon="-1.58643">
        <ele>66</ele>
        <time>2018-01-14T12:02:58Z</time>
      </trkpt>
      <trkpt lat="46.75664" lon="-1.58604">
        <ele>65</ele>
        <time>2018-01-14T12:03:58Z</time>
      </trkpt>
      <trkpt lat="46.7567" lon="-1.58577">
        <ele>65</ele>
        <time>2018-01-14T12:04:58Z</time>
      </trkpt>
      <trkpt lat="46.75674" lon="-1.58549">
        <ele>64</ele>
        <time>2018-01-14T12:05:58Z</time>
      </trkpt>
      <trkpt lat="46.75676" lon="-1.58516">
        <ele>64</ele>
        <time>2018-01-14T12:06:58Z</time>
      </trkpt>
      <trkpt lat="46.7568" lon="-1.58464">
        <ele>63</ele>
        <time>2018-01-14T12:07:58Z</time>
      </trkpt>
      <trkpt lat="46.75681" lon="-1.58443">
        <ele>63</ele>
        <time>2018-01-14T12:08:58Z</time>
      </trkpt>
      <trkpt lat="46.75683" lon="-1.58425">
        <ele>62</ele>
        <time>2018-01-14T12:09:58Z</time>
      </trkpt>
      <trkpt lat="46.75692" lon="-1.58403">
        <ele>62</ele>
        <time>2018-01-14T12:10:58Z</time>
      </trkpt>
      <trkpt lat="46.75703" lon="-1.58385">
        <ele>62</ele>
        <time>2018-01-14T12:11:58Z</time>
      </trkpt>
      <trkpt lat="46.75716" lon="-1.58367">
        <ele>62</ele>
        <time>2018-01-14T12:12:58Z</time>
      </trkpt>
      <trkpt lat="46.75736" lon="-1.58344">
        <ele>61</ele>
        <time>2018-01-14T12:13:58Z</time>
      </trkpt>
      <trkpt lat="46.7575" lon="-1.58332">
        <ele>61</ele>
        <time>2018-01-14T12:14:58Z</time>
      </trkpt>
      <trkpt lat="46.75767" lon="-1.58315">
        <ele>61</ele>
        <time>2018-01-14T12:15:58Z</time>
      </trkpt>
      <trkpt lat="46.75773" lon="-1.58309">
        <ele>62</ele>
        <time>2018-01-14T12:16:58Z</time>
      </trkpt>
      <trkpt lat="46.75779" lon="-1.58302">
        <ele>62</ele>
        <time>2018-01-14T12:17:58Z</time>
      </trkpt>
      <trkpt lat="46.75783" lon="-1.58298">
        <ele>62</ele>
        <time>2018-01-14T12:18:58Z</time>
      </trkpt>
      <trkpt lat="46.75786" lon="-1.58293">
        <ele>62</ele>
        <time>2018-01-14T12:19:58Z</time>
      </trkpt>
      <trkpt lat="46.75789" lon="-1.58286">
        <ele>62</ele>
        <time>2018-01-14T12:20:58Z</time>
      </trkpt>
      <trkpt lat="46.75794" lon="-1.58275">
        <ele>62</ele>
        <time>2018-01-14T12:21:58Z</time>
      </trkpt>
      <trkpt lat="46.75794" lon="-1.58275">
        <ele>62</ele>
        <time>2018-01-14T12:22:58Z</time>
      </trkpt>
      <trkpt lat="46.75797" lon="-1.58258">
        <ele>61</ele>
        <time>2018-01-14T12:23:58Z</time>
      </trkpt>
      <trkpt lat="46.75802" lon="-1.58231">
        <ele>61</ele>
        <time>2018-01-14T12:24:58Z</time>
      </trkpt>
      <trkpt lat="46.75808" lon="-1.58194">
        <ele>61</ele>
        <time>2018-01-14T12:25:58Z</time>
      </trkpt>
      <trkpt lat="46.75817" lon="-1.58156">
        <ele>61</ele>
        <time>2018-01-14T12:26:58Z</time>
      </trkpt>
      <trkpt lat="46.75823" lon="-1.58127">
        <ele>61</ele>
        <time>2018-01-14T12:27:58Z</time>
      </trkpt>
      <trkpt lat="46.75828" lon="-1.58106">
        <ele>61</ele>
        <time>2018-01-14T12:28:58Z</time>
      </trkpt>
      <trkpt lat="46.75832" lon="-1.58089">
        <ele>61</ele>
        <time>2018-01-14T12:29:58Z</time>
      </trkpt>
      <trkpt lat="46.75835" lon="-1.58069">
        <ele>61</ele>
        <time>2018-01-14T12:30:58Z</time>
      </trkpt>
      <trkpt lat="46.75837" lon="-1.5805">
        <ele>61</ele>
        <time>2018-01-14T12:31:58Z</time>
      </trkpt>
      <trkpt lat="46.7584" lon="-1.58003">
        <ele>60</ele>
        <time>2018-01-14T12:32:58Z</time>
      </trkpt>
      <trkpt lat="46.75843" lon="-1.57972">
        <ele>59</ele>
        <time>2018-01-14T12:33:58Z</time>
      </trkpt>
      <trkpt lat="46.75845" lon="-1.5796">
        <ele>59</ele>
        <time>2018-01-14T12:34:58Z</time>
      </trkpt>
      <trkpt lat="46.75845" lon="-1.5795">
        <ele>59</ele>
        <time>2018-01-14T12:35:58Z</time>
      </trkpt>
      <trkpt lat="46.75852" lon="-1.57896">
        <ele>57</ele>
        <time>2018-01-14T12:36:58Z</time>
      </trkpt>
      <trkpt lat="46.75856" lon="-1.57863">
        <ele>56</ele>
        <time>2018-01-14T12:37:58Z</time>
      </trkpt>
      <trkpt lat="46.75858" lon="-1.57848">
        <ele>55</ele>
        <time>2018-01-14T12:38:58Z</time>
      </trkpt>
      <trkpt lat="46.7586" lon="-1.5784">
        <ele>55</ele>
        <time>2018-01-14T12:39:58Z</time>
      </trkpt>
      <trkpt lat="46.75863" lon="-1.57829">
        <ele>55</ele>
        <time>2018-01-14T12:40:58Z</time>
      </trkpt>
      <trkpt lat="46.75869" lon="-1.57801">
        <ele>55</ele>
        <time>2018-01-14T12:41:58Z</time>
      </trkpt>
      <trkpt lat="46.75874" lon="-1.57787">
        <ele>54</ele>
        <time>2018-01-14T12:42:58Z</time>
      </trkpt>
      <trkpt lat="46.75886" lon="-1.57753">
        <ele>54</ele>
        <time>2018-01-14T12:43:58Z</time>
      </trkpt>
      <trkpt lat="46.75896" lon="-1.57723">
        <ele>54</ele>
        <time>2018-01-14T12:44:58Z</time>
      </trkpt>
      <trkpt lat="46.75906" lon="-1.57698">
        <ele>53</ele>
        <time>2018-01-14T12:45:58Z</time>
      </trkpt>
      <trkpt lat="46.75913" lon="-1.57683">
        <ele>53</ele>
        <time>2018-01-14T12:46:58Z</time>
      </trkpt>
      <trkpt lat="46.75917" lon="-1.57676">
        <ele>53</ele>
        <time>2018-01-14T12:47:58Z</time>
      </trkpt>
      <trkpt lat="46.7592" lon="-1.5767">
        <ele>53</ele>
        <time>2018-01-14T12:48:58Z</time>
      </trkpt>
      <trkpt lat="46.75922" lon="-1.57667">
        <ele>53</ele>
        <time>2018-01-14T12:49:58Z</time>
      </trkpt>
      <trkpt lat="46.75924" lon="-1.57664">
        <ele>53</ele>
        <time>2018-01-14T12:50:58Z</time>
      </trkpt>
      <trkpt lat="46.75924" lon="-1.57661">
        <ele>53</ele>
        <time>2018-01-14T12:51:58Z</time>
      </trkpt>
      <trkpt lat="46.75925" lon="-1.57658">
        <ele>52</ele>
        <time>2018-01-14T12:52:58Z</time>
      </trkpt>
      <trkpt lat="46.75926" lon="-1.57654">
        <ele>52</ele>
        <time>2018-01-14T12:53:58Z</time>
      </trkpt>
      <trkpt lat="46.75926" lon="-1.57645">
        <ele>52</ele>
        <time>2018-01-14T12:54:58Z</time>
      </trkpt>
      <trkpt lat="46.75916" lon="-1.57628">
        <ele>51</ele>
        <time>2018-01-14T12:55:58Z</time>
      </trkpt>
      <trkpt lat="46.75906" lon="-1.57617">
        <ele>51</ele>
        <time>2018-01-14T12:56:58Z</time>
      </trkpt>
      <trkpt lat="46.75894" lon="-1.57608">
        <ele>50</ele>
        <time>2018-01-14T12:57:58Z</time>
      </trkpt>
      <trkpt lat="46.75883" lon="-1.57603">
        <ele>50</ele>
        <time>2018-01-14T12:58:58Z</time>
      </trkpt>
      <trkpt lat="46.75876" lon="-1.576">
        <ele>50</ele>
        <time>2018-01-14T12:59:58Z</time>
      </trkpt>
      <trkpt lat="46.75868" lon="-1.57593">
        <ele>50</ele>
        <time>2018-01-14T13:00:58Z</time>
      </trkpt>
      <trkpt lat="46.75864" lon="-1.57584">
        <ele>50</ele>
        <time>2018-01-14T13:01:58Z</time>
      </trkpt>
      <trkpt lat="46.75862" lon="-1.57574">
        <ele>50</ele>
        <time>2018-01-14T13:02:58Z</time>
      </trkpt>
      <trkpt lat="46.75862" lon="-1.57558">
        <ele>50</ele>
        <time>2018-01-14T13:03:58Z</time>
      </trkpt>
      <trkpt lat="46.75863" lon="-1.57549">
        <ele>50</ele>
        <time>2018-01-14T13:04:58Z</time>
      </trkpt>
      <trkpt lat="46.75867" lon="-1.57534">
        <ele>49</ele>
        <time>2018-01-14T13:05:58Z</time>
      </trkpt>
      <trkpt lat="46.75873" lon="-1.57513">
        <ele>48</ele>
        <time>2018-01-14T13:06:58Z</time>
      </trkpt>
      <trkpt lat="46.75881" lon="-1.57488">
        <ele>46</ele>
        <time>2018-01-14T13:07:58Z</time>
      </trkpt>
      <trkpt lat="46.75886" lon="-1.57463">
        <ele>45</ele>
        <time>2018-01-14T13:08:58Z</time>
      </trkpt>
      <trkpt lat="46.75886" lon="-1.57439">
        <ele>44</ele>
        <time>2018-01-14T13:09:58Z</time>
      </trkpt>
      <trkpt lat="46.75882" lon="-1.57406">
        <ele>43</ele>
        <time>2018-01-14T13:10:58Z</time>
      </trkpt>
      <trkpt lat="46.75877" lon="-1.57373">
        <ele>43</ele>
        <time>2018-01-14T13:11:58Z</time>
      </trkpt>
      <trkpt lat="46.75876" lon="-1.57361">
        <ele>43</ele>
        <time>2018-01-14T13:12:58Z</time>
      </trkpt>
      <trkpt lat="46.75876" lon="-1.57351">
        <ele>42</ele>
        <time>2018-01-14T13:13:58Z</time>
      </trkpt>
      <trkpt lat="46.75877" lon="-1.57342">
        <ele>42</ele>
        <time>2018-01-14T13:14:58Z</time>
      </trkpt>
      <trkpt lat="46.75879" lon="-1.57333">
        <ele>42</ele>
        <time>2018-01-14T13:15:58Z</time>
      </trkpt>
      <trkpt lat="46.7588" lon="-1.57332">
        <ele>42</ele>
        <time>2018-01-14T13:16:58Z</time>
      </trkpt>
      <trkpt lat="46.75882" lon="-1.57325">
        <ele>43</ele>
        <time>2018-01-14T13:17:58Z</time>
      </trkpt>
      <trkpt lat="46.75886" lon="-1.57314">
        <ele>44</ele>
        <time>2018-01-14T13:18:58Z</time>
      </trkpt>
      <trkpt lat="46.7589" lon="-1.57302">
        <ele>45</ele>
        <time>2018-01-14T13:19:58Z</time>
      </trkpt>
      <trkpt lat="46.75891" lon="-1.57296">
        <ele>46</ele>
        <time>2018-01-14T13:20:58Z</time>
      </trkpt>
      <trkpt lat="46.75891" lon="-1.57292">
        <ele>46</ele>
        <time>2018-01-14T13:21:58Z</time>
      </trkpt>
      <trkpt lat="46.7589" lon="-1.57287">
        <ele>47</ele>
        <time>2018-01-14T13:22:58Z</time>
      </trkpt>
      <trkpt lat="46.75886" lon="-1.5728">
        <ele>48</ele>
        <time>2018-01-14T13:23:58Z</time>
      </trkpt>
      <trkpt lat="46.75883" lon="-1.57276">
        <ele>48</ele>
        <time>2018-01-14T13:24:58Z</time>
      </trkpt>
      <trkpt lat="46.75881" lon="-1.57274">
        <ele>48</ele>
        <time>2018-01-14T13:25:58Z</time>
      </trkpt>
      <trkpt lat="46.75877" lon="-1.57273">
        <ele>48</ele>
        <time>2018-01-14T13:26:58Z</time>
      </trkpt>
      <trkpt lat="46.75872" lon="-1.57274">
        <ele>48</ele>
        <time>2018-01-14T13:27:58Z</time>
      </trkpt>
      <trkpt lat="46.75863" lon="-1.57278">
        <ele>47</ele>
        <time>2018-01-14T13:28:58Z</time>
      </trkpt>
      <trkpt lat="46.75859" lon="-1.57278">
        <ele>47</ele>
        <time>2018-01-14T13:29:58Z</time>
      </trkpt>
      <trkpt lat="46.75855" lon="-1.57278">
        <ele>47</ele>
        <time>2018-01-14T13:30:58Z</time>
      </trkpt>
      <trkpt lat="46.75846" lon="-1.57275">
        <ele>47</ele>
        <time>2018-01-14T13:31:58Z</time>
      </trkpt>
      <trkpt lat="46.75839" lon="-1.57269">
        <ele>48</ele>
        <time>2018-01-14T13:32:58Z</time>
      </trkpt>
      <trkpt lat="46.75834" lon="-1.57264">
        <ele>48</ele>
        <time>2018-01-14T13:33:58Z</time>
      </trkpt>
      <trkpt lat="46.75828" lon="-1.57254">
        <ele>48</ele>
        <time>2018-01-14T13:34:58Z</time>
      </trkpt>
      <trkpt lat="46.75824" lon="-1.57246">
        <ele>49</ele>
        <time>2018-01-14T13:35:58Z</time>
      </trkpt>
      <trkpt lat="46.75816" lon="-1.57231">
        <ele>50</ele>
        <time>2018-01-14T13:36:58Z</time>
      </trkpt>
      <trkpt lat="46.75811" lon="-1.57215">
        <ele>51</ele>
        <time>2018-01-14T13:37:58Z</time>
      </trkpt>
      <trkpt lat="46.75799" lon="-1.57179">
        <ele>53</ele>
        <time>2018-01-14T13:38:58Z</time>
      </trkpt>
      <trkpt lat="46.75796" lon="-1.57162">
        <ele>54</ele>
        <time>2018-01-14T13:39:58Z</time>
      </trkpt>
      <trkpt lat="46.75794" lon="-1.57147">
        <ele>54</ele>
        <time>2018-01-14T13:40:58Z</time>
      </trkpt>
      <trkpt lat="46.75794" lon="-1.57137">
        <ele>55</ele>
        <time>2018-01-14T13:41:58Z</time>
      </trkpt>
      <trkpt lat="46.75794" lon="-1.57137">
        <ele>55</ele>
        <time>2018-01-14T13:42:58Z</time>
      </trkpt>
      <trkpt lat="46.75796" lon="-1.57131">
        <ele>55</ele>
        <time>2018-01-14T13:43:58Z</time>
      </trkpt>
      <trkpt lat="46.75799" lon="-1.57125">
        <ele>56</ele>
        <time>2018-01-14T13:44:58Z</time>
      </trkpt>
      <trkpt lat="46.75807" lon="-1.57117">
        <ele>57</ele>
        <time>2018-01-14T13:45:58Z</time>
      </trkpt>
      <trkpt lat="46.75826" lon="-1.57101">
        <ele>59</ele>
        <time>2018-01-14T13:46:58Z</time>
      </trkpt>
      <trkpt lat="46.75841" lon="-1.57083">
        <ele>60</ele>
        <time>2018-01-14T13:47:58Z</time>
      </trkpt>
      <trkpt lat="46.75841" lon="-1.57083">
        <ele>60</ele>
        <time>2018-01-14T13:48:58Z</time>
      </trkpt>
      <trkpt lat="46.75838" lon="-1.57068">
        <ele>60</ele>
        <time>2018-01-14T13:49:58Z</time>
      </trkpt>
      <trkpt lat="46.75822" lon="-1.56973">
        <ele>59</ele>
        <time>2018-01-14T13:50:58Z</time>
      </trkpt>
      <trkpt lat="46.75822" lon="-1.56973">
        <ele>59</ele>
        <time>2018-01-14T13:51:58Z</time>
      </trkpt>
      <trkpt lat="46.75818" lon="-1.56942">
        <ele>58</ele>
        <time>2018-01-14T13:52:58Z</time>
      </trkpt>
      <trkpt lat="46.75817" lon="-1.56913">
        <ele>58</ele>
        <time>2018-01-14T13:53:58Z</time>
      </trkpt>
      <trkpt lat="46.75817" lon="-1.56887">
        <ele>58</ele>
        <time>2018-01-14T13:54:58Z</time>
      </trkpt>
      <trkpt lat="46.7582" lon="-1.56854">
        <ele>59</ele>
        <time>2018-01-14T13:55:58Z</time>
      </trkpt>
      <trkpt lat="46.75826" lon="-1.56819">
        <ele>60</ele>
        <time>2018-01-14T13:56:58Z</time>
      </trkpt>
      <trkpt lat="46.75838" lon="-1.56769">
        <ele>60</ele>
        <time>2018-01-14T13:57:58Z</time>
      </trkpt>
      <trkpt lat="46.75851" lon="-1.56727">
        <ele>60</ele>
        <time>2018-01-14T13:58:58Z</time>
      </trkpt>
      <trkpt lat="46.75864" lon="-1.56678">
        <ele>61</ele>
        <time>2018-01-14T13:59:58Z</time>
      </trkpt>
      <trkpt lat="46.7587" lon="-1.56648">
        <ele>60</ele>
        <time>2018-01-14T14:00:58Z</time>
      </trkpt>
      <trkpt lat="46.75873" lon="-1.56622">
        <ele>60</ele>
        <time>2018-01-14T14:01:58Z</time>
      </trkpt>
      <trkpt lat="46.75875" lon="-1.56591">
        <ele>59</ele>
        <time>2018-01-14T14:02:58Z</time>
      </trkpt>
      <trkpt lat="46.75875" lon="-1.56554">
        <ele>59</ele>
        <time>2018-01-14T14:03:58Z</time>
      </trkpt>
      <trkpt lat="46.75877" lon="-1.56507">
        <ele>59</ele>
        <time>2018-01-14T14:04:58Z</time>
      </trkpt>
      <trkpt lat="46.7588" lon="-1.56486">
        <ele>60</ele>
        <time>2018-01-14T14:05:58Z</time>
      </trkpt>
      <trkpt lat="46.75889" lon="-1.56466">
        <ele>60</ele>
        <time>2018-01-14T14:06:58Z</time>
      </trkpt>
      <trkpt lat="46.75921" lon="-1.56407">
        <ele>61</ele>
        <time>2018-01-14T14:07:58Z</time>
      </trkpt>
      <trkpt lat="46.75954" lon="-1.56346">
        <ele>61</ele>
        <time>2018-01-14T14:08:58Z</time>
      </trkpt>
      <trkpt lat="46.75975" lon="-1.56312">
        <ele>60</ele>
        <time>2018-01-14T14:09:58Z</time>
      </trkpt>
      <trkpt lat="46.75987" lon="-1.56294">
        <ele>60</ele>
        <time>2018-01-14T14:10:58Z</time>
      </trkpt>
      <trkpt lat="46.76" lon="-1.56277">
        <ele>60</ele>
        <time>2018-01-14T14:11:58Z</time>
      </trkpt>
      <trkpt lat="46.7601" lon="-1.56263">
        <ele>60</ele>
        <time>2018-01-14T14:12:58Z</time>
      </trkpt>
      <trkpt lat="46.76019" lon="-1.56246">
        <ele>61</ele>
        <time>2018-01-14T14:13:58Z</time>
      </trkpt>
      <trkpt lat="46.76035" lon="-1.562">
        <ele>61</ele>
        <time>2018-01-14T14:14:58Z</time>
      </trkpt>
      <trkpt lat="46.76049" lon="-1.56156">
        <ele>62</ele>
        <time>2018-01-14T14:15:58Z</time>
      </trkpt>
      <trkpt lat="46.76052" lon="-1.56139">
        <ele>62</ele>
        <time>2018-01-14T14:16:58Z</time>
      </trkpt>
      <trkpt lat="46.76052" lon="-1.56125">
        <ele>62</ele>
        <time>2018-01-14T14:17:58Z</time>
      </trkpt>
      <trkpt lat="46.76046" lon="-1.56068">
        <ele>63</ele>
        <time>2018-01-14T14:18:58Z</time>
      </trkpt>
      <trkpt lat="46.76037" lon="-1.56005">
        <ele>65</ele>
        <time>2018-01-14T14:19:58Z</time>
      </trkpt>
      <trkpt lat="46.76029" lon="-1.55956">
        <ele>65</ele>
        <time>2018-01-14T14:20:58Z</time>
      </trkpt>
      <trkpt lat="46.76026" lon="-1.55941">
        <ele>65</ele>
        <time>2018-01-14T14:21:58Z</time>
      </trkpt>
      <trkpt lat="46.76002" lon="-1.55861">
        <ele>64</ele>
        <time>2018-01-14T14:22:58Z</time>
      </trkpt>
      <trkpt lat="46.75991" lon="-1.55817">
        <ele>64</ele>
        <time>2018-01-14T14:23:58Z</time>
      </trkpt>
      <trkpt lat="46.75983" lon="-1.55776">
        <ele>64</ele>
        <time>2018-01-14T14:24:58Z</time>
      </trkpt>
      <trkpt lat="46.75977" lon="-1.55735">
        <ele>64</ele>
        <time>2018-01-14T14:25:58Z</time>
      </trkpt>
      <trkpt lat="46.75976" lon="-1.55722">
        <ele>64</ele>
        <time>2018-01-14T14:26:58Z</time>
      </trkpt>
      <trkpt lat="46.75976" lon="-1.55713">
        <ele>64</ele>
        <time>2018-01-14T14:27:58Z</time>
      </trkpt>
      <trkpt lat="46.75978" lon="-1.557">
        <ele>65</ele>
        <time>2018-01-14T14:28:58Z</time>
      </trkpt>
      <trkpt lat="46.75984" lon="-1.55688">
        <ele>65</ele>
        <time>2018-01-14T14:29:58Z</time>
      </trkpt>
      <trkpt lat="46.75995" lon="-1.55681">
        <ele>65</ele>
        <time>2018-01-14T14:30:58Z</time>
      </trkpt>
      <trkpt lat="46.76014" lon="-1.55671">
        <ele>66</ele>
        <time>2018-01-14T14:31:58Z</time>
      </trkpt>
      <trkpt lat="46.76044" lon="-1.55659">
        <ele>66</ele>
        <time>2018-01-14T14:32:58Z</time>
      </trkpt>
      <trkpt lat="46.76106" lon="-1.55643">
        <ele>66</ele>
        <time>2018-01-14T14:33:58Z</time>
      </trkpt>
      <trkpt lat="46.76118" lon="-1.55642">
        <ele>66</ele>
        <time>2018-01-14T14:34:58Z</time>
      </trkpt>
      <trkpt lat="46.76129" lon="-1.55643">
        <ele>67</ele>
        <time>2018-01-14T14:35:58Z</time>
      </trkpt>
      <trkpt lat="46.76137" lon="-1.55644">
        <ele>67</ele>
        <time>2018-01-14T14:36:58Z</time>
      </trkpt>
      <trkpt lat="46.76145" lon="-1.55646">
        <ele>67</ele>
        <time>2018-01-14T14:37:58Z</time>
      </trkpt>
      <trkpt lat="46.76151" lon="-1.55647">
        <ele>67</ele>
        <time>2018-01-14T14:38:58Z</time>
      </trkpt>
      <trkpt lat="46.76157" lon="-1.55649">
        <ele>68</ele>
        <time>2018-01-14T14:39:58Z</time>
      </trkpt>
      <trkpt lat="46.76167" lon="-1.55654">
        <ele>68</ele>
        <time>2018-01-14T14:40:58Z</time>
      </trkpt>
      <trkpt lat="46.76173" lon="-1.55657">
        <ele>68</ele>
        <time>2018-01-14T14:41:58Z</time>
      </trkpt>
      <trkpt lat="46.76183" lon="-1.55663">
        <ele>68</ele>
        <time>2018-01-14T14:42:58Z</time>
      </trkpt>
      <trkpt lat="46.76195" lon="-1.5567">
        <ele>68</ele>
        <time>2018-01-14T14:43:58Z</time>
      </trkpt>
      <trkpt lat="46.76234" lon="-1.55695">
        <ele>69</ele>
        <time>2018-01-14T14:44:58Z</time>
      </trkpt>
      <trkpt lat="46.76289" lon="-1.55733">
        <ele>69</ele>
        <time>2018-01-14T14:45:58Z</time>
      </trkpt>
      <trkpt lat="46.76331" lon="-1.55756">
        <ele>69</ele>
        <time>2018-01-14T14:46:58Z</time>
      </trkpt>
      <trkpt lat="46.76366" lon="-1.55775">
        <ele>68</ele>
        <time>2018-01-14T14:47:58Z</time>
      </trkpt>
      <trkpt lat="46.7639" lon="-1.55791">
        <ele>67</ele>
        <time>2018-01-14T14:48:58Z</time>
      </trkpt>
      <trkpt lat="46.764" lon="-1.55799">
        <ele>67</ele>
        <time>2018-01-14T14:49:58Z</time>
      </trkpt>
      <trkpt lat="46.76418" lon="-1.55815">
        <ele>66</ele>
        <time>2018-01-14T14:50:58Z</time>
      </trkpt>
      <trkpt lat="46.76447" lon="-1.55844">
        <ele>66</ele>
        <time>2018-01-14T14:51:58Z</time>
      </trkpt>
      <trkpt lat="46.76471" lon="-1.55867">
        <ele>66</ele>
        <time>2018-01-14T14:52:58Z</time>
      </trkpt>
      <trkpt lat="46.76487" lon="-1.55878">
        <ele>65</ele>
        <time>2018-01-14T14:53:58Z</time>
      </trkpt>
      <trkpt lat="46.76503" lon="-1.55888">
        <ele>65</ele>
        <time>2018-01-14T14:54:58Z</time>
      </trkpt>
      <trkpt lat="46.76562" lon="-1.55922">
        <ele>66</ele>
        <time>2018-01-14T14:55:58Z</time>
      </trkpt>
      <trkpt lat="46.76636" lon="-1.55963">
        <ele>66</ele>
        <time>2018-01-14T14:56:58Z</time>
      </trkpt>
      <trkpt lat="46.76652" lon="-1.55972">
        <ele>65</ele>
        <time>2018-01-14T14:57:58Z</time>
      </trkpt>
      <trkpt lat="46.76668" lon="-1.5598">
        <ele>65</ele>
        <time>2018-01-14T14:58:58Z</time>
      </trkpt>
      <trkpt lat="46.7668" lon="-1.55986">
        <ele>65</ele>
        <time>2018-01-14T14:59:58Z</time>
      </trkpt>
      <trkpt lat="46.76691" lon="-1.55989">
        <ele>64</ele>
        <time>2018-01-14T15:00:58Z</time>
      </trkpt>
      <trkpt lat="46.76705" lon="-1.55992">
        <ele>64</ele>
        <time>2018-01-14T15:01:58Z</time>
      </trkpt>
      <trkpt lat="46.76715" lon="-1.55997">
        <ele>64</ele>
        <time>2018-01-14T15:02:58Z</time>
      </trkpt>
      <trkpt lat="46.76727" lon="-1.56006">
        <ele>64</ele>
        <time>2018-01-14T15:03:58Z</time>
      </trkpt>
      <trkpt lat="46.76743" lon="-1.5602">
        <ele>63</ele>
        <time>2018-01-14T15:04:58Z</time>
      </trkpt>
      <trkpt lat="46.76767" lon="-1.56041">
        <ele>63</ele>
        <time>2018-01-14T15:05:58Z</time>
      </trkpt>
      <trkpt lat="46.76781" lon="-1.56053">
        <ele>62</ele>
        <time>2018-01-14T15:06:58Z</time>
      </trkpt>
      <trkpt lat="46.76791" lon="-1.56063">
        <ele>62</ele>
        <time>2018-01-14T15:07:58Z</time>
      </trkpt>
      <trkpt lat="46.76802" lon="-1.56074">
        <ele>62</ele>
        <time>2018-01-14T15:08:58Z</time>
      </trkpt>
      <trkpt lat="46.76825" lon="-1.56102">
        <ele>61</ele>
        <time>2018-01-14T15:09:58Z</time>
      </trkpt>
      <trkpt lat="46.76857" lon="-1.56142">
        <ele>60</ele>
        <time>2018-01-14T15:10:58Z</time>
      </trkpt>
      <trkpt lat="46.76884" lon="-1.56173">
        <ele>59</ele>
        <time>2018-01-14T15:11:58Z</time>
      </trkpt>
      <trkpt lat="46.76909" lon="-1.56204">
        <ele>57</ele>
        <time>2018-01-14T15:12:58Z</time>
      </trkpt>
      <trkpt lat="46.76931" lon="-1.56233">
        <ele>56</ele>
        <time>2018-01-14T15:13:58Z</time>
      </trkpt>
      <trkpt lat="46.76982" lon="-1.56308">
        <ele>54</ele>
        <time>2018-01-14T15:14:58Z</time>
      </trkpt>
      <trkpt lat="46.77016" lon="-1.5636">
        <ele>55</ele>
        <time>2018-01-14T15:15:58Z</time>
      </trkpt>
      <trkpt lat="46.77056" lon="-1.56418">
        <ele>56</ele>
        <time>2018-01-14T15:16:58Z</time>
      </trkpt>
      <trkpt lat="46.7706" lon="-1.56423">
        <ele>56</ele>
        <time>2018-01-14T15:17:58Z</time>
      </trkpt>
      <trkpt lat="46.7706" lon="-1.56423">
        <ele>56</ele>
        <time>2018-01-14T15:18:58Z</time>
      </trkpt>
      <trkpt lat="46.77074" lon="-1.56443">
        <ele>56</ele>
        <time>2018-01-14T15:19:58Z</time>
      </trkpt>
      <trkpt lat="46.77086" lon="-1.56458">
        <ele>56</ele>
        <time>2018-01-14T15:20:58Z</time>
      </trkpt>
      <trkpt lat="46.771" lon="-1.56474">
        <ele>56</ele>
        <time>2018-01-14T15:21:58Z</time>
      </trkpt>
      <trkpt lat="46.77109" lon="-1.56482">
        <ele>56</ele>
        <time>2018-01-14T15:22:58Z</time>
      </trkpt>
      <trkpt lat="46.77117" lon="-1.56489">
        <ele>56</ele>
        <time>2018-01-14T15:23:58Z</time>
      </trkpt>
      <trkpt lat="46.77124" lon="-1.56494">
        <ele>56</ele>
        <time>2018-01-14T15:24:58Z</time>
      </trkpt>
      <trkpt lat="46.77132" lon="-1.56499">
        <ele>55</ele>
        <time>2018-01-14T15:25:58Z</time>
      </trkpt>
      <trkpt lat="46.77152" lon="-1.5651">
        <ele>55</ele>
        <time>2018-01-14T15:26:58Z</time>
      </trkpt>
      <trkpt lat="46.77163" lon="-1.56517">
        <ele>55</ele>
        <time>2018-01-14T15:27:58Z</time>
      </trkpt>
      <trkpt lat="46.77171" lon="-1.56524">
        <ele>55</ele>
        <time>2018-01-14T15:28:58Z</time>
      </trkpt>
      <trkpt lat="46.77179" lon="-1.56532">
        <ele>55</ele>
        <time>2018-01-14T15:29:58Z</time>
      </trkpt>
      <trkpt lat="46.77179" lon="-1.56532">
        <ele>55</ele>
        <time>2018-01-14T15:30:58Z</time>
      </trkpt>
      <trkpt lat="46.77182" lon="-1.56536">
        <ele>55</ele>
        <time>2018-01-14T15:31:58Z</time>
      </trkpt>
      <trkpt lat="46.77197" lon="-1.5656">
        <ele>55</ele>
        <time>2018-01-14T15:32:58Z</time>
      </trkpt>
      <trkpt lat="46.77207" lon="-1.56578">
        <ele>54</ele>
        <time>2018-01-14T15:33:58Z</time>
      </trkpt>
      <trkpt lat="46.77214" lon="-1.56592">
        <ele>54</ele>
        <time>2018-01-14T15:34:58Z</time>
      </trkpt>
      <trkpt lat="46.77219" lon="-1.56605">
        <ele>53</ele>
        <time>2018-01-14T15:35:58Z</time>
      </trkpt>
      <trkpt lat="46.77223" lon="-1.56617">
        <ele>53</ele>
        <time>2018-01-14T15:36:58Z</time>
      </trkpt>
      <trkpt lat="46.77226" lon="-1.56629">
        <ele>53</ele>
        <time>2018-01-14T15:37:58Z</time>
      </trkpt>
      <trkpt lat="46.77229" lon="-1.56644">
        <ele>52</ele>
        <time>2018-01-14T15:38:58Z</time>
      </trkpt>
      <trkpt lat="46.77232" lon="-1.56661">
        <ele>52</ele>
        <time>2018-01-14T15:39:58Z</time>
      </trkpt>
      <trkpt lat="46.77239" lon="-1.56715">
        <ele>51</ele>
        <time>2018-01-14T15:40:58Z</time>
      </trkpt>
      <trkpt lat="46.77246" lon="-1.56767">
        <ele>50</ele>
        <time>2018-01-14T15:41:58Z</time>
      </trkpt>
      <trkpt lat="46.77249" lon="-1.56794">
        <ele>50</ele>
        <time>2018-01-14T15:42:58Z</time>
      </trkpt>
      <trkpt lat="46.7725" lon="-1.56806">
        <ele>50</ele>
        <time>2018-01-14T15:43:58Z</time>
      </trkpt>
      <trkpt lat="46.77254" lon="-1.56838">
        <ele>50</ele>
        <time>2018-01-14T15:44:58Z</time>
      </trkpt>
      <trkpt lat="46.77255" lon="-1.56859">
        <ele>49</ele>
        <time>2018-01-14T15:45:58Z</time>
      </trkpt>
      <trkpt lat="46.77255" lon="-1.56878">
        <ele>49</ele>
        <time>2018-01-14T15:46:58Z</time>
      </trkpt>
      <trkpt lat="46.77253" lon="-1.56893">
        <ele>48</ele>
        <time>2018-01-14T15:47:58Z</time>
      </trkpt>
      <trkpt lat="46.77253" lon="-1.56893">
        <ele>48</ele>
        <time>2018-01-14T15:48:58Z</time>
      </trkpt>
      <trkpt lat="46.77259" lon="-1.56891">
        <ele>48</ele>
        <time>2018-01-14T15:49:58Z</time>
      </trkpt>
      <trkpt lat="46.77262" lon="-1.56889">
        <ele>48</ele>
        <time>2018-01-14T15:50:58Z</time>
      </trkpt>
      <trkpt lat="46.77266" lon="-1.56885">
        <ele>48</ele>
        <time>2018-01-14T15:51:58Z</time>
      </trkpt>
      <trkpt lat="46.77329" lon="-1.56777">
        <ele>46</ele>
        <time>2018-01-14T15:52:58Z</time>
      </trkpt>
      <trkpt lat="46.77353" lon="-1.56728">
        <ele>46</ele>
        <time>2018-01-14T15:53:58Z</time>
      </trkpt>
      <trkpt lat="46.77365" lon="-1.567">
        <ele>45</ele>
        <time>2018-01-14T15:54:58Z</time>
      </trkpt>
      <trkpt lat="46.77373" lon="-1.56682">
        <ele>44</ele>
        <time>2018-01-14T15:55:58Z</time>
      </trkpt>
      <trkpt lat="46.77379" lon="-1.56666">
        <ele>44</ele>
        <time>2018-01-14T15:56:58Z</time>
      </trkpt>
      <trkpt lat="46.77382" lon="-1.56657">
        <ele>44</ele>
        <time>2018-01-14T15:57:58Z</time>
      </trkpt>
      <trkpt lat="46.77383" lon="-1.56646">
        <ele>44</ele>
        <time>2018-01-14T15:58:58Z</time>
      </trkpt>
      <trkpt lat="46.77382" lon="-1.56636">
        <ele>44</ele>
        <time>2018-01-14T15:59:58Z</time>
      </trkpt>
      <trkpt lat="46.77382" lon="-1.56636">
        <ele>44</ele>
        <time>2018-01-14T16:00:58Z</time>
      </trkpt>
      <trkpt lat="46.77397" lon="-1.56639">
        <ele>43</ele>
        <time>2018-01-14T16:01:58Z</time>
      </trkpt>
      <trkpt lat="46.77412" lon="-1.56642">
        <ele>42</ele>
        <time>2018-01-14T16:02:58Z</time>
      </trkpt>
      <trkpt lat="46.77425" lon="-1.56643">
        <ele>42</ele>
        <time>2018-01-14T16:03:58Z</time>
      </trkpt>
      <trkpt lat="46.7745" lon="-1.56644">
        <ele>41</ele>
        <time>2018-01-14T16:04:58Z</time>
      </trkpt>
      <trkpt lat="46.77459" lon="-1.56644">
        <ele>40</ele>
        <time>2018-01-14T16:05:58Z</time>
      </trkpt>
      <trkpt lat="46.7747" lon="-1.56645">
        <ele>40</ele>
        <time>2018-01-14T16:06:58Z</time>
      </trkpt>
      <trkpt lat="46.77478" lon="-1.56648">
        <ele>39</ele>
        <time>2018-01-14T16:07:58Z</time>
      </trkpt>
      <trkpt lat="46.77488" lon="-1.56652">
        <ele>39</ele>
        <time>2018-01-14T16:08:58Z</time>
      </trkpt>
      <trkpt lat="46.77515" lon="-1.56668">
        <ele>38</ele>
        <time>2018-01-14T16:09:58Z</time>
      </trkpt>
      <trkpt lat="46.77556" lon="-1.56691">
        <ele>37</ele>
        <time>2018-01-14T16:10:58Z</time>
      </trkpt>
      <trkpt lat="46.7757" lon="-1.56699">
        <ele>36</ele>
        <time>2018-01-14T16:11:58Z</time>
      </trkpt>
      <trkpt lat="46.77579" lon="-1.56704">
        <ele>36</ele>
        <time>2018-01-14T16:12:58Z</time>
      </trkpt>
      <trkpt lat="46.77589" lon="-1.56708">
        <ele>35</ele>
        <time>2018-01-14T16:13:58Z</time>
      </trkpt>
      <trkpt lat="46.77598" lon="-1.56712">
        <ele>35</ele>
        <time>2018-01-14T16:14:58Z</time>
      </trkpt>
      <trkpt lat="46.77607" lon="-1.56715">
        <ele>34</ele>
        <time>2018-01-14T16:15:58Z</time>
      </trkpt>
      <trkpt lat="46.7762" lon="-1.56717">
        <ele>33</ele>
        <time>2018-01-14T16:16:58Z</time>
      </trkpt>
      <trkpt lat="46.77646" lon="-1.56721">
        <ele>32</ele>
        <time>2018-01-14T16:17:58Z</time>
      </trkpt>
      <trkpt lat="46.77682" lon="-1.56726">
        <ele>30</ele>
        <time>2018-01-14T16:18:58Z</time>
      </trkpt>
      <trkpt lat="46.77692" lon="-1.56728">
        <ele>30</ele>
        <time>2018-01-14T16:19:58Z</time>
      </trkpt>
      <trkpt lat="46.777" lon="-1.5673">
        <ele>30</ele>
        <time>2018-01-14T16:20:58Z</time>
      </trkpt>
      <trkpt lat="46.77705" lon="-1.56732">
        <ele>30</ele>
        <time>2018-01-14T16:21:58Z</time>
      </trkpt>
      <trkpt lat="46.7771" lon="-1.56734">
        <ele>29</ele>
        <time>2018-01-14T16:22:58Z</time>
      </trkpt>
      <trkpt lat="46.77715" lon="-1.56739">
        <ele>29</ele>
        <time>2018-01-14T16:23:58Z</time>
      </trkpt>
      <trkpt lat="46.7772" lon="-1.56743">
        <ele>29</ele>
        <time>2018-01-14T16:24:58Z</time>
      </trkpt>
      <trkpt lat="46.77725" lon="-1.56748">
        <ele>29</ele>
        <time>2018-01-14T16:25:58Z</time>
      </trkpt>
      <trkpt lat="46.77732" lon="-1.56755">
        <ele>28</ele>
        <time>2018-01-14T16:26:58Z</time>
      </trkpt>
      <trkpt lat="46.77743" lon="-1.5677">
        <ele>28</ele>
        <time>2018-01-14T16:27:58Z</time>
      </trkpt>
      <trkpt lat="46.77765" lon="-1.56801">
        <ele>27</ele>
        <time>2018-01-14T16:28:58Z</time>
      </trkpt>
      <trkpt lat="46.77772" lon="-1.5681">
        <ele>27</ele>
        <time>2018-01-14T16:29:58Z</time>
      </trkpt>
      <trkpt lat="46.77779" lon="-1.56818">
        <ele>26</ele>
        <time>2018-01-14T16:30:58Z</time>
      </trkpt>
      <trkpt lat="46.77785" lon="-1.56822">
        <ele>26</ele>
        <time>2018-01-14T16:31:58Z</time>
      </trkpt>
      <trkpt lat="46.77792" lon="-1.56827">
        <ele>26</ele>
        <time>2018-01-14T16:32:58Z</time>
      </trkpt>
      <trkpt lat="46.77797" lon="-1.56829">
        <ele>26</ele>
        <time>2018-01-14T16:33:58Z</time>
      </trkpt>
      <trkpt lat="46.77802" lon="-1.56831">
        <ele>26</ele>
        <time>2018-01-14T16:34:58Z</time>
      </trkpt>
      <trkpt lat="46.77806" lon="-1.56832">
        <ele>26</ele>
        <time>2018-01-14T16:35:58Z</time>
      </trkpt>
      <trkpt lat="46.77812" lon="-1.56834">
        <ele>26</ele>
        <time>2018-01-14T16:36:58Z</time>
      </trkpt>
      <trkpt lat="46.77817" lon="-1.56835">
        <ele>25</ele>
        <time>2018-01-14T16:37:58Z</time>
      </trkpt>
      <trkpt lat="46.77846" lon="-1.56841">
        <ele>27</ele>
        <time>2018-01-14T16:38:58Z</time>
      </trkpt>
      <trkpt lat="46.77866" lon="-1.56846">
        <ele>29</ele>
        <time>2018-01-14T16:39:58Z</time>
      </trkpt>
      <trkpt lat="46.77893" lon="-1.56854">
        <ele>33</ele>
        <time>2018-01-14T16:40:58Z</time>
      </trkpt>
      <trkpt lat="46.77915" lon="-1.5686">
        <ele>35</ele>
        <time>2018-01-14T16:41:58Z</time>
      </trkpt>
      <trkpt lat="46.77943" lon="-1.56868">
        <ele>38</ele>
        <time>2018-01-14T16:42:58Z</time>
      </trkpt>
      <trkpt lat="46.77963" lon="-1.56874">
        <ele>41</ele>
        <time>2018-01-14T16:43:58Z</time>
      </trkpt>
      <trkpt lat="46.7797" lon="-1.56876">
        <ele>41</ele>
        <time>2018-01-14T16:44:58Z</time>
      </trkpt>
      <trkpt lat="46.77977" lon="-1.56877">
        <ele>42</ele>
        <time>2018-01-14T16:45:58Z</time>
      </trkpt>
      <trkpt lat="46.77983" lon="-1.56878">
        <ele>43</ele>
        <time>2018-01-14T16:46:58Z</time>
      </trkpt>
      <trkpt lat="46.77989" lon="-1.56879">
        <ele>43</ele>
        <time>2018-01-14T16:47:58Z</time>
      </trkpt>
      <trkpt lat="46.77996" lon="-1.56879">
        <ele>44</ele>
        <time>2018-01-14T16:48:58Z</time>
      </trkpt>
      <trkpt lat="46.78004" lon="-1.56879">
        <ele>45</ele>
        <time>2018-01-14T16:49:58Z</time>
      </trkpt>
      <trkpt lat="46.78013" lon="-1.56879">
        <ele>45</ele>
        <time>2018-01-14T16:50:58Z</time>
      </trkpt>
      <trkpt lat="46.78022" lon="-1.56878">
        <ele>46</ele>
        <time>2018-01-14T16:51:58Z</time>
      </trkpt>
      <trkpt lat="46.78022" lon="-1.56878">
        <ele>46</ele>
        <time>2018-01-14T16:52:58Z</time>
      </trkpt>
      <trkpt lat="46.78025" lon="-1.56878">
        <ele>46</ele>
        <time>2018-01-14T16:53:58Z</time>
      </trkpt>
      <trkpt lat="46.78034" lon="-1.56876">
        <ele>47</ele>
        <time>2018-01-14T16:54:58Z</time>
      </trkpt>
      <trkpt lat="46.78043" lon="-1.56875">
        <ele>47</ele>
        <time>2018-01-14T16:55:58Z</time>
      </trkpt>
      <trkpt lat="46.78062" lon="-1.5687">
        <ele>49</ele>
        <time>2018-01-14T16:56:58Z</time>
      </trkpt>
      <trkpt lat="46.78095" lon="-1.56861">
        <ele>51</ele>
        <time>2018-01-14T16:57:58Z</time>
      </trkpt>
      <trkpt lat="46.78107" lon="-1.56858">
        <ele>52</ele>
        <time>2018-01-14T16:58:58Z</time>
      </trkpt>
      <trkpt lat="46.78117" lon="-1.56855">
        <ele>52</ele>
        <time>2018-01-14T16:59:58Z</time>
      </trkpt>
      <trkpt lat="46.78126" lon="-1.56854">
        <ele>53</ele>
        <time>2018-01-14T17:00:58Z</time>
      </trkpt>
      <trkpt lat="46.78138" lon="-1.56852">
        <ele>53</ele>
        <time>2018-01-14T17:01:58Z</time>
      </trkpt>
      <trkpt lat="46.78151" lon="-1.5685">
        <ele>54</ele>
        <time>2018-01-14T17:02:58Z</time>
      </trkpt>
      <trkpt lat="46.78161" lon="-1.5685">
        <ele>55</ele>
        <time>2018-01-14T17:03:58Z</time>
      </trkpt>
      <trkpt lat="46.78185" lon="-1.56849">
        <ele>55</ele>
        <time>2018-01-14T17:04:58Z</time>
      </trkpt>
      <trkpt lat="46.7821" lon="-1.56847">
        <ele>54</ele>
        <time>2018-01-14T17:05:58Z</time>
      </trkpt>
      <trkpt lat="46.78249" lon="-1.56845">
        <ele>54</ele>
        <time>2018-01-14T17:06:58Z</time>
      </trkpt>
      <trkpt lat="46.78287" lon="-1.56843">
        <ele>53</ele>
        <time>2018-01-14T17:07:58Z</time>
      </trkpt>
      <trkpt lat="46.78295" lon="-1.56842">
        <ele>53</ele>
        <time>2018-01-14T17:08:58Z</time>
      </trkpt>
      <trkpt lat="46.78299" lon="-1.56841">
        <ele>53</ele>
        <time>2018-01-14T17:09:58Z</time>
      </trkpt>
      <trkpt lat="46.78301" lon="-1.56841">
        <ele>53</ele>
        <time>2018-01-14T17:10:58Z</time>
      </trkpt>
      <trkpt lat="46.78304" lon="-1.5684">
        <ele>53</ele>
        <time>2018-01-14T17:11:58Z</time>
      </trkpt>
      <trkpt lat="46.78305" lon="-1.56839">
        <ele>53</ele>
        <time>2018-01-14T17:12:58Z</time>
      </trkpt>
      <trkpt lat="46.78307" lon="-1.56837">
        <ele>53</ele>
        <time>2018-01-14T17:13:58Z</time>
      </trkpt>
      <trkpt lat="46.7831" lon="-1.56834">
        <ele>53</ele>
        <time>2018-01-14T17:14:58Z</time>
      </trkpt>
      <trkpt lat="46.78312" lon="-1.5683">
        <ele>53</ele>
        <time>2018-01-14T17:15:58Z</time>
      </trkpt>
      <trkpt lat="46.78314" lon="-1.56825">
        <ele>53</ele>
        <time>2018-01-14T17:16:58Z</time>
      </trkpt>
      <trkpt lat="46.78316" lon="-1.56819">
        <ele>53</ele>
        <time>2018-01-14T17:17:58Z</time>
      </trkpt>
      <trkpt lat="46.78319" lon="-1.5681">
        <ele>53</ele>
        <time>2018-01-14T17:18:58Z</time>
      </trkpt>
      <trkpt lat="46.78322" lon="-1.56798">
        <ele>53</ele>
        <time>2018-01-14T17:19:58Z</time>
      </trkpt>
      <trkpt lat="46.78326" lon="-1.56782">
        <ele>53</ele>
        <time>2018-01-14T17:20:58Z</time>
      </trkpt>
      <trkpt lat="46.78328" lon="-1.56777">
        <ele>53</ele>
        <time>2018-01-14T17:21:58Z</time>
      </trkpt>
      <trkpt lat="46.7833" lon="-1.56773">
        <ele>53</ele>
        <time>2018-01-14T17:22:58Z</time>
      </trkpt>
      <trkpt lat="46.78332" lon="-1.56769">
        <ele>53</ele>
        <time>2018-01-14T17:23:58Z</time>
      </trkpt>
      <trkpt lat="46.78334" lon="-1.56767">
        <ele>53</ele>
        <time>2018-01-14T17:24:58Z</time>
      </trkpt>
      <trkpt lat="46.78337" lon="-1.56765">
        <ele>53</ele>
        <time>2018-01-14T17:25:58Z</time>
      </trkpt>
      <trkpt lat="46.78339" lon="-1.56764">
        <ele>53</ele>
        <time>2018-01-14T17:26:58Z</time>
      </trkpt>
      <trkpt lat="46.78342" lon="-1.56764">
        <ele>53</ele>
        <time>2018-01-14T17:27:58Z</time>
      </trkpt>
      <trkpt lat="46.78344" lon="-1.56764">
        <ele>53</ele>
        <time>2018-01-14T17:28:58Z</time>
      </trkpt>
      <trkpt lat="46.78347" lon="-1.56764">
        <ele>53</ele>
        <time>2018-01-14T17:29:58Z</time>
      </trkpt>
      <trkpt lat="46.78353" lon="-1.56766">
        <ele>53</ele>
        <time>2018-01-14T17:30:58Z</time>
      </trkpt>
      <trkpt lat="46.78359" lon="-1.56768">
        <ele>53</ele>
        <time>2018-01-14T17:31:58Z</time>
      </trkpt>
      <trkpt lat="46.7838" lon="-1.56774">
        <ele>53</ele>
        <time>2018-01-14T17:32:58Z</time>
      </trkpt>
      <trkpt lat="46.78403" lon="-1.56781">
        <ele>53</ele>
        <time>2018-01-14T17:33:58Z</time>
      </trkpt>
      <trkpt lat="46.78407" lon="-1.56782">
        <ele>53</ele>
        <time>2018-01-14T17:34:58Z</time>
      </trkpt>
      <trkpt lat="46.7841" lon="-1.56783">
        <ele>53</ele>
        <time>2018-01-14T17:35:58Z</time>
      </trkpt>
      <trkpt lat="46.78414" lon="-1.56783">
        <ele>53</ele>
        <time>2018-01-14T17:36:58Z</time>
      </trkpt>
      <trkpt lat="46.78419" lon="-1.56783">
        <ele>54</ele>
        <time>2018-01-14T17:37:58Z</time>
      </trkpt>
      <trkpt lat="46.78423" lon="-1.56782">
        <ele>54</ele>
        <time>2018-01-14T17:38:58Z</time>
      </trkpt>
      <trkpt lat="46.78427" lon="-1.56781">
        <ele>54</ele>
        <time>2018-01-14T17:39:58Z</time>
      </trkpt>
      <trkpt lat="46.78431" lon="-1.56779">
        <ele>54</ele>
        <time>2018-01-14T17:40:58Z</time>
      </trkpt>
      <trkpt lat="46.78445" lon="-1.56771">
        <ele>55</ele>
        <time>2018-01-14T17:41:58Z</time>
      </trkpt>
      <trkpt lat="46.78471" lon="-1.56755">
        <ele>56</ele>
        <time>2018-01-14T17:42:58Z</time>
      </trkpt>
      <trkpt lat="46.78495" lon="-1.56739">
        <ele>58</ele>
        <time>2018-01-14T17:43:58Z</time>
      </trkpt>
      <trkpt lat="46.78531" lon="-1.56717">
        <ele>59</ele>
        <time>2018-01-14T17:44:58Z</time>
      </trkpt>
      <trkpt lat="46.78538" lon="-1.56712">
        <ele>59</ele>
        <time>2018-01-14T17:45:58Z</time>
      </trkpt>
      <trkpt lat="46.78545" lon="-1.56706">
        <ele>59</ele>
        <time>2018-01-14T17:46:58Z</time>
      </trkpt>
      <trkpt lat="46.78553" lon="-1.56699">
        <ele>60</ele>
        <time>2018-01-14T17:47:58Z</time>
      </trkpt>
      <trkpt lat="46.7856" lon="-1.56693">
        <ele>60</ele>
        <time>2018-01-14T17:48:58Z</time>
      </trkpt>
      <trkpt lat="46.78566" lon="-1.56687">
        <ele>60</ele>
        <time>2018-01-14T17:49:58Z</time>
      </trkpt>
      <trkpt lat="46.78571" lon="-1.56682">
        <ele>60</ele>
        <time>2018-01-14T17:50:58Z</time>
      </trkpt>
      <trkpt lat="46.78576" lon="-1.56676">
        <ele>61</ele>
        <time>2018-01-14T17:51:58Z</time>
      </trkpt>
      <trkpt lat="46.78581" lon="-1.5667">
        <ele>61</ele>
        <time>2018-01-14T17:52:58Z</time>
      </trkpt>
      <trkpt lat="46.78593" lon="-1.56655">
        <ele>61</ele>
        <time>2018-01-14T17:53:58Z</time>
      </trkpt>
      <trkpt lat="46.78606" lon="-1.5664">
        <ele>61</ele>
        <time>2018-01-14T17:54:58Z</time>
      </trkpt>
      <trkpt lat="46.78617" lon="-1.56629">
        <ele>61</ele>
        <time>2018-01-14T17:55:58Z</time>
      </trkpt>
      <trkpt lat="46.78623" lon="-1.56624">
        <ele>62</ele>
        <time>2018-01-14T17:56:58Z</time>
      </trkpt>
      <trkpt lat="46.78628" lon="-1.5662">
        <ele>62</ele>
        <time>2018-01-14T17:57:58Z</time>
      </trkpt>
      <trkpt lat="46.78633" lon="-1.56617">
        <ele>62</ele>
        <time>2018-01-14T17:58:58Z</time>
      </trkpt>
      <trkpt lat="46.78637" lon="-1.56615">
        <ele>62</ele>
        <time>2018-01-14T17:59:58Z</time>
      </trkpt>
      <trkpt lat="46.78644" lon="-1.56612">
        <ele>62</ele>
        <time>2018-01-14T18:00:58Z</time>
      </trkpt>
      <trkpt lat="46.78653" lon="-1.56609">
        <ele>63</ele>
        <time>2018-01-14T18:01:58Z</time>
      </trkpt>
      <trkpt lat="46.78687" lon="-1.566">
        <ele>63</ele>
        <time>2018-01-14T18:02:58Z</time>
      </trkpt>
      <trkpt lat="46.78722" lon="-1.5659">
        <ele>63</ele>
        <time>2018-01-14T18:03:58Z</time>
      </trkpt>
      <trkpt lat="46.7875" lon="-1.56583">
        <ele>63</ele>
        <time>2018-01-14T18:04:58Z</time>
      </trkpt>
      <trkpt lat="46.78759" lon="-1.56581">
        <ele>63</ele>
        <time>2018-01-14T18:05:58Z</time>
      </trkpt>
      <trkpt lat="46.78766" lon="-1.56581">
        <ele>64</ele>
        <time>2018-01-14T18:06:58Z</time>
      </trkpt>
      <trkpt lat="46.78772" lon="-1.5658">
        <ele>64</ele>
        <time>2018-01-14T18:07:58Z</time>
      </trkpt>
      <trkpt lat="46.78782" lon="-1.5658">
        <ele>64</ele>
        <time>2018-01-14T18:08:58Z</time>
      </trkpt>
      <trkpt lat="46.7879" lon="-1.5658">
        <ele>65</ele>
        <time>2018-01-14T18:09:58Z</time>
      </trkpt>
      <trkpt lat="46.78851" lon="-1.56582">
        <ele>67</ele>
        <time>2018-01-14T18:10:58Z</time>
      </trkpt>
      <trkpt lat="46.78865" lon="-1.56582">
        <ele>67</ele>
        <time>2018-01-14T18:11:58Z</time>
      </trkpt>
      <trkpt lat="46.78917" lon="-1.56581">
        <ele>68</ele>
        <time>2018-01-14T18:12:58Z</time>
      </trkpt>
      <trkpt lat="46.78949" lon="-1.56579">
        <ele>68</ele>
        <time>2018-01-14T18:13:58Z</time>
      </trkpt>
      <trkpt lat="46.78949" lon="-1.56579">
        <ele>68</ele>
        <time>2018-01-14T18:14:58Z</time>
      </trkpt>
      <trkpt lat="46.78959" lon="-1.5662">
        <ele>67</ele>
        <time>2018-01-14T18:15:58Z</time>
      </trkpt>
      <trkpt lat="46.78974" lon="-1.56678">
        <ele>67</ele>
        <time>2018-01-14T18:16:58Z</time>
      </trkpt>
      <trkpt lat="46.7899" lon="-1.56743">
        <ele>66</ele>
        <time>2018-01-14T18:17:58Z</time>
      </trkpt>
      <trkpt lat="46.79008" lon="-1.56811">
        <ele>65</ele>
        <time>2018-01-14T18:18:58Z</time>
      </trkpt>
      <trkpt lat="46.79021" lon="-1.56863">
        <ele>64</ele>
        <time>2018-01-14T18:19:58Z</time>
      </trkpt>
      <trkpt lat="46.79036" lon="-1.56922">
        <ele>64</ele>
        <time>2018-01-14T18:20:58Z</time>
      </trkpt>
      <trkpt lat="46.79048" lon="-1.56969">
        <ele>64</ele>
        <time>2018-01-14T18:21:58Z</time>
      </trkpt>
      <trkpt lat="46.79061" lon="-1.57021">
        <ele>63</ele>
        <time>2018-01-14T18:22:58Z</time>
      </trkpt>
      <trkpt lat="46.79084" lon="-1.57111">
        <ele>63</ele>
        <time>2018-01-14T18:23:58Z</time>
      </trkpt>
      <trkpt lat="46.79104" lon="-1.5719">
        <ele>62</ele>
        <time>2018-01-14T18:24:58Z</time>
      </trkpt>
      <trkpt lat="46.79116" lon="-1.57238">
        <ele>63</ele>
        <time>2018-01-14T18:25:58Z</time>
      </trkpt>
      <trkpt lat="46.79139" lon="-1.57324">
        <ele>63</ele>
        <time>2018-01-14T18:26:58Z</time>
      </trkpt>
      <trkpt lat="46.79151" lon="-1.57369">
        <ele>63</ele>
        <time>2018-01-14T18:27:58Z</time>
      </trkpt>
      <trkpt lat="46.79162" lon="-1.57405">
        <ele>63</ele>
        <time>2018-01-14T18:28:58Z</time>
      </trkpt>
      <trkpt lat="46.79175" lon="-1.57445">
        <ele>63</ele>
        <time>2018-01-14T18:29:58Z</time>
      </trkpt>
      <trkpt lat="46.79186" lon="-1.57474">
        <ele>63</ele>
        <time>2018-01-14T18:30:58Z</time>
      </trkpt>
      <trkpt lat="46.79195" lon="-1.57496">
        <ele>63</ele>
        <time>2018-01-14T18:31:58Z</time>
      </trkpt>
      <trkpt lat="46.79203" lon="-1.57515">
        <ele>63</ele>
        <time>2018-01-14T18:32:58Z</time>
      </trkpt>
      <trkpt lat="46.79211" lon="-1.57531">
        <ele>62</ele>
        <time>2018-01-14T18:33:58Z</time>
      </trkpt>
      <trkpt lat="46.79221" lon="-1.5755">
        <ele>62</ele>
        <time>2018-01-14T18:34:58Z</time>
      </trkpt>
      <trkpt lat="46.79229" lon="-1.57565">
        <ele>62</ele>
        <time>2018-01-14T18:35:58Z</time>
      </trkpt>
      <trkpt lat="46.79241" lon="-1.57585">
        <ele>61</ele>
        <time>2018-01-14T18:36:58Z</time>
      </trkpt>
      <trkpt lat="46.79253" lon="-1.57603">
        <ele>61</ele>
        <time>2018-01-14T18:37:58Z</time>
      </trkpt>
      <trkpt lat="46.79277" lon="-1.57639">
        <ele>61</ele>
        <time>2018-01-14T18:38:58Z</time>
      </trkpt>
      <trkpt lat="46.79328" lon="-1.57708">
        <ele>61</ele>
        <time>2018-01-14T18:39:58Z</time>
      </trkpt>
      <trkpt lat="46.79332" lon="-1.57712">
        <ele>61</ele>
        <time>2018-01-14T18:40:58Z</time>
      </trkpt>
      <trkpt lat="46.79482" lon="-1.57909">
        <ele>57</ele>
        <time>2018-01-14T18:41:58Z</time>
      </trkpt>
      <trkpt lat="46.79536" lon="-1.5798">
        <ele>57</ele>
        <time>2018-01-14T18:42:58Z</time>
      </trkpt>
      <trkpt lat="46.79558" lon="-1.58009">
        <ele>58</ele>
        <time>2018-01-14T18:43:58Z</time>
      </trkpt>
      <trkpt lat="46.79577" lon="-1.58033">
        <ele>58</ele>
        <time>2018-01-14T18:44:58Z</time>
      </trkpt>
      <trkpt lat="46.79642" lon="-1.58118">
        <ele>59</ele>
        <time>2018-01-14T18:45:58Z</time>
      </trkpt>
      <trkpt lat="46.7968" lon="-1.5817">
        <ele>59</ele>
        <time>2018-01-14T18:46:58Z</time>
      </trkpt>
      <trkpt lat="46.79697" lon="-1.58192">
        <ele>59</ele>
        <time>2018-01-14T18:47:58Z</time>
      </trkpt>
      <trkpt lat="46.79735" lon="-1.58242">
        <ele>59</ele>
        <time>2018-01-14T18:48:58Z</time>
      </trkpt>
      <trkpt lat="46.79772" lon="-1.58293">
        <ele>59</ele>
        <time>2018-01-14T18:49:58Z</time>
      </trkpt>
      <trkpt lat="46.79778" lon="-1.58302">
        <ele>59</ele>
        <time>2018-01-14T18:50:58Z</time>
      </trkpt>
      <trkpt lat="46.79789" lon="-1.5832">
        <ele>60</ele>
        <time>2018-01-14T18:51:58Z</time>
      </trkpt>
      <trkpt lat="46.79795" lon="-1.58331">
        <ele>60</ele>
        <time>2018-01-14T18:52:58Z</time>
      </trkpt>
      <trkpt lat="46.79802" lon="-1.58345">
        <ele>60</ele>
        <time>2018-01-14T18:53:58Z</time>
      </trkpt>
      <trkpt lat="46.79807" lon="-1.58357">
        <ele>60</ele>
        <time>2018-01-14T18:54:58Z</time>
      </trkpt>
      <trkpt lat="46.79812" lon="-1.5837">
        <ele>61</ele>
        <time>2018-01-14T18:55:58Z</time>
      </trkpt>
      <trkpt lat="46.79815" lon="-1.58382">
        <ele>61</ele>
        <time>2018-01-14T18:56:58Z</time>
      </trkpt>
      <trkpt lat="46.79818" lon="-1.58393">
        <ele>61</ele>
        <time>2018-01-14T18:57:58Z</time>
      </trkpt>
      <trkpt lat="46.79819" lon="-1.58399">
        <ele>61</ele>
        <time>2018-01-14T18:58:58Z</time>
      </trkpt>
      <trkpt lat="46.79821" lon="-1.58406">
        <ele>62</ele>
        <time>2018-01-14T18:59:58Z</time>
      </trkpt>
      <trkpt lat="46.79822" lon="-1.58416">
        <ele>62</ele>
        <time>2018-01-14T19:00:58Z</time>
      </trkpt>
      <trkpt lat="46.79824" lon="-1.58425">
        <ele>62</ele>
        <time>2018-01-14T19:01:58Z</time>
      </trkpt>
      <trkpt lat="46.79824" lon="-1.58431">
        <ele>62</ele>
        <time>2018-01-14T19:02:58Z</time>
      </trkpt>
      <trkpt lat="46.79825" lon="-1.58438">
        <ele>62</ele>
        <time>2018-01-14T19:03:58Z</time>
      </trkpt>
      <trkpt lat="46.79826" lon="-1.58449">
        <ele>62</ele>
        <time>2018-01-14T19:04:58Z</time>
      </trkpt>
      <trkpt lat="46.79826" lon="-1.58451">
        <ele>62</ele>
        <time>2018-01-14T19:05:58Z</time>
      </trkpt>
      <trkpt lat="46.79826" lon="-1.58462">
        <ele>62</ele>
        <time>2018-01-14T19:06:58Z</time>
      </trkpt>
      <trkpt lat="46.79827" lon="-1.58475">
        <ele>63</ele>
        <time>2018-01-14T19:07:58Z</time>
      </trkpt>
      <trkpt lat="46.79827" lon="-1.58488">
        <ele>63</ele>
        <time>2018-01-14T19:08:58Z</time>
      </trkpt>
      <trkpt lat="46.79826" lon="-1.58509">
        <ele>63</ele>
        <time>2018-01-14T19:09:58Z</time>
      </trkpt>
      <trkpt lat="46.79826" lon="-1.58547">
        <ele>63</ele>
        <time>2018-01-14T19:10:58Z</time>
      </trkpt>
      <trkpt lat="46.79824" lon="-1.58616">
        <ele>63</ele>
        <time>2018-01-14T19:11:58Z</time>
      </trkpt>
      <trkpt lat="46.79823" lon="-1.58663">
        <ele>63</ele>
        <time>2018-01-14T19:12:58Z</time>
      </trkpt>
      <trkpt lat="46.79821" lon="-1.58737">
        <ele>64</ele>
        <time>2018-01-14T19:13:58Z</time>
      </trkpt>
      <trkpt lat="46.7982" lon="-1.58791">
        <ele>63</ele>
        <time>2018-01-14T19:14:58Z</time>
      </trkpt>
      <trkpt lat="46.7982" lon="-1.58814">
        <ele>63</ele>
        <time>2018-01-14T19:15:58Z</time>
      </trkpt>
      <trkpt lat="46.7982" lon="-1.5883">
        <ele>63</ele>
        <time>2018-01-14T19:16:58Z</time>
      </trkpt>
      <trkpt lat="46.7982" lon="-1.58846">
        <ele>63</ele>
        <time>2018-01-14T19:17:58Z</time>
      </trkpt>
      <trkpt lat="46.79821" lon="-1.58862">
        <ele>62</ele>
        <time>2018-01-14T19:18:58Z</time>
      </trkpt>
      <trkpt lat="46.79823" lon="-1.58877">
        <ele>62</ele>
        <time>2018-01-14T19:19:58Z</time>
      </trkpt>
      <trkpt lat="46.79825" lon="-1.58907">
        <ele>62</ele>
        <time>2018-01-14T19:20:58Z</time>
      </trkpt>
      <trkpt lat="46.79828" lon="-1.58935">
        <ele>62</ele>
        <time>2018-01-14T19:21:58Z</time>
      </trkpt>
      <trkpt lat="46.79828" lon="-1.5894">
        <ele>62</ele>
        <time>2018-01-14T19:22:58Z</time>
      </trkpt>
      <trkpt lat="46.7983" lon="-1.58957">
        <ele>62</ele>
        <time>2018-01-14T19:23:58Z</time>
      </trkpt>
      <trkpt lat="46.79833" lon="-1.58977">
        <ele>62</ele>
        <time>2018-01-14T19:24:58Z</time>
      </trkpt>
      <trkpt lat="46.79836" lon="-1.58994">
        <ele>62</ele>
        <time>2018-01-14T19:25:58Z</time>
      </trkpt>
      <trkpt lat="46.79839" lon="-1.59014">
        <ele>62</ele>
        <time>2018-01-14T19:26:58Z</time>
      </trkpt>
      <trkpt lat="46.79843" lon="-1.59032">
        <ele>62</ele>
        <time>2018-01-14T19:27:58Z</time>
      </trkpt>
      <trkpt lat="46.79846" lon="-1.59048">
        <ele>62</ele>
        <time>2018-01-14T19:28:58Z</time>
      </trkpt>
      <trkpt lat="46.79849" lon="-1.59064">
        <ele>62</ele>
        <time>2018-01-14T19:29:58Z</time>
      </trkpt>
      <trkpt lat="46.79852" lon="-1.5908">
        <ele>62</ele>
        <time>2018-01-14T19:30:58Z</time>
      </trkpt>
      <trkpt lat="46.79857" lon="-1.59097">
        <ele>61</ele>
        <time>2018-01-14T19:31:58Z</time>
      </trkpt>
      <trkpt lat="46.79859" lon="-1.59106">
        <ele>61</ele>
        <time>2018-01-14T19:32:58Z</time>
      </trkpt>
      <trkpt lat="46.79863" lon="-1.59122">
        <ele>61</ele>
        <time>2018-01-14T19:33:58Z</time>
      </trkpt>
      <trkpt lat="46.79868" lon="-1.59139">
        <ele>60</ele>
        <time>2018-01-14T19:34:58Z</time>
      </trkpt>
      <trkpt lat="46.79873" lon="-1.59157">
        <ele>60</ele>
        <time>2018-01-14T19:35:58Z</time>
      </trkpt>
      <trkpt lat="46.79879" lon="-1.59178">
        <ele>60</ele>
        <time>2018-01-14T19:36:58Z</time>
      </trkpt>
      <trkpt lat="46.79886" lon="-1.59199">
        <ele>60</ele>
        <time>2018-01-14T19:37:58Z</time>
      </trkpt>
      <trkpt lat="46.79894" lon="-1.59222">
        <ele>59</ele>
        <time>2018-01-14T19:38:58Z</time>
      </trkpt>
      <trkpt lat="46.79901" lon="-1.59244">
        <ele>59</ele>
        <time>2018-01-14T19:39:58Z</time>
      </trkpt>
      <trkpt lat="46.79908" lon="-1.59265">
        <ele>59</ele>
        <time>2018-01-14T19:40:58Z</time>
      </trkpt>
      <trkpt lat="46.79915" lon="-1.59288">
        <ele>59</ele>
        <time>2018-01-14T19:41:58Z</time>
      </trkpt>
      <trkpt lat="46.79921" lon="-1.59307">
        <ele>60</ele>
        <time>2018-01-14T19:42:58Z</time>
      </trkpt>
      <trkpt lat="46.79929" lon="-1.5933">
        <ele>60</ele>
        <time>2018-01-14T19:43:58Z</time>
      </trkpt>
      <trkpt lat="46.79935" lon="-1.59349">
        <ele>60</ele>
        <time>2018-01-14T19:44:58Z</time>
      </trkpt>
      <trkpt lat="46.79942" lon="-1.59366">
        <ele>60</ele>
        <time>2018-01-14T19:45:58Z</time>
      </trkpt>
      <trkpt lat="46.7995" lon="-1.59386">
        <ele>60</ele>
        <time>2018-01-14T19:46:58Z</time>
      </trkpt>
      <trkpt lat="46.7996" lon="-1.59411">
        <ele>60</ele>
        <time>2018-01-14T19:47:58Z</time>
      </trkpt>
      <trkpt lat="46.79969" lon="-1.59433">
        <ele>60</ele>
        <time>2018-01-14T19:48:58Z</time>
      </trkpt>
      <trkpt lat="46.79978" lon="-1.59455">
        <ele>60</ele>
        <time>2018-01-14T19:49:58Z</time>
      </trkpt>
      <trkpt lat="46.79984" lon="-1.59468">
        <ele>60</ele>
        <time>2018-01-14T19:50:58Z</time>
      </trkpt>
      <trkpt lat="46.79991" lon="-1.59483">
        <ele>60</ele>
        <time>2018-01-14T19:51:58Z</time>
      </trkpt>
      <trkpt lat="46.79998" lon="-1.59499">
        <ele>60</ele>
        <time>2018-01-14T19:52:58Z</time>
      </trkpt>
      <trkpt lat="46.80023" lon="-1.5955">
        <ele>59</ele>
        <time>2018-01-14T19:53:58Z</time>
      </trkpt>
      <trkpt lat="46.80074" lon="-1.59651">
        <ele>56</ele>
        <time>2018-01-14T19:54:58Z</time>
      </trkpt>
      <trkpt lat="46.80158" lon="-1.5982">
        <ele>51</ele>
        <time>2018-01-14T19:55:58Z</time>
      </trkpt>
      <trkpt lat="46.80184" lon="-1.59874">
        <ele>50</ele>
        <time>2018-01-14T19:56:58Z</time>
      </trkpt>
      <trkpt lat="46.80204" lon="-1.59918">
        <ele>49</ele>
        <time>2018-01-14T19:57:58Z</time>
      </trkpt>
      <trkpt lat="46.80222" lon="-1.59961">
        <ele>49</ele>
        <time>2018-01-14T19:58:58Z</time>
      </trkpt>
      <trkpt lat="46.80239" lon="-1.6">
        <ele>48</ele>
        <time>2018-01-14T19:59:58Z</time>
      </trkpt>
      <trkpt lat="46.80255" lon="-1.60039">
        <ele>47</ele>
        <time>2018-01-14T20:00:58Z</time>
      </trkpt>
      <trkpt lat="46.80288" lon="-1.60117">
        <ele>44</ele>
        <time>2018-01-14T20:01:58Z</time>
      </trkpt>
      <trkpt lat="46.80304" lon="-1.60155">
        <ele>44</ele>
        <time>2018-01-14T20:02:58Z</time>
      </trkpt>
      <trkpt lat="46.80324" lon="-1.60201">
        <ele>42</ele>
        <time>2018-01-14T20:03:58Z</time>
      </trkpt>
      <trkpt lat="46.80342" lon="-1.60244">
        <ele>40</ele>
        <time>2018-01-14T20:04:58Z</time>
      </trkpt>
      <trkpt lat="46.80351" lon="-1.60265">
        <ele>39</ele>
        <time>2018-01-14T20:05:58Z</time>
      </trkpt>
      <trkpt lat="46.8037" lon="-1.60314">
        <ele>39</ele>
        <time>2018-01-14T20:06:58Z</time>
      </trkpt>
      <trkpt lat="46.80371" lon="-1.60317">
        <ele>39</ele>
        <time>2018-01-14T20:07:58Z</time>
      </trkpt>
      <trkpt lat="46.8038" lon="-1.60341">
        <ele>38</ele>
        <time>2018-01-14T20:08:58Z</time>
      </trkpt>
      <trkpt lat="46.80386" lon="-1.60357">
        <ele>38</ele>
        <time>2018-01-14T20:09:58Z</time>
      </trkpt>
      <trkpt lat="46.8039" lon="-1.60368">
        <ele>38</ele>
        <time>2018-01-14T20:10:58Z</time>
      </trkpt>
      <trkpt lat="46.80394" lon="-1.60381">
        <ele>37</ele>
        <time>2018-01-14T20:11:58Z</time>
      </trkpt>
      <trkpt lat="46.80399" lon="-1.60396">
        <ele>37</ele>
        <time>2018-01-14T20:12:58Z</time>
      </trkpt>
      <trkpt lat="46.80402" lon="-1.6041">
        <ele>37</ele>
        <time>2018-01-14T20:13:58Z</time>
      </trkpt>
      <trkpt lat="46.80405" lon="-1.60425">
        <ele>37</ele>
        <time>2018-01-14T20:14:58Z</time>
      </trkpt>
      <trkpt lat="46.80408" lon="-1.60438">
        <ele>37</ele>
        <time>2018-01-14T20:15:58Z</time>
      </trkpt>
      <trkpt lat="46.8041" lon="-1.60447">
        <ele>37</ele>
        <time>2018-01-14T20:16:58Z</time>
      </trkpt>
      <trkpt lat="46.80411" lon="-1.60456">
        <ele>36</ele>
        <time>2018-01-14T20:17:58Z</time>
      </trkpt>
      <trkpt lat="46.80413" lon="-1.60467">
        <ele>36</ele>
        <time>2018-01-14T20:18:58Z</time>
      </trkpt>
      <trkpt lat="46.80414" lon="-1.6048">
        <ele>36</ele>
        <time>2018-01-14T20:19:58Z</time>
      </trkpt>
      <trkpt lat="46.80415" lon="-1.60493">
        <ele>36</ele>
        <time>2018-01-14T20:20:58Z</time>
      </trkpt>
      <trkpt lat="46.80416" lon="-1.60508">
        <ele>36</ele>
        <time>2018-01-14T20:21:58Z</time>
      </trkpt>
      <trkpt lat="46.80416" lon="-1.6051">
        <ele>36</ele>
        <time>2018-01-14T20:22:58Z</time>
      </trkpt>
      <trkpt lat="46.80417" lon="-1.60526">
        <ele>36</ele>
        <time>2018-01-14T20:23:58Z</time>
      </trkpt>
      <trkpt lat="46.80419" lon="-1.60566">
        <ele>35</ele>
        <time>2018-01-14T20:24:58Z</time>
      </trkpt>
      <trkpt lat="46.80423" lon="-1.60637">
        <ele>35</ele>
        <time>2018-01-14T20:25:58Z</time>
      </trkpt>
      <trkpt lat="46.80426" lon="-1.60714">
        <ele>35</ele>
        <time>2018-01-14T20:26:58Z</time>
      </trkpt>
      <trkpt lat="46.80429" lon="-1.60754">
        <ele>34</ele>
        <time>2018-01-14T20:27:58Z</time>
      </trkpt>
      <trkpt lat="46.80429" lon="-1.60761">
        <ele>34</ele>
        <time>2018-01-14T20:28:58Z</time>
      </trkpt>
      <trkpt lat="46.8043" lon="-1.60784">
        <ele>33</ele>
        <time>2018-01-14T20:29:58Z</time>
      </trkpt>
      <trkpt lat="46.8043" lon="-1.60784">
        <ele>33</ele>
        <time>2018-01-14T20:30:58Z</time>
      </trkpt>
      <trkpt lat="46.80432" lon="-1.60857">
        <ele>32</ele>
        <time>2018-01-14T20:31:58Z</time>
      </trkpt>
      <trkpt lat="46.80435" lon="-1.60921">
        <ele>32</ele>
        <time>2018-01-14T20:32:58Z</time>
      </trkpt>
      <trkpt lat="46.80437" lon="-1.60945">
        <ele>32</ele>
        <time>2018-01-14T20:33:58Z</time>
      </trkpt>
      <trkpt lat="46.80438" lon="-1.60961">
        <ele>31</ele>
        <time>2018-01-14T20:34:58Z</time>
      </trkpt>
      <trkpt lat="46.8044" lon="-1.6098">
        <ele>31</ele>
        <time>2018-01-14T20:35:58Z</time>
      </trkpt>
      <trkpt lat="46.80442" lon="-1.60999">
        <ele>31</ele>
        <time>2018-01-14T20:36:58Z</time>
      </trkpt>
      <trkpt lat="46.80444" lon="-1.61018">
        <ele>30</ele>
        <time>2018-01-14T20:37:58Z</time>
      </trkpt>
      <trkpt lat="46.80447" lon="-1.61037">
        <ele>30</ele>
        <time>2018-01-14T20:38:58Z</time>
      </trkpt>
      <trkpt lat="46.80452" lon="-1.61071">
        <ele>30</ele>
        <time>2018-01-14T20:39:58Z</time>
      </trkpt>
      <trkpt lat="46.80454" lon="-1.61085">
        <ele>29</ele>
        <time>2018-01-14T20:40:58Z</time>
      </trkpt>
      <trkpt lat="46.8046" lon="-1.61122">
        <ele>30</ele>
        <time>2018-01-14T20:41:58Z</time>
      </trkpt>
      <trkpt lat="46.80469" lon="-1.61173">
        <ele>30</ele>
        <time>2018-01-14T20:42:58Z</time>
      </trkpt>
      <trkpt lat="46.80471" lon="-1.61188">
        <ele>30</ele>
        <time>2018-01-14T20:43:58Z</time>
      </trkpt>
      <trkpt lat="46.80472" lon="-1.61199">
        <ele>30</ele>
        <time>2018-01-14T20:44:58Z</time>
      </trkpt>
      <trkpt lat="46.80474" lon="-1.61214">
        <ele>30</ele>
        <time>2018-01-14T20:45:58Z</time>
      </trkpt>
      <trkpt lat="46.80475" lon="-1.6123">
        <ele>30</ele>
        <time>2018-01-14T20:46:58Z</time>
      </trkpt>
      <trkpt lat="46.80475" lon="-1.61247">
        <ele>30</ele>
        <time>2018-01-14T20:47:58Z</time>
      </trkpt>
      <trkpt lat="46.80475" lon="-1.61264">
        <ele>30</ele>
        <time>2018-01-14T20:48:58Z</time>
      </trkpt>
      <trkpt lat="46.80474" lon="-1.61296">
        <ele>30</ele>
        <time>2018-01-14T20:49:58Z</time>
      </trkpt>
      <trkpt lat="46.80472" lon="-1.61363">
        <ele>29</ele>
        <time>2018-01-14T20:50:58Z</time>
      </trkpt>
      <trkpt lat="46.80469" lon="-1.61458">
        <ele>28</ele>
        <time>2018-01-14T20:51:58Z</time>
      </trkpt>
      <trkpt lat="46.80467" lon="-1.61511">
        <ele>28</ele>
        <time>2018-01-14T20:52:58Z</time>
      </trkpt>
      <trkpt lat="46.80466" lon="-1.61523">
        <ele>28</ele>
        <time>2018-01-14T20:53:58Z</time>
      </trkpt>
      <trkpt lat="46.80463" lon="-1.61607">
        <ele>28</ele>
        <time>2018-01-14T20:54:58Z</time>
      </trkpt>
      <trkpt lat="46.80462" lon="-1.61644">
        <ele>27</ele>
        <time>2018-01-14T20:55:58Z</time>
      </trkpt>
      <trkpt lat="46.80461" lon="-1.61653">
        <ele>27</ele>
        <time>2018-01-14T20:56:58Z</time>
      </trkpt>
      <trkpt lat="46.80459" lon="-1.61712">
        <ele>26</ele>
        <time>2018-01-14T20:57:58Z</time>
      </trkpt>
      <trkpt lat="46.80459" lon="-1.61727">
        <ele>26</ele>
        <time>2018-01-14T20:58:58Z</time>
      </trkpt>
      <trkpt lat="46.80459" lon="-1.61742">
        <ele>26</ele>
        <time>2018-01-14T20:59:58Z</time>
      </trkpt>
      <trkpt lat="46.8046" lon="-1.61768">
        <ele>26</ele>
        <time>2018-01-14T21:00:58Z</time>
      </trkpt>
      <trkpt lat="46.80461" lon="-1.61774">
        <ele>26</ele>
        <time>2018-01-14T21:01:58Z</time>
      </trkpt>
      <trkpt lat="46.80461" lon="-1.61777">
        <ele>26</ele>
        <time>2018-01-14T21:02:58Z</time>
      </trkpt>
      <trkpt lat="46.80462" lon="-1.61795">
        <ele>26</ele>
        <time>2018-01-14T21:03:58Z</time>
      </trkpt>
      <trkpt lat="46.80462" lon="-1.6181">
        <ele>26</ele>
        <time>2018-01-14T21:04:58Z</time>
      </trkpt>
      <trkpt lat="46.80461" lon="-1.61834">
        <ele>26</ele>
        <time>2018-01-14T21:05:58Z</time>
      </trkpt>
      <trkpt lat="46.80458" lon="-1.61853">
        <ele>26</ele>
        <time>2018-01-14T21:06:58Z</time>
      </trkpt>
      <trkpt lat="46.8045" lon="-1.61906">
        <ele>26</ele>
        <time>2018-01-14T21:07:58Z</time>
      </trkpt>
      <trkpt lat="46.80445" lon="-1.61941">
        <ele>27</ele>
        <time>2018-01-14T21:08:58Z</time>
      </trkpt>
      <trkpt lat="46.80443" lon="-1.61949">
        <ele>27</ele>
        <time>2018-01-14T21:09:58Z</time>
      </trkpt>
      <trkpt lat="46.80441" lon="-1.61953">
        <ele>27</ele>
        <time>2018-01-14T21:10:58Z</time>
      </trkpt>
      <trkpt lat="46.80441" lon="-1.61953">
        <ele>27</ele>
        <time>2018-01-14T21:11:58Z</time>
      </trkpt>
      <trkpt lat="46.80437" lon="-1.61958">
        <ele>27</ele>
        <time>2018-01-14T21:12:58Z</time>
      </trkpt>
      <trkpt lat="46.80425" lon="-1.61965">
        <ele>27</ele>
        <time>2018-01-14T21:13:58Z</time>
      </trkpt>
      <trkpt lat="46.80422" lon="-1.61968">
        <ele>27</ele>
        <time>2018-01-14T21:14:58Z</time>
      </trkpt>
      <trkpt lat="46.80408" lon="-1.61978">
        <ele>27</ele>
        <time>2018-01-14T21:15:58Z</time>
      </trkpt>
      <trkpt lat="46.80408" lon="-1.61978">
        <ele>27</ele>
        <time>2018-01-14T21:16:58Z</time>
      </trkpt>
      <trkpt lat="46.80396" lon="-1.61985">
        <ele>26</ele>
        <time>2018-01-14T21:17:58Z</time>
      </trkpt>
      <trkpt lat="46.80394" lon="-1.61987">
        <ele>26</ele>
        <time>2018-01-14T21:18:58Z</time>
      </trkpt>
      <trkpt lat="46.80388" lon="-1.61994">
        <ele>27</ele>
        <time>2018-01-14T21:19:58Z</time>
      </trkpt>
      <trkpt lat="46.80379" lon="-1.6205">
        <ele>26</ele>
        <time>2018-01-14T21:20:58Z</time>
      </trkpt>
      <trkpt lat="46.80396" lon="-1.62058">
        <ele>27</ele>
        <time>2018-01-14T21:21:58Z</time>
      </trkpt>
      <trkpt lat="46.80396" lon="-1.62058">
        <ele>27</ele>
        <time>2018-01-14T21:22:58Z</time>
      </trkpt>
      <trkpt lat="46.80443" lon="-1.6208">
        <ele>27</ele>
        <time>2018-01-14T21:23:58Z</time>
      </trkpt>
      <trkpt lat="46.80453" lon="-1.62086">
        <ele>27</ele>
        <time>2018-01-14T21:24:58Z</time>
      </trkpt>
      <trkpt lat="46.80453" lon="-1.62086">
        <ele>27</ele>
        <time>2018-01-14T21:25:58Z</time>
      </trkpt>
      <trkpt lat="46.80451" lon="-1.62091">
        <ele>27</ele>
        <time>2018-01-14T21:26:58Z</time>
      </trkpt>
      <trkpt lat="46.8045" lon="-1.62104">
        <ele>27</ele>
        <time>2018-01-14T21:27:58Z</time>
      </trkpt>
      <trkpt lat="46.80442" lon="-1.62141">
        <ele>26</ele>
        <time>2018-01-14T21:28:58Z</time>
      </trkpt>
      <trkpt lat="46.80437" lon="-1.62175">
        <ele>25</ele>
        <time>2018-01-14T21:29:58Z</time>
      </trkpt>
      <trkpt lat="46.80435" lon="-1.62186">
        <ele>25</ele>
        <time>2018-01-14T21:30:58Z</time>
      </trkpt>
      <trkpt lat="46.80425" lon="-1.62243">
        <ele>23</ele>
        <time>2018-01-14T21:31:58Z</time>
      </trkpt>
      <trkpt lat="46.80417" lon="-1.62286">
        <ele>23</ele>
        <time>2018-01-14T21:32:58Z</time>
      </trkpt>
      <trkpt lat="46.80415" lon="-1.62295">
        <ele>23</ele>
        <time>2018-01-14T21:33:58Z</time>
      </trkpt>
      <trkpt lat="46.80411" lon="-1.62303">
        <ele>23</ele>
        <time>2018-01-14T21:34:58Z</time>
      </trkpt>
      <trkpt lat="46.8041" lon="-1.62307">
        <ele>23</ele>
        <time>2018-01-14T21:35:58Z</time>
      </trkpt>
      <trkpt lat="46.80408" lon="-1.62311">
        <ele>23</ele>
        <time>2018-01-14T21:36:58Z</time>
      </trkpt>
      <trkpt lat="46.80389" lon="-1.62361">
        <ele>23</ele>
        <time>2018-01-14T21:37:58Z</time>
      </trkpt>
      <trkpt lat="46.80388" lon="-1.62365">
        <ele>23</ele>
        <time>2018-01-14T21:38:58Z</time>
      </trkpt>
      <trkpt lat="46.80382" lon="-1.62378">
        <ele>23</ele>
        <time>2018-01-14T21:39:58Z</time>
      </trkpt>
      <trkpt lat="46.80374" lon="-1.62392">
        <ele>23</ele>
        <time>2018-01-14T21:40:58Z</time>
      </trkpt>
      <trkpt lat="46.80357" lon="-1.62417">
        <ele>23</ele>
        <time>2018-01-14T21:41:58Z</time>
      </trkpt>
      <trkpt lat="46.80342" lon="-1.62435">
        <ele>24</ele>
        <time>2018-01-14T21:42:58Z</time>
      </trkpt>
      <trkpt lat="46.80334" lon="-1.62442">
        <ele>24</ele>
        <time>2018-01-14T21:43:58Z</time>
      </trkpt>
      <trkpt lat="46.80325" lon="-1.62445">
        <ele>24</ele>
        <time>2018-01-14T21:44:58Z</time>
      </trkpt>
      <trkpt lat="46.80315" lon="-1.62447">
        <ele>25</ele>
        <time>2018-01-14T21:45:58Z</time>
      </trkpt>
      <trkpt lat="46.80315" lon="-1.62447">
        <ele>25</ele>
        <time>2018-01-14T21:46:58Z</time>
      </trkpt>
      <trkpt lat="46.80309" lon="-1.62459">
        <ele>25</ele>
        <time>2018-01-14T21:47:58Z</time>
      </trkpt>
      <trkpt lat="46.80302" lon="-1.62478">
        <ele>26</ele>
        <time>2018-01-14T21:48:58Z</time>
      </trkpt>
      <trkpt lat="46.80298" lon="-1.62491">
        <ele>26</ele>
        <time>2018-01-14T21:49:58Z</time>
      </trkpt>
      <trkpt lat="46.80299" lon="-1.62499">
        <ele>26</ele>
        <time>2018-01-14T21:50:58Z</time>
      </trkpt>
      <trkpt lat="46.80305" lon="-1.62515">
        <ele>26</ele>
        <time>2018-01-14T21:51:58Z</time>
      </trkpt>
      <trkpt lat="46.80316" lon="-1.62543">
        <ele>27</ele>
        <time>2018-01-14T21:52:58Z</time>
      </trkpt>
      <trkpt lat="46.80327" lon="-1.62572">
        <ele>27</ele>
        <time>2018-01-14T21:53:58Z</time>
      </trkpt>
      <trkpt lat="46.80334" lon="-1.62591">
        <ele>27</ele>
        <time>2018-01-14T21:54:58Z</time>
      </trkpt>
      <trkpt lat="46.80348" lon="-1.62637">
        <ele>25</ele>
        <time>2018-01-14T21:55:58Z</time>
      </trkpt>
      <trkpt lat="46.80357" lon="-1.62668">
        <ele>24</ele>
        <time>2018-01-14T21:56:58Z</time>
      </trkpt>
      <trkpt lat="46.80368" lon="-1.62704">
        <ele>24</ele>
        <time>2018-01-14T21:57:58Z</time>
      </trkpt>
      <trkpt lat="46.80372" lon="-1.62718">
        <ele>24</ele>
        <time>2018-01-14T21:58:58Z</time>
      </trkpt>
      <trkpt lat="46.80382" lon="-1.62748">
        <ele>23</ele>
        <time>2018-01-14T21:59:58Z</time>
      </trkpt>
      <trkpt lat="46.80402" lon="-1.62814">
        <ele>23</ele>
        <time>2018-01-14T22:00:58Z</time>
      </trkpt>
      <trkpt lat="46.80417" lon="-1.62861">
        <ele>22</ele>
        <time>2018-01-14T22:01:58Z</time>
      </trkpt>
      <trkpt lat="46.80428" lon="-1.62897">
        <ele>21</ele>
        <time>2018-01-14T22:02:58Z</time>
      </trkpt>
      <trkpt lat="46.80429" lon="-1.62899">
        <ele>21</ele>
        <time>2018-01-14T22:03:58Z</time>
      </trkpt>
      <trkpt lat="46.80435" lon="-1.62917">
        <ele>21</ele>
        <time>2018-01-14T22:04:58Z</time>
      </trkpt>
      <trkpt lat="46.80457" lon="-1.62983">
        <ele>20</ele>
        <time>2018-01-14T22:05:58Z</time>
      </trkpt>
      <trkpt lat="46.80459" lon="-1.62988">
        <ele>20</ele>
        <time>2018-01-14T22:06:58Z</time>
      </trkpt>
      <trkpt lat="46.80461" lon="-1.62994">
        <ele>20</ele>
        <time>2018-01-14T22:07:58Z</time>
      </trkpt>
      <trkpt lat="46.80461" lon="-1.62995">
        <ele>20</ele>
        <time>2018-01-14T22:08:58Z</time>
      </trkpt>
      <trkpt lat="46.80465" lon="-1.63004">
        <ele>20</ele>
        <time>2018-01-14T22:09:58Z</time>
      </trkpt>
      <trkpt lat="46.80466" lon="-1.63007">
        <ele>20</ele>
        <time>2018-01-14T22:10:58Z</time>
      </trkpt>
      <trkpt lat="46.80483" lon="-1.63044">
        <ele>20</ele>
        <time>2018-01-14T22:11:58Z</time>
      </trkpt>
      <trkpt lat="46.80488" lon="-1.63056">
        <ele>20</ele>
        <time>2018-01-14T22:12:58Z</time>
      </trkpt>
      <trkpt lat="46.80496" lon="-1.6307">
        <ele>20</ele>
        <time>2018-01-14T22:13:58Z</time>
      </trkpt>
      <trkpt lat="46.80574" lon="-1.63196">
        <ele>21</ele>
        <time>2018-01-14T22:14:58Z</time>
      </trkpt>
      <trkpt lat="46.80582" lon="-1.63212">
        <ele>21</ele>
        <time>2018-01-14T22:15:58Z</time>
      </trkpt>
      <trkpt lat="46.80594" lon="-1.6324">
        <ele>22</ele>
        <time>2018-01-14T22:16:58Z</time>
      </trkpt>
      <trkpt lat="46.806" lon="-1.63258">
        <ele>22</ele>
        <time>2018-01-14T22:17:58Z</time>
      </trkpt>
      <trkpt lat="46.80602" lon="-1.63272">
        <ele>22</ele>
        <time>2018-01-14T22:18:58Z</time>
      </trkpt>
      <trkpt lat="46.80604" lon="-1.63296">
        <ele>22</ele>
        <time>2018-01-14T22:19:58Z</time>
      </trkpt>
      <trkpt lat="46.80606" lon="-1.63339">
        <ele>23</ele>
        <time>2018-01-14T22:20:58Z</time>
      </trkpt>
      <trkpt lat="46.80609" lon="-1.63397">
        <ele>24</ele>
        <time>2018-01-14T22:21:58Z</time>
      </trkpt>
      <trkpt lat="46.80609" lon="-1.63405">
        <ele>24</ele>
        <time>2018-01-14T22:22:58Z</time>
      </trkpt>
      <trkpt lat="46.80609" lon="-1.63409">
        <ele>24</ele>
        <time>2018-01-14T22:23:58Z</time>
      </trkpt>
      <trkpt lat="46.8061" lon="-1.63423">
        <ele>24</ele>
        <time>2018-01-14T22:24:58Z</time>
      </trkpt>
      <trkpt lat="46.8061" lon="-1.6343">
        <ele>24</ele>
        <time>2018-01-14T22:25:58Z</time>
      </trkpt>
      <trkpt lat="46.80614" lon="-1.63494">
        <ele>26</ele>
        <time>2018-01-14T22:26:58Z</time>
      </trkpt>
      <trkpt lat="46.80614" lon="-1.63494">
        <ele>26</ele>
        <time>2018-01-14T22:27:58Z</time>
      </trkpt>
      <trkpt lat="46.80601" lon="-1.63506">
        <ele>26</ele>
        <time>2018-01-14T22:28:58Z</time>
      </trkpt>
      <trkpt lat="46.8058" lon="-1.63526">
        <ele>26</ele>
        <time>2018-01-14T22:29:58Z</time>
      </trkpt>
      <trkpt lat="46.80561" lon="-1.63547">
        <ele>26</ele>
        <time>2018-01-14T22:30:58Z</time>
      </trkpt>
      <trkpt lat="46.80529" lon="-1.6359">
        <ele>26</ele>
        <time>2018-01-14T22:31:58Z</time>
      </trkpt>
      <trkpt lat="46.80505" lon="-1.63623">
        <ele>26</ele>
        <time>2018-01-14T22:32:58Z</time>
      </trkpt>
      <trkpt lat="46.8047" lon="-1.63668">
        <ele>25</ele>
        <time>2018-01-14T22:33:58Z</time>
      </trkpt>
      <trkpt lat="46.80435" lon="-1.63716">
        <ele>22</ele>
        <time>2018-01-14T22:34:58Z</time>
      </trkpt>
      <trkpt lat="46.80404" lon="-1.6376">
        <ele>20</ele>
        <time>2018-01-14T22:35:58Z</time>
      </trkpt>
      <trkpt lat="46.80385" lon="-1.63791">
        <ele>19</ele>
        <time>2018-01-14T22:36:58Z</time>
      </trkpt>
      <trkpt lat="46.8037" lon="-1.63822">
        <ele>18</ele>
        <time>2018-01-14T22:37:58Z</time>
      </trkpt>
      <trkpt lat="46.80345" lon="-1.6387">
        <ele>18</ele>
        <time>2018-01-14T22:38:58Z</time>
      </trkpt>
      <trkpt lat="46.80316" lon="-1.63927">
        <ele>18</ele>
        <time>2018-01-14T22:39:58Z</time>
      </trkpt>
      <trkpt lat="46.80296" lon="-1.63969">
        <ele>19</ele>
        <time>2018-01-14T22:40:58Z</time>
      </trkpt>
      <trkpt lat="46.80279" lon="-1.64022">
        <ele>20</ele>
        <time>2018-01-14T22:41:58Z</time>
      </trkpt>
      <trkpt lat="46.8026" lon="-1.64092">
        <ele>21</ele>
        <time>2018-01-14T22:42:58Z</time>
      </trkpt>
      <trkpt lat="46.80243" lon="-1.64151">
        <ele>23</ele>
        <time>2018-01-14T22:43:58Z</time>
      </trkpt>
      <trkpt lat="46.80234" lon="-1.64179">
        <ele>24</ele>
        <time>2018-01-14T22:44:58Z</time>
      </trkpt>
      <trkpt lat="46.80225" lon="-1.64204">
        <ele>24</ele>
        <time>2018-01-14T22:45:58Z</time>
      </trkpt>
      <trkpt lat="46.80209" lon="-1.64242">
        <ele>25</ele>
        <time>2018-01-14T22:46:58Z</time>
      </trkpt>
      <trkpt lat="46.80188" lon="-1.64287">
        <ele>24</ele>
        <time>2018-01-14T22:47:58Z</time>
      </trkpt>
      <trkpt lat="46.80164" lon="-1.6434">
        <ele>23</ele>
        <time>2018-01-14T22:48:58Z</time>
      </trkpt>
      <trkpt lat="46.8014" lon="-1.64392">
        <ele>23</ele>
        <time>2018-01-14T22:49:58Z</time>
      </trkpt>
      <trkpt lat="46.80097" lon="-1.64484">
        <ele>24</ele>
        <time>2018-01-14T22:50:58Z</time>
      </trkpt>
      <trkpt lat="46.80086" lon="-1.64508">
        <ele>25</ele>
        <time>2018-01-14T22:51:58Z</time>
      </trkpt>
      <trkpt lat="46.80065" lon="-1.64555">
        <ele>26</ele>
        <time>2018-01-14T22:52:58Z</time>
      </trkpt>
      <trkpt lat="46.80037" lon="-1.64615">
        <ele>28</ele>
        <time>2018-01-14T22:53:58Z</time>
      </trkpt>
      <trkpt lat="46.80012" lon="-1.64669">
        <ele>29</ele>
        <time>2018-01-14T22:54:58Z</time>
      </trkpt>
      <trkpt lat="46.79992" lon="-1.64709">
        <ele>28</ele>
        <time>2018-01-14T22:55:58Z</time>
      </trkpt>
      <trkpt lat="46.79978" lon="-1.64742">
        <ele>27</ele>
        <time>2018-01-14T22:56:58Z</time>
      </trkpt>
      <trkpt lat="46.79949" lon="-1.64804">
        <ele>25</ele>
        <time>2018-01-14T22:57:58Z</time>
      </trkpt>
      <trkpt lat="46.79917" lon="-1.64873">
        <ele>25</ele>
        <time>2018-01-14T22:58:58Z</time>
      </trkpt>
      <trkpt lat="46.79915" lon="-1.64877">
        <ele>25</ele>
        <time>2018-01-14T22:59:58Z</time>
      </trkpt>
      <trkpt lat="46.79899" lon="-1.64912">
        <ele>25</ele>
        <time>2018-01-14T23:00:58Z</time>
      </trkpt>
      <trkpt lat="46.79889" lon="-1.64937">
        <ele>25</ele>
        <time>2018-01-14T23:01:58Z</time>
      </trkpt>
      <trkpt lat="46.79863" lon="-1.64992">
        <ele>23</ele>
        <time>2018-01-14T23:02:58Z</time>
      </trkpt>
      <trkpt lat="46.79844" lon="-1.65033">
        <ele>21</ele>
        <time>2018-01-14T23:03:58Z</time>
      </trkpt>
      <trkpt lat="46.7983" lon="-1.65068">
        <ele>20</ele>
        <time>2018-01-14T23:04:58Z</time>
      </trkpt>
      <trkpt lat="46.7983" lon="-1.6507">
        <ele>20</ele>
        <time>2018-01-14T23:05:58Z</time>
      </trkpt>
      <trkpt lat="46.79822" lon="-1.65101">
        <ele>20</ele>
        <time>2018-01-14T23:06:58Z</time>
      </trkpt>
      <trkpt lat="46.7982" lon="-1.65118">
        <ele>20</ele>
        <time>2018-01-14T23:07:58Z</time>
      </trkpt>
      <trkpt lat="46.7982" lon="-1.65121">
        <ele>20</ele>
        <time>2018-01-14T23:08:58Z</time>
      </trkpt>
      <trkpt lat="46.7982" lon="-1.65124">
        <ele>20</ele>
        <time>2018-01-14T23:09:58Z</time>
      </trkpt>
      <trkpt lat="46.7982" lon="-1.65131">
        <ele>20</ele>
        <time>2018-01-14T23:10:58Z</time>
      </trkpt>
      <trkpt lat="46.7982" lon="-1.65174">
        <ele>21</ele>
        <time>2018-01-14T23:11:58Z</time>
      </trkpt>
      <trkpt lat="46.7982" lon="-1.65217">
        <ele>22</ele>
        <time>2018-01-14T23:12:58Z</time>
      </trkpt>
      <trkpt lat="46.79818" lon="-1.65253">
        <ele>22</ele>
        <time>2018-01-14T23:13:58Z</time>
      </trkpt>
      <trkpt lat="46.79813" lon="-1.65282">
        <ele>23</ele>
        <time>2018-01-14T23:14:58Z</time>
      </trkpt>
      <trkpt lat="46.79807" lon="-1.65313">
        <ele>23</ele>
        <time>2018-01-14T23:15:58Z</time>
      </trkpt>
      <trkpt lat="46.79799" lon="-1.65356">
        <ele>23</ele>
        <time>2018-01-14T23:16:58Z</time>
      </trkpt>
      <trkpt lat="46.79789" lon="-1.65403">
        <ele>22</ele>
        <time>2018-01-14T23:17:58Z</time>
      </trkpt>
      <trkpt lat="46.79784" lon="-1.65446">
        <ele>22</ele>
        <time>2018-01-14T23:18:58Z</time>
      </trkpt>
      <trkpt lat="46.79778" lon="-1.65495">
        <ele>23</ele>
        <time>2018-01-14T23:19:58Z</time>
      </trkpt>
      <trkpt lat="46.79773" lon="-1.65537">
        <ele>23</ele>
        <time>2018-01-14T23:20:58Z</time>
      </trkpt>
      <trkpt lat="46.79767" lon="-1.65599">
        <ele>24</ele>
        <time>2018-01-14T23:21:58Z</time>
      </trkpt>
      <trkpt lat="46.79757" lon="-1.65686">
        <ele>27</ele>
        <time>2018-01-14T23:22:58Z</time>
      </trkpt>
      <trkpt lat="46.79751" lon="-1.65751">
        <ele>30</ele>
        <time>2018-01-14T23:23:58Z</time>
      </trkpt>
      <trkpt lat="46.79743" lon="-1.65821">
        <ele>32</ele>
        <time>2018-01-14T23:24:58Z</time>
      </trkpt>
      <trkpt lat="46.7974" lon="-1.65848">
        <ele>33</ele>
        <time>2018-01-14T23:25:58Z</time>
      </trkpt>
      <trkpt lat="46.7974" lon="-1.65853">
        <ele>33</ele>
        <time>2018-01-14T23:26:58Z</time>
      </trkpt>
      <trkpt lat="46.7974" lon="-1.65876">
        <ele>34</ele>
        <time>2018-01-14T23:27:58Z</time>
      </trkpt>
      <trkpt lat="46.79744" lon="-1.65898">
        <ele>34</ele>
        <time>2018-01-14T23:28:58Z</time>
      </trkpt>
      <trkpt lat="46.79755" lon="-1.65937">
        <ele>35</ele>
        <time>2018-01-14T23:29:58Z</time>
      </trkpt>
      <trkpt lat="46.79762" lon="-1.65967">
        <ele>36</ele>
        <time>2018-01-14T23:30:58Z</time>
      </trkpt>
      <trkpt lat="46.79766" lon="-1.65981">
        <ele>36</ele>
        <time>2018-01-14T23:31:58Z</time>
      </trkpt>
      <trkpt lat="46.79775" lon="-1.66016">
        <ele>36</ele>
        <time>2018-01-14T23:32:58Z</time>
      </trkpt>
      <trkpt lat="46.79777" lon="-1.66044">
        <ele>37</ele>
        <time>2018-01-14T23:33:58Z</time>
      </trkpt>
      <trkpt lat="46.79778" lon="-1.66059">
        <ele>37</ele>
        <time>2018-01-14T23:34:58Z</time>
      </trkpt>
      <trkpt lat="46.79778" lon="-1.66072">
        <ele>37</ele>
        <time>2018-01-14T23:35:58Z</time>
      </trkpt>
      <trkpt lat="46.79778" lon="-1.66072">
        <ele>37</ele>
        <time>2018-01-14T23:36:58Z</time>
      </trkpt>
      <trkpt lat="46.79744" lon="-1.66085">
        <ele>37</ele>
        <time>2018-01-14T23:37:58Z</time>
      </trkpt>
      <trkpt lat="46.79735" lon="-1.66093">
        <ele>37</ele>
        <time>2018-01-14T23:38:58Z</time>
      </trkpt>
      <trkpt lat="46.79735" lon="-1.66093">
        <ele>37</ele>
        <time>2018-01-14T23:39:58Z</time>
      </trkpt>
      <trkpt lat="46.79737" lon="-1.66098">
        <ele>37</ele>
        <time>2018-01-14T23:40:58Z</time>
      </trkpt>
      <trkpt lat="46.79737" lon="-1.66102">
        <ele>37</ele>
        <time>2018-01-14T23:41:58Z</time>
      </trkpt>
      <trkpt lat="46.79736" lon="-1.66107">
        <ele>38</ele>
        <time>2018-01-14T23:42:58Z</time>
      </trkpt>
      <trkpt lat="46.79734" lon="-1.6611">
        <ele>38</ele>
        <time>2018-01-14T23:43:58Z</time>
      </trkpt>
      <trkpt lat="46.79731" lon="-1.66113">
        <ele>38</ele>
        <time>2018-01-14T23:44:58Z</time>
      </trkpt>
      <trkpt lat="46.79732" lon="-1.66133">
        <ele>38</ele>
        <time>2018-01-14T23:45:58Z</time>
      </trkpt>
      <trkpt lat="46.79734" lon="-1.66153">
        <ele>39</ele>
        <time>2018-01-14T23:46:58Z</time>
      </trkpt>
      <trkpt lat="46.79736" lon="-1.66178">
        <ele>39</ele>
        <time>2018-01-14T23:47:58Z</time>
      </trkpt>
      <trkpt lat="46.79739" lon="-1.66203">
        <ele>39</ele>
        <time>2018-01-14T23:48:58Z</time>
      </trkpt>
      <trkpt lat="46.79739" lon="-1.66208">
        <ele>40</ele>
        <time>2018-01-14T23:49:58Z</time>
      </trkpt>
      <trkpt lat="46.7974" lon="-1.66213">
        <ele>40</ele>
        <time>2018-01-14T23:50:58Z</time>
      </trkpt>
      <trkpt lat="46.79745" lon="-1.66238">
        <ele>40</ele>
        <time>2018-01-14T23:51:58Z</time>
      </trkpt>
      <trkpt lat="46.79747" lon="-1.66243">
        <ele>40</ele>
        <time>2018-01-14T23:52:58Z</time>
      </trkpt>
      <trkpt lat="46.7975" lon="-1.66258">
        <ele>40</ele>
        <time>2018-01-14T23:53:58Z</time>
      </trkpt>
      <trkpt lat="46.79752" lon="-1.66268">
        <ele>40</ele>
        <time>2018-01-14T23:54:58Z</time>
      </trkpt>
      <trkpt lat="46.79754" lon="-1.66276">
        <ele>41</ele>
        <time>2018-01-14T23:55:58Z</time>
      </trkpt>
      <trkpt lat="46.79754" lon="-1.66281">
        <ele>41</ele>
        <time>2018-01-14T23:56:58Z</time>
      </trkpt>
      <trkpt lat="46.79755" lon="-1.66291">
        <ele>41</ele>
        <time>2018-01-14T23:57:58Z</time>
      </trkpt>
      <trkpt lat="46.79756" lon="-1.66296">
        <ele>41</ele>
        <time>2018-01-14T23:58:58Z</time>
      </trkpt>
      <trkpt lat="46.79756" lon="-1.66299">
        <ele>41</ele>
        <time>2018-01-14T23:59:58Z</time>
      </trkpt>
      <trkpt lat="46.79756" lon="-1.66303">
        <ele>41</ele>
        <time>2018-01-15T00:00:58Z</time>
      </trkpt>
      <trkpt lat="46.79756" lon="-1.66307">
        <ele>41</ele>
        <time>2018-01-15T00:01:58Z</time>
      </trkpt>
      <trkpt lat="46.79756" lon="-1.66313">
        <ele>41</ele>
        <time>2018-01-15T00:02:58Z</time>
      </trkpt>
      <trkpt lat="46.79755" lon="-1.66338">
        <ele>42</ele>
        <time>2018-01-15T00:03:58Z</time>
      </trkpt>
      <trkpt lat="46.79755" lon="-1.66348">
        <ele>42</ele>
        <time>2018-01-15T00:04:58Z</time>
      </trkpt>
      <trkpt lat="46.79754" lon="-1.66359">
        <ele>42</ele>
        <time>2018-01-15T00:05:58Z</time>
      </trkpt>
      <trkpt lat="46.79753" lon="-1.66367">
        <ele>42</ele>
        <time>2018-01-15T00:06:58Z</time>
      </trkpt>
      <trkpt lat="46.79753" lon="-1.66371">
        <ele>42</ele>
        <time>2018-01-15T00:07:58Z</time>
      </trkpt>
      <trkpt lat="46.79752" lon="-1.66374">
        <ele>42</ele>
        <time>2018-01-15T00:08:58Z</time>
      </trkpt>
      <trkpt lat="46.79752" lon="-1.66377">
        <ele>42</ele>
        <time>2018-01-15T00:09:58Z</time>
      </trkpt>
      <trkpt lat="46.79751" lon="-1.66382">
        <ele>42</ele>
        <time>2018-01-15T00:10:58Z</time>
      </trkpt>
      <trkpt lat="46.79748" lon="-1.66394">
        <ele>42</ele>
        <time>2018-01-15T00:11:58Z</time>
      </trkpt>
      <trkpt lat="46.79745" lon="-1.66405">
        <ele>42</ele>
        <time>2018-01-15T00:12:58Z</time>
      </trkpt>
      <trkpt lat="46.79741" lon="-1.6642">
        <ele>42</ele>
        <time>2018-01-15T00:13:58Z</time>
      </trkpt>
      <trkpt lat="46.79739" lon="-1.66426">
        <ele>42</ele>
        <time>2018-01-15T00:14:58Z</time>
      </trkpt>
      <trkpt lat="46.79738" lon="-1.66429">
        <ele>42</ele>
        <time>2018-01-15T00:15:58Z</time>
      </trkpt>
      <trkpt lat="46.79737" lon="-1.66431">
        <ele>42</ele>
        <time>2018-01-15T00:16:58Z</time>
      </trkpt>
      <trkpt lat="46.79735" lon="-1.66435">
        <ele>42</ele>
        <time>2018-01-15T00:17:58Z</time>
      </trkpt>
      <trkpt lat="46.79734" lon="-1.66438">
        <ele>42</ele>
        <time>2018-01-15T00:18:58Z</time>
      </trkpt>
      <trkpt lat="46.79732" lon="-1.66441">
        <ele>42</ele>
        <time>2018-01-15T00:19:58Z</time>
      </trkpt>
      <trkpt lat="46.79718" lon="-1.66464">
        <ele>41</ele>
        <time>2018-01-15T00:20:58Z</time>
      </trkpt>
      <trkpt lat="46.79707" lon="-1.66481">
        <ele>41</ele>
        <time>2018-01-15T00:21:58Z</time>
      </trkpt>
      <trkpt lat="46.79699" lon="-1.66494">
        <ele>41</ele>
        <time>2018-01-15T00:22:58Z</time>
      </trkpt>
      <trkpt lat="46.79693" lon="-1.66505">
        <ele>41</ele>
        <time>2018-01-15T00:23:58Z</time>
      </trkpt>
      <trkpt lat="46.79692" lon="-1.66507">
        <ele>41</ele>
        <time>2018-01-15T00:24:58Z</time>
      </trkpt>
      <trkpt lat="46.79691" lon="-1.6651">
        <ele>41</ele>
        <time>2018-01-15T00:25:58Z</time>
      </trkpt>
      <trkpt lat="46.7969" lon="-1.66513">
        <ele>41</ele>
        <time>2018-01-15T00:26:58Z</time>
      </trkpt>
      <trkpt lat="46.79688" lon="-1.6652">
        <ele>41</ele>
        <time>2018-01-15T00:27:58Z</time>
      </trkpt>
      <trkpt lat="46.79687" lon="-1.66526">
        <ele>41</ele>
        <time>2018-01-15T00:28:58Z</time>
      </trkpt>
      <trkpt lat="46.79686" lon="-1.66531">
        <ele>41</ele>
        <time>2018-01-15T00:29:58Z</time>
      </trkpt>
      <trkpt lat="46.79679" lon="-1.66573">
        <ele>41</ele>
        <time>2018-01-15T00:30:58Z</time>
      </trkpt>
      <trkpt lat="46.79673" lon="-1.66608">
        <ele>41</ele>
        <time>2018-01-15T00:31:58Z</time>
      </trkpt>
      <trkpt lat="46.79669" lon="-1.66633">
        <ele>42</ele>
        <time>2018-01-15T00:32:58Z</time>
      </trkpt>
      <trkpt lat="46.79666" lon="-1.66653">
        <ele>43</ele>
        <time>2018-01-15T00:33:58Z</time>
      </trkpt>
      <trkpt lat="46.79666" lon="-1.66657">
        <ele>43</ele>
        <time>2018-01-15T00:34:58Z</time>
      </trkpt>
      <trkpt lat="46.79663" lon="-1.66671">
        <ele>43</ele>
        <time>2018-01-15T00:35:58Z</time>
      </trkpt>
      <trkpt lat="46.79662" lon="-1.66681">
        <ele>43</ele>
        <time>2018-01-15T00:36:58Z</time>
      </trkpt>
      <trkpt lat="46.79659" lon="-1.66691">
        <ele>43</ele>
        <time>2018-01-15T00:37:58Z</time>
      </trkpt>
      <trkpt lat="46.79657" lon="-1.66699">
        <ele>43</ele>
        <time>2018-01-15T00:38:58Z</time>
      </trkpt>
      <trkpt lat="46.79655" lon="-1.66706">
        <ele>43</ele>
        <time>2018-01-15T00:39:58Z</time>
      </trkpt>
      <trkpt lat="46.7965" lon="-1.66717">
        <ele>44</ele>
        <time>2018-01-15T00:40:58Z</time>
      </trkpt>
      <trkpt lat="46.7964" lon="-1.6674">
        <ele>44</ele>
        <time>2018-01-15T00:41:58Z</time>
      </trkpt>
      <trkpt lat="46.79612" lon="-1.66798">
        <ele>46</ele>
        <time>2018-01-15T00:42:58Z</time>
      </trkpt>
      <trkpt lat="46.79583" lon="-1.66865">
        <ele>48</ele>
        <time>2018-01-15T00:43:58Z</time>
      </trkpt>
      <trkpt lat="46.79575" lon="-1.66884">
        <ele>48</ele>
        <time>2018-01-15T00:44:58Z</time>
      </trkpt>
      <trkpt lat="46.79566" lon="-1.66906">
        <ele>48</ele>
        <time>2018-01-15T00:45:58Z</time>
      </trkpt>
      <trkpt lat="46.79552" lon="-1.66953">
        <ele>49</ele>
        <time>2018-01-15T00:46:58Z</time>
      </trkpt>
      <trkpt lat="46.79533" lon="-1.67027">
        <ele>50</ele>
        <time>2018-01-15T00:47:58Z</time>
      </trkpt>
      <trkpt lat="46.79515" lon="-1.67096">
        <ele>51</ele>
        <time>2018-01-15T00:48:58Z</time>
      </trkpt>
      <trkpt lat="46.79495" lon="-1.67175">
        <ele>52</ele>
        <time>2018-01-15T00:49:58Z</time>
      </trkpt>
      <trkpt lat="46.79466" lon="-1.67286">
        <ele>53</ele>
        <time>2018-01-15T00:50:58Z</time>
      </trkpt>
      <trkpt lat="46.79447" lon="-1.6736">
        <ele>52</ele>
        <time>2018-01-15T00:51:58Z</time>
      </trkpt>
      <trkpt lat="46.79438" lon="-1.67395">
        <ele>52</ele>
        <time>2018-01-15T00:52:58Z</time>
      </trkpt>
      <trkpt lat="46.79429" lon="-1.67429">
        <ele>51</ele>
        <time>2018-01-15T00:53:58Z</time>
      </trkpt>
      <trkpt lat="46.79425" lon="-1.67446">
        <ele>51</ele>
        <time>2018-01-15T00:54:58Z</time>
      </trkpt>
      <trkpt lat="46.79423" lon="-1.67455">
        <ele>51</ele>
        <time>2018-01-15T00:55:58Z</time>
      </trkpt>
      <trkpt lat="46.79421" lon="-1.67464">
        <ele>52</ele>
        <time>2018-01-15T00:56:58Z</time>
      </trkpt>
      <trkpt lat="46.79419" lon="-1.67476">
        <ele>52</ele>
        <time>2018-01-15T00:57:58Z</time>
      </trkpt>
      <trkpt lat="46.79418" lon="-1.67489">
        <ele>52</ele>
        <time>2018-01-15T00:58:58Z</time>
      </trkpt>
      <trkpt lat="46.79416" lon="-1.675">
        <ele>52</ele>
        <time>2018-01-15T00:59:58Z</time>
      </trkpt>
      <trkpt lat="46.79413" lon="-1.6753">
        <ele>52</ele>
        <time>2018-01-15T01:00:58Z</time>
      </trkpt>
      <trkpt lat="46.7941" lon="-1.67568">
        <ele>51</ele>
        <time>2018-01-15T01:01:58Z</time>
      </trkpt>
      <trkpt lat="46.79406" lon="-1.67617">
        <ele>50</ele>
        <time>2018-01-15T01:02:58Z</time>
      </trkpt>
      <trkpt lat="46.79401" lon="-1.67686">
        <ele>49</ele>
        <time>2018-01-15T01:03:58Z</time>
      </trkpt>
      <trkpt lat="46.79396" lon="-1.67743">
        <ele>49</ele>
        <time>2018-01-15T01:04:58Z</time>
      </trkpt>
      <trkpt lat="46.7939" lon="-1.67805">
        <ele>47</ele>
        <time>2018-01-15T01:05:58Z</time>
      </trkpt>
      <trkpt lat="46.79379" lon="-1.67933">
        <ele>46</ele>
        <time>2018-01-15T01:06:58Z</time>
      </trkpt>
      <trkpt lat="46.79374" lon="-1.68002">
        <ele>46</ele>
        <time>2018-01-15T01:07:58Z</time>
      </trkpt>
      <trkpt lat="46.79372" lon="-1.68026">
        <ele>46</ele>
        <time>2018-01-15T01:08:58Z</time>
      </trkpt>
      <trkpt lat="46.79368" lon="-1.68065">
        <ele>47</ele>
        <time>2018-01-15T01:09:58Z</time>
      </trkpt>
      <trkpt lat="46.79366" lon="-1.68087">
        <ele>47</ele>
        <time>2018-01-15T01:10:58Z</time>
      </trkpt>
      <trkpt lat="46.79362" lon="-1.6811">
        <ele>47</ele>
        <time>2018-01-15T01:11:58Z</time>
      </trkpt>
      <trkpt lat="46.79359" lon="-1.68131">
        <ele>46</ele>
        <time>2018-01-15T01:12:58Z</time>
      </trkpt>
      <trkpt lat="46.79354" lon="-1.68151">
        <ele>46</ele>
        <time>2018-01-15T01:13:58Z</time>
      </trkpt>
      <trkpt lat="46.79345" lon="-1.68197">
        <ele>45</ele>
        <time>2018-01-15T01:14:58Z</time>
      </trkpt>
      <trkpt lat="46.79333" lon="-1.68246">
        <ele>44</ele>
        <time>2018-01-15T01:15:58Z</time>
      </trkpt>
      <trkpt lat="46.79321" lon="-1.68293">
        <ele>44</ele>
        <time>2018-01-15T01:16:58Z</time>
      </trkpt>
      <trkpt lat="46.793" lon="-1.6837">
        <ele>44</ele>
        <time>2018-01-15T01:17:58Z</time>
      </trkpt>
      <trkpt lat="46.79284" lon="-1.68431">
        <ele>44</ele>
        <time>2018-01-15T01:18:58Z</time>
      </trkpt>
      <trkpt lat="46.79258" lon="-1.68524">
        <ele>46</ele>
        <time>2018-01-15T01:19:58Z</time>
      </trkpt>
      <trkpt lat="46.79258" lon="-1.68526">
        <ele>46</ele>
        <time>2018-01-15T01:20:58Z</time>
      </trkpt>
      <trkpt lat="46.79242" lon="-1.68587">
        <ele>46</ele>
        <time>2018-01-15T01:21:58Z</time>
      </trkpt>
      <trkpt lat="46.79222" lon="-1.68656">
        <ele>44</ele>
        <time>2018-01-15T01:22:58Z</time>
      </trkpt>
      <trkpt lat="46.79195" lon="-1.68751">
        <ele>44</ele>
        <time>2018-01-15T01:23:58Z</time>
      </trkpt>
      <trkpt lat="46.7917" lon="-1.68838">
        <ele>44</ele>
        <time>2018-01-15T01:24:58Z</time>
      </trkpt>
      <trkpt lat="46.79139" lon="-1.68949">
        <ele>45</ele>
        <time>2018-01-15T01:25:58Z</time>
      </trkpt>
      <trkpt lat="46.79125" lon="-1.68996">
        <ele>45</ele>
        <time>2018-01-15T01:26:58Z</time>
      </trkpt>
      <trkpt lat="46.79106" lon="-1.69064">
        <ele>45</ele>
        <time>2018-01-15T01:27:58Z</time>
      </trkpt>
      <trkpt lat="46.7909" lon="-1.69121">
        <ele>44</ele>
        <time>2018-01-15T01:28:58Z</time>
      </trkpt>
      <trkpt lat="46.79073" lon="-1.69182">
        <ele>44</ele>
        <time>2018-01-15T01:29:58Z</time>
      </trkpt>
      <trkpt lat="46.79051" lon="-1.69259">
        <ele>45</ele>
        <time>2018-01-15T01:30:58Z</time>
      </trkpt>
      <trkpt lat="46.79048" lon="-1.69268">
        <ele>45</ele>
        <time>2018-01-15T01:31:58Z</time>
      </trkpt>
      <trkpt lat="46.79033" lon="-1.69324">
        <ele>45</ele>
        <time>2018-01-15T01:32:58Z</time>
      </trkpt>
      <trkpt lat="46.7902" lon="-1.69366">
        <ele>45</ele>
        <time>2018-01-15T01:33:58Z</time>
      </trkpt>
      <trkpt lat="46.79013" lon="-1.69392">
        <ele>45</ele>
        <time>2018-01-15T01:34:58Z</time>
      </trkpt>
      <trkpt lat="46.79006" lon="-1.69421">
        <ele>45</ele>
        <time>2018-01-15T01:35:58Z</time>
      </trkpt>
      <trkpt lat="46.79003" lon="-1.69434">
        <ele>45</ele>
        <time>2018-01-15T01:36:58Z</time>
      </trkpt>
      <trkpt lat="46.79" lon="-1.69448">
        <ele>45</ele>
        <time>2018-01-15T01:37:58Z</time>
      </trkpt>
      <trkpt lat="46.79" lon="-1.6945">
        <ele>45</ele>
        <time>2018-01-15T01:38:58Z</time>
      </trkpt>
      <trkpt lat="46.78998" lon="-1.69461">
        <ele>46</ele>
        <time>2018-01-15T01:39:58Z</time>
      </trkpt>
      <trkpt lat="46.78996" lon="-1.69474">
        <ele>46</ele>
        <time>2018-01-15T01:40:58Z</time>
      </trkpt>
      <trkpt lat="46.78994" lon="-1.69486">
        <ele>46</ele>
        <time>2018-01-15T01:41:58Z</time>
      </trkpt>
      <trkpt lat="46.78992" lon="-1.69501">
        <ele>46</ele>
        <time>2018-01-15T01:42:58Z</time>
      </trkpt>
      <trkpt lat="46.78989" lon="-1.6952">
        <ele>46</ele>
        <time>2018-01-15T01:43:58Z</time>
      </trkpt>
      <trkpt lat="46.78983" lon="-1.69568">
        <ele>46</ele>
        <time>2018-01-15T01:44:58Z</time>
      </trkpt>
      <trkpt lat="46.78971" lon="-1.6968">
        <ele>47</ele>
        <time>2018-01-15T01:45:58Z</time>
      </trkpt>
      <trkpt lat="46.78963" lon="-1.69748">
        <ele>46</ele>
        <time>2018-01-15T01:46:58Z</time>
      </trkpt>
      <trkpt lat="46.78961" lon="-1.6977">
        <ele>46</ele>
        <time>2018-01-15T01:47:58Z</time>
      </trkpt>
      <trkpt lat="46.78954" lon="-1.69832">
        <ele>46</ele>
        <time>2018-01-15T01:48:58Z</time>
      </trkpt>
      <trkpt lat="46.78953" lon="-1.69842">
        <ele>47</ele>
        <time>2018-01-15T01:49:58Z</time>
      </trkpt>
      <trkpt lat="46.78949" lon="-1.69867">
        <ele>47</ele>
        <time>2018-01-15T01:50:58Z</time>
      </trkpt>
      <trkpt lat="46.78944" lon="-1.69893">
        <ele>48</ele>
        <time>2018-01-15T01:51:58Z</time>
      </trkpt>
      <trkpt lat="46.78939" lon="-1.69916">
        <ele>48</ele>
        <time>2018-01-15T01:52:58Z</time>
      </trkpt>
      <trkpt lat="46.78934" lon="-1.69938">
        <ele>48</ele>
        <time>2018-01-15T01:53:58Z</time>
      </trkpt>
      <trkpt lat="46.78925" lon="-1.69968">
        <ele>48</ele>
        <time>2018-01-15T01:54:58Z</time>
      </trkpt>
      <trkpt lat="46.78898" lon="-1.70064">
        <ele>48</ele>
        <time>2018-01-15T01:55:58Z</time>
      </trkpt>
      <trkpt lat="46.78887" lon="-1.70108">
        <ele>48</ele>
        <time>2018-01-15T01:56:58Z</time>
      </trkpt>
      <trkpt lat="46.78882" lon="-1.70135">
        <ele>48</ele>
        <time>2018-01-15T01:57:58Z</time>
      </trkpt>
      <trkpt lat="46.7888" lon="-1.70153">
        <ele>48</ele>
        <time>2018-01-15T01:58:58Z</time>
      </trkpt>
      <trkpt lat="46.7888" lon="-1.70155">
        <ele>48</ele>
        <time>2018-01-15T01:59:58Z</time>
      </trkpt>
      <trkpt lat="46.7888" lon="-1.70161">
        <ele>48</ele>
        <time>2018-01-15T02:00:58Z</time>
      </trkpt>
      <trkpt lat="46.7888" lon="-1.7017">
        <ele>48</ele>
        <time>2018-01-15T02:01:58Z</time>
      </trkpt>
      <trkpt lat="46.7888" lon="-1.70187">
        <ele>48</ele>
        <time>2018-01-15T02:02:58Z</time>
      </trkpt>
      <trkpt lat="46.78881" lon="-1.70216">
        <ele>48</ele>
        <time>2018-01-15T02:03:58Z</time>
      </trkpt>
      <trkpt lat="46.78881" lon="-1.70226">
        <ele>48</ele>
        <time>2018-01-15T02:04:58Z</time>
      </trkpt>
      <trkpt lat="46.78882" lon="-1.70231">
        <ele>48</ele>
        <time>2018-01-15T02:05:58Z</time>
      </trkpt>
      <trkpt lat="46.78882" lon="-1.7024">
        <ele>48</ele>
        <time>2018-01-15T02:06:58Z</time>
      </trkpt>
      <trkpt lat="46.78881" lon="-1.70248">
        <ele>48</ele>
        <time>2018-01-15T02:07:58Z</time>
      </trkpt>
      <trkpt lat="46.7888" lon="-1.70261">
        <ele>48</ele>
        <time>2018-01-15T02:08:58Z</time>
      </trkpt>
      <trkpt lat="46.78878" lon="-1.7027">
        <ele>48</ele>
        <time>2018-01-15T02:09:58Z</time>
      </trkpt>
      <trkpt lat="46.78878" lon="-1.70294">
        <ele>48</ele>
        <time>2018-01-15T02:10:58Z</time>
      </trkpt>
      <trkpt lat="46.78878" lon="-1.70294">
        <ele>48</ele>
        <time>2018-01-15T02:11:58Z</time>
      </trkpt>
      <trkpt lat="46.78885" lon="-1.70307">
        <ele>48</ele>
        <time>2018-01-15T02:12:58Z</time>
      </trkpt>
      <trkpt lat="46.78892" lon="-1.70319">
        <ele>48</ele>
        <time>2018-01-15T02:13:58Z</time>
      </trkpt>
      <trkpt lat="46.78898" lon="-1.7033">
        <ele>48</ele>
        <time>2018-01-15T02:14:58Z</time>
      </trkpt>
      <trkpt lat="46.78898" lon="-1.7033">
        <ele>48</ele>
        <time>2018-01-15T02:15:58Z</time>
      </trkpt>
      <trkpt lat="46.78892" lon="-1.70336">
        <ele>48</ele>
        <time>2018-01-15T02:16:58Z</time>
      </trkpt>
      <trkpt lat="46.78888" lon="-1.70346">
        <ele>48</ele>
        <time>2018-01-15T02:17:58Z</time>
      </trkpt>
      <trkpt lat="46.78887" lon="-1.70349">
        <ele>47</ele>
        <time>2018-01-15T02:18:58Z</time>
      </trkpt>
      <trkpt lat="46.78886" lon="-1.70352">
        <ele>47</ele>
        <time>2018-01-15T02:19:58Z</time>
      </trkpt>
      <trkpt lat="46.78885" lon="-1.70366">
        <ele>47</ele>
        <time>2018-01-15T02:20:58Z</time>
      </trkpt>
      <trkpt lat="46.78885" lon="-1.70371">
        <ele>47</ele>
        <time>2018-01-15T02:21:58Z</time>
      </trkpt>
      <trkpt lat="46.78885" lon="-1.7038">
        <ele>47</ele>
        <time>2018-01-15T02:22:58Z</time>
      </trkpt>
      <trkpt lat="46.78888" lon="-1.70446">
        <ele>46</ele>
        <time>2018-01-15T02:23:58Z</time>
      </trkpt>
      <trkpt lat="46.78889" lon="-1.70484">
        <ele>45</ele>
        <time>2018-01-15T02:24:58Z</time>
      </trkpt>
      <trkpt lat="46.78889" lon="-1.70503">
        <ele>44</ele>
        <time>2018-01-15T02:25:58Z</time>
      </trkpt>
      <trkpt lat="46.78888" lon="-1.70523">
        <ele>44</ele>
        <time>2018-01-15T02:26:58Z</time>
      </trkpt>
      <trkpt lat="46.78888" lon="-1.70539">
        <ele>44</ele>
        <time>2018-01-15T02:27:58Z</time>
      </trkpt>
      <trkpt lat="46.78885" lon="-1.7056">
        <ele>43</ele>
        <time>2018-01-15T02:28:58Z</time>
      </trkpt>
      <trkpt lat="46.78883" lon="-1.70579">
        <ele>43</ele>
        <time>2018-01-15T02:29:58Z</time>
      </trkpt>
      <trkpt lat="46.78881" lon="-1.70594">
        <ele>43</ele>
        <time>2018-01-15T02:30:58Z</time>
      </trkpt>
      <trkpt lat="46.78878" lon="-1.70608">
        <ele>43</ele>
        <time>2018-01-15T02:31:58Z</time>
      </trkpt>
      <trkpt lat="46.78876" lon="-1.70617">
        <ele>43</ele>
        <time>2018-01-15T02:32:58Z</time>
      </trkpt>
      <trkpt lat="46.78852" lon="-1.70705">
        <ele>43</ele>
        <time>2018-01-15T02:33:58Z</time>
      </trkpt>
      <trkpt lat="46.78837" lon="-1.70762">
        <ele>42</ele>
        <time>2018-01-15T02:34:58Z</time>
      </trkpt>
      <trkpt lat="46.78785" lon="-1.70972">
        <ele>41</ele>
        <time>2018-01-15T02:35:58Z</time>
      </trkpt>
      <trkpt lat="46.78729" lon="-1.7119">
        <ele>43</ele>
        <time>2018-01-15T02:36:58Z</time>
      </trkpt>
      <trkpt lat="46.78721" lon="-1.71229">
        <ele>44</ele>
        <time>2018-01-15T02:37:58Z</time>
      </trkpt>
      <trkpt lat="46.78714" lon="-1.71265">
        <ele>44</ele>
        <time>2018-01-15T02:38:58Z</time>
      </trkpt>
      <trkpt lat="46.78705" lon="-1.71332">
        <ele>45</ele>
        <time>2018-01-15T02:39:58Z</time>
      </trkpt>
      <trkpt lat="46.78702" lon="-1.71355">
        <ele>45</ele>
        <time>2018-01-15T02:40:58Z</time>
      </trkpt>
      <trkpt lat="46.78693" lon="-1.71413">
        <ele>46</ele>
        <time>2018-01-15T02:41:58Z</time>
      </trkpt>
      <trkpt lat="46.78686" lon="-1.71469">
        <ele>47</ele>
        <time>2018-01-15T02:42:58Z</time>
      </trkpt>
      <trkpt lat="46.78672" lon="-1.71568">
        <ele>48</ele>
        <time>2018-01-15T02:43:58Z</time>
      </trkpt>
      <trkpt lat="46.78665" lon="-1.71618">
        <ele>48</ele>
        <time>2018-01-15T02:44:58Z</time>
      </trkpt>
      <trkpt lat="46.78646" lon="-1.71762">
        <ele>47</ele>
        <time>2018-01-15T02:45:58Z</time>
      </trkpt>
      <trkpt lat="46.78631" lon="-1.71864">
        <ele>48</ele>
        <time>2018-01-15T02:46:58Z</time>
      </trkpt>
      <trkpt lat="46.78613" lon="-1.71983">
        <ele>49</ele>
        <time>2018-01-15T02:47:58Z</time>
      </trkpt>
      <trkpt lat="46.78608" lon="-1.7203">
        <ele>49</ele>
        <time>2018-01-15T02:48:58Z</time>
      </trkpt>
      <trkpt lat="46.78605" lon="-1.72056">
        <ele>49</ele>
        <time>2018-01-15T02:49:58Z</time>
      </trkpt>
      <trkpt lat="46.78603" lon="-1.72087">
        <ele>50</ele>
        <time>2018-01-15T02:50:58Z</time>
      </trkpt>
      <trkpt lat="46.78599" lon="-1.72138">
        <ele>49</ele>
        <time>2018-01-15T02:51:58Z</time>
      </trkpt>
      <trkpt lat="46.78597" lon="-1.72175">
        <ele>49</ele>
        <time>2018-01-15T02:52:58Z</time>
      </trkpt>
      <trkpt lat="46.78591" lon="-1.72291">
        <ele>49</ele>
        <time>2018-01-15T02:53:58Z</time>
      </trkpt>
      <trkpt lat="46.78586" lon="-1.72381">
        <ele>49</ele>
        <time>2018-01-15T02:54:58Z</time>
      </trkpt>
      <trkpt lat="46.7858" lon="-1.72481">
        <ele>49</ele>
        <time>2018-01-15T02:55:58Z</time>
      </trkpt>
      <trkpt lat="46.78576" lon="-1.72562">
        <ele>49</ele>
        <time>2018-01-15T02:56:58Z</time>
      </trkpt>
      <trkpt lat="46.78571" lon="-1.72641">
        <ele>49</ele>
        <time>2018-01-15T02:57:58Z</time>
      </trkpt>
      <trkpt lat="46.7857" lon="-1.72658">
        <ele>49</ele>
        <time>2018-01-15T02:58:58Z</time>
      </trkpt>
      <trkpt lat="46.78569" lon="-1.72677">
        <ele>49</ele>
        <time>2018-01-15T02:59:58Z</time>
      </trkpt>
      <trkpt lat="46.78569" lon="-1.7268">
        <ele>49</ele>
        <time>2018-01-15T03:00:58Z</time>
      </trkpt>
      <trkpt lat="46.78567" lon="-1.72701">
        <ele>49</ele>
        <time>2018-01-15T03:01:58Z</time>
      </trkpt>
      <trkpt lat="46.78566" lon="-1.72721">
        <ele>49</ele>
        <time>2018-01-15T03:02:58Z</time>
      </trkpt>
      <trkpt lat="46.78564" lon="-1.72735">
        <ele>49</ele>
        <time>2018-01-15T03:03:58Z</time>
      </trkpt>
      <trkpt lat="46.78563" lon="-1.72748">
        <ele>49</ele>
        <time>2018-01-15T03:04:58Z</time>
      </trkpt>
      <trkpt lat="46.78561" lon="-1.72761">
        <ele>49</ele>
        <time>2018-01-15T03:05:58Z</time>
      </trkpt>
      <trkpt lat="46.78559" lon="-1.72776">
        <ele>49</ele>
        <time>2018-01-15T03:06:58Z</time>
      </trkpt>
      <trkpt lat="46.78556" lon="-1.72797">
        <ele>49</ele>
        <time>2018-01-15T03:07:58Z</time>
      </trkpt>
      <trkpt lat="46.78551" lon="-1.72824">
        <ele>49</ele>
        <time>2018-01-15T03:08:58Z</time>
      </trkpt>
      <trkpt lat="46.78548" lon="-1.72842">
        <ele>49</ele>
        <time>2018-01-15T03:09:58Z</time>
      </trkpt>
      <trkpt lat="46.78545" lon="-1.72862">
        <ele>50</ele>
        <time>2018-01-15T03:10:58Z</time>
      </trkpt>
      <trkpt lat="46.78526" lon="-1.7299">
        <ele>51</ele>
        <time>2018-01-15T03:11:58Z</time>
      </trkpt>
      <trkpt lat="46.78509" lon="-1.73095">
        <ele>51</ele>
        <time>2018-01-15T03:12:58Z</time>
      </trkpt>
      <trkpt lat="46.78498" lon="-1.73169">
        <ele>51</ele>
        <time>2018-01-15T03:13:58Z</time>
      </trkpt>
      <trkpt lat="46.78488" lon="-1.73237">
        <ele>50</ele>
        <time>2018-01-15T03:14:58Z</time>
      </trkpt>
      <trkpt lat="46.78485" lon="-1.73259">
        <ele>50</ele>
        <time>2018-01-15T03:15:58Z</time>
      </trkpt>
      <trkpt lat="46.78484" lon="-1.73268">
        <ele>51</ele>
        <time>2018-01-15T03:16:58Z</time>
      </trkpt>
      <trkpt lat="46.78482" lon="-1.73279">
        <ele>51</ele>
        <time>2018-01-15T03:17:58Z</time>
      </trkpt>
      <trkpt lat="46.78482" lon="-1.73291">
        <ele>51</ele>
        <time>2018-01-15T03:18:58Z</time>
      </trkpt>
      <trkpt lat="46.78481" lon="-1.73304">
        <ele>51</ele>
        <time>2018-01-15T03:19:58Z</time>
      </trkpt>
      <trkpt lat="46.78479" lon="-1.73343">
        <ele>52</ele>
        <time>2018-01-15T03:20:58Z</time>
      </trkpt>
      <trkpt lat="46.78477" lon="-1.73414">
        <ele>52</ele>
        <time>2018-01-15T03:21:58Z</time>
      </trkpt>
      <trkpt lat="46.78476" lon="-1.73484">
        <ele>52</ele>
        <time>2018-01-15T03:22:58Z</time>
      </trkpt>
      <trkpt lat="46.78475" lon="-1.7354">
        <ele>52</ele>
        <time>2018-01-15T03:23:58Z</time>
      </trkpt>
      <trkpt lat="46.78475" lon="-1.73641">
        <ele>52</ele>
        <time>2018-01-15T03:24:58Z</time>
      </trkpt>
      <trkpt lat="46.78475" lon="-1.73703">
        <ele>52</ele>
        <time>2018-01-15T03:25:58Z</time>
      </trkpt>
      <trkpt lat="46.78474" lon="-1.73757">
        <ele>52</ele>
        <time>2018-01-15T03:26:58Z</time>
      </trkpt>
      <trkpt lat="46.78474" lon="-1.73793">
        <ele>52</ele>
        <time>2018-01-15T03:27:58Z</time>
      </trkpt>
      <trkpt lat="46.78475" lon="-1.73816">
        <ele>52</ele>
        <time>2018-01-15T03:28:58Z</time>
      </trkpt>
      <trkpt lat="46.78477" lon="-1.73831">
        <ele>52</ele>
        <time>2018-01-15T03:29:58Z</time>
      </trkpt>
      <trkpt lat="46.78481" lon="-1.73888">
        <ele>52</ele>
        <time>2018-01-15T03:30:58Z</time>
      </trkpt>
      <trkpt lat="46.78489" lon="-1.73967">
        <ele>51</ele>
        <time>2018-01-15T03:31:58Z</time>
      </trkpt>
      <trkpt lat="46.78504" lon="-1.74108">
        <ele>52</ele>
        <time>2018-01-15T03:32:58Z</time>
      </trkpt>
      <trkpt lat="46.78516" lon="-1.74225">
        <ele>52</ele>
        <time>2018-01-15T03:33:58Z</time>
      </trkpt>
      <trkpt lat="46.78528" lon="-1.74334">
        <ele>53</ele>
        <time>2018-01-15T03:34:58Z</time>
      </trkpt>
      <trkpt lat="46.78532" lon="-1.74373">
        <ele>53</ele>
        <time>2018-01-15T03:35:58Z</time>
      </trkpt>
      <trkpt lat="46.78547" lon="-1.74518">
        <ele>53</ele>
        <time>2018-01-15T03:36:58Z</time>
      </trkpt>
      <trkpt lat="46.78554" lon="-1.7458">
        <ele>51</ele>
        <time>2018-01-15T03:37:58Z</time>
      </trkpt>
      <trkpt lat="46.7856" lon="-1.74634">
        <ele>51</ele>
        <time>2018-01-15T03:38:58Z</time>
      </trkpt>
      <trkpt lat="46.78568" lon="-1.74709">
        <ele>51</ele>
        <time>2018-01-15T03:39:58Z</time>
      </trkpt>
      <trkpt lat="46.78574" lon="-1.7477">
        <ele>51</ele>
        <time>2018-01-15T03:40:58Z</time>
      </trkpt>
      <trkpt lat="46.78576" lon="-1.74794">
        <ele>51</ele>
        <time>2018-01-15T03:41:58Z</time>
      </trkpt>
      <trkpt lat="46.78577" lon="-1.74814">
        <ele>50</ele>
        <time>2018-01-15T03:42:58Z</time>
      </trkpt>
      <trkpt lat="46.78577" lon="-1.74832">
        <ele>50</ele>
        <time>2018-01-15T03:43:58Z</time>
      </trkpt>
      <trkpt lat="46.78578" lon="-1.74838">
        <ele>50</ele>
        <time>2018-01-15T03:44:58Z</time>
      </trkpt>
      <trkpt lat="46.78577" lon="-1.74847">
        <ele>50</ele>
        <time>2018-01-15T03:45:58Z</time>
      </trkpt>
      <trkpt lat="46.78577" lon="-1.74855">
        <ele>50</ele>
        <time>2018-01-15T03:46:58Z</time>
      </trkpt>
      <trkpt lat="46.78576" lon="-1.74865">
        <ele>50</ele>
        <time>2018-01-15T03:47:58Z</time>
      </trkpt>
      <trkpt lat="46.78575" lon="-1.74872">
        <ele>50</ele>
        <time>2018-01-15T03:48:58Z</time>
      </trkpt>
      <trkpt lat="46.78573" lon="-1.74882">
        <ele>50</ele>
        <time>2018-01-15T03:49:58Z</time>
      </trkpt>
      <trkpt lat="46.78566" lon="-1.74925">
        <ele>50</ele>
        <time>2018-01-15T03:50:58Z</time>
      </trkpt>
      <trkpt lat="46.7855" lon="-1.75001">
        <ele>49</ele>
        <time>2018-01-15T03:51:58Z</time>
      </trkpt>
      <trkpt lat="46.78547" lon="-1.7502">
        <ele>49</ele>
        <time>2018-01-15T03:52:58Z</time>
      </trkpt>
      <trkpt lat="46.78532" lon="-1.7509">
        <ele>49</ele>
        <time>2018-01-15T03:53:58Z</time>
      </trkpt>
      <trkpt lat="46.78528" lon="-1.75115">
        <ele>48</ele>
        <time>2018-01-15T03:54:58Z</time>
      </trkpt>
      <trkpt lat="46.78511" lon="-1.75198">
        <ele>48</ele>
        <time>2018-01-15T03:55:58Z</time>
      </trkpt>
      <trkpt lat="46.78505" lon="-1.7523">
        <ele>49</ele>
        <time>2018-01-15T03:56:58Z</time>
      </trkpt>
      <trkpt lat="46.7848" lon="-1.75352">
        <ele>49</ele>
        <time>2018-01-15T03:57:58Z</time>
      </trkpt>
      <trkpt lat="46.78473" lon="-1.75387">
        <ele>49</ele>
        <time>2018-01-15T03:58:58Z</time>
      </trkpt>
      <trkpt lat="46.78459" lon="-1.75455">
        <ele>48</ele>
        <time>2018-01-15T03:59:58Z</time>
      </trkpt>
      <trkpt lat="46.78448" lon="-1.75511">
        <ele>48</ele>
        <time>2018-01-15T04:00:58Z</time>
      </trkpt>
      <trkpt lat="46.7844" lon="-1.75543">
        <ele>47</ele>
        <time>2018-01-15T04:01:58Z</time>
      </trkpt>
      <trkpt lat="46.78435" lon="-1.7556">
        <ele>47</ele>
        <time>2018-01-15T04:02:58Z</time>
      </trkpt>
      <trkpt lat="46.78429" lon="-1.75576">
        <ele>46</ele>
        <time>2018-01-15T04:03:58Z</time>
      </trkpt>
      <trkpt lat="46.78416" lon="-1.75611">
        <ele>46</ele>
        <time>2018-01-15T04:04:58Z</time>
      </trkpt>
      <trkpt lat="46.78404" lon="-1.75639">
        <ele>45</ele>
        <time>2018-01-15T04:05:58Z</time>
      </trkpt>
      <trkpt lat="46.7839" lon="-1.75668">
        <ele>45</ele>
        <time>2018-01-15T04:06:58Z</time>
      </trkpt>
      <trkpt lat="46.78386" lon="-1.75677">
        <ele>45</ele>
        <time>2018-01-15T04:07:58Z</time>
      </trkpt>
      <trkpt lat="46.78375" lon="-1.757">
        <ele>46</ele>
        <time>2018-01-15T04:08:58Z</time>
      </trkpt>
      <trkpt lat="46.78364" lon="-1.75725">
        <ele>46</ele>
        <time>2018-01-15T04:09:58Z</time>
      </trkpt>
      <trkpt lat="46.78345" lon="-1.75763">
        <ele>47</ele>
        <time>2018-01-15T04:10:58Z</time>
      </trkpt>
      <trkpt lat="46.78322" lon="-1.75813">
        <ele>47</ele>
        <time>2018-01-15T04:11:58Z</time>
      </trkpt>
      <trkpt lat="46.78305" lon="-1.75849">
        <ele>46</ele>
        <time>2018-01-15T04:12:58Z</time>
      </trkpt>
      <trkpt lat="46.78287" lon="-1.75884">
        <ele>46</ele>
        <time>2018-01-15T04:13:58Z</time>
      </trkpt>
      <trkpt lat="46.78266" lon="-1.7593">
        <ele>45</ele>
        <time>2018-01-15T04:14:58Z</time>
      </trkpt>
      <trkpt lat="46.7825" lon="-1.75964">
        <ele>45</ele>
        <time>2018-01-15T04:15:58Z</time>
      </trkpt>
      <trkpt lat="46.78249" lon="-1.75965">
        <ele>45</ele>
        <time>2018-01-15T04:16:58Z</time>
      </trkpt>
      <trkpt lat="46.78239" lon="-1.75987">
        <ele>45</ele>
        <time>2018-01-15T04:17:58Z</time>
      </trkpt>
      <trkpt lat="46.78228" lon="-1.7601">
        <ele>45</ele>
        <time>2018-01-15T04:18:58Z</time>
      </trkpt>
      <trkpt lat="46.7821" lon="-1.76048">
        <ele>46</ele>
        <time>2018-01-15T04:19:58Z</time>
      </trkpt>
      <trkpt lat="46.782" lon="-1.76071">
        <ele>47</ele>
        <time>2018-01-15T04:20:58Z</time>
      </trkpt>
      <trkpt lat="46.78187" lon="-1.76098">
        <ele>47</ele>
        <time>2018-01-15T04:21:58Z</time>
      </trkpt>
      <trkpt lat="46.7816" lon="-1.76152">
        <ele>47</ele>
        <time>2018-01-15T04:22:58Z</time>
      </trkpt>
      <trkpt lat="46.78153" lon="-1.76167">
        <ele>47</ele>
        <time>2018-01-15T04:23:58Z</time>
      </trkpt>
      <trkpt lat="46.78144" lon="-1.76183">
        <ele>47</ele>
        <time>2018-01-15T04:24:58Z</time>
      </trkpt>
      <trkpt lat="46.78128" lon="-1.76204">
        <ele>47</ele>
        <time>2018-01-15T04:25:58Z</time>
      </trkpt>
      <trkpt lat="46.78109" lon="-1.76231">
        <ele>47</ele>
        <time>2018-01-15T04:26:58Z</time>
      </trkpt>
      <trkpt lat="46.7809" lon="-1.76255">
        <ele>47</ele>
        <time>2018-01-15T04:27:58Z</time>
      </trkpt>
      <trkpt lat="46.78078" lon="-1.76268">
        <ele>47</ele>
        <time>2018-01-15T04:28:58Z</time>
      </trkpt>
      <trkpt lat="46.78055" lon="-1.76297">
        <ele>48</ele>
        <time>2018-01-15T04:29:58Z</time>
      </trkpt>
      <trkpt lat="46.78027" lon="-1.76332">
        <ele>50</ele>
        <time>2018-01-15T04:30:58Z</time>
      </trkpt>
      <trkpt lat="46.78008" lon="-1.76355">
        <ele>50</ele>
        <time>2018-01-15T04:31:58Z</time>
      </trkpt>
      <trkpt lat="46.77988" lon="-1.7638">
        <ele>50</ele>
        <time>2018-01-15T04:32:58Z</time>
      </trkpt>
      <trkpt lat="46.77967" lon="-1.76407">
        <ele>50</ele>
        <time>2018-01-15T04:33:58Z</time>
      </trkpt>
      <trkpt lat="46.77951" lon="-1.76427">
        <ele>50</ele>
        <time>2018-01-15T04:34:58Z</time>
      </trkpt>
      <trkpt lat="46.77928" lon="-1.76455">
        <ele>50</ele>
        <time>2018-01-15T04:35:58Z</time>
      </trkpt>
      <trkpt lat="46.77913" lon="-1.76474">
        <ele>50</ele>
        <time>2018-01-15T04:36:58Z</time>
      </trkpt>
      <trkpt lat="46.77883" lon="-1.76512">
        <ele>51</ele>
        <time>2018-01-15T04:37:58Z</time>
      </trkpt>
      <trkpt lat="46.77854" lon="-1.76548">
        <ele>52</ele>
        <time>2018-01-15T04:38:58Z</time>
      </trkpt>
      <trkpt lat="46.77845" lon="-1.76559">
        <ele>52</ele>
        <time>2018-01-15T04:39:58Z</time>
      </trkpt>
      <trkpt lat="46.77826" lon="-1.76584">
        <ele>52</ele>
        <time>2018-01-15T04:40:58Z</time>
      </trkpt>
      <trkpt lat="46.77826" lon="-1.76584">
        <ele>52</ele>
        <time>2018-01-15T04:41:58Z</time>
      </trkpt>
      <trkpt lat="46.77822" lon="-1.76589">
        <ele>52</ele>
        <time>2018-01-15T04:42:58Z</time>
      </trkpt>
      <trkpt lat="46.7779" lon="-1.76628">
        <ele>52</ele>
        <time>2018-01-15T04:43:58Z</time>
      </trkpt>
      <trkpt lat="46.77786" lon="-1.76634">
        <ele>52</ele>
        <time>2018-01-15T04:44:58Z</time>
      </trkpt>
      <trkpt lat="46.77743" lon="-1.76686">
        <ele>53</ele>
        <time>2018-01-15T04:45:58Z</time>
      </trkpt>
      <trkpt lat="46.7773" lon="-1.76703">
        <ele>52</ele>
        <time>2018-01-15T04:46:58Z</time>
      </trkpt>
      <trkpt lat="46.77721" lon="-1.76715">
        <ele>52</ele>
        <time>2018-01-15T04:47:58Z</time>
      </trkpt>
      <trkpt lat="46.77712" lon="-1.7673">
        <ele>52</ele>
        <time>2018-01-15T04:48:58Z</time>
      </trkpt>
      <trkpt lat="46.77712" lon="-1.7673">
        <ele>52</ele>
        <time>2018-01-15T04:49:58Z</time>
      </trkpt>
      <trkpt lat="46.77665" lon="-1.76719">
        <ele>53</ele>
        <time>2018-01-15T04:50:58Z</time>
      </trkpt>
      <trkpt lat="46.77665" lon="-1.76719">
        <ele>53</ele>
        <time>2018-01-15T04:51:58Z</time>
      </trkpt>
      <trkpt lat="46.77662" lon="-1.76729">
        <ele>53</ele>
        <time>2018-01-15T04:52:58Z</time>
      </trkpt>
      <trkpt lat="46.77659" lon="-1.76736">
        <ele>53</ele>
        <time>2018-01-15T04:53:58Z</time>
      </trkpt>
      <trkpt lat="46.77658" lon="-1.76739">
        <ele>53</ele>
        <time>2018-01-15T04:54:58Z</time>
      </trkpt>
      <trkpt lat="46.77656" lon="-1.76741">
        <ele>53</ele>
        <time>2018-01-15T04:55:58Z</time>
      </trkpt>
      <trkpt lat="46.77652" lon="-1.76746">
        <ele>53</ele>
        <time>2018-01-15T04:56:58Z</time>
      </trkpt>
      <trkpt lat="46.77646" lon="-1.76753">
        <ele>53</ele>
        <time>2018-01-15T04:57:58Z</time>
      </trkpt>
      <trkpt lat="46.77642" lon="-1.7676">
        <ele>53</ele>
        <time>2018-01-15T04:58:58Z</time>
      </trkpt>
      <trkpt lat="46.77617" lon="-1.76807">
        <ele>53</ele>
        <time>2018-01-15T04:59:58Z</time>
      </trkpt>
      <trkpt lat="46.77597" lon="-1.76842">
        <ele>53</ele>
        <time>2018-01-15T05:00:58Z</time>
      </trkpt>
      <trkpt lat="46.77592" lon="-1.76851">
        <ele>53</ele>
        <time>2018-01-15T05:01:58Z</time>
      </trkpt>
      <trkpt lat="46.77554" lon="-1.76921">
        <ele>53</ele>
        <time>2018-01-15T05:02:58Z</time>
      </trkpt>
      <trkpt lat="46.77511" lon="-1.77001">
        <ele>53</ele>
        <time>2018-01-15T05:03:58Z</time>
      </trkpt>
      <trkpt lat="46.77469" lon="-1.77081">
        <ele>52</ele>
        <time>2018-01-15T05:04:58Z</time>
      </trkpt>
      <trkpt lat="46.77427" lon="-1.77158">
        <ele>51</ele>
        <time>2018-01-15T05:05:58Z</time>
      </trkpt>
      <trkpt lat="46.77389" lon="-1.77229">
        <ele>51</ele>
        <time>2018-01-15T05:06:58Z</time>
      </trkpt>
      <trkpt lat="46.7736" lon="-1.77283">
        <ele>51</ele>
        <time>2018-01-15T05:07:58Z</time>
      </trkpt>
      <trkpt lat="46.77331" lon="-1.77337">
        <ele>50</ele>
        <time>2018-01-15T05:08:58Z</time>
      </trkpt>
      <trkpt lat="46.77301" lon="-1.77393">
        <ele>50</ele>
        <time>2018-01-15T05:09:58Z</time>
      </trkpt>
      <trkpt lat="46.77282" lon="-1.77428">
        <ele>50</ele>
        <time>2018-01-15T05:10:58Z</time>
      </trkpt>
      <trkpt lat="46.77263" lon="-1.77462">
        <ele>51</ele>
        <time>2018-01-15T05:11:58Z</time>
      </trkpt>
      <trkpt lat="46.77259" lon="-1.77471">
        <ele>51</ele>
        <time>2018-01-15T05:12:58Z</time>
      </trkpt>
      <trkpt lat="46.77255" lon="-1.7748">
        <ele>51</ele>
        <time>2018-01-15T05:13:58Z</time>
      </trkpt>
      <trkpt lat="46.7725" lon="-1.77491">
        <ele>51</ele>
        <time>2018-01-15T05:14:58Z</time>
      </trkpt>
      <trkpt lat="46.77246" lon="-1.77501">
        <ele>51</ele>
        <time>2018-01-15T05:15:58Z</time>
      </trkpt>
      <trkpt lat="46.77243" lon="-1.77511">
        <ele>51</ele>
        <time>2018-01-15T05:16:58Z</time>
      </trkpt>
      <trkpt lat="46.7724" lon="-1.77522">
        <ele>51</ele>
        <time>2018-01-15T05:17:58Z</time>
      </trkpt>
      <trkpt lat="46.77237" lon="-1.77534">
        <ele>52</ele>
        <time>2018-01-15T05:18:58Z</time>
      </trkpt>
      <trkpt lat="46.77233" lon="-1.77556">
        <ele>52</ele>
        <time>2018-01-15T05:19:58Z</time>
      </trkpt>
      <trkpt lat="46.77229" lon="-1.7758">
        <ele>52</ele>
        <time>2018-01-15T05:20:58Z</time>
      </trkpt>
      <trkpt lat="46.77225" lon="-1.77615">
        <ele>51</ele>
        <time>2018-01-15T05:21:58Z</time>
      </trkpt>
      <trkpt lat="46.77219" lon="-1.77662">
        <ele>50</ele>
        <time>2018-01-15T05:22:58Z</time>
      </trkpt>
      <trkpt lat="46.77218" lon="-1.77677">
        <ele>50</ele>
        <time>2018-01-15T05:23:58Z</time>
      </trkpt>
      <trkpt lat="46.77218" lon="-1.77677">
        <ele>50</ele>
        <time>2018-01-15T05:24:58Z</time>
      </trkpt>
      <trkpt lat="46.77215" lon="-1.77675">
        <ele>50</ele>
        <time>2018-01-15T05:25:58Z</time>
      </trkpt>
      <trkpt lat="46.77212" lon="-1.77671">
        <ele>50</ele>
        <time>2018-01-15T05:26:58Z</time>
      </trkpt>
      <trkpt lat="46.7721" lon="-1.77668">
        <ele>50</ele>
        <time>2018-01-15T05:27:58Z</time>
      </trkpt>
      <trkpt lat="46.77208" lon="-1.77665">
        <ele>51</ele>
        <time>2018-01-15T05:28:58Z</time>
      </trkpt>
      <trkpt lat="46.77173" lon="-1.77578">
        <ele>52</ele>
        <time>2018-01-15T05:29:58Z</time>
      </trkpt>
      <trkpt lat="46.77173" lon="-1.77578">
        <ele>52</ele>
        <time>2018-01-15T05:30:58Z</time>
      </trkpt>
      <trkpt lat="46.77138" lon="-1.77612">
        <ele>52</ele>
        <time>2018-01-15T05:31:58Z</time>
      </trkpt>
      <trkpt lat="46.77084" lon="-1.7767">
        <ele>52</ele>
        <time>2018-01-15T05:32:58Z</time>
      </trkpt>
      <trkpt lat="46.7705" lon="-1.77701">
        <ele>52</ele>
        <time>2018-01-15T05:33:58Z</time>
      </trkpt>
      <trkpt lat="46.77031" lon="-1.77718">
        <ele>52</ele>
        <time>2018-01-15T05:34:58Z</time>
      </trkpt>
      <trkpt lat="46.77011" lon="-1.77733">
        <ele>53</ele>
        <time>2018-01-15T05:35:58Z</time>
      </trkpt>
      <trkpt lat="46.76975" lon="-1.77757">
        <ele>53</ele>
        <time>2018-01-15T05:36:58Z</time>
      </trkpt>
      <trkpt lat="46.76938" lon="-1.77782">
        <ele>52</ele>
        <time>2018-01-15T05:37:58Z</time>
      </trkpt>
      <trkpt lat="46.76905" lon="-1.77802">
        <ele>51</ele>
        <time>2018-01-15T05:38:58Z</time>
      </trkpt>
      <trkpt lat="46.7689" lon="-1.77811">
        <ele>52</ele>
        <time>2018-01-15T05:39:58Z</time>
      </trkpt>
      <trkpt lat="46.76875" lon="-1.77822">
        <ele>52</ele>
        <time>2018-01-15T05:40:58Z</time>
      </trkpt>
      <trkpt lat="46.76866" lon="-1.7783">
        <ele>52</ele>
        <time>2018-01-15T05:41:58Z</time>
      </trkpt>
      <trkpt lat="46.76857" lon="-1.77838">
        <ele>52</ele>
        <time>2018-01-15T05:42:58Z</time>
      </trkpt>
      <trkpt lat="46.76849" lon="-1.77847">
        <ele>52</ele>
        <time>2018-01-15T05:43:58Z</time>
      </trkpt>
      <trkpt lat="46.76839" lon="-1.77858">
        <ele>51</ele>
        <time>2018-01-15T05:44:58Z</time>
      </trkpt>
      <trkpt lat="46.76828" lon="-1.77873">
        <ele>51</ele>
        <time>2018-01-15T05:45:58Z</time>
      </trkpt>
      <trkpt lat="46.76797" lon="-1.77917">
        <ele>50</ele>
        <time>2018-01-15T05:46:58Z</time>
      </trkpt>
      <trkpt lat="46.76763" lon="-1.77966">
        <ele>49</ele>
        <time>2018-01-15T05:47:58Z</time>
      </trkpt>
      <trkpt lat="46.76747" lon="-1.77987">
        <ele>49</ele>
        <time>2018-01-15T05:48:58Z</time>
      </trkpt>
      <trkpt lat="46.76734" lon="-1.78003">
        <ele>49</ele>
        <time>2018-01-15T05:49:58Z</time>
      </trkpt>
      <trkpt lat="46.7672" lon="-1.78018">
        <ele>50</ele>
        <time>2018-01-15T05:50:58Z</time>
      </trkpt>
      <trkpt lat="46.76707" lon="-1.78031">
        <ele>50</ele>
        <time>2018-01-15T05:51:58Z</time>
      </trkpt>
      <trkpt lat="46.76688" lon="-1.78047">
        <ele>50</ele>
        <time>2018-01-15T05:52:58Z</time>
      </trkpt>
      <trkpt lat="46.76676" lon="-1.78059">
        <ele>50</ele>
        <time>2018-01-15T05:53:58Z</time>
      </trkpt>
      <trkpt lat="46.76666" lon="-1.78066">
        <ele>50</ele>
        <time>2018-01-15T05:54:58Z</time>
      </trkpt>
      <trkpt lat="46.76654" lon="-1.78074">
        <ele>50</ele>
        <time>2018-01-15T05:55:58Z</time>
      </trkpt>
      <trkpt lat="46.76644" lon="-1.7808">
        <ele>50</ele>
        <time>2018-01-15T05:56:58Z</time>
      </trkpt>
      <trkpt lat="46.76632" lon="-1.78086">
        <ele>50</ele>
        <time>2018-01-15T05:57:58Z</time>
      </trkpt>
      <trkpt lat="46.766" lon="-1.78103">
        <ele>51</ele>
        <time>2018-01-15T05:58:58Z</time>
      </trkpt>
      <trkpt lat="46.76562" lon="-1.78122">
        <ele>51</ele>
        <time>2018-01-15T05:59:58Z</time>
      </trkpt>
      <trkpt lat="46.76519" lon="-1.78143">
        <ele>50</ele>
        <time>2018-01-15T06:00:58Z</time>
      </trkpt>
      <trkpt lat="46.7647" lon="-1.78168">
        <ele>50</ele>
        <time>2018-01-15T06:01:58Z</time>
      </trkpt>
      <trkpt lat="46.76435" lon="-1.78184">
        <ele>50</ele>
        <time>2018-01-15T06:02:58Z</time>
      </trkpt>
      <trkpt lat="46.76384" lon="-1.78205">
        <ele>50</ele>
        <time>2018-01-15T06:03:58Z</time>
      </trkpt>
      <trkpt lat="46.76347" lon="-1.78218">
        <ele>49</ele>
        <time>2018-01-15T06:04:58Z</time>
      </trkpt>
      <trkpt lat="46.76337" lon="-1.7822">
        <ele>49</ele>
        <time>2018-01-15T06:05:58Z</time>
      </trkpt>
      <trkpt lat="46.76331" lon="-1.7822">
        <ele>49</ele>
        <time>2018-01-15T06:06:58Z</time>
      </trkpt>
      <trkpt lat="46.76321" lon="-1.78218">
        <ele>49</ele>
        <time>2018-01-15T06:07:58Z</time>
      </trkpt>
      <trkpt lat="46.76304" lon="-1.78213">
        <ele>48</ele>
        <time>2018-01-15T06:08:58Z</time>
      </trkpt>
      <trkpt lat="46.76284" lon="-1.78206">
        <ele>48</ele>
        <time>2018-01-15T06:09:58Z</time>
      </trkpt>
      <trkpt lat="46.76272" lon="-1.78203">
        <ele>48</ele>
        <time>2018-01-15T06:10:58Z</time>
      </trkpt>
      <trkpt lat="46.76261" lon="-1.78203">
        <ele>48</ele>
        <time>2018-01-15T06:11:58Z</time>
      </trkpt>
      <trkpt lat="46.76249" lon="-1.78206">
        <ele>47</ele>
        <time>2018-01-15T06:12:58Z</time>
      </trkpt>
      <trkpt lat="46.76216" lon="-1.7822">
        <ele>47</ele>
        <time>2018-01-15T06:13:58Z</time>
      </trkpt>
      <trkpt lat="46.76169" lon="-1.78241">
        <ele>46</ele>
        <time>2018-01-15T06:14:58Z</time>
      </trkpt>
      <trkpt lat="46.76132" lon="-1.78256">
        <ele>46</ele>
        <time>2018-01-15T06:15:58Z</time>
      </trkpt>
      <trkpt lat="46.7613" lon="-1.78258">
        <ele>46</ele>
        <time>2018-01-15T06:16:58Z</time>
      </trkpt>
      <trkpt lat="46.76107" lon="-1.78267">
        <ele>45</ele>
        <time>2018-01-15T06:17:58Z</time>
      </trkpt>
      <trkpt lat="46.76093" lon="-1.78275">
        <ele>45</ele>
        <time>2018-01-15T06:18:58Z</time>
      </trkpt>
      <trkpt lat="46.76081" lon="-1.78282">
        <ele>45</ele>
        <time>2018-01-15T06:19:58Z</time>
      </trkpt>
      <trkpt lat="46.76067" lon="-1.7829">
        <ele>45</ele>
        <time>2018-01-15T06:20:58Z</time>
      </trkpt>
      <trkpt lat="46.7605" lon="-1.78302">
        <ele>44</ele>
        <time>2018-01-15T06:21:58Z</time>
      </trkpt>
      <trkpt lat="46.76021" lon="-1.78323">
        <ele>44</ele>
        <time>2018-01-15T06:22:58Z</time>
      </trkpt>
      <trkpt lat="46.75988" lon="-1.78346">
        <ele>44</ele>
        <time>2018-01-15T06:23:58Z</time>
      </trkpt>
      <trkpt lat="46.75964" lon="-1.7836">
        <ele>44</ele>
        <time>2018-01-15T06:24:58Z</time>
      </trkpt>
      <trkpt lat="46.75951" lon="-1.78368">
        <ele>43</ele>
        <time>2018-01-15T06:25:58Z</time>
      </trkpt>
      <trkpt lat="46.75947" lon="-1.7837">
        <ele>43</ele>
        <time>2018-01-15T06:26:58Z</time>
      </trkpt>
      <trkpt lat="46.75925" lon="-1.78381">
        <ele>43</ele>
        <time>2018-01-15T06:27:58Z</time>
      </trkpt>
      <trkpt lat="46.75907" lon="-1.7839">
        <ele>42</ele>
        <time>2018-01-15T06:28:58Z</time>
      </trkpt>
      <trkpt lat="46.75887" lon="-1.78401">
        <ele>41</ele>
        <time>2018-01-15T06:29:58Z</time>
      </trkpt>
      <trkpt lat="46.75878" lon="-1.7841">
        <ele>41</ele>
        <time>2018-01-15T06:30:58Z</time>
      </trkpt>
      <trkpt lat="46.75873" lon="-1.78416">
        <ele>40</ele>
        <time>2018-01-15T06:31:58Z</time>
      </trkpt>
      <trkpt lat="46.75872" lon="-1.7842">
        <ele>40</ele>
        <time>2018-01-15T06:32:58Z</time>
      </trkpt>
      <trkpt lat="46.75872" lon="-1.78426">
        <ele>40</ele>
        <time>2018-01-15T06:33:58Z</time>
      </trkpt>
      <trkpt lat="46.75873" lon="-1.78435">
        <ele>40</ele>
        <time>2018-01-15T06:34:58Z</time>
      </trkpt>
      <trkpt lat="46.75876" lon="-1.78454">
        <ele>40</ele>
        <time>2018-01-15T06:35:58Z</time>
      </trkpt>
      <trkpt lat="46.75876" lon="-1.78457">
        <ele>40</ele>
        <time>2018-01-15T06:36:58Z</time>
      </trkpt>
      <trkpt lat="46.75878" lon="-1.78484">
        <ele>40</ele>
        <time>2018-01-15T06:37:58Z</time>
      </trkpt>
      <trkpt lat="46.75878" lon="-1.78508">
        <ele>39</ele>
        <time>2018-01-15T06:38:58Z</time>
      </trkpt>
      <trkpt lat="46.75878" lon="-1.78514">
        <ele>39</ele>
        <time>2018-01-15T06:39:58Z</time>
      </trkpt>
      <trkpt lat="46.75878" lon="-1.78534">
        <ele>39</ele>
        <time>2018-01-15T06:40:58Z</time>
      </trkpt>
      <trkpt lat="46.75877" lon="-1.7855">
        <ele>39</ele>
        <time>2018-01-15T06:41:58Z</time>
      </trkpt>
      <trkpt lat="46.75876" lon="-1.78566">
        <ele>39</ele>
        <time>2018-01-15T06:42:58Z</time>
      </trkpt>
      <trkpt lat="46.75873" lon="-1.7858">
        <ele>39</ele>
        <time>2018-01-15T06:43:58Z</time>
      </trkpt>
      <trkpt lat="46.7587" lon="-1.78593">
        <ele>39</ele>
        <time>2018-01-15T06:44:58Z</time>
      </trkpt>
      <trkpt lat="46.75865" lon="-1.78607">
        <ele>39</ele>
        <time>2018-01-15T06:45:58Z</time>
      </trkpt>
      <trkpt lat="46.7586" lon="-1.7862">
        <ele>38</ele>
        <time>2018-01-15T06:46:58Z</time>
      </trkpt>
      <trkpt lat="46.75854" lon="-1.78632">
        <ele>38</ele>
        <time>2018-01-15T06:47:58Z</time>
      </trkpt>
      <trkpt lat="46.75849" lon="-1.7864">
        <ele>38</ele>
        <time>2018-01-15T06:48:58Z</time>
      </trkpt>
      <trkpt lat="46.75844" lon="-1.78645">
        <ele>38</ele>
        <time>2018-01-15T06:49:58Z</time>
      </trkpt>
      <trkpt lat="46.75841" lon="-1.78648">
        <ele>38</ele>
        <time>2018-01-15T06:50:58Z</time>
      </trkpt>
      <trkpt lat="46.75834" lon="-1.78656">
        <ele>38</ele>
        <time>2018-01-15T06:51:58Z</time>
      </trkpt>
      <trkpt lat="46.75826" lon="-1.78663">
        <ele>37</ele>
        <time>2018-01-15T06:52:58Z</time>
      </trkpt>
      <trkpt lat="46.75809" lon="-1.78677">
        <ele>36</ele>
        <time>2018-01-15T06:53:58Z</time>
      </trkpt>
      <trkpt lat="46.75806" lon="-1.7868">
        <ele>35</ele>
        <time>2018-01-15T06:54:58Z</time>
      </trkpt>
      <trkpt lat="46.75764" lon="-1.78712">
        <ele>32</ele>
        <time>2018-01-15T06:55:58Z</time>
      </trkpt>
      <trkpt lat="46.75715" lon="-1.78749">
        <ele>28</ele>
        <time>2018-01-15T06:56:58Z</time>
      </trkpt>
      <trkpt lat="46.75668" lon="-1.78784">
        <ele>25</ele>
        <time>2018-01-15T06:57:58Z</time>
      </trkpt>
      <trkpt lat="46.75621" lon="-1.78821">
        <ele>23</ele>
        <time>2018-01-15T06:58:58Z</time>
      </trkpt>
      <trkpt lat="46.75595" lon="-1.78842">
        <ele>22</ele>
        <time>2018-01-15T06:59:58Z</time>
      </trkpt>
      <trkpt lat="46.7558" lon="-1.78857">
        <ele>22</ele>
        <time>2018-01-15T07:00:58Z</time>
      </trkpt>
      <trkpt lat="46.7557" lon="-1.78869">
        <ele>21</ele>
        <time>2018-01-15T07:01:58Z</time>
      </trkpt>
      <trkpt lat="46.75565" lon="-1.78876">
        <ele>21</ele>
        <time>2018-01-15T07:02:58Z</time>
      </trkpt>
      <trkpt lat="46.75562" lon="-1.78881">
        <ele>20</ele>
        <time>2018-01-15T07:03:58Z</time>
      </trkpt>
      <trkpt lat="46.75552" lon="-1.78896">
        <ele>20</ele>
        <time>2018-01-15T07:04:58Z</time>
      </trkpt>
      <trkpt lat="46.75535" lon="-1.78923">
        <ele>19</ele>
        <time>2018-01-15T07:05:58Z</time>
      </trkpt>
      <trkpt lat="46.7551" lon="-1.78966">
        <ele>18</ele>
        <time>2018-01-15T07:06:58Z</time>
      </trkpt>
      <trkpt lat="46.75497" lon="-1.78987">
        <ele>18</ele>
        <time>2018-01-15T07:07:58Z</time>
      </trkpt>
      <trkpt lat="46.75492" lon="-1.78995">
        <ele>18</ele>
        <time>2018-01-15T07:08:58Z</time>
      </trkpt>
      <trkpt lat="46.75486" lon="-1.79002">
        <ele>17</ele>
        <time>2018-01-15T07:09:58Z</time>
      </trkpt>
      <trkpt lat="46.75462" lon="-1.79029">
        <ele>16</ele>
        <time>2018-01-15T07:10:58Z</time>
      </trkpt>
      <trkpt lat="46.75437" lon="-1.79062">
        <ele>16</ele>
        <time>2018-01-15T07:11:58Z</time>
      </trkpt>
      <trkpt lat="46.75405" lon="-1.79108">
        <ele>15</ele>
        <time>2018-01-15T07:12:58Z</time>
      </trkpt>
      <trkpt lat="46.75382" lon="-1.79143">
        <ele>15</ele>
        <time>2018-01-15T07:13:58Z</time>
      </trkpt>
      <trkpt lat="46.75371" lon="-1.79158">
        <ele>15</ele>
        <time>2018-01-15T07:14:58Z</time>
      </trkpt>
      <trkpt lat="46.75364" lon="-1.79163">
        <ele>15</ele>
        <time>2018-01-15T07:15:58Z</time>
      </trkpt>
      <trkpt lat="46.75364" lon="-1.79163">
        <ele>15</ele>
        <time>2018-01-15T07:16:58Z</time>
      </trkpt>
      <trkpt lat="46.75365" lon="-1.79171">
        <ele>15</ele>
        <time>2018-01-15T07:17:58Z</time>
      </trkpt>
      <trkpt lat="46.75364" lon="-1.79181">
        <ele>15</ele>
        <time>2018-01-15T07:18:58Z</time>
      </trkpt>
      <trkpt lat="46.7536" lon="-1.79197">
        <ele>14</ele>
        <time>2018-01-15T07:19:58Z</time>
      </trkpt>
      <trkpt lat="46.75349" lon="-1.79239">
        <ele>12</ele>
        <time>2018-01-15T07:20:58Z</time>
      </trkpt>
      <trkpt lat="46.75345" lon="-1.79253">
        <ele>12</ele>
        <time>2018-01-15T07:21:58Z</time>
      </trkpt>
      <trkpt lat="46.7534" lon="-1.79264">
        <ele>12</ele>
        <time>2018-01-15T07:22:58Z</time>
      </trkpt>
      <trkpt lat="46.75335" lon="-1.79274">
        <ele>11</ele>
        <time>2018-01-15T07:23:58Z</time>
      </trkpt>
      <trkpt lat="46.75327" lon="-1.79285">
        <ele>11</ele>
        <time>2018-01-15T07:24:58Z</time>
      </trkpt>
      <trkpt lat="46.7531" lon="-1.79308">
        <ele>11</ele>
        <time>2018-01-15T07:25:58Z</time>
      </trkpt>
      <trkpt lat="46.75303" lon="-1.79321">
        <ele>11</ele>
        <time>2018-01-15T07:26:58Z</time>
      </trkpt>
      <trkpt lat="46.75296" lon="-1.79333">
        <ele>11</ele>
        <time>2018-01-15T07:27:58Z</time>
      </trkpt>
      <trkpt lat="46.75287" lon="-1.79355">
        <ele>12</ele>
        <time>2018-01-15T07:28:58Z</time>
      </trkpt>
      <trkpt lat="46.75275" lon="-1.79388">
        <ele>12</ele>
        <time>2018-01-15T07:29:58Z</time>
      </trkpt>
      <trkpt lat="46.75268" lon="-1.79409">
        <ele>12</ele>
        <time>2018-01-15T07:30:58Z</time>
      </trkpt>
      <trkpt lat="46.75265" lon="-1.79422">
        <ele>12</ele>
        <time>2018-01-15T07:31:58Z</time>
      </trkpt>
      <trkpt lat="46.75261" lon="-1.79439">
        <ele>13</ele>
        <time>2018-01-15T07:32:58Z</time>
      </trkpt>
      <trkpt lat="46.75259" lon="-1.79456">
        <ele>13</ele>
        <time>2018-01-15T07:33:58Z</time>
      </trkpt>
      <trkpt lat="46.75256" lon="-1.79494">
        <ele>13</ele>
        <time>2018-01-15T07:34:58Z</time>
      </trkpt>
      <trkpt lat="46.75254" lon="-1.79519">
        <ele>14</ele>
        <time>2018-01-15T07:35:58Z</time>
      </trkpt>
      <trkpt lat="46.75252" lon="-1.79539">
        <ele>14</ele>
        <time>2018-01-15T07:36:58Z</time>
      </trkpt>
      <trkpt lat="46.75251" lon="-1.79544">
        <ele>14</ele>
        <time>2018-01-15T07:37:58Z</time>
      </trkpt>
      <trkpt lat="46.75248" lon="-1.79559">
        <ele>14</ele>
        <time>2018-01-15T07:38:58Z</time>
      </trkpt>
      <trkpt lat="46.75245" lon="-1.79573">
        <ele>15</ele>
        <time>2018-01-15T07:39:58Z</time>
      </trkpt>
      <trkpt lat="46.75241" lon="-1.79594">
        <ele>15</ele>
        <time>2018-01-15T07:40:58Z</time>
      </trkpt>
      <trkpt lat="46.75232" lon="-1.79628">
        <ele>16</ele>
        <time>2018-01-15T07:41:58Z</time>
      </trkpt>
      <trkpt lat="46.75228" lon="-1.79642">
        <ele>16</ele>
        <time>2018-01-15T07:42:58Z</time>
      </trkpt>
      <trkpt lat="46.75222" lon="-1.79655">
        <ele>17</ele>
        <time>2018-01-15T07:43:58Z</time>
      </trkpt>
      <trkpt lat="46.75216" lon="-1.79667">
        <ele>17</ele>
        <time>2018-01-15T07:44:58Z</time>
      </trkpt>
      <trkpt lat="46.75209" lon="-1.79681">
        <ele>17</ele>
        <time>2018-01-15T07:45:58Z</time>
      </trkpt>
      <trkpt lat="46.752" lon="-1.79697">
        <ele>17</ele>
        <time>2018-01-15T07:46:58Z</time>
      </trkpt>
      <trkpt lat="46.75183" lon="-1.79729">
        <ele>17</ele>
        <time>2018-01-15T07:47:58Z</time>
      </trkpt>
      <trkpt lat="46.75177" lon="-1.79742">
        <ele>17</ele>
        <time>2018-01-15T07:48:58Z</time>
      </trkpt>
      <trkpt lat="46.75174" lon="-1.79754">
        <ele>17</ele>
        <time>2018-01-15T07:49:58Z</time>
      </trkpt>
      <trkpt lat="46.75169" lon="-1.79774">
        <ele>17</ele>
        <time>2018-01-15T07:50:58Z</time>
      </trkpt>
      <trkpt lat="46.75165" lon="-1.79795">
        <ele>16</ele>
        <time>2018-01-15T07:51:58Z</time>
      </trkpt>
      <trkpt lat="46.75159" lon="-1.79816">
        <ele>16</ele>
        <time>2018-01-15T07:52:58Z</time>
      </trkpt>
      <trkpt lat="46.7515" lon="-1.79844">
        <ele>15</ele>
        <time>2018-01-15T07:53:58Z</time>
      </trkpt>
      <trkpt lat="46.75142" lon="-1.79868">
        <ele>15</ele>
        <time>2018-01-15T07:54:58Z</time>
      </trkpt>
      <trkpt lat="46.75131" lon="-1.79902">
        <ele>15</ele>
        <time>2018-01-15T07:55:58Z</time>
      </trkpt>
      <trkpt lat="46.75124" lon="-1.79919">
        <ele>15</ele>
        <time>2018-01-15T07:56:58Z</time>
      </trkpt>
      <trkpt lat="46.7512" lon="-1.79928">
        <ele>15</ele>
        <time>2018-01-15T07:57:58Z</time>
      </trkpt>
      <trkpt lat="46.75115" lon="-1.79936">
        <ele>15</ele>
        <time>2018-01-15T07:58:58Z</time>
      </trkpt>
      <trkpt lat="46.75109" lon="-1.79943">
        <ele>14</ele>
        <time>2018-01-15T07:59:58Z</time>
      </trkpt>
      <trkpt lat="46.75103" lon="-1.79946">
        <ele>14</ele>
        <time>2018-01-15T08:00:58Z</time>
      </trkpt>
      <trkpt lat="46.75099" lon="-1.79949">
        <ele>14</ele>
        <time>2018-01-15T08:01:58Z</time>
      </trkpt>
      <trkpt lat="46.75064" lon="-1.79966">
        <ele>14</ele>
        <time>2018-01-15T08:02:58Z</time>
      </trkpt>
      <trkpt lat="46.75035" lon="-1.79982">
        <ele>13</ele>
        <time>2018-01-15T08:03:58Z</time>
      </trkpt>
      <trkpt lat="46.75017" lon="-1.79991">
        <ele>13</ele>
        <time>2018-01-15T08:04:58Z</time>
      </trkpt>
      <trkpt lat="46.75017" lon="-1.79991">
        <ele>13</ele>
        <time>2018-01-15T08:05:58Z</time>
      </trkpt>
      <trkpt lat="46.75011" lon="-1.79963">
        <ele>12</ele>
        <time>2018-01-15T08:06:58Z</time>
      </trkpt>
      <trkpt lat="46.75004" lon="-1.79943">
        <ele>12</ele>
        <time>2018-01-15T08:07:58Z</time>
      </trkpt>
      <trkpt lat="46.74997" lon="-1.79926">
        <ele>11</ele>
        <time>2018-01-15T08:08:58Z</time>
      </trkpt>
      <trkpt lat="46.74988" lon="-1.79908">
        <ele>10</ele>
        <time>2018-01-15T08:09:58Z</time>
      </trkpt>
      <trkpt lat="46.74981" lon="-1.79895">
        <ele>10</ele>
        <time>2018-01-15T08:10:58Z</time>
      </trkpt>
      <trkpt lat="46.74974" lon="-1.79884">
        <ele>9</ele>
        <time>2018-01-15T08:11:58Z</time>
      </trkpt>
      <trkpt lat="46.74954" lon="-1.79854">
        <ele>7</ele>
        <time>2018-01-15T08:12:58Z</time>
      </trkpt>
      <trkpt lat="46.74927" lon="-1.79817">
        <ele>6</ele>
        <time>2018-01-15T08:13:58Z</time>
      </trkpt>
      <trkpt lat="46.74895" lon="-1.79771">
        <ele>6</ele>
        <time>2018-01-15T08:14:58Z</time>
      </trkpt>
      <trkpt lat="46.74887" lon="-1.79761">
        <ele>6</ele>
        <time>2018-01-15T08:15:58Z</time>
      </trkpt>
      <trkpt lat="46.7488" lon="-1.79751">
        <ele>6</ele>
        <time>2018-01-15T08:16:58Z</time>
      </trkpt>
      <trkpt lat="46.74873" lon="-1.79744">
        <ele>6</ele>
        <time>2018-01-15T08:17:58Z</time>
      </trkpt>
      <trkpt lat="46.74866" lon="-1.79737">
        <ele>6</ele>
        <time>2018-01-15T08:18:58Z</time>
      </trkpt>
      <trkpt lat="46.74857" lon="-1.79731">
        <ele>6</ele>
        <time>2018-01-15T08:19:58Z</time>
      </trkpt>
      <trkpt lat="46.74849" lon="-1.79726">
        <ele>6</ele>
        <time>2018-01-15T08:20:58Z</time>
      </trkpt>
      <trkpt lat="46.74838" lon="-1.79723">
        <ele>6</ele>
        <time>2018-01-15T08:21:58Z</time>
      </trkpt>
      <trkpt lat="46.74836" lon="-1.79722">
        <ele>6</ele>
        <time>2018-01-15T08:22:58Z</time>
      </trkpt>
      <trkpt lat="46.74831" lon="-1.7972">
        <ele>6</ele>
        <time>2018-01-15T08:23:58Z</time>
      </trkpt>
      <trkpt lat="46.74825" lon="-1.79719">
        <ele>7</ele>
        <time>2018-01-15T08:24:58Z</time>
      </trkpt>
      <trkpt lat="46.74816" lon="-1.79716">
        <ele>7</ele>
        <time>2018-01-15T08:25:58Z</time>
      </trkpt>
      <trkpt lat="46.74807" lon="-1.79714">
        <ele>7</ele>
        <time>2018-01-15T08:26:58Z</time>
      </trkpt>
      <trkpt lat="46.74801" lon="-1.79712">
        <ele>7</ele>
        <time>2018-01-15T08:27:58Z</time>
      </trkpt>
      <trkpt lat="46.74785" lon="-1.79706">
        <ele>8</ele>
        <time>2018-01-15T08:28:58Z</time>
      </trkpt>
      <trkpt lat="46.74784" lon="-1.79705">
        <ele>8</ele>
        <time>2018-01-15T08:29:58Z</time>
      </trkpt>
      <trkpt lat="46.74774" lon="-1.79701">
        <ele>8</ele>
        <time>2018-01-15T08:30:58Z</time>
      </trkpt>
      <trkpt lat="46.74766" lon="-1.79697">
        <ele>9</ele>
        <time>2018-01-15T08:31:58Z</time>
      </trkpt>
      <trkpt lat="46.74757" lon="-1.79692">
        <ele>9</ele>
        <time>2018-01-15T08:32:58Z</time>
      </trkpt>
      <trkpt lat="46.74751" lon="-1.79688">
        <ele>9</ele>
        <time>2018-01-15T08:33:58Z</time>
      </trkpt>
      <trkpt lat="46.74738" lon="-1.79679">
        <ele>10</ele>
        <time>2018-01-15T08:34:58Z</time>
      </trkpt>
      <trkpt lat="46.74714" lon="-1.79662">
        <ele>12</ele>
        <time>2018-01-15T08:35:58Z</time>
      </trkpt>
      <trkpt lat="46.74687" lon="-1.79641">
        <ele>13</ele>
        <time>2018-01-15T08:36:58Z</time>
      </trkpt>
      <trkpt lat="46.74682" lon="-1.79636">
        <ele>13</ele>
        <time>2018-01-15T08:37:58Z</time>
      </trkpt>
      <trkpt lat="46.74653" lon="-1.79613">
        <ele>14</ele>
        <time>2018-01-15T08:38:58Z</time>
      </trkpt>
      <trkpt lat="46.74636" lon="-1.79599">
        <ele>14</ele>
        <time>2018-01-15T08:39:58Z</time>
      </trkpt>
      <trkpt lat="46.74626" lon="-1.7959">
        <ele>15</ele>
        <time>2018-01-15T08:40:58Z</time>
      </trkpt>
      <trkpt lat="46.7461" lon="-1.79577">
        <ele>15</ele>
        <time>2018-01-15T08:41:58Z</time>
      </trkpt>
      <trkpt lat="46.74594" lon="-1.79561">
        <ele>15</ele>
        <time>2018-01-15T08:42:58Z</time>
      </trkpt>
      <trkpt lat="46.74592" lon="-1.79558">
        <ele>15</ele>
        <time>2018-01-15T08:43:58Z</time>
      </trkpt>
      <trkpt lat="46.74581" lon="-1.79547">
        <ele>15</ele>
        <time>2018-01-15T08:44:58Z</time>
      </trkpt>
      <trkpt lat="46.7458" lon="-1.79546">
        <ele>15</ele>
        <time>2018-01-15T08:45:58Z</time>
      </trkpt>
      <trkpt lat="46.74575" lon="-1.7954">
        <ele>15</ele>
        <time>2018-01-15T08:46:58Z</time>
      </trkpt>
      <trkpt lat="46.7457" lon="-1.79535">
        <ele>15</ele>
        <time>2018-01-15T08:47:58Z</time>
      </trkpt>
      <trkpt lat="46.74562" lon="-1.79524">
        <ele>15</ele>
        <time>2018-01-15T08:48:58Z</time>
      </trkpt>
      <trkpt lat="46.74562" lon="-1.79524">
        <ele>15</ele>
        <time>2018-01-15T08:49:58Z</time>
      </trkpt>
      <trkpt lat="46.74561" lon="-1.79537">
        <ele>15</ele>
        <time>2018-01-15T08:50:58Z</time>
      </trkpt>
      <trkpt lat="46.74558" lon="-1.79546">
        <ele>15</ele>
        <time>2018-01-15T08:51:58Z</time>
      </trkpt>
      <trkpt lat="46.74559" lon="-1.79553">
        <ele>15</ele>
        <time>2018-01-15T08:52:58Z</time>
      </trkpt>
      <trkpt lat="46.74561" lon="-1.7956">
        <ele>15</ele>
        <time>2018-01-15T08:53:58Z</time>
      </trkpt>
      <trkpt lat="46.74562" lon="-1.79564">
        <ele>15</ele>
        <time>2018-01-15T08:54:58Z</time>
      </trkpt>
      <trkpt lat="46.74566" lon="-1.79571">
        <ele>15</ele>
        <time>2018-01-15T08:55:58Z</time>
      </trkpt>
      <trkpt lat="46.74571" lon="-1.79584">
        <ele>15</ele>
        <time>2018-01-15T08:56:58Z</time>
      </trkpt>
      <trkpt lat="46.74574" lon="-1.79591">
        <ele>15</ele>
        <time>2018-01-15T08:57:58Z</time>
      </trkpt>
      <trkpt lat="46.74577" lon="-1.79599">
        <ele>15</ele>
        <time>2018-01-15T08:58:58Z</time>
      </trkpt>
      <trkpt lat="46.7458" lon="-1.79609">
        <ele>15</ele>
        <time>2018-01-15T08:59:58Z</time>
      </trkpt>
      <trkpt lat="46.74582" lon="-1.79617">
        <ele>15</ele>
        <time>2018-01-15T09:00:58Z</time>
      </trkpt>
      <trkpt lat="46.74587" lon="-1.79644">
        <ele>16</ele>
        <time>2018-01-15T09:01:58Z</time>
      </trkpt>
      <trkpt lat="46.74595" lon="-1.79697">
        <ele>16</ele>
        <time>2018-01-15T09:02:58Z</time>
      </trkpt>
      <trkpt lat="46.74603" lon="-1.79744">
        <ele>15</ele>
        <time>2018-01-15T09:03:58Z</time>
      </trkpt>
      <trkpt lat="46.74607" lon="-1.79767">
        <ele>15</ele>
        <time>2018-01-15T09:04:58Z</time>
      </trkpt>
      <trkpt lat="46.74612" lon="-1.79796">
        <ele>15</ele>
        <time>2018-01-15T09:05:58Z</time>
      </trkpt>
      <trkpt lat="46.74619" lon="-1.79836">
        <ele>15</ele>
        <time>2018-01-15T09:06:58Z</time>
      </trkpt>
      <trkpt lat="46.74621" lon="-1.79854">
        <ele>15</ele>
        <time>2018-01-15T09:07:58Z</time>
      </trkpt>
      <trkpt lat="46.74621" lon="-1.79856">
        <ele>15</ele>
        <time>2018-01-15T09:08:58Z</time>
      </trkpt>
      <trkpt lat="46.74621" lon="-1.79869">
        <ele>15</ele>
        <time>2018-01-15T09:09:58Z</time>
      </trkpt>
      <trkpt lat="46.74621" lon="-1.79889">
        <ele>15</ele>
        <time>2018-01-15T09:10:58Z</time>
      </trkpt>
      <trkpt lat="46.74618" lon="-1.79939">
        <ele>15</ele>
        <time>2018-01-15T09:11:58Z</time>
      </trkpt>
      <trkpt lat="46.74613" lon="-1.80001">
        <ele>16</ele>
        <time>2018-01-15T09:12:58Z</time>
      </trkpt>
      <trkpt lat="46.74608" lon="-1.80068">
        <ele>17</ele>
        <time>2018-01-15T09:13:58Z</time>
      </trkpt>
      <trkpt lat="46.74606" lon="-1.80097">
        <ele>17</ele>
        <time>2018-01-15T09:14:58Z</time>
      </trkpt>
      <trkpt lat="46.74603" lon="-1.80116">
        <ele>17</ele>
        <time>2018-01-15T09:15:58Z</time>
      </trkpt>
      <trkpt lat="46.74601" lon="-1.80134">
        <ele>17</ele>
        <time>2018-01-15T09:16:58Z</time>
      </trkpt>
      <trkpt lat="46.74599" lon="-1.80149">
        <ele>17</ele>
        <time>2018-01-15T09:17:58Z</time>
      </trkpt>
      <trkpt lat="46.74598" lon="-1.80155">
        <ele>17</ele>
        <time>2018-01-15T09:18:58Z</time>
      </trkpt>
      <trkpt lat="46.74594" lon="-1.8017">
        <ele>17</ele>
        <time>2018-01-15T09:19:58Z</time>
      </trkpt>
      <trkpt lat="46.74591" lon="-1.80184">
        <ele>17</ele>
        <time>2018-01-15T09:20:58Z</time>
      </trkpt>
      <trkpt lat="46.74587" lon="-1.80197">
        <ele>17</ele>
        <time>2018-01-15T09:21:58Z</time>
      </trkpt>
      <trkpt lat="46.74582" lon="-1.80208">
        <ele>18</ele>
        <time>2018-01-15T09:22:58Z</time>
      </trkpt>
      <trkpt lat="46.74576" lon="-1.80223">
        <ele>18</ele>
        <time>2018-01-15T09:23:58Z</time>
      </trkpt>
      <trkpt lat="46.74569" lon="-1.80237">
        <ele>18</ele>
        <time>2018-01-15T09:24:58Z</time>
      </trkpt>
      <trkpt lat="46.74557" lon="-1.80255">
        <ele>18</ele>
        <time>2018-01-15T09:25:58Z</time>
      </trkpt>
      <trkpt lat="46.7454" lon="-1.80281">
        <ele>18</ele>
        <time>2018-01-15T09:26:58Z</time>
      </trkpt>
      <trkpt lat="46.74516" lon="-1.80316">
        <ele>18</ele>
        <time>2018-01-15T09:27:58Z</time>
      </trkpt>
      <trkpt lat="46.74508" lon="-1.80327">
        <ele>18</ele>
        <time>2018-01-15T09:28:58Z</time>
      </trkpt>
      <trkpt lat="46.7448" lon="-1.80369">
        <ele>19</ele>
        <time>2018-01-15T09:29:58Z</time>
      </trkpt>
      <trkpt lat="46.7445" lon="-1.80413">
        <ele>20</ele>
        <time>2018-01-15T09:30:58Z</time>
      </trkpt>
      <trkpt lat="46.74446" lon="-1.80418">
        <ele>20</ele>
        <time>2018-01-15T09:31:58Z</time>
      </trkpt>
      <trkpt lat="46.74401" lon="-1.80483">
        <ele>20</ele>
        <time>2018-01-15T09:32:58Z</time>
      </trkpt>
      <trkpt lat="46.7435" lon="-1.80557">
        <ele>20</ele>
        <time>2018-01-15T09:33:58Z</time>
      </trkpt>
      <trkpt lat="46.74303" lon="-1.80624">
        <ele>19</ele>
        <time>2018-01-15T09:34:58Z</time>
      </trkpt>
      <trkpt lat="46.74295" lon="-1.80636">
        <ele>19</ele>
        <time>2018-01-15T09:35:58Z</time>
      </trkpt>
      <trkpt lat="46.74281" lon="-1.80656">
        <ele>19</ele>
        <time>2018-01-15T09:36:58Z</time>
      </trkpt>
      <trkpt lat="46.74254" lon="-1.80694">
        <ele>19</ele>
        <time>2018-01-15T09:37:58Z</time>
      </trkpt>
      <trkpt lat="46.74233" lon="-1.80727">
        <ele>19</ele>
        <time>2018-01-15T09:38:58Z</time>
      </trkpt>
      <trkpt lat="46.74226" lon="-1.8074">
        <ele>19</ele>
        <time>2018-01-15T09:39:58Z</time>
      </trkpt>
      <trkpt lat="46.7422" lon="-1.80751">
        <ele>19</ele>
        <time>2018-01-15T09:40:58Z</time>
      </trkpt>
      <trkpt lat="46.74215" lon="-1.80761">
        <ele>19</ele>
        <time>2018-01-15T09:41:58Z</time>
      </trkpt>
      <trkpt lat="46.7421" lon="-1.80775">
        <ele>20</ele>
        <time>2018-01-15T09:42:58Z</time>
      </trkpt>
      <trkpt lat="46.74204" lon="-1.80789">
        <ele>20</ele>
        <time>2018-01-15T09:43:58Z</time>
      </trkpt>
      <trkpt lat="46.74198" lon="-1.80806">
        <ele>20</ele>
        <time>2018-01-15T09:44:58Z</time>
      </trkpt>
      <trkpt lat="46.74191" lon="-1.80825">
        <ele>20</ele>
        <time>2018-01-15T09:45:58Z</time>
      </trkpt>
      <trkpt lat="46.74185" lon="-1.80851">
        <ele>21</ele>
        <time>2018-01-15T09:46:58Z</time>
      </trkpt>
      <trkpt lat="46.74183" lon="-1.8086">
        <ele>21</ele>
        <time>2018-01-15T09:47:58Z</time>
      </trkpt>
      <trkpt lat="46.74182" lon="-1.80866">
        <ele>21</ele>
        <time>2018-01-15T09:48:58Z</time>
      </trkpt>
      <trkpt lat="46.7417" lon="-1.80911">
        <ele>21</ele>
        <time>2018-01-15T09:49:58Z</time>
      </trkpt>
      <trkpt lat="46.74158" lon="-1.8096">
        <ele>21</ele>
        <time>2018-01-15T09:50:58Z</time>
      </trkpt>
      <trkpt lat="46.74145" lon="-1.81014">
        <ele>21</ele>
        <time>2018-01-15T09:51:58Z</time>
      </trkpt>
      <trkpt lat="46.74133" lon="-1.81068">
        <ele>22</ele>
        <time>2018-01-15T09:52:58Z</time>
      </trkpt>
      <trkpt lat="46.74123" lon="-1.8111">
        <ele>22</ele>
        <time>2018-01-15T09:53:58Z</time>
      </trkpt>
      <trkpt lat="46.74112" lon="-1.8116">
        <ele>22</ele>
        <time>2018-01-15T09:54:58Z</time>
      </trkpt>
      <trkpt lat="46.74099" lon="-1.81217">
        <ele>22</ele>
        <time>2018-01-15T09:55:58Z</time>
      </trkpt>
      <trkpt lat="46.7409" lon="-1.81255">
        <ele>23</ele>
        <time>2018-01-15T09:56:58Z</time>
      </trkpt>
      <trkpt lat="46.74084" lon="-1.8128">
        <ele>23</ele>
        <time>2018-01-15T09:57:58Z</time>
      </trkpt>
      <trkpt lat="46.74078" lon="-1.81305">
        <ele>23</ele>
        <time>2018-01-15T09:58:58Z</time>
      </trkpt>
      <trkpt lat="46.74074" lon="-1.8132">
        <ele>23</ele>
        <time>2018-01-15T09:59:58Z</time>
      </trkpt>
      <trkpt lat="46.74072" lon="-1.81333">
        <ele>23</ele>
        <time>2018-01-15T10:00:58Z</time>
      </trkpt>
      <trkpt lat="46.7407" lon="-1.81348">
        <ele>23</ele>
        <time>2018-01-15T10:01:58Z</time>
      </trkpt>
      <trkpt lat="46.74069" lon="-1.81362">
        <ele>23</ele>
        <time>2018-01-15T10:02:58Z</time>
      </trkpt>
      <trkpt lat="46.74068" lon="-1.81377">
        <ele>23</ele>
        <time>2018-01-15T10:03:58Z</time>
      </trkpt>
      <trkpt lat="46.74068" lon="-1.81396">
        <ele>22</ele>
        <time>2018-01-15T10:04:58Z</time>
      </trkpt>
      <trkpt lat="46.74069" lon="-1.81428">
        <ele>22</ele>
        <time>2018-01-15T10:05:58Z</time>
      </trkpt>
      <trkpt lat="46.74075" lon="-1.8158">
        <ele>21</ele>
        <time>2018-01-15T10:06:58Z</time>
      </trkpt>
      <trkpt lat="46.7408" lon="-1.81702">
        <ele>20</ele>
        <time>2018-01-15T10:07:58Z</time>
      </trkpt>
      <trkpt lat="46.74083" lon="-1.81811">
        <ele>18</ele>
        <time>2018-01-15T10:08:58Z</time>
      </trkpt>
      <trkpt lat="46.74083" lon="-1.81834">
        <ele>18</ele>
        <time>2018-01-15T10:09:58Z</time>
      </trkpt>
      <trkpt lat="46.74084" lon="-1.81849">
        <ele>18</ele>
        <time>2018-01-15T10:10:58Z</time>
      </trkpt>
      <trkpt lat="46.74085" lon="-1.81863">
        <ele>17</ele>
        <time>2018-01-15T10:11:58Z</time>
      </trkpt>
      <trkpt lat="46.74086" lon="-1.81876">
        <ele>17</ele>
        <time>2018-01-15T10:12:58Z</time>
      </trkpt>
      <trkpt lat="46.74089" lon="-1.81896">
        <ele>16</ele>
        <time>2018-01-15T10:13:58Z</time>
      </trkpt>
      <trkpt lat="46.74092" lon="-1.81917">
        <ele>16</ele>
        <time>2018-01-15T10:14:58Z</time>
      </trkpt>
      <trkpt lat="46.74096" lon="-1.81936">
        <ele>16</ele>
        <time>2018-01-15T10:15:58Z</time>
      </trkpt>
      <trkpt lat="46.74099" lon="-1.81956">
        <ele>16</ele>
        <time>2018-01-15T10:16:58Z</time>
      </trkpt>
      <trkpt lat="46.74109" lon="-1.8201">
        <ele>16</ele>
        <time>2018-01-15T10:17:58Z</time>
      </trkpt>
      <trkpt lat="46.74113" lon="-1.82032">
        <ele>16</ele>
        <time>2018-01-15T10:18:58Z</time>
      </trkpt>
      <trkpt lat="46.74115" lon="-1.82049">
        <ele>16</ele>
        <time>2018-01-15T10:19:58Z</time>
      </trkpt>
      <trkpt lat="46.74116" lon="-1.82065">
        <ele>16</ele>
        <time>2018-01-15T10:20:58Z</time>
      </trkpt>
      <trkpt lat="46.74115" lon="-1.82078">
        <ele>16</ele>
        <time>2018-01-15T10:21:58Z</time>
      </trkpt>
      <trkpt lat="46.74114" lon="-1.82089">
        <ele>16</ele>
        <time>2018-01-15T10:22:58Z</time>
      </trkpt>
      <trkpt lat="46.74114" lon="-1.82089">
        <ele>16</ele>
        <time>2018-01-15T10:23:58Z</time>
      </trkpt>
      <trkpt lat="46.74115" lon="-1.8209">
        <ele>16</ele>
        <time>2018-01-15T10:24:58Z</time>
      </trkpt>
      <trkpt lat="46.74116" lon="-1.82091">
        <ele>16</ele>
        <time>2018-01-15T10:25:58Z</time>
      </trkpt>
      <trkpt lat="46.74117" lon="-1.82093">
        <ele>16</ele>
        <time>2018-01-15T10:26:58Z</time>
      </trkpt>
      <trkpt lat="46.74118" lon="-1.82094">
        <ele>16</ele>
        <time>2018-01-15T10:27:58Z</time>
      </trkpt>
      <trkpt lat="46.74118" lon="-1.82096">
        <ele>16</ele>
        <time>2018-01-15T10:28:58Z</time>
      </trkpt>
      <trkpt lat="46.74118" lon="-1.82098">
        <ele>16</ele>
        <time>2018-01-15T10:29:58Z</time>
      </trkpt>
      <trkpt lat="46.74117" lon="-1.82101">
        <ele>16</ele>
        <time>2018-01-15T10:30:58Z</time>
      </trkpt>
      <trkpt lat="46.74117" lon="-1.82102">
        <ele>16</ele>
        <time>2018-01-15T10:31:58Z</time>
      </trkpt>
      <trkpt lat="46.74116" lon="-1.82104">
        <ele>16</ele>
        <time>2018-01-15T10:32:58Z</time>
      </trkpt>
      <trkpt lat="46.74115" lon="-1.82105">
        <ele>16</ele>
        <time>2018-01-15T10:33:58Z</time>
      </trkpt>
      <trkpt lat="46.74114" lon="-1.82106">
        <ele>16</ele>
        <time>2018-01-15T10:34:58Z</time>
      </trkpt>
      <trkpt lat="46.74113" lon="-1.82107">
        <ele>16</ele>
        <time>2018-01-15T10:35:58Z</time>
      </trkpt>
      <trkpt lat="46.74111" lon="-1.82107">
        <ele>16</ele>
        <time>2018-01-15T10:36:58Z</time>
      </trkpt>
      <trkpt lat="46.7411" lon="-1.82106">
        <ele>16</ele>
        <time>2018-01-15T10:37:58Z</time>
      </trkpt>
      <trkpt lat="46.74109" lon="-1.82105">
        <ele>16</ele>
        <time>2018-01-15T10:38:58Z</time>
      </trkpt>
      <trkpt lat="46.74108" lon="-1.82104">
        <ele>16</ele>
        <time>2018-01-15T10:39:58Z</time>
      </trkpt>
      <trkpt lat="46.74107" lon="-1.82102">
        <ele>16</ele>
        <time>2018-01-15T10:40:58Z</time>
      </trkpt>
      <trkpt lat="46.74104" lon="-1.82105">
        <ele>17</ele>
        <time>2018-01-15T10:41:58Z</time>
      </trkpt>
      <trkpt lat="46.74099" lon="-1.82108">
        <ele>17</ele>
        <time>2018-01-15T10:42:58Z</time>
      </trkpt>
      <trkpt lat="46.74094" lon="-1.8211">
        <ele>17</ele>
        <time>2018-01-15T10:43:58Z</time>
      </trkpt>
      <trkpt lat="46.74078" lon="-1.82118">
        <ele>17</ele>
        <time>2018-01-15T10:44:58Z</time>
      </trkpt>
      <trkpt lat="46.74074" lon="-1.82121">
        <ele>17</ele>
        <time>2018-01-15T10:45:58Z</time>
      </trkpt>
      <trkpt lat="46.74057" lon="-1.8213">
        <ele>17</ele>
        <time>2018-01-15T10:46:58Z</time>
      </trkpt>
      <trkpt lat="46.74033" lon="-1.82145">
        <ele>17</ele>
        <time>2018-01-15T10:47:58Z</time>
      </trkpt>
      <trkpt lat="46.74029" lon="-1.82148">
        <ele>17</ele>
        <time>2018-01-15T10:48:58Z</time>
      </trkpt>
      <trkpt lat="46.74019" lon="-1.82154">
        <ele>17</ele>
        <time>2018-01-15T10:49:58Z</time>
      </trkpt>
      <trkpt lat="46.74012" lon="-1.8216">
        <ele>17</ele>
        <time>2018-01-15T10:50:58Z</time>
      </trkpt>
      <trkpt lat="46.74009" lon="-1.82164">
        <ele>17</ele>
        <time>2018-01-15T10:51:58Z</time>
      </trkpt>
      <trkpt lat="46.74007" lon="-1.82171">
        <ele>17</ele>
        <time>2018-01-15T10:52:58Z</time>
      </trkpt>
      <trkpt lat="46.73997" lon="-1.82214">
        <ele>16</ele>
        <time>2018-01-15T10:53:58Z</time>
      </trkpt>
      <trkpt lat="46.73986" lon="-1.82257">
        <ele>16</ele>
        <time>2018-01-15T10:54:58Z</time>
      </trkpt>
      <trkpt lat="46.73982" lon="-1.82273">
        <ele>15</ele>
        <time>2018-01-15T10:55:58Z</time>
      </trkpt>
      <trkpt lat="46.73978" lon="-1.82285">
        <ele>15</ele>
        <time>2018-01-15T10:56:58Z</time>
      </trkpt>
      <trkpt lat="46.73974" lon="-1.82298">
        <ele>15</ele>
        <time>2018-01-15T10:57:58Z</time>
      </trkpt>
      <trkpt lat="46.73972" lon="-1.82302">
        <ele>15</ele>
        <time>2018-01-15T10:58:58Z</time>
      </trkpt>
      <trkpt lat="46.73971" lon="-1.82307">
        <ele>15</ele>
        <time>2018-01-15T10:59:58Z</time>
      </trkpt>
      <trkpt lat="46.7397" lon="-1.82309">
        <ele>15</ele>
        <time>2018-01-15T11:00:58Z</time>
      </trkpt>
      <trkpt lat="46.73968" lon="-1.82314">
        <ele>15</ele>
        <time>2018-01-15T11:01:58Z</time>
      </trkpt>
      <trkpt lat="46.73966" lon="-1.82319">
        <ele>14</ele>
        <time>2018-01-15T11:02:58Z</time>
      </trkpt>
      <trkpt lat="46.73964" lon="-1.82325">
        <ele>14</ele>
        <time>2018-01-15T11:03:58Z</time>
      </trkpt>
      <trkpt lat="46.73964" lon="-1.82325">
        <ele>14</ele>
        <time>2018-01-15T11:04:58Z</time>
      </trkpt>
      <trkpt lat="46.73964" lon="-1.82326">
        <ele>14</ele>
        <time>2018-01-15T11:05:58Z</time>
      </trkpt>
      <trkpt lat="46.73964" lon="-1.82329">
        <ele>14</ele>
        <time>2018-01-15T11:06:58Z</time>
      </trkpt>
      <trkpt lat="46.73964" lon="-1.82332">
        <ele>14</ele>
        <time>2018-01-15T11:07:58Z</time>
      </trkpt>
      <trkpt lat="46.73963" lon="-1.82335">
        <ele>14</ele>
        <time>2018-01-15T11:08:58Z</time>
      </trkpt>
      <trkpt lat="46.73962" lon="-1.82337">
        <ele>14</ele>
        <time>2018-01-15T11:09:58Z</time>
      </trkpt>
      <trkpt lat="46.73961" lon="-1.82339">
        <ele>14</ele>
        <time>2018-01-15T11:10:58Z</time>
      </trkpt>
      <trkpt lat="46.73959" lon="-1.8234">
        <ele>14</ele>
        <time>2018-01-15T11:11:58Z</time>
      </trkpt>
      <trkpt lat="46.73959" lon="-1.8235">
        <ele>14</ele>
        <time>2018-01-15T11:12:58Z</time>
      </trkpt>
      <trkpt lat="46.73958" lon="-1.82361">
        <ele>14</ele>
        <time>2018-01-15T11:13:58Z</time>
      </trkpt>
      <trkpt lat="46.73955" lon="-1.82374">
        <ele>13</ele>
        <time>2018-01-15T11:14:58Z</time>
      </trkpt>
      <trkpt lat="46.73951" lon="-1.82393">
        <ele>13</ele>
        <time>2018-01-15T11:15:58Z</time>
      </trkpt>
      <trkpt lat="46.73945" lon="-1.82415">
        <ele>13</ele>
        <time>2018-01-15T11:16:58Z</time>
      </trkpt>
      <trkpt lat="46.73936" lon="-1.82451">
        <ele>12</ele>
        <time>2018-01-15T11:17:58Z</time>
      </trkpt>
      <trkpt lat="46.73926" lon="-1.82489">
        <ele>11</ele>
        <time>2018-01-15T11:18:58Z</time>
      </trkpt>
      <trkpt lat="46.73911" lon="-1.82546">
        <ele>10</ele>
        <time>2018-01-15T11:19:58Z</time>
      </trkpt>
      <trkpt lat="46.73903" lon="-1.82577">
        <ele>9</ele>
        <time>2018-01-15T11:20:58Z</time>
      </trkpt>
      <trkpt lat="46.73897" lon="-1.82601">
        <ele>9</ele>
        <time>2018-01-15T11:21:58Z</time>
      </trkpt>
      <trkpt lat="46.73889" lon="-1.82629">
        <ele>10</ele>
        <time>2018-01-15T11:22:58Z</time>
      </trkpt>
      <trkpt lat="46.73878" lon="-1.82674">
        <ele>11</ele>
        <time>2018-01-15T11:23:58Z</time>
      </trkpt>
      <trkpt lat="46.7386" lon="-1.82741">
        <ele>12</ele>
        <time>2018-01-15T11:24:58Z</time>
      </trkpt>
      <trkpt lat="46.73848" lon="-1.82786">
        <ele>14</ele>
        <time>2018-01-15T11:25:58Z</time>
      </trkpt>
      <trkpt lat="46.73847" lon="-1.82788">
        <ele>14</ele>
        <time>2018-01-15T11:26:58Z</time>
      </trkpt>
      <trkpt lat="46.73839" lon="-1.82823">
        <ele>16</ele>
        <time>2018-01-15T11:27:58Z</time>
      </trkpt>
      <trkpt lat="46.73835" lon="-1.82839">
        <ele>16</ele>
        <time>2018-01-15T11:28:58Z</time>
      </trkpt>
      <trkpt lat="46.7383" lon="-1.82855">
        <ele>16</ele>
        <time>2018-01-15T11:29:58Z</time>
      </trkpt>
      <trkpt lat="46.73826" lon="-1.82869">
        <ele>17</ele>
        <time>2018-01-15T11:30:58Z</time>
      </trkpt>
      <trkpt lat="46.73822" lon="-1.82882">
        <ele>17</ele>
        <time>2018-01-15T11:31:58Z</time>
      </trkpt>
      <trkpt lat="46.73818" lon="-1.82893">
        <ele>17</ele>
        <time>2018-01-15T11:32:58Z</time>
      </trkpt>
      <trkpt lat="46.73814" lon="-1.82901">
        <ele>17</ele>
        <time>2018-01-15T11:33:58Z</time>
      </trkpt>
      <trkpt lat="46.73807" lon="-1.82914">
        <ele>17</ele>
        <time>2018-01-15T11:34:58Z</time>
      </trkpt>
      <trkpt lat="46.73799" lon="-1.82926">
        <ele>17</ele>
        <time>2018-01-15T11:35:58Z</time>
      </trkpt>
      <trkpt lat="46.73788" lon="-1.82939">
        <ele>18</ele>
        <time>2018-01-15T11:36:58Z</time>
      </trkpt>
      <trkpt lat="46.73776" lon="-1.82951">
        <ele>18</ele>
        <time>2018-01-15T11:37:58Z</time>
      </trkpt>
      <trkpt lat="46.73751" lon="-1.82972">
        <ele>19</ele>
        <time>2018-01-15T11:38:58Z</time>
      </trkpt>
      <trkpt lat="46.73715" lon="-1.83">
        <ele>20</ele>
        <time>2018-01-15T11:39:58Z</time>
      </trkpt>
      <trkpt lat="46.73676" lon="-1.83028">
        <ele>21</ele>
        <time>2018-01-15T11:40:58Z</time>
      </trkpt>
      <trkpt lat="46.73658" lon="-1.8304">
        <ele>21</ele>
        <time>2018-01-15T11:41:58Z</time>
      </trkpt>
      <trkpt lat="46.73647" lon="-1.83048">
        <ele>21</ele>
        <time>2018-01-15T11:42:58Z</time>
      </trkpt>
      <trkpt lat="46.73637" lon="-1.83058">
        <ele>21</ele>
        <time>2018-01-15T11:43:58Z</time>
      </trkpt>
      <trkpt lat="46.73632" lon="-1.83063">
        <ele>21</ele>
        <time>2018-01-15T11:44:58Z</time>
      </trkpt>
      <trkpt lat="46.73629" lon="-1.83067">
        <ele>21</ele>
        <time>2018-01-15T11:45:58Z</time>
      </trkpt>
      <trkpt lat="46.73622" lon="-1.83077">
        <ele>21</ele>
        <time>2018-01-15T11:46:58Z</time>
      </trkpt>
      <trkpt lat="46.73615" lon="-1.83087">
        <ele>20</ele>
        <time>2018-01-15T11:47:58Z</time>
      </trkpt>
      <trkpt lat="46.7361" lon="-1.83097">
        <ele>20</ele>
        <time>2018-01-15T11:48:58Z</time>
      </trkpt>
      <trkpt lat="46.73608" lon="-1.83101">
        <ele>20</ele>
        <time>2018-01-15T11:49:58Z</time>
      </trkpt>
      <trkpt lat="46.73603" lon="-1.83115">
        <ele>20</ele>
        <time>2018-01-15T11:50:58Z</time>
      </trkpt>
      <trkpt lat="46.73597" lon="-1.8313">
        <ele>20</ele>
        <time>2018-01-15T11:51:58Z</time>
      </trkpt>
      <trkpt lat="46.73594" lon="-1.83142">
        <ele>20</ele>
        <time>2018-01-15T11:52:58Z</time>
      </trkpt>
      <trkpt lat="46.73591" lon="-1.83152">
        <ele>20</ele>
        <time>2018-01-15T11:53:58Z</time>
      </trkpt>
      <trkpt lat="46.73586" lon="-1.83173">
        <ele>20</ele>
        <time>2018-01-15T11:54:58Z</time>
      </trkpt>
      <trkpt lat="46.73579" lon="-1.83201">
        <ele>20</ele>
        <time>2018-01-15T11:55:58Z</time>
      </trkpt>
      <trkpt lat="46.73578" lon="-1.83204">
        <ele>20</ele>
        <time>2018-01-15T11:56:58Z</time>
      </trkpt>
      <trkpt lat="46.73568" lon="-1.83245">
        <ele>21</ele>
        <time>2018-01-15T11:57:58Z</time>
      </trkpt>
      <trkpt lat="46.73563" lon="-1.83266">
        <ele>21</ele>
        <time>2018-01-15T11:58:58Z</time>
      </trkpt>
      <trkpt lat="46.7356" lon="-1.83276">
        <ele>21</ele>
        <time>2018-01-15T11:59:58Z</time>
      </trkpt>
      <trkpt lat="46.73559" lon="-1.83282">
        <ele>21</ele>
        <time>2018-01-15T12:00:58Z</time>
      </trkpt>
      <trkpt lat="46.73554" lon="-1.83296">
        <ele>21</ele>
        <time>2018-01-15T12:01:58Z</time>
      </trkpt>
      <trkpt lat="46.73548" lon="-1.83311">
        <ele>21</ele>
        <time>2018-01-15T12:02:58Z</time>
      </trkpt>
      <trkpt lat="46.7354" lon="-1.83328">
        <ele>21</ele>
        <time>2018-01-15T12:03:58Z</time>
      </trkpt>
      <trkpt lat="46.73532" lon="-1.83342">
        <ele>21</ele>
        <time>2018-01-15T12:04:58Z</time>
      </trkpt>
      <trkpt lat="46.73522" lon="-1.83358">
        <ele>21</ele>
        <time>2018-01-15T12:05:58Z</time>
      </trkpt>
      <trkpt lat="46.73478" lon="-1.83413">
        <ele>22</ele>
        <time>2018-01-15T12:06:58Z</time>
      </trkpt>
      <trkpt lat="46.73451" lon="-1.83447">
        <ele>22</ele>
        <time>2018-01-15T12:07:58Z</time>
      </trkpt>
      <trkpt lat="46.73438" lon="-1.83464">
        <ele>22</ele>
        <time>2018-01-15T12:08:58Z</time>
      </trkpt>
      <trkpt lat="46.73428" lon="-1.83479">
        <ele>22</ele>
        <time>2018-01-15T12:09:58Z</time>
      </trkpt>
      <trkpt lat="46.73422" lon="-1.83491">
        <ele>22</ele>
        <time>2018-01-15T12:10:58Z</time>
      </trkpt>
      <trkpt lat="46.73419" lon="-1.83496">
        <ele>22</ele>
        <time>2018-01-15T12:11:58Z</time>
      </trkpt>
      <trkpt lat="46.73413" lon="-1.83508">
        <ele>22</ele>
        <time>2018-01-15T12:12:58Z</time>
      </trkpt>
      <trkpt lat="46.73408" lon="-1.83521">
        <ele>22</ele>
        <time>2018-01-15T12:13:58Z</time>
      </trkpt>
      <trkpt lat="46.73404" lon="-1.83535">
        <ele>22</ele>
        <time>2018-01-15T12:14:58Z</time>
      </trkpt>
      <trkpt lat="46.73398" lon="-1.83555">
        <ele>21</ele>
        <time>2018-01-15T12:15:58Z</time>
      </trkpt>
      <trkpt lat="46.73395" lon="-1.83571">
        <ele>21</ele>
        <time>2018-01-15T12:16:58Z</time>
      </trkpt>
      <trkpt lat="46.73391" lon="-1.83594">
        <ele>21</ele>
        <time>2018-01-15T12:17:58Z</time>
      </trkpt>
      <trkpt lat="46.73391" lon="-1.83596">
        <ele>21</ele>
        <time>2018-01-15T12:18:58Z</time>
      </trkpt>
      <trkpt lat="46.73388" lon="-1.83618">
        <ele>21</ele>
        <time>2018-01-15T12:19:58Z</time>
      </trkpt>
      <trkpt lat="46.73387" lon="-1.83626">
        <ele>21</ele>
        <time>2018-01-15T12:20:58Z</time>
      </trkpt>
      <trkpt lat="46.73382" lon="-1.83667">
        <ele>21</ele>
        <time>2018-01-15T12:21:58Z</time>
      </trkpt>
      <trkpt lat="46.73375" lon="-1.8372">
        <ele>20</ele>
        <time>2018-01-15T12:22:58Z</time>
      </trkpt>
      <trkpt lat="46.73374" lon="-1.83726">
        <ele>20</ele>
        <time>2018-01-15T12:23:58Z</time>
      </trkpt>
      <trkpt lat="46.73368" lon="-1.83778">
        <ele>20</ele>
        <time>2018-01-15T12:24:58Z</time>
      </trkpt>
      <trkpt lat="46.73364" lon="-1.83811">
        <ele>20</ele>
        <time>2018-01-15T12:25:58Z</time>
      </trkpt>
      <trkpt lat="46.73361" lon="-1.83842">
        <ele>20</ele>
        <time>2018-01-15T12:26:58Z</time>
      </trkpt>
      <trkpt lat="46.7336" lon="-1.83867">
        <ele>20</ele>
        <time>2018-01-15T12:27:58Z</time>
      </trkpt>
      <trkpt lat="46.73359" lon="-1.8389">
        <ele>20</ele>
        <time>2018-01-15T12:28:58Z</time>
      </trkpt>
      <trkpt lat="46.73359" lon="-1.83933">
        <ele>20</ele>
        <time>2018-01-15T12:29:58Z</time>
      </trkpt>
      <trkpt lat="46.7336" lon="-1.83992">
        <ele>20</ele>
        <time>2018-01-15T12:30:58Z</time>
      </trkpt>
      <trkpt lat="46.73361" lon="-1.84068">
        <ele>21</ele>
        <time>2018-01-15T12:31:58Z</time>
      </trkpt>
      <trkpt lat="46.73362" lon="-1.84127">
        <ele>21</ele>
        <time>2018-01-15T12:32:58Z</time>
      </trkpt>
      <trkpt lat="46.73363" lon="-1.84201">
        <ele>21</ele>
        <time>2018-01-15T12:33:58Z</time>
      </trkpt>
      <trkpt lat="46.73363" lon="-1.84237">
        <ele>21</ele>
        <time>2018-01-15T12:34:58Z</time>
      </trkpt>
      <trkpt lat="46.73363" lon="-1.84257">
        <ele>21</ele>
        <time>2018-01-15T12:35:58Z</time>
      </trkpt>
      <trkpt lat="46.73363" lon="-1.8428">
        <ele>21</ele>
        <time>2018-01-15T12:36:58Z</time>
      </trkpt>
      <trkpt lat="46.73363" lon="-1.84294">
        <ele>20</ele>
        <time>2018-01-15T12:37:58Z</time>
      </trkpt>
      <trkpt lat="46.73362" lon="-1.8431">
        <ele>20</ele>
        <time>2018-01-15T12:38:58Z</time>
      </trkpt>
      <trkpt lat="46.73362" lon="-1.84325">
        <ele>20</ele>
        <time>2018-01-15T12:39:58Z</time>
      </trkpt>
      <trkpt lat="46.7336" lon="-1.84337">
        <ele>20</ele>
        <time>2018-01-15T12:40:58Z</time>
      </trkpt>
      <trkpt lat="46.73358" lon="-1.84353">
        <ele>20</ele>
        <time>2018-01-15T12:41:58Z</time>
      </trkpt>
      <trkpt lat="46.73356" lon="-1.84369">
        <ele>20</ele>
        <time>2018-01-15T12:42:58Z</time>
      </trkpt>
      <trkpt lat="46.73351" lon="-1.84399">
        <ele>19</ele>
        <time>2018-01-15T12:43:58Z</time>
      </trkpt>
      <trkpt lat="46.73346" lon="-1.84431">
        <ele>19</ele>
        <time>2018-01-15T12:44:58Z</time>
      </trkpt>
      <trkpt lat="46.73337" lon="-1.84483">
        <ele>20</ele>
        <time>2018-01-15T12:45:58Z</time>
      </trkpt>
      <trkpt lat="46.73324" lon="-1.84555">
        <ele>21</ele>
        <time>2018-01-15T12:46:58Z</time>
      </trkpt>
      <trkpt lat="46.73311" lon="-1.84629">
        <ele>21</ele>
        <time>2018-01-15T12:47:58Z</time>
      </trkpt>
      <trkpt lat="46.73306" lon="-1.84653">
        <ele>20</ele>
        <time>2018-01-15T12:48:58Z</time>
      </trkpt>
      <trkpt lat="46.73301" lon="-1.84673">
        <ele>20</ele>
        <time>2018-01-15T12:49:58Z</time>
      </trkpt>
      <trkpt lat="46.73296" lon="-1.84697">
        <ele>20</ele>
        <time>2018-01-15T12:50:58Z</time>
      </trkpt>
      <trkpt lat="46.7329" lon="-1.84716">
        <ele>19</ele>
        <time>2018-01-15T12:51:58Z</time>
      </trkpt>
      <trkpt lat="46.73281" lon="-1.84742">
        <ele>19</ele>
        <time>2018-01-15T12:52:58Z</time>
      </trkpt>
      <trkpt lat="46.73257" lon="-1.84813">
        <ele>20</ele>
        <time>2018-01-15T12:53:58Z</time>
      </trkpt>
      <trkpt lat="46.73232" lon="-1.84885">
        <ele>20</ele>
        <time>2018-01-15T12:54:58Z</time>
      </trkpt>
      <trkpt lat="46.73206" lon="-1.8496">
        <ele>19</ele>
        <time>2018-01-15T12:55:58Z</time>
      </trkpt>
      <trkpt lat="46.73182" lon="-1.85028">
        <ele>19</ele>
        <time>2018-01-15T12:56:58Z</time>
      </trkpt>
      <trkpt lat="46.73165" lon="-1.85077">
        <ele>18</ele>
        <time>2018-01-15T12:57:58Z</time>
      </trkpt>
      <trkpt lat="46.73153" lon="-1.85112">
        <ele>18</ele>
        <time>2018-01-15T12:58:58Z</time>
      </trkpt>
      <trkpt lat="46.73125" lon="-1.85192">
        <ele>17</ele>
        <time>2018-01-15T12:59:58Z</time>
      </trkpt>
      <trkpt lat="46.73106" lon="-1.85246">
        <ele>14</ele>
        <time>2018-01-15T13:00:58Z</time>
      </trkpt>
      <trkpt lat="46.73094" lon="-1.8528">
        <ele>13</ele>
        <time>2018-01-15T13:01:58Z</time>
      </trkpt>
      <trkpt lat="46.73076" lon="-1.85329">
        <ele>11</ele>
        <time>2018-01-15T13:02:58Z</time>
      </trkpt>
      <trkpt lat="46.73066" lon="-1.85362">
        <ele>11</ele>
        <time>2018-01-15T13:03:58Z</time>
      </trkpt>
      <trkpt lat="46.73059" lon="-1.85384">
        <ele>11</ele>
        <time>2018-01-15T13:04:58Z</time>
      </trkpt>
      <trkpt lat="46.73056" lon="-1.85399">
        <ele>11</ele>
        <time>2018-01-15T13:05:58Z</time>
      </trkpt>
      <trkpt lat="46.73054" lon="-1.85413">
        <ele>11</ele>
        <time>2018-01-15T13:06:58Z</time>
      </trkpt>
      <trkpt lat="46.73053" lon="-1.85427">
        <ele>11</ele>
        <time>2018-01-15T13:07:58Z</time>
      </trkpt>
      <trkpt lat="46.73051" lon="-1.85439">
        <ele>11</ele>
        <time>2018-01-15T13:08:58Z</time>
      </trkpt>
      <trkpt lat="46.73051" lon="-1.85456">
        <ele>12</ele>
        <time>2018-01-15T13:09:58Z</time>
      </trkpt>
      <trkpt lat="46.7305" lon="-1.85471">
        <ele>12</ele>
        <time>2018-01-15T13:10:58Z</time>
      </trkpt>
      <trkpt lat="46.73051" lon="-1.85486">
        <ele>12</ele>
        <time>2018-01-15T13:11:58Z</time>
      </trkpt>
      <trkpt lat="46.73051" lon="-1.85501">
        <ele>12</ele>
        <time>2018-01-15T13:12:58Z</time>
      </trkpt>
      <trkpt lat="46.73053" lon="-1.85515">
        <ele>12</ele>
        <time>2018-01-15T13:13:58Z</time>
      </trkpt>
      <trkpt lat="46.73055" lon="-1.85538">
        <ele>12</ele>
        <time>2018-01-15T13:14:58Z</time>
      </trkpt>
      <trkpt lat="46.73056" lon="-1.85546">
        <ele>12</ele>
        <time>2018-01-15T13:15:58Z</time>
      </trkpt>
      <trkpt lat="46.7306" lon="-1.85579">
        <ele>12</ele>
        <time>2018-01-15T13:16:58Z</time>
      </trkpt>
      <trkpt lat="46.73061" lon="-1.85588">
        <ele>12</ele>
        <time>2018-01-15T13:17:58Z</time>
      </trkpt>
      <trkpt lat="46.73067" lon="-1.85628">
        <ele>12</ele>
        <time>2018-01-15T13:18:58Z</time>
      </trkpt>
      <trkpt lat="46.73071" lon="-1.85665">
        <ele>11</ele>
        <time>2018-01-15T13:19:58Z</time>
      </trkpt>
      <trkpt lat="46.73075" lon="-1.85694">
        <ele>12</ele>
        <time>2018-01-15T13:20:58Z</time>
      </trkpt>
      <trkpt lat="46.73079" lon="-1.85723">
        <ele>12</ele>
        <time>2018-01-15T13:21:58Z</time>
      </trkpt>
      <trkpt lat="46.73081" lon="-1.85738">
        <ele>12</ele>
        <time>2018-01-15T13:22:58Z</time>
      </trkpt>
      <trkpt lat="46.73084" lon="-1.85756">
        <ele>12</ele>
        <time>2018-01-15T13:23:58Z</time>
      </trkpt>
      <trkpt lat="46.73087" lon="-1.85769">
        <ele>12</ele>
        <time>2018-01-15T13:24:58Z</time>
      </trkpt>
      <trkpt lat="46.7309" lon="-1.85791">
        <ele>11</ele>
        <time>2018-01-15T13:25:58Z</time>
      </trkpt>
      <trkpt lat="46.73101" lon="-1.85837">
        <ele>10</ele>
        <time>2018-01-15T13:26:58Z</time>
      </trkpt>
      <trkpt lat="46.73119" lon="-1.85908">
        <ele>10</ele>
        <time>2018-01-15T13:27:58Z</time>
      </trkpt>
      <trkpt lat="46.73131" lon="-1.85958">
        <ele>10</ele>
        <time>2018-01-15T13:28:58Z</time>
      </trkpt>
      <trkpt lat="46.73136" lon="-1.85988">
        <ele>11</ele>
        <time>2018-01-15T13:29:58Z</time>
      </trkpt>
      <trkpt lat="46.73139" lon="-1.86009">
        <ele>11</ele>
        <time>2018-01-15T13:30:58Z</time>
      </trkpt>
      <trkpt lat="46.73141" lon="-1.8603">
        <ele>11</ele>
        <time>2018-01-15T13:31:58Z</time>
      </trkpt>
      <trkpt lat="46.73142" lon="-1.86052">
        <ele>11</ele>
        <time>2018-01-15T13:32:58Z</time>
      </trkpt>
      <trkpt lat="46.73142" lon="-1.86074">
        <ele>11</ele>
        <time>2018-01-15T13:33:58Z</time>
      </trkpt>
      <trkpt lat="46.73142" lon="-1.86101">
        <ele>11</ele>
        <time>2018-01-15T13:34:58Z</time>
      </trkpt>
      <trkpt lat="46.73141" lon="-1.86123">
        <ele>11</ele>
        <time>2018-01-15T13:35:58Z</time>
      </trkpt>
      <trkpt lat="46.7314" lon="-1.86155">
        <ele>11</ele>
        <time>2018-01-15T13:36:58Z</time>
      </trkpt>
      <trkpt lat="46.73137" lon="-1.86284">
        <ele>10</ele>
        <time>2018-01-15T13:37:58Z</time>
      </trkpt>
      <trkpt lat="46.73136" lon="-1.86309">
        <ele>10</ele>
        <time>2018-01-15T13:38:58Z</time>
      </trkpt>
      <trkpt lat="46.73134" lon="-1.86386">
        <ele>9</ele>
        <time>2018-01-15T13:39:58Z</time>
      </trkpt>
      <trkpt lat="46.73133" lon="-1.86467">
        <ele>10</ele>
        <time>2018-01-15T13:40:58Z</time>
      </trkpt>
      <trkpt lat="46.73133" lon="-1.86486">
        <ele>10</ele>
        <time>2018-01-15T13:41:58Z</time>
      </trkpt>
      <trkpt lat="46.73133" lon="-1.8651">
        <ele>10</ele>
        <time>2018-01-15T13:42:58Z</time>
      </trkpt>
      <trkpt lat="46.73133" lon="-1.86528">
        <ele>11</ele>
        <time>2018-01-15T13:43:58Z</time>
      </trkpt>
      <trkpt lat="46.73135" lon="-1.86543">
        <ele>11</ele>
        <time>2018-01-15T13:44:58Z</time>
      </trkpt>
      <trkpt lat="46.73136" lon="-1.86555">
        <ele>11</ele>
        <time>2018-01-15T13:45:58Z</time>
      </trkpt>
      <trkpt lat="46.73139" lon="-1.86573">
        <ele>11</ele>
        <time>2018-01-15T13:46:58Z</time>
      </trkpt>
      <trkpt lat="46.73145" lon="-1.86608">
        <ele>10</ele>
        <time>2018-01-15T13:47:58Z</time>
      </trkpt>
      <trkpt lat="46.73154" lon="-1.86672">
        <ele>8</ele>
        <time>2018-01-15T13:48:58Z</time>
      </trkpt>
      <trkpt lat="46.73162" lon="-1.86716">
        <ele>7</ele>
        <time>2018-01-15T13:49:58Z</time>
      </trkpt>
      <trkpt lat="46.73167" lon="-1.86748">
        <ele>6</ele>
        <time>2018-01-15T13:50:58Z</time>
      </trkpt>
      <trkpt lat="46.7318" lon="-1.86831">
        <ele>7</ele>
        <time>2018-01-15T13:51:58Z</time>
      </trkpt>
      <trkpt lat="46.73191" lon="-1.86902">
        <ele>8</ele>
        <time>2018-01-15T13:52:58Z</time>
      </trkpt>
      <trkpt lat="46.73198" lon="-1.86945">
        <ele>8</ele>
        <time>2018-01-15T13:53:58Z</time>
      </trkpt>
      <trkpt lat="46.73202" lon="-1.86972">
        <ele>9</ele>
        <time>2018-01-15T13:54:58Z</time>
      </trkpt>
      <trkpt lat="46.73203" lon="-1.86984">
        <ele>9</ele>
        <time>2018-01-15T13:55:58Z</time>
      </trkpt>
      <trkpt lat="46.73204" lon="-1.87006">
        <ele>10</ele>
        <time>2018-01-15T13:56:58Z</time>
      </trkpt>
      <trkpt lat="46.73206" lon="-1.87034">
        <ele>10</ele>
        <time>2018-01-15T13:57:58Z</time>
      </trkpt>
      <trkpt lat="46.73208" lon="-1.87069">
        <ele>10</ele>
        <time>2018-01-15T13:58:58Z</time>
      </trkpt>
      <trkpt lat="46.7321" lon="-1.871">
        <ele>11</ele>
        <time>2018-01-15T13:59:58Z</time>
      </trkpt>
      <trkpt lat="46.73211" lon="-1.87109">
        <ele>11</ele>
        <time>2018-01-15T14:00:58Z</time>
      </trkpt>
      <trkpt lat="46.73212" lon="-1.87121">
        <ele>11</ele>
        <time>2018-01-15T14:01:58Z</time>
      </trkpt>
      <trkpt lat="46.73213" lon="-1.87129">
        <ele>11</ele>
        <time>2018-01-15T14:02:58Z</time>
      </trkpt>
      <trkpt lat="46.73214" lon="-1.87142">
        <ele>11</ele>
        <time>2018-01-15T14:03:58Z</time>
      </trkpt>
      <trkpt lat="46.73213" lon="-1.87152">
        <ele>11</ele>
        <time>2018-01-15T14:04:58Z</time>
      </trkpt>
      <trkpt lat="46.73213" lon="-1.87152">
        <ele>11</ele>
        <time>2018-01-15T14:05:58Z</time>
      </trkpt>
      <trkpt lat="46.73214" lon="-1.87152">
        <ele>11</ele>
        <time>2018-01-15T14:06:58Z</time>
      </trkpt>
      <trkpt lat="46.73214" lon="-1.87153">
        <ele>11</ele>
        <time>2018-01-15T14:07:58Z</time>
      </trkpt>
      <trkpt lat="46.73215" lon="-1.87154">
        <ele>11</ele>
        <time>2018-01-15T14:08:58Z</time>
      </trkpt>
      <trkpt lat="46.73215" lon="-1.87155">
        <ele>11</ele>
        <time>2018-01-15T14:09:58Z</time>
      </trkpt>
      <trkpt lat="46.73216" lon="-1.87156">
        <ele>11</ele>
        <time>2018-01-15T14:10:58Z</time>
      </trkpt>
      <trkpt lat="46.73216" lon="-1.87157">
        <ele>11</ele>
        <time>2018-01-15T14:11:58Z</time>
      </trkpt>
      <trkpt lat="46.73217" lon="-1.87158">
        <ele>11</ele>
        <time>2018-01-15T14:12:58Z</time>
      </trkpt>
      <trkpt lat="46.73217" lon="-1.87159">
        <ele>11</ele>
        <time>2018-01-15T14:13:58Z</time>
      </trkpt>
      <trkpt lat="46.73218" lon="-1.87162">
        <ele>11</ele>
        <time>2018-01-15T14:14:58Z</time>
      </trkpt>
      <trkpt lat="46.73219" lon="-1.87165">
        <ele>11</ele>
        <time>2018-01-15T14:15:58Z</time>
      </trkpt>
      <trkpt lat="46.7322" lon="-1.87168">
        <ele>11</ele>
        <time>2018-01-15T14:16:58Z</time>
      </trkpt>
      <trkpt lat="46.7322" lon="-1.87171">
        <ele>11</ele>
        <time>2018-01-15T14:17:58Z</time>
      </trkpt>
      <trkpt lat="46.7322" lon="-1.87174">
        <ele>11</ele>
        <time>2018-01-15T14:18:58Z</time>
      </trkpt>
      <trkpt lat="46.7322" lon="-1.87177">
        <ele>11</ele>
        <time>2018-01-15T14:19:58Z</time>
      </trkpt>
      <trkpt lat="46.7322" lon="-1.8718">
        <ele>11</ele>
        <time>2018-01-15T14:20:58Z</time>
      </trkpt>
      <trkpt lat="46.7322" lon="-1.87183">
        <ele>11</ele>
        <time>2018-01-15T14:21:58Z</time>
      </trkpt>
      <trkpt lat="46.73218" lon="-1.87188">
        <ele>11</ele>
        <time>2018-01-15T14:22:58Z</time>
      </trkpt>
      <trkpt lat="46.73217" lon="-1.87191">
        <ele>11</ele>
        <time>2018-01-15T14:23:58Z</time>
      </trkpt>
      <trkpt lat="46.73215" lon="-1.87193">
        <ele>11</ele>
        <time>2018-01-15T14:24:58Z</time>
      </trkpt>
      <trkpt lat="46.73214" lon="-1.87195">
        <ele>11</ele>
        <time>2018-01-15T14:25:58Z</time>
      </trkpt>
      <trkpt lat="46.73212" lon="-1.87197">
        <ele>11</ele>
        <time>2018-01-15T14:26:58Z</time>
      </trkpt>
      <trkpt lat="46.7321" lon="-1.87198">
        <ele>11</ele>
        <time>2018-01-15T14:27:58Z</time>
      </trkpt>
      <trkpt lat="46.73209" lon="-1.872">
        <ele>11</ele>
        <time>2018-01-15T14:28:58Z</time>
      </trkpt>
      <trkpt lat="46.73207" lon="-1.87201">
        <ele>11</ele>
        <time>2018-01-15T14:29:58Z</time>
      </trkpt>
      <trkpt lat="46.73205" lon="-1.87202">
        <ele>11</ele>
        <time>2018-01-15T14:30:58Z</time>
      </trkpt>
      <trkpt lat="46.73201" lon="-1.87202">
        <ele>12</ele>
        <time>2018-01-15T14:31:58Z</time>
      </trkpt>
      <trkpt lat="46.73198" lon="-1.87205">
        <ele>12</ele>
        <time>2018-01-15T14:32:58Z</time>
      </trkpt>
      <trkpt lat="46.73196" lon="-1.8721">
        <ele>12</ele>
        <time>2018-01-15T14:33:58Z</time>
      </trkpt>
      <trkpt lat="46.73193" lon="-1.87216">
        <ele>12</ele>
        <time>2018-01-15T14:34:58Z</time>
      </trkpt>
      <trkpt lat="46.7319" lon="-1.87223">
        <ele>12</ele>
        <time>2018-01-15T14:35:58Z</time>
      </trkpt>
      <trkpt lat="46.73187" lon="-1.87232">
        <ele>12</ele>
        <time>2018-01-15T14:36:58Z</time>
      </trkpt>
      <trkpt lat="46.73181" lon="-1.87246">
        <ele>12</ele>
        <time>2018-01-15T14:37:58Z</time>
      </trkpt>
      <trkpt lat="46.73176" lon="-1.87254">
        <ele>12</ele>
        <time>2018-01-15T14:38:58Z</time>
      </trkpt>
      <trkpt lat="46.73159" lon="-1.87307">
        <ele>12</ele>
        <time>2018-01-15T14:39:58Z</time>
      </trkpt>
      <trkpt lat="46.73132" lon="-1.87393">
        <ele>12</ele>
        <time>2018-01-15T14:40:58Z</time>
      </trkpt>
      <trkpt lat="46.73092" lon="-1.87524">
        <ele>11</ele>
        <time>2018-01-15T14:41:58Z</time>
      </trkpt>
      <trkpt lat="46.73084" lon="-1.87547">
        <ele>11</ele>
        <time>2018-01-15T14:42:58Z</time>
      </trkpt>
      <trkpt lat="46.73071" lon="-1.87591">
        <ele>11</ele>
        <time>2018-01-15T14:43:58Z</time>
      </trkpt>
      <trkpt lat="46.73069" lon="-1.87597">
        <ele>11</ele>
        <time>2018-01-15T14:44:58Z</time>
      </trkpt>
      <trkpt lat="46.73065" lon="-1.87612">
        <ele>11</ele>
        <time>2018-01-15T14:45:58Z</time>
      </trkpt>
      <trkpt lat="46.73054" lon="-1.87646">
        <ele>11</ele>
        <time>2018-01-15T14:46:58Z</time>
      </trkpt>
      <trkpt lat="46.73053" lon="-1.87652">
        <ele>11</ele>
        <time>2018-01-15T14:47:58Z</time>
      </trkpt>
      <trkpt lat="46.73035" lon="-1.87711">
        <ele>11</ele>
        <time>2018-01-15T14:48:58Z</time>
      </trkpt>
      <trkpt lat="46.73029" lon="-1.87731">
        <ele>11</ele>
        <time>2018-01-15T14:49:58Z</time>
      </trkpt>
      <trkpt lat="46.73023" lon="-1.87749">
        <ele>11</ele>
        <time>2018-01-15T14:50:58Z</time>
      </trkpt>
      <trkpt lat="46.73014" lon="-1.87779">
        <ele>11</ele>
        <time>2018-01-15T14:51:58Z</time>
      </trkpt>
      <trkpt lat="46.73004" lon="-1.87808">
        <ele>11</ele>
        <time>2018-01-15T14:52:58Z</time>
      </trkpt>
      <trkpt lat="46.73" lon="-1.87814">
        <ele>11</ele>
        <time>2018-01-15T14:53:58Z</time>
      </trkpt>
      <trkpt lat="46.7299" lon="-1.87843">
        <ele>11</ele>
        <time>2018-01-15T14:54:58Z</time>
      </trkpt>
      <trkpt lat="46.72982" lon="-1.87863">
        <ele>11</ele>
        <time>2018-01-15T14:55:58Z</time>
      </trkpt>
      <trkpt lat="46.72971" lon="-1.8789">
        <ele>11</ele>
        <time>2018-01-15T14:56:58Z</time>
      </trkpt>
      <trkpt lat="46.72957" lon="-1.87915">
        <ele>12</ele>
        <time>2018-01-15T14:57:58Z</time>
      </trkpt>
      <trkpt lat="46.72942" lon="-1.87939">
        <ele>12</ele>
        <time>2018-01-15T14:58:58Z</time>
      </trkpt>
      <trkpt lat="46.72931" lon="-1.87954">
        <ele>12</ele>
        <time>2018-01-15T14:59:58Z</time>
      </trkpt>
      <trkpt lat="46.72915" lon="-1.87978">
        <ele>12</ele>
        <time>2018-01-15T15:00:58Z</time>
      </trkpt>
      <trkpt lat="46.72903" lon="-1.87993">
        <ele>12</ele>
        <time>2018-01-15T15:01:58Z</time>
      </trkpt>
      <trkpt lat="46.72901" lon="-1.87996">
        <ele>12</ele>
        <time>2018-01-15T15:02:58Z</time>
      </trkpt>
      <trkpt lat="46.72877" lon="-1.88029">
        <ele>12</ele>
        <time>2018-01-15T15:03:58Z</time>
      </trkpt>
      <trkpt lat="46.72857" lon="-1.88056">
        <ele>12</ele>
        <time>2018-01-15T15:04:58Z</time>
      </trkpt>
      <trkpt lat="46.72845" lon="-1.88074">
        <ele>12</ele>
        <time>2018-01-15T15:05:58Z</time>
      </trkpt>
      <trkpt lat="46.72822" lon="-1.88105">
        <ele>12</ele>
        <time>2018-01-15T15:06:58Z</time>
      </trkpt>
      <trkpt lat="46.72797" lon="-1.88139">
        <ele>10</ele>
        <time>2018-01-15T15:07:58Z</time>
      </trkpt>
      <trkpt lat="46.7278" lon="-1.88165">
        <ele>9</ele>
        <time>2018-01-15T15:08:58Z</time>
      </trkpt>
      <trkpt lat="46.72774" lon="-1.88175">
        <ele>9</ele>
        <time>2018-01-15T15:09:58Z</time>
      </trkpt>
      <trkpt lat="46.72758" lon="-1.88205">
        <ele>8</ele>
        <time>2018-01-15T15:10:58Z</time>
      </trkpt>
      <trkpt lat="46.72753" lon="-1.88214">
        <ele>8</ele>
        <time>2018-01-15T15:11:58Z</time>
      </trkpt>
      <trkpt lat="46.72743" lon="-1.88234">
        <ele>8</ele>
        <time>2018-01-15T15:12:58Z</time>
      </trkpt>
      <trkpt lat="46.72729" lon="-1.88265">
        <ele>7</ele>
        <time>2018-01-15T15:13:58Z</time>
      </trkpt>
      <trkpt lat="46.72718" lon="-1.88298">
        <ele>6</ele>
        <time>2018-01-15T15:14:58Z</time>
      </trkpt>
      <trkpt lat="46.72708" lon="-1.88329">
        <ele>5</ele>
        <time>2018-01-15T15:15:58Z</time>
      </trkpt>
      <trkpt lat="46.72701" lon="-1.88354">
        <ele>5</ele>
        <time>2018-01-15T15:16:58Z</time>
      </trkpt>
      <trkpt lat="46.72694" lon="-1.88384">
        <ele>5</ele>
        <time>2018-01-15T15:17:58Z</time>
      </trkpt>
      <trkpt lat="46.72689" lon="-1.88405">
        <ele>5</ele>
        <time>2018-01-15T15:18:58Z</time>
      </trkpt>
      <trkpt lat="46.72688" lon="-1.88414">
        <ele>5</ele>
        <time>2018-01-15T15:19:58Z</time>
      </trkpt>
      <trkpt lat="46.72687" lon="-1.88419">
        <ele>5</ele>
        <time>2018-01-15T15:20:58Z</time>
      </trkpt>
      <trkpt lat="46.72686" lon="-1.88428">
        <ele>5</ele>
        <time>2018-01-15T15:21:58Z</time>
      </trkpt>
      <trkpt lat="46.72682" lon="-1.88474">
        <ele>4</ele>
        <time>2018-01-15T15:22:58Z</time>
      </trkpt>
      <trkpt lat="46.72678" lon="-1.88523">
        <ele>4</ele>
        <time>2018-01-15T15:23:58Z</time>
      </trkpt>
      <trkpt lat="46.72673" lon="-1.88584">
        <ele>5</ele>
        <time>2018-01-15T15:24:58Z</time>
      </trkpt>
      <trkpt lat="46.72669" lon="-1.88627">
        <ele>5</ele>
        <time>2018-01-15T15:25:58Z</time>
      </trkpt>
      <trkpt lat="46.72667" lon="-1.88649">
        <ele>6</ele>
        <time>2018-01-15T15:26:58Z</time>
      </trkpt>
      <trkpt lat="46.72657" lon="-1.88762">
        <ele>6</ele>
        <time>2018-01-15T15:27:58Z</time>
      </trkpt>
      <trkpt lat="46.7265" lon="-1.88821">
        <ele>6</ele>
        <time>2018-01-15T15:28:58Z</time>
      </trkpt>
      <trkpt lat="46.72641" lon="-1.88904">
        <ele>6</ele>
        <time>2018-01-15T15:29:58Z</time>
      </trkpt>
      <trkpt lat="46.72634" lon="-1.88962">
        <ele>6</ele>
        <time>2018-01-15T15:30:58Z</time>
      </trkpt>
      <trkpt lat="46.72624" lon="-1.89045">
        <ele>6</ele>
        <time>2018-01-15T15:31:58Z</time>
      </trkpt>
      <trkpt lat="46.72615" lon="-1.89119">
        <ele>6</ele>
        <time>2018-01-15T15:32:58Z</time>
      </trkpt>
      <trkpt lat="46.72611" lon="-1.89151">
        <ele>6</ele>
        <time>2018-01-15T15:33:58Z</time>
      </trkpt>
      <trkpt lat="46.72603" lon="-1.89203">
        <ele>6</ele>
        <time>2018-01-15T15:34:58Z</time>
      </trkpt>
      <trkpt lat="46.72595" lon="-1.89253">
        <ele>5</ele>
        <time>2018-01-15T15:35:58Z</time>
      </trkpt>
      <trkpt lat="46.72586" lon="-1.89297">
        <ele>5</ele>
        <time>2018-01-15T15:36:58Z</time>
      </trkpt>
      <trkpt lat="46.72578" lon="-1.89344">
        <ele>5</ele>
        <time>2018-01-15T15:37:58Z</time>
      </trkpt>
      <trkpt lat="46.72573" lon="-1.89367">
        <ele>5</ele>
        <time>2018-01-15T15:38:58Z</time>
      </trkpt>
      <trkpt lat="46.72573" lon="-1.89373">
        <ele>5</ele>
        <time>2018-01-15T15:39:58Z</time>
      </trkpt>
      <trkpt lat="46.72559" lon="-1.89419">
        <ele>4</ele>
        <time>2018-01-15T15:40:58Z</time>
      </trkpt>
      <trkpt lat="46.72558" lon="-1.89421">
        <ele>4</ele>
        <time>2018-01-15T15:41:58Z</time>
      </trkpt>
      <trkpt lat="46.72554" lon="-1.89428">
        <ele>4</ele>
        <time>2018-01-15T15:42:58Z</time>
      </trkpt>
      <trkpt lat="46.72545" lon="-1.89447">
        <ele>4</ele>
        <time>2018-01-15T15:43:58Z</time>
      </trkpt>
      <trkpt lat="46.72526" lon="-1.89486">
        <ele>4</ele>
        <time>2018-01-15T15:44:58Z</time>
      </trkpt>
      <trkpt lat="46.72523" lon="-1.89491">
        <ele>4</ele>
        <time>2018-01-15T15:45:58Z</time>
      </trkpt>
      <trkpt lat="46.72505" lon="-1.89518">
        <ele>4</ele>
        <time>2018-01-15T15:46:58Z</time>
      </trkpt>
      <trkpt lat="46.72502" lon="-1.89523">
        <ele>4</ele>
        <time>2018-01-15T15:47:58Z</time>
      </trkpt>
      <trkpt lat="46.72488" lon="-1.89543">
        <ele>4</ele>
        <time>2018-01-15T15:48:58Z</time>
      </trkpt>
      <trkpt lat="46.72488" lon="-1.89544">
        <ele>4</ele>
        <time>2018-01-15T15:49:58Z</time>
      </trkpt>
      <trkpt lat="46.72488" lon="-1.89545">
        <ele>4</ele>
        <time>2018-01-15T15:50:58Z</time>
      </trkpt>
      <trkpt lat="46.72488" lon="-1.89546">
        <ele>4</ele>
        <time>2018-01-15T15:51:58Z</time>
      </trkpt>
      <trkpt lat="46.72487" lon="-1.89546">
        <ele>4</ele>
        <time>2018-01-15T15:52:58Z</time>
      </trkpt>
      <trkpt lat="46.72487" lon="-1.89547">
        <ele>4</ele>
        <time>2018-01-15T15:53:58Z</time>
      </trkpt>
      <trkpt lat="46.72487" lon="-1.89548">
        <ele>4</ele>
        <time>2018-01-15T15:54:58Z</time>
      </trkpt>
      <trkpt lat="46.72486" lon="-1.89549">
        <ele>4</ele>
        <time>2018-01-15T15:55:58Z</time>
      </trkpt>
      <trkpt lat="46.72486" lon="-1.8955">
        <ele>4</ele>
        <time>2018-01-15T15:56:58Z</time>
      </trkpt>
      <trkpt lat="46.72485" lon="-1.8955">
        <ele>4</ele>
        <time>2018-01-15T15:57:58Z</time>
      </trkpt>
      <trkpt lat="46.72485" lon="-1.89551">
        <ele>4</ele>
        <time>2018-01-15T15:58:58Z</time>
      </trkpt>
      <trkpt lat="46.72484" lon="-1.89551">
        <ele>4</ele>
        <time>2018-01-15T15:59:58Z</time>
      </trkpt>
      <trkpt lat="46.72483" lon="-1.89552">
        <ele>4</ele>
        <time>2018-01-15T16:00:58Z</time>
      </trkpt>
      <trkpt lat="46.72482" lon="-1.89552">
        <ele>4</ele>
        <time>2018-01-15T16:01:58Z</time>
      </trkpt>
      <trkpt lat="46.7248" lon="-1.89555">
        <ele>4</ele>
        <time>2018-01-15T16:02:58Z</time>
      </trkpt>
      <trkpt lat="46.7247" lon="-1.8957">
        <ele>4</ele>
        <time>2018-01-15T16:03:58Z</time>
      </trkpt>
      <trkpt lat="46.72462" lon="-1.89583">
        <ele>4</ele>
        <time>2018-01-15T16:04:58Z</time>
      </trkpt>
      <trkpt lat="46.7246" lon="-1.89586">
        <ele>3</ele>
        <time>2018-01-15T16:05:58Z</time>
      </trkpt>
      <trkpt lat="46.72455" lon="-1.89591">
        <ele>3</ele>
        <time>2018-01-15T16:06:58Z</time>
      </trkpt>
      <trkpt lat="46.72442" lon="-1.89608">
        <ele>3</ele>
        <time>2018-01-15T16:07:58Z</time>
      </trkpt>
      <trkpt lat="46.72427" lon="-1.89625">
        <ele>3</ele>
        <time>2018-01-15T16:08:58Z</time>
      </trkpt>
      <trkpt lat="46.72424" lon="-1.89628">
        <ele>3</ele>
        <time>2018-01-15T16:09:58Z</time>
      </trkpt>
      <trkpt lat="46.72402" lon="-1.89652">
        <ele>3</ele>
        <time>2018-01-15T16:10:58Z</time>
      </trkpt>
      <trkpt lat="46.72372" lon="-1.89674">
        <ele>4</ele>
        <time>2018-01-15T16:11:58Z</time>
      </trkpt>
      <trkpt lat="46.72253" lon="-1.8977">
        <ele>7</ele>
        <time>2018-01-15T16:12:58Z</time>
      </trkpt>
      <trkpt lat="46.72225" lon="-1.89792">
        <ele>7</ele>
        <time>2018-01-15T16:13:58Z</time>
      </trkpt>
      <trkpt lat="46.72203" lon="-1.89809">
        <ele>8</ele>
        <time>2018-01-15T16:14:58Z</time>
      </trkpt>
      <trkpt lat="46.72178" lon="-1.8983">
        <ele>9</ele>
        <time>2018-01-15T16:15:58Z</time>
      </trkpt>
      <trkpt lat="46.72143" lon="-1.89859">
        <ele>9</ele>
        <time>2018-01-15T16:16:58Z</time>
      </trkpt>
      <trkpt lat="46.72119" lon="-1.89878">
        <ele>8</ele>
        <time>2018-01-15T16:17:58Z</time>
      </trkpt>
      <trkpt lat="46.72084" lon="-1.89908">
        <ele>7</ele>
        <time>2018-01-15T16:18:58Z</time>
      </trkpt>
      <trkpt lat="46.72056" lon="-1.8993">
        <ele>7</ele>
        <time>2018-01-15T16:19:58Z</time>
      </trkpt>
      <trkpt lat="46.72042" lon="-1.89942">
        <ele>7</ele>
        <time>2018-01-15T16:20:58Z</time>
      </trkpt>
      <trkpt lat="46.72037" lon="-1.89948">
        <ele>7</ele>
        <time>2018-01-15T16:21:58Z</time>
      </trkpt>
      <trkpt lat="46.72029" lon="-1.8996">
        <ele>7</ele>
        <time>2018-01-15T16:22:58Z</time>
      </trkpt>
      <trkpt lat="46.7202" lon="-1.89975">
        <ele>7</ele>
        <time>2018-01-15T16:23:58Z</time>
      </trkpt>
      <trkpt lat="46.72013" lon="-1.89987">
        <ele>6</ele>
        <time>2018-01-15T16:24:58Z</time>
      </trkpt>
      <trkpt lat="46.72002" lon="-1.90007">
        <ele>6</ele>
        <time>2018-01-15T16:25:58Z</time>
      </trkpt>
      <trkpt lat="46.7199" lon="-1.90031">
        <ele>6</ele>
        <time>2018-01-15T16:26:58Z</time>
      </trkpt>
      <trkpt lat="46.71979" lon="-1.9005">
        <ele>6</ele>
        <time>2018-01-15T16:27:58Z</time>
      </trkpt>
      <trkpt lat="46.71973" lon="-1.90062">
        <ele>6</ele>
        <time>2018-01-15T16:28:58Z</time>
      </trkpt>
      <trkpt lat="46.71968" lon="-1.9008">
        <ele>6</ele>
        <time>2018-01-15T16:29:58Z</time>
      </trkpt>
      <trkpt lat="46.71965" lon="-1.90106">
        <ele>6</ele>
        <time>2018-01-15T16:30:58Z</time>
      </trkpt>
      <trkpt lat="46.71962" lon="-1.90125">
        <ele>6</ele>
        <time>2018-01-15T16:31:58Z</time>
      </trkpt>
      <trkpt lat="46.71959" lon="-1.90153">
        <ele>6</ele>
        <time>2018-01-15T16:32:58Z</time>
      </trkpt>
      <trkpt lat="46.71958" lon="-1.90176">
        <ele>6</ele>
        <time>2018-01-15T16:33:58Z</time>
      </trkpt>
      <trkpt lat="46.71956" lon="-1.90191">
        <ele>6</ele>
        <time>2018-01-15T16:34:58Z</time>
      </trkpt>
      <trkpt lat="46.71953" lon="-1.90201">
        <ele>6</ele>
        <time>2018-01-15T16:35:58Z</time>
      </trkpt>
      <trkpt lat="46.71953" lon="-1.90203">
        <ele>6</ele>
        <time>2018-01-15T16:36:58Z</time>
      </trkpt>
      <trkpt lat="46.71949" lon="-1.90211">
        <ele>6</ele>
        <time>2018-01-15T16:37:58Z</time>
      </trkpt>
      <trkpt lat="46.71946" lon="-1.90218">
        <ele>6</ele>
        <time>2018-01-15T16:38:58Z</time>
      </trkpt>
      <trkpt lat="46.71941" lon="-1.90227">
        <ele>6</ele>
        <time>2018-01-15T16:39:58Z</time>
      </trkpt>
      <trkpt lat="46.71934" lon="-1.90235">
        <ele>6</ele>
        <time>2018-01-15T16:40:58Z</time>
      </trkpt>
      <trkpt lat="46.71927" lon="-1.9024">
        <ele>6</ele>
        <time>2018-01-15T16:41:58Z</time>
      </trkpt>
      <trkpt lat="46.71914" lon="-1.90248">
        <ele>6</ele>
        <time>2018-01-15T16:42:58Z</time>
      </trkpt>
      <trkpt lat="46.719" lon="-1.90254">
        <ele>7</ele>
        <time>2018-01-15T16:43:58Z</time>
      </trkpt>
      <trkpt lat="46.71896" lon="-1.90256">
        <ele>7</ele>
        <time>2018-01-15T16:44:58Z</time>
      </trkpt>
      <trkpt lat="46.7189" lon="-1.9026">
        <ele>7</ele>
        <time>2018-01-15T16:45:58Z</time>
      </trkpt>
      <trkpt lat="46.71886" lon="-1.90263">
        <ele>7</ele>
        <time>2018-01-15T16:46:58Z</time>
      </trkpt>
      <trkpt lat="46.71883" lon="-1.90267">
        <ele>7</ele>
        <time>2018-01-15T16:47:58Z</time>
      </trkpt>
      <trkpt lat="46.71879" lon="-1.90274">
        <ele>7</ele>
        <time>2018-01-15T16:48:58Z</time>
      </trkpt>
      <trkpt lat="46.71876" lon="-1.90283">
        <ele>7</ele>
        <time>2018-01-15T16:49:58Z</time>
      </trkpt>
      <trkpt lat="46.71872" lon="-1.90301">
        <ele>6</ele>
        <time>2018-01-15T16:50:58Z</time>
      </trkpt>
      <trkpt lat="46.71869" lon="-1.90308">
        <ele>6</ele>
        <time>2018-01-15T16:51:58Z</time>
      </trkpt>
      <trkpt lat="46.71865" lon="-1.90316">
        <ele>6</ele>
        <time>2018-01-15T16:52:58Z</time>
      </trkpt>
      <trkpt lat="46.71839" lon="-1.90349">
        <ele>6</ele>
        <time>2018-01-15T16:53:58Z</time>
      </trkpt>
      <trkpt lat="46.7179" lon="-1.90406">
        <ele>6</ele>
        <time>2018-01-15T16:54:58Z</time>
      </trkpt>
      <trkpt lat="46.71783" lon="-1.90415">
        <ele>6</ele>
        <time>2018-01-15T16:55:58Z</time>
      </trkpt>
      <trkpt lat="46.71764" lon="-1.90437">
        <ele>7</ele>
        <time>2018-01-15T16:56:58Z</time>
      </trkpt>
      <trkpt lat="46.71729" lon="-1.90479">
        <ele>7</ele>
        <time>2018-01-15T16:57:58Z</time>
      </trkpt>
      <trkpt lat="46.71702" lon="-1.90512">
        <ele>8</ele>
        <time>2018-01-15T16:58:58Z</time>
      </trkpt>
      <trkpt lat="46.71687" lon="-1.9053">
        <ele>8</ele>
        <time>2018-01-15T16:59:58Z</time>
      </trkpt>
      <trkpt lat="46.71673" lon="-1.90547">
        <ele>8</ele>
        <time>2018-01-15T17:00:58Z</time>
      </trkpt>
      <trkpt lat="46.71651" lon="-1.90574">
        <ele>9</ele>
        <time>2018-01-15T17:01:58Z</time>
      </trkpt>
      <trkpt lat="46.71615" lon="-1.90615">
        <ele>9</ele>
        <time>2018-01-15T17:02:58Z</time>
      </trkpt>
      <trkpt lat="46.71615" lon="-1.90616">
        <ele>9</ele>
        <time>2018-01-15T17:03:58Z</time>
      </trkpt>
      <trkpt lat="46.7161" lon="-1.90622">
        <ele>9</ele>
        <time>2018-01-15T17:04:58Z</time>
      </trkpt>
      <trkpt lat="46.71589" lon="-1.90649">
        <ele>9</ele>
        <time>2018-01-15T17:05:58Z</time>
      </trkpt>
      <trkpt lat="46.71557" lon="-1.90688">
        <ele>10</ele>
        <time>2018-01-15T17:06:58Z</time>
      </trkpt>
      <trkpt lat="46.71554" lon="-1.90691">
        <ele>10</ele>
        <time>2018-01-15T17:07:58Z</time>
      </trkpt>
      <trkpt lat="46.71544" lon="-1.90706">
        <ele>10</ele>
        <time>2018-01-15T17:08:58Z</time>
      </trkpt>
      <trkpt lat="46.71545" lon="-1.90706">
        <ele>10</ele>
        <time>2018-01-15T17:09:58Z</time>
      </trkpt>
      <trkpt lat="46.71545" lon="-1.90707">
        <ele>10</ele>
        <time>2018-01-15T17:10:58Z</time>
      </trkpt>
      <trkpt lat="46.71545" lon="-1.90708">
        <ele>10</ele>
        <time>2018-01-15T17:11:58Z</time>
      </trkpt>
      <trkpt lat="46.71546" lon="-1.90708">
        <ele>10</ele>
        <time>2018-01-15T17:12:58Z</time>
      </trkpt>
      <trkpt lat="46.71546" lon="-1.90709">
        <ele>10</ele>
        <time>2018-01-15T17:13:58Z</time>
      </trkpt>
      <trkpt lat="46.71546" lon="-1.9071">
        <ele>10</ele>
        <time>2018-01-15T17:14:58Z</time>
      </trkpt>
      <trkpt lat="46.71546" lon="-1.90711">
        <ele>10</ele>
        <time>2018-01-15T17:15:58Z</time>
      </trkpt>
      <trkpt lat="46.71546" lon="-1.90712">
        <ele>10</ele>
        <time>2018-01-15T17:16:58Z</time>
      </trkpt>
      <trkpt lat="46.71546" lon="-1.90713">
        <ele>10</ele>
        <time>2018-01-15T17:17:58Z</time>
      </trkpt>
      <trkpt lat="46.71546" lon="-1.90714">
        <ele>10</ele>
        <time>2018-01-15T17:18:58Z</time>
      </trkpt>
      <trkpt lat="46.71546" lon="-1.90715">
        <ele>10</ele>
        <time>2018-01-15T17:19:58Z</time>
      </trkpt>
      <trkpt lat="46.71546" lon="-1.90716">
        <ele>10</ele>
        <time>2018-01-15T17:20:58Z</time>
      </trkpt>
      <trkpt lat="46.71546" lon="-1.90717">
        <ele>10</ele>
        <time>2018-01-15T17:21:58Z</time>
      </trkpt>
      <trkpt lat="46.71545" lon="-1.90717">
        <ele>10</ele>
        <time>2018-01-15T17:22:58Z</time>
      </trkpt>
      <trkpt lat="46.71545" lon="-1.90718">
        <ele>10</ele>
        <time>2018-01-15T17:23:58Z</time>
      </trkpt>
      <trkpt lat="46.71545" lon="-1.90719">
        <ele>10</ele>
        <time>2018-01-15T17:24:58Z</time>
      </trkpt>
      <trkpt lat="46.71544" lon="-1.90719">
        <ele>10</ele>
        <time>2018-01-15T17:25:58Z</time>
      </trkpt>
      <trkpt lat="46.71544" lon="-1.9072">
        <ele>10</ele>
        <time>2018-01-15T17:26:58Z</time>
      </trkpt>
      <trkpt lat="46.71543" lon="-1.9072">
        <ele>10</ele>
        <time>2018-01-15T17:27:58Z</time>
      </trkpt>
      <trkpt lat="46.71542" lon="-1.9072">
        <ele>10</ele>
        <time>2018-01-15T17:28:58Z</time>
      </trkpt>
      <trkpt lat="46.71541" lon="-1.9072">
        <ele>10</ele>
        <time>2018-01-15T17:29:58Z</time>
      </trkpt>
      <trkpt lat="46.71541" lon="-1.90721">
        <ele>10</ele>
        <time>2018-01-15T17:30:58Z</time>
      </trkpt>
      <trkpt lat="46.71541" lon="-1.9072">
        <ele>10</ele>
        <time>2018-01-15T17:31:58Z</time>
      </trkpt>
      <trkpt lat="46.7154" lon="-1.9072">
        <ele>10</ele>
        <time>2018-01-15T17:32:58Z</time>
      </trkpt>
      <trkpt lat="46.71539" lon="-1.9072">
        <ele>10</ele>
        <time>2018-01-15T17:33:58Z</time>
      </trkpt>
      <trkpt lat="46.71538" lon="-1.9072">
        <ele>10</ele>
        <time>2018-01-15T17:34:58Z</time>
      </trkpt>
      <trkpt lat="46.71538" lon="-1.90719">
        <ele>10</ele>
        <time>2018-01-15T17:35:58Z</time>
      </trkpt>
      <trkpt lat="46.71537" lon="-1.90719">
        <ele>10</ele>
        <time>2018-01-15T17:36:58Z</time>
      </trkpt>
      <trkpt lat="46.71537" lon="-1.90718">
        <ele>10</ele>
        <time>2018-01-15T17:37:58Z</time>
      </trkpt>
      <trkpt lat="46.71537" lon="-1.90717">
        <ele>10</ele>
        <time>2018-01-15T17:38:58Z</time>
      </trkpt>
      <trkpt lat="46.71504" lon="-1.90753">
        <ele>11</ele>
        <time>2018-01-15T17:39:58Z</time>
      </trkpt>
      <trkpt lat="46.71468" lon="-1.90796">
        <ele>11</ele>
        <time>2018-01-15T17:40:58Z</time>
      </trkpt>
      <trkpt lat="46.71449" lon="-1.90818">
        <ele>12</ele>
        <time>2018-01-15T17:41:58Z</time>
      </trkpt>
      <trkpt lat="46.71439" lon="-1.9083">
        <ele>12</ele>
        <time>2018-01-15T17:42:58Z</time>
      </trkpt>
      <trkpt lat="46.71414" lon="-1.90862">
        <ele>13</ele>
        <time>2018-01-15T17:43:58Z</time>
      </trkpt>
      <trkpt lat="46.71394" lon="-1.90886">
        <ele>13</ele>
        <time>2018-01-15T17:44:58Z</time>
      </trkpt>
      <trkpt lat="46.71377" lon="-1.90906">
        <ele>13</ele>
        <time>2018-01-15T17:45:58Z</time>
      </trkpt>
      <trkpt lat="46.71372" lon="-1.90912">
        <ele>13</ele>
        <time>2018-01-15T17:46:58Z</time>
      </trkpt>
      <trkpt lat="46.71354" lon="-1.90933">
        <ele>12</ele>
        <time>2018-01-15T17:47:58Z</time>
      </trkpt>
      <trkpt lat="46.71332" lon="-1.90962">
        <ele>12</ele>
        <time>2018-01-15T17:48:58Z</time>
      </trkpt>
      <trkpt lat="46.7131" lon="-1.90988">
        <ele>12</ele>
        <time>2018-01-15T17:49:58Z</time>
      </trkpt>
      <trkpt lat="46.713" lon="-1.91004">
        <ele>12</ele>
        <time>2018-01-15T17:50:58Z</time>
      </trkpt>
      <trkpt lat="46.71289" lon="-1.9102">
        <ele>12</ele>
        <time>2018-01-15T17:51:58Z</time>
      </trkpt>
      <trkpt lat="46.71277" lon="-1.9104">
        <ele>12</ele>
        <time>2018-01-15T17:52:58Z</time>
      </trkpt>
      <trkpt lat="46.71264" lon="-1.91064">
        <ele>12</ele>
        <time>2018-01-15T17:53:58Z</time>
      </trkpt>
      <trkpt lat="46.71255" lon="-1.91084">
        <ele>12</ele>
        <time>2018-01-15T17:54:58Z</time>
      </trkpt>
      <trkpt lat="46.71244" lon="-1.91108">
        <ele>12</ele>
        <time>2018-01-15T17:55:58Z</time>
      </trkpt>
      <trkpt lat="46.71231" lon="-1.91139">
        <ele>11</ele>
        <time>2018-01-15T17:56:58Z</time>
      </trkpt>
      <trkpt lat="46.71227" lon="-1.91147">
        <ele>11</ele>
        <time>2018-01-15T17:57:58Z</time>
      </trkpt>
      <trkpt lat="46.71216" lon="-1.91174">
        <ele>11</ele>
        <time>2018-01-15T17:58:58Z</time>
      </trkpt>
      <trkpt lat="46.712" lon="-1.9121">
        <ele>11</ele>
        <time>2018-01-15T17:59:58Z</time>
      </trkpt>
      <trkpt lat="46.71185" lon="-1.91246">
        <ele>11</ele>
        <time>2018-01-15T18:00:58Z</time>
      </trkpt>
      <trkpt lat="46.71175" lon="-1.91271">
        <ele>11</ele>
        <time>2018-01-15T18:01:58Z</time>
      </trkpt>
      <trkpt lat="46.71164" lon="-1.91298">
        <ele>11</ele>
        <time>2018-01-15T18:02:58Z</time>
      </trkpt>
      <trkpt lat="46.71152" lon="-1.91328">
        <ele>12</ele>
        <time>2018-01-15T18:03:58Z</time>
      </trkpt>
      <trkpt lat="46.7115" lon="-1.91334">
        <ele>12</ele>
        <time>2018-01-15T18:04:58Z</time>
      </trkpt>
      <trkpt lat="46.71148" lon="-1.91339">
        <ele>12</ele>
        <time>2018-01-15T18:05:58Z</time>
      </trkpt>
      <trkpt lat="46.71136" lon="-1.91372">
        <ele>12</ele>
        <time>2018-01-15T18:06:58Z</time>
      </trkpt>
      <trkpt lat="46.71122" lon="-1.91407">
        <ele>13</ele>
        <time>2018-01-15T18:07:58Z</time>
      </trkpt>
      <trkpt lat="46.71113" lon="-1.91429">
        <ele>14</ele>
        <time>2018-01-15T18:08:58Z</time>
      </trkpt>
      <trkpt lat="46.71106" lon="-1.91442">
        <ele>14</ele>
        <time>2018-01-15T18:09:58Z</time>
      </trkpt>
      <trkpt lat="46.71103" lon="-1.91449">
        <ele>14</ele>
        <time>2018-01-15T18:10:58Z</time>
      </trkpt>
      <trkpt lat="46.71102" lon="-1.91452">
        <ele>14</ele>
        <time>2018-01-15T18:11:58Z</time>
      </trkpt>
      <trkpt lat="46.71099" lon="-1.91459">
        <ele>14</ele>
        <time>2018-01-15T18:12:58Z</time>
      </trkpt>
      <trkpt lat="46.71097" lon="-1.91462">
        <ele>15</ele>
        <time>2018-01-15T18:13:58Z</time>
      </trkpt>
      <trkpt lat="46.71096" lon="-1.91463">
        <ele>15</ele>
        <time>2018-01-15T18:14:58Z</time>
      </trkpt>
      <trkpt lat="46.71095" lon="-1.91465">
        <ele>15</ele>
        <time>2018-01-15T18:15:58Z</time>
      </trkpt>
      <trkpt lat="46.71085" lon="-1.91481">
        <ele>15</ele>
        <time>2018-01-15T18:16:58Z</time>
      </trkpt>
      <trkpt lat="46.7107" lon="-1.91503">
        <ele>15</ele>
        <time>2018-01-15T18:17:58Z</time>
      </trkpt>
      <trkpt lat="46.71064" lon="-1.91509">
        <ele>15</ele>
        <time>2018-01-15T18:18:58Z</time>
      </trkpt>
      <trkpt lat="46.71054" lon="-1.91523">
        <ele>16</ele>
        <time>2018-01-15T18:19:58Z</time>
      </trkpt>
      <trkpt lat="46.71042" lon="-1.91539">
        <ele>16</ele>
        <time>2018-01-15T18:20:58Z</time>
      </trkpt>
      <trkpt lat="46.71022" lon="-1.91567">
        <ele>16</ele>
        <time>2018-01-15T18:21:58Z</time>
      </trkpt>
      <trkpt lat="46.7102" lon="-1.9157">
        <ele>17</ele>
        <time>2018-01-15T18:22:58Z</time>
      </trkpt>
      <trkpt lat="46.71018" lon="-1.91572">
        <ele>17</ele>
        <time>2018-01-15T18:23:58Z</time>
      </trkpt>
      <trkpt lat="46.70999" lon="-1.91598">
        <ele>17</ele>
        <time>2018-01-15T18:24:58Z</time>
      </trkpt>
      <trkpt lat="46.70971" lon="-1.91634">
        <ele>17</ele>
        <time>2018-01-15T18:25:58Z</time>
      </trkpt>
      <trkpt lat="46.70954" lon="-1.91659">
        <ele>18</ele>
        <time>2018-01-15T18:26:58Z</time>
      </trkpt>
      <trkpt lat="46.70951" lon="-1.91664">
        <ele>18</ele>
        <time>2018-01-15T18:27:58Z</time>
      </trkpt>
      <trkpt lat="46.70946" lon="-1.91669">
        <ele>18</ele>
        <time>2018-01-15T18:28:58Z</time>
      </trkpt>
      <trkpt lat="46.70932" lon="-1.91688">
        <ele>18</ele>
        <time>2018-01-15T18:29:58Z</time>
      </trkpt>
      <trkpt lat="46.70913" lon="-1.91714">
        <ele>18</ele>
        <time>2018-01-15T18:30:58Z</time>
      </trkpt>
      <trkpt lat="46.70894" lon="-1.91739">
        <ele>18</ele>
        <time>2018-01-15T18:31:58Z</time>
      </trkpt>
      <trkpt lat="46.70883" lon="-1.91753">
        <ele>18</ele>
        <time>2018-01-15T18:32:58Z</time>
      </trkpt>
      <trkpt lat="46.7087" lon="-1.91769">
        <ele>19</ele>
        <time>2018-01-15T18:33:58Z</time>
      </trkpt>
      <trkpt lat="46.7087" lon="-1.9177">
        <ele>19</ele>
        <time>2018-01-15T18:34:58Z</time>
      </trkpt>
      <trkpt lat="46.7087" lon="-1.91771">
        <ele>19</ele>
        <time>2018-01-15T18:35:58Z</time>
      </trkpt>
      <trkpt lat="46.70871" lon="-1.91771">
        <ele>19</ele>
        <time>2018-01-15T18:36:58Z</time>
      </trkpt>
      <trkpt lat="46.70871" lon="-1.91772">
        <ele>19</ele>
        <time>2018-01-15T18:37:58Z</time>
      </trkpt>
      <trkpt lat="46.70871" lon="-1.91773">
        <ele>19</ele>
        <time>2018-01-15T18:38:58Z</time>
      </trkpt>
      <trkpt lat="46.70871" lon="-1.91774">
        <ele>19</ele>
        <time>2018-01-15T18:39:58Z</time>
      </trkpt>
      <trkpt lat="46.70871" lon="-1.91775">
        <ele>19</ele>
        <time>2018-01-15T18:40:58Z</time>
      </trkpt>
      <trkpt lat="46.70871" lon="-1.91776">
        <ele>19</ele>
        <time>2018-01-15T18:41:58Z</time>
      </trkpt>
      <trkpt lat="46.70871" lon="-1.91777">
        <ele>19</ele>
        <time>2018-01-15T18:42:58Z</time>
      </trkpt>
      <trkpt lat="46.70871" lon="-1.91778">
        <ele>19</ele>
        <time>2018-01-15T18:43:58Z</time>
      </trkpt>
      <trkpt lat="46.70871" lon="-1.91779">
        <ele>19</ele>
        <time>2018-01-15T18:44:58Z</time>
      </trkpt>
      <trkpt lat="46.7087" lon="-1.91779">
        <ele>19</ele>
        <time>2018-01-15T18:45:58Z</time>
      </trkpt>
      <trkpt lat="46.7087" lon="-1.9178">
        <ele>19</ele>
        <time>2018-01-15T18:46:58Z</time>
      </trkpt>
      <trkpt lat="46.7087" lon="-1.91781">
        <ele>19</ele>
        <time>2018-01-15T18:47:58Z</time>
      </trkpt>
      <trkpt lat="46.7087" lon="-1.91782">
        <ele>19</ele>
        <time>2018-01-15T18:48:58Z</time>
      </trkpt>
      <trkpt lat="46.70869" lon="-1.91782">
        <ele>19</ele>
        <time>2018-01-15T18:49:58Z</time>
      </trkpt>
      <trkpt lat="46.70869" lon="-1.91783">
        <ele>19</ele>
        <time>2018-01-15T18:50:58Z</time>
      </trkpt>
      <trkpt lat="46.70868" lon="-1.91784">
        <ele>19</ele>
        <time>2018-01-15T18:51:58Z</time>
      </trkpt>
      <trkpt lat="46.70868" lon="-1.91785">
        <ele>19</ele>
        <time>2018-01-15T18:52:58Z</time>
      </trkpt>
      <trkpt lat="46.70867" lon="-1.91785">
        <ele>19</ele>
        <time>2018-01-15T18:53:58Z</time>
      </trkpt>
      <trkpt lat="46.70866" lon="-1.91786">
        <ele>19</ele>
        <time>2018-01-15T18:54:58Z</time>
      </trkpt>
      <trkpt lat="46.70865" lon="-1.91786">
        <ele>19</ele>
        <time>2018-01-15T18:55:58Z</time>
      </trkpt>
      <trkpt lat="46.70864" lon="-1.91786">
        <ele>19</ele>
        <time>2018-01-15T18:56:58Z</time>
      </trkpt>
      <trkpt lat="46.70864" lon="-1.91787">
        <ele>19</ele>
        <time>2018-01-15T18:57:58Z</time>
      </trkpt>
      <trkpt lat="46.70863" lon="-1.91787">
        <ele>19</ele>
        <time>2018-01-15T18:58:58Z</time>
      </trkpt>
      <trkpt lat="46.70862" lon="-1.91787">
        <ele>19</ele>
        <time>2018-01-15T18:59:58Z</time>
      </trkpt>
      <trkpt lat="46.70861" lon="-1.91787">
        <ele>19</ele>
        <time>2018-01-15T19:00:58Z</time>
      </trkpt>
      <trkpt lat="46.70861" lon="-1.91786">
        <ele>19</ele>
        <time>2018-01-15T19:01:58Z</time>
      </trkpt>
      <trkpt lat="46.7086" lon="-1.91786">
        <ele>19</ele>
        <time>2018-01-15T19:02:58Z</time>
      </trkpt>
      <trkpt lat="46.70859" lon="-1.91786">
        <ele>19</ele>
        <time>2018-01-15T19:03:58Z</time>
      </trkpt>
      <trkpt lat="46.70859" lon="-1.91785">
        <ele>19</ele>
        <time>2018-01-15T19:04:58Z</time>
      </trkpt>
      <trkpt lat="46.70858" lon="-1.91785">
        <ele>19</ele>
        <time>2018-01-15T19:05:58Z</time>
      </trkpt>
      <trkpt lat="46.70858" lon="-1.91784">
        <ele>19</ele>
        <time>2018-01-15T19:06:58Z</time>
      </trkpt>
      <trkpt lat="46.70836" lon="-1.9181">
        <ele>20</ele>
        <time>2018-01-15T19:07:58Z</time>
      </trkpt>
      <trkpt lat="46.70799" lon="-1.91849">
        <ele>20</ele>
        <time>2018-01-15T19:08:58Z</time>
      </trkpt>
      <trkpt lat="46.70793" lon="-1.91854">
        <ele>20</ele>
        <time>2018-01-15T19:09:58Z</time>
      </trkpt>
      <trkpt lat="46.70789" lon="-1.91861">
        <ele>19</ele>
        <time>2018-01-15T19:10:58Z</time>
      </trkpt>
      <trkpt lat="46.70758" lon="-1.91893">
        <ele>19</ele>
        <time>2018-01-15T19:11:58Z</time>
      </trkpt>
      <trkpt lat="46.7073" lon="-1.91923">
        <ele>18</ele>
        <time>2018-01-15T19:12:58Z</time>
      </trkpt>
      <trkpt lat="46.70726" lon="-1.91928">
        <ele>19</ele>
        <time>2018-01-15T19:13:58Z</time>
      </trkpt>
      <trkpt lat="46.70721" lon="-1.9193">
        <ele>19</ele>
        <time>2018-01-15T19:14:58Z</time>
      </trkpt>
      <trkpt lat="46.70684" lon="-1.91967">
        <ele>19</ele>
        <time>2018-01-15T19:15:58Z</time>
      </trkpt>
      <trkpt lat="46.70677" lon="-1.91974">
        <ele>19</ele>
        <time>2018-01-15T19:16:58Z</time>
      </trkpt>
      <trkpt lat="46.70671" lon="-1.91985">
        <ele>19</ele>
        <time>2018-01-15T19:17:58Z</time>
      </trkpt>
      <trkpt lat="46.70655" lon="-1.92006">
        <ele>19</ele>
        <time>2018-01-15T19:18:58Z</time>
      </trkpt>
      <trkpt lat="46.70655" lon="-1.92006">
        <ele>19</ele>
        <time>2018-01-15T19:19:58Z</time>
      </trkpt>
      <trkpt lat="46.70655" lon="-1.92007">
        <ele>19</ele>
        <time>2018-01-15T19:20:58Z</time>
      </trkpt>
      <trkpt lat="46.70655" lon="-1.92008">
        <ele>19</ele>
        <time>2018-01-15T19:21:58Z</time>
      </trkpt>
      <trkpt lat="46.70655" lon="-1.92009">
        <ele>19</ele>
        <time>2018-01-15T19:22:58Z</time>
      </trkpt>
      <trkpt lat="46.70655" lon="-1.9201">
        <ele>19</ele>
        <time>2018-01-15T19:23:58Z</time>
      </trkpt>
      <trkpt lat="46.70655" lon="-1.92011">
        <ele>19</ele>
        <time>2018-01-15T19:24:58Z</time>
      </trkpt>
      <trkpt lat="46.70655" lon="-1.92012">
        <ele>19</ele>
        <time>2018-01-15T19:25:58Z</time>
      </trkpt>
      <trkpt lat="46.70655" lon="-1.92013">
        <ele>19</ele>
        <time>2018-01-15T19:26:58Z</time>
      </trkpt>
      <trkpt lat="46.70655" lon="-1.92014">
        <ele>19</ele>
        <time>2018-01-15T19:27:58Z</time>
      </trkpt>
      <trkpt lat="46.70655" lon="-1.92015">
        <ele>19</ele>
        <time>2018-01-15T19:28:58Z</time>
      </trkpt>
      <trkpt lat="46.70654" lon="-1.92015">
        <ele>19</ele>
        <time>2018-01-15T19:29:58Z</time>
      </trkpt>
      <trkpt lat="46.70654" lon="-1.92016">
        <ele>19</ele>
        <time>2018-01-15T19:30:58Z</time>
      </trkpt>
      <trkpt lat="46.70654" lon="-1.92017">
        <ele>19</ele>
        <time>2018-01-15T19:31:58Z</time>
      </trkpt>
      <trkpt lat="46.70654" lon="-1.92018">
        <ele>19</ele>
        <time>2018-01-15T19:32:58Z</time>
      </trkpt>
      <trkpt lat="46.70653" lon="-1.92019">
        <ele>19</ele>
        <time>2018-01-15T19:33:58Z</time>
      </trkpt>
      <trkpt lat="46.70653" lon="-1.9202">
        <ele>19</ele>
        <time>2018-01-15T19:34:58Z</time>
      </trkpt>
      <trkpt lat="46.70652" lon="-1.92021">
        <ele>19</ele>
        <time>2018-01-15T19:35:58Z</time>
      </trkpt>
      <trkpt lat="46.70652" lon="-1.92022">
        <ele>19</ele>
        <time>2018-01-15T19:36:58Z</time>
      </trkpt>
      <trkpt lat="46.70651" lon="-1.92022">
        <ele>19</ele>
        <time>2018-01-15T19:37:58Z</time>
      </trkpt>
      <trkpt lat="46.70651" lon="-1.92023">
        <ele>19</ele>
        <time>2018-01-15T19:38:58Z</time>
      </trkpt>
      <trkpt lat="46.7065" lon="-1.92023">
        <ele>19</ele>
        <time>2018-01-15T19:39:58Z</time>
      </trkpt>
      <trkpt lat="46.70649" lon="-1.92024">
        <ele>19</ele>
        <time>2018-01-15T19:40:58Z</time>
      </trkpt>
      <trkpt lat="46.70644" lon="-1.92039">
        <ele>19</ele>
        <time>2018-01-15T19:41:58Z</time>
      </trkpt>
      <trkpt lat="46.70642" lon="-1.9205">
        <ele>19</ele>
        <time>2018-01-15T19:42:58Z</time>
      </trkpt>
      <trkpt lat="46.70642" lon="-1.92056">
        <ele>19</ele>
        <time>2018-01-15T19:43:58Z</time>
      </trkpt>
      <trkpt lat="46.7064" lon="-1.92095">
        <ele>20</ele>
        <time>2018-01-15T19:44:58Z</time>
      </trkpt>
      <trkpt lat="46.7064" lon="-1.92109">
        <ele>20</ele>
        <time>2018-01-15T19:45:58Z</time>
      </trkpt>
      <trkpt lat="46.70639" lon="-1.92134">
        <ele>19</ele>
        <time>2018-01-15T19:46:58Z</time>
      </trkpt>
      <trkpt lat="46.70637" lon="-1.92186">
        <ele>19</ele>
        <time>2018-01-15T19:47:58Z</time>
      </trkpt>
      <trkpt lat="46.70634" lon="-1.92221">
        <ele>19</ele>
        <time>2018-01-15T19:48:58Z</time>
      </trkpt>
      <trkpt lat="46.70628" lon="-1.92248">
        <ele>20</ele>
        <time>2018-01-15T19:49:58Z</time>
      </trkpt>
      <trkpt lat="46.70619" lon="-1.92271">
        <ele>19</ele>
        <time>2018-01-15T19:50:58Z</time>
      </trkpt>
      <trkpt lat="46.7061" lon="-1.92289">
        <ele>19</ele>
        <time>2018-01-15T19:51:58Z</time>
      </trkpt>
      <trkpt lat="46.70602" lon="-1.92304">
        <ele>18</ele>
        <time>2018-01-15T19:52:58Z</time>
      </trkpt>
      <trkpt lat="46.70586" lon="-1.92327">
        <ele>18</ele>
        <time>2018-01-15T19:53:58Z</time>
      </trkpt>
      <trkpt lat="46.70582" lon="-1.92333">
        <ele>18</ele>
        <time>2018-01-15T19:54:58Z</time>
      </trkpt>
      <trkpt lat="46.70571" lon="-1.92356">
        <ele>17</ele>
        <time>2018-01-15T19:55:58Z</time>
      </trkpt>
      <trkpt lat="46.70562" lon="-1.92377">
        <ele>17</ele>
        <time>2018-01-15T19:56:58Z</time>
      </trkpt>
      <trkpt lat="46.70559" lon="-1.92387">
        <ele>16</ele>
        <time>2018-01-15T19:57:58Z</time>
      </trkpt>
      <trkpt lat="46.70555" lon="-1.92398">
        <ele>16</ele>
        <time>2018-01-15T19:58:58Z</time>
      </trkpt>
      <trkpt lat="46.70552" lon="-1.92414">
        <ele>16</ele>
        <time>2018-01-15T19:59:58Z</time>
      </trkpt>
      <trkpt lat="46.70546" lon="-1.92441">
        <ele>15</ele>
        <time>2018-01-15T20:00:58Z</time>
      </trkpt>
      <trkpt lat="46.70541" lon="-1.92464">
        <ele>15</ele>
        <time>2018-01-15T20:01:58Z</time>
      </trkpt>
      <trkpt lat="46.7054" lon="-1.92472">
        <ele>15</ele>
        <time>2018-01-15T20:02:58Z</time>
      </trkpt>
      <trkpt lat="46.70535" lon="-1.92496">
        <ele>14</ele>
        <time>2018-01-15T20:03:58Z</time>
      </trkpt>
      <trkpt lat="46.70534" lon="-1.925">
        <ele>14</ele>
        <time>2018-01-15T20:04:58Z</time>
      </trkpt>
      <trkpt lat="46.70533" lon="-1.92502">
        <ele>14</ele>
        <time>2018-01-15T20:05:58Z</time>
      </trkpt>
      <trkpt lat="46.70527" lon="-1.92538">
        <ele>13</ele>
        <time>2018-01-15T20:06:58Z</time>
      </trkpt>
      <trkpt lat="46.70523" lon="-1.92561">
        <ele>12</ele>
        <time>2018-01-15T20:07:58Z</time>
      </trkpt>
      <trkpt lat="46.70524" lon="-1.92565">
        <ele>12</ele>
        <time>2018-01-15T20:08:58Z</time>
      </trkpt>
      <trkpt lat="46.70525" lon="-1.92575">
        <ele>12</ele>
        <time>2018-01-15T20:09:58Z</time>
      </trkpt>
      <trkpt lat="46.70525" lon="-1.92582">
        <ele>12</ele>
        <time>2018-01-15T20:10:58Z</time>
      </trkpt>
      <trkpt lat="46.70525" lon="-1.92582">
        <ele>12</ele>
        <time>2018-01-15T20:11:58Z</time>
      </trkpt>
      <trkpt lat="46.70529" lon="-1.92587">
        <ele>12</ele>
        <time>2018-01-15T20:12:58Z</time>
      </trkpt>
      <trkpt lat="46.7053" lon="-1.92592">
        <ele>12</ele>
        <time>2018-01-15T20:13:58Z</time>
      </trkpt>
      <trkpt lat="46.70531" lon="-1.92598">
        <ele>12</ele>
        <time>2018-01-15T20:14:58Z</time>
      </trkpt>
      <trkpt lat="46.7053" lon="-1.92602">
        <ele>12</ele>
        <time>2018-01-15T20:15:58Z</time>
      </trkpt>
      <trkpt lat="46.70528" lon="-1.92606">
        <ele>12</ele>
        <time>2018-01-15T20:16:58Z</time>
      </trkpt>
      <trkpt lat="46.70527" lon="-1.92607">
        <ele>12</ele>
        <time>2018-01-15T20:17:58Z</time>
      </trkpt>
      <trkpt lat="46.70525" lon="-1.92609">
        <ele>12</ele>
        <time>2018-01-15T20:18:58Z</time>
      </trkpt>
      <trkpt lat="46.70523" lon="-1.92609">
        <ele>11</ele>
        <time>2018-01-15T20:19:58Z</time>
      </trkpt>
      <trkpt lat="46.70512" lon="-1.92624">
        <ele>11</ele>
        <time>2018-01-15T20:20:58Z</time>
      </trkpt>
      <trkpt lat="46.70507" lon="-1.92632">
        <ele>11</ele>
        <time>2018-01-15T20:21:58Z</time>
      </trkpt>
      <trkpt lat="46.70504" lon="-1.92634">
        <ele>11</ele>
        <time>2018-01-15T20:22:58Z</time>
      </trkpt>
      <trkpt lat="46.70499" lon="-1.9265">
        <ele>11</ele>
        <time>2018-01-15T20:23:58Z</time>
      </trkpt>
      <trkpt lat="46.70496" lon="-1.9267">
        <ele>11</ele>
        <time>2018-01-15T20:24:58Z</time>
      </trkpt>
      <trkpt lat="46.70489" lon="-1.92701">
        <ele>10</ele>
        <time>2018-01-15T20:25:58Z</time>
      </trkpt>
      <trkpt lat="46.70484" lon="-1.9273">
        <ele>9</ele>
        <time>2018-01-15T20:26:58Z</time>
      </trkpt>
      <trkpt lat="46.70482" lon="-1.92747">
        <ele>8</ele>
        <time>2018-01-15T20:27:58Z</time>
      </trkpt>
      <trkpt lat="46.70478" lon="-1.92796">
        <ele>8</ele>
        <time>2018-01-15T20:28:58Z</time>
      </trkpt>
      <trkpt lat="46.70475" lon="-1.92841">
        <ele>8</ele>
        <time>2018-01-15T20:29:58Z</time>
      </trkpt>
      <trkpt lat="46.70472" lon="-1.92898">
        <ele>8</ele>
        <time>2018-01-15T20:30:58Z</time>
      </trkpt>
      <trkpt lat="46.70468" lon="-1.92952">
        <ele>7</ele>
        <time>2018-01-15T20:31:58Z</time>
      </trkpt>
      <trkpt lat="46.70465" lon="-1.93009">
        <ele>6</ele>
        <time>2018-01-15T20:32:58Z</time>
      </trkpt>
      <trkpt lat="46.70462" lon="-1.93045">
        <ele>6</ele>
        <time>2018-01-15T20:33:58Z</time>
      </trkpt>
      <trkpt lat="46.70458" lon="-1.93108">
        <ele>5</ele>
        <time>2018-01-15T20:34:58Z</time>
      </trkpt>
      <trkpt lat="46.70455" lon="-1.93156">
        <ele>5</ele>
        <time>2018-01-15T20:35:58Z</time>
      </trkpt>
      <trkpt lat="46.70452" lon="-1.93209">
        <ele>4</ele>
        <time>2018-01-15T20:36:58Z</time>
      </trkpt>
      <trkpt lat="46.70449" lon="-1.93254">
        <ele>3</ele>
        <time>2018-01-15T20:37:58Z</time>
      </trkpt>
      <trkpt lat="46.70449" lon="-1.93267">
        <ele>3</ele>
        <time>2018-01-15T20:38:58Z</time>
      </trkpt>
      <trkpt lat="46.70449" lon="-1.93267">
        <ele>3</ele>
        <time>2018-01-15T20:39:58Z</time>
      </trkpt>
      <trkpt lat="46.70439" lon="-1.93265">
        <ele>3</ele>
        <time>2018-01-15T20:40:58Z</time>
      </trkpt>
      <trkpt lat="46.70429" lon="-1.93262">
        <ele>3</ele>
        <time>2018-01-15T20:41:58Z</time>
      </trkpt>
      <trkpt lat="46.70419" lon="-1.93258">
        <ele>3</ele>
        <time>2018-01-15T20:42:58Z</time>
      </trkpt>
      <trkpt lat="46.70398" lon="-1.93249">
        <ele>3</ele>
        <time>2018-01-15T20:43:58Z</time>
      </trkpt>
      <trkpt lat="46.70362" lon="-1.9324">
        <ele>2</ele>
        <time>2018-01-15T20:44:58Z</time>
      </trkpt>
      <trkpt lat="46.70328" lon="-1.93232">
        <ele>2</ele>
        <time>2018-01-15T20:45:58Z</time>
      </trkpt>
      <trkpt lat="46.70304" lon="-1.9323">
        <ele>2</ele>
        <time>2018-01-15T20:46:58Z</time>
      </trkpt>
      <trkpt lat="46.70304" lon="-1.9323">
        <ele>2</ele>
        <time>2018-01-15T20:47:58Z</time>
      </trkpt>
      <trkpt lat="46.70295" lon="-1.93245">
        <ele>2</ele>
        <time>2018-01-15T20:48:58Z</time>
      </trkpt>
      <trkpt lat="46.70288" lon="-1.93253">
        <ele>2</ele>
        <time>2018-01-15T20:49:58Z</time>
      </trkpt>
      <trkpt lat="46.7028" lon="-1.9326">
        <ele>2</ele>
        <time>2018-01-15T20:50:58Z</time>
      </trkpt>
      <trkpt lat="46.70276" lon="-1.93263">
        <ele>2</ele>
        <time>2018-01-15T20:51:58Z</time>
      </trkpt>
      <trkpt lat="46.70263" lon="-1.93271">
        <ele>2</ele>
        <time>2018-01-15T20:52:58Z</time>
      </trkpt>
      <trkpt lat="46.70251" lon="-1.9328">
        <ele>2</ele>
        <time>2018-01-15T20:53:58Z</time>
      </trkpt>
      <trkpt lat="46.70239" lon="-1.93295">
        <ele>2</ele>
        <time>2018-01-15T20:54:58Z</time>
      </trkpt>
      <trkpt lat="46.70224" lon="-1.9332">
        <ele>1</ele>
        <time>2018-01-15T20:55:58Z</time>
      </trkpt>
      <trkpt lat="46.70216" lon="-1.93332">
        <ele>1</ele>
        <time>2018-01-15T20:56:58Z</time>
      </trkpt>
      <trkpt lat="46.70211" lon="-1.9334">
        <ele>1</ele>
        <time>2018-01-15T20:57:58Z</time>
      </trkpt>
      <trkpt lat="46.70205" lon="-1.93347">
        <ele>1</ele>
        <time>2018-01-15T20:58:58Z</time>
      </trkpt>
      <trkpt lat="46.70194" lon="-1.93356">
        <ele>1</ele>
        <time>2018-01-15T20:59:58Z</time>
      </trkpt>
      <trkpt lat="46.70181" lon="-1.93366">
        <ele>2</ele>
        <time>2018-01-15T21:00:58Z</time>
      </trkpt>
      <trkpt lat="46.70173" lon="-1.93372">
        <ele>1</ele>
        <time>2018-01-15T21:01:58Z</time>
      </trkpt>
      <trkpt lat="46.7017" lon="-1.93374">
        <ele>1</ele>
        <time>2018-01-15T21:02:58Z</time>
      </trkpt>
      <trkpt lat="46.70166" lon="-1.9338">
        <ele>1</ele>
        <time>2018-01-15T21:03:58Z</time>
      </trkpt>
      <trkpt lat="46.70161" lon="-1.93382">
        <ele>1</ele>
        <time>2018-01-15T21:04:58Z</time>
      </trkpt>
      <trkpt lat="46.70152" lon="-1.93386">
        <ele>1</ele>
        <time>2018-01-15T21:05:58Z</time>
      </trkpt>
      <trkpt lat="46.70141" lon="-1.93391">
        <ele>1</ele>
        <time>2018-01-15T21:06:58Z</time>
      </trkpt>
      <trkpt lat="46.70141" lon="-1.93391">
        <ele>1</ele>
        <time>2018-01-15T21:07:58Z</time>
      </trkpt>
      <trkpt lat="46.70141" lon="-1.93393">
        <ele>1</ele>
        <time>2018-01-15T21:08:58Z</time>
      </trkpt>
      <trkpt lat="46.70141" lon="-1.93394">
        <ele>1</ele>
        <time>2018-01-15T21:09:58Z</time>
      </trkpt>
      <trkpt lat="46.70141" lon="-1.93395">
        <ele>1</ele>
        <time>2018-01-15T21:10:58Z</time>
      </trkpt>
      <trkpt lat="46.7014" lon="-1.93396">
        <ele>1</ele>
        <time>2018-01-15T21:11:58Z</time>
      </trkpt>
      <trkpt lat="46.7014" lon="-1.93397">
        <ele>1</ele>
        <time>2018-01-15T21:12:58Z</time>
      </trkpt>
      <trkpt lat="46.7014" lon="-1.93398">
        <ele>1</ele>
        <time>2018-01-15T21:13:58Z</time>
      </trkpt>
      <trkpt lat="46.70139" lon="-1.93399">
        <ele>1</ele>
        <time>2018-01-15T21:14:58Z</time>
      </trkpt>
      <trkpt lat="46.70139" lon="-1.93401">
        <ele>1</ele>
        <time>2018-01-15T21:15:58Z</time>
      </trkpt>
      <trkpt lat="46.70138" lon="-1.93402">
        <ele>1</ele>
        <time>2018-01-15T21:16:58Z</time>
      </trkpt>
      <trkpt lat="46.70138" lon="-1.93403">
        <ele>1</ele>
        <time>2018-01-15T21:17:58Z</time>
      </trkpt>
      <trkpt lat="46.70137" lon="-1.93403">
        <ele>1</ele>
        <time>2018-01-15T21:18:58Z</time>
      </trkpt>
      <trkpt lat="46.70136" lon="-1.93404">
        <ele>1</ele>
        <time>2018-01-15T21:19:58Z</time>
      </trkpt>
      <trkpt lat="46.70136" lon="-1.93405">
        <ele>1</ele>
        <time>2018-01-15T21:20:58Z</time>
      </trkpt>
      <trkpt lat="46.70135" lon="-1.93406">
        <ele>1</ele>
        <time>2018-01-15T21:21:58Z</time>
      </trkpt>
      <trkpt lat="46.70134" lon="-1.93406">
        <ele>1</ele>
        <time>2018-01-15T21:22:58Z</time>
      </trkpt>
      <trkpt lat="46.70133" lon="-1.93407">
        <ele>1</ele>
        <time>2018-01-15T21:23:58Z</time>
      </trkpt>
      <trkpt lat="46.70132" lon="-1.93408">
        <ele>1</ele>
        <time>2018-01-15T21:24:58Z</time>
      </trkpt>
      <trkpt lat="46.70131" lon="-1.93408">
        <ele>1</ele>
        <time>2018-01-15T21:25:58Z</time>
      </trkpt>
      <trkpt lat="46.7013" lon="-1.93409">
        <ele>1</ele>
        <time>2018-01-15T21:26:58Z</time>
      </trkpt>
      <trkpt lat="46.70129" lon="-1.93409">
        <ele>1</ele>
        <time>2018-01-15T21:27:58Z</time>
      </trkpt>
      <trkpt lat="46.70128" lon="-1.93409">
        <ele>1</ele>
        <time>2018-01-15T21:28:58Z</time>
      </trkpt>
      <trkpt lat="46.70127" lon="-1.93409">
        <ele>1</ele>
        <time>2018-01-15T21:29:58Z</time>
      </trkpt>
      <trkpt lat="46.70126" lon="-1.93409">
        <ele>1</ele>
        <time>2018-01-15T21:30:58Z</time>
      </trkpt>
      <trkpt lat="46.70125" lon="-1.93409">
        <ele>1</ele>
        <time>2018-01-15T21:31:58Z</time>
      </trkpt>
      <trkpt lat="46.70124" lon="-1.93408">
        <ele>2</ele>
        <time>2018-01-15T21:32:58Z</time>
      </trkpt>
      <trkpt lat="46.70123" lon="-1.93408">
        <ele>2</ele>
        <time>2018-01-15T21:33:58Z</time>
      </trkpt>
      <trkpt lat="46.70122" lon="-1.93407">
        <ele>2</ele>
        <time>2018-01-15T21:34:58Z</time>
      </trkpt>
      <trkpt lat="46.70121" lon="-1.93407">
        <ele>2</ele>
        <time>2018-01-15T21:35:58Z</time>
      </trkpt>
      <trkpt lat="46.7012" lon="-1.93406">
        <ele>2</ele>
        <time>2018-01-15T21:36:58Z</time>
      </trkpt>
      <trkpt lat="46.7012" lon="-1.93405">
        <ele>2</ele>
        <time>2018-01-15T21:37:58Z</time>
      </trkpt>
      <trkpt lat="46.70119" lon="-1.93405">
        <ele>2</ele>
        <time>2018-01-15T21:38:58Z</time>
      </trkpt>
      <trkpt lat="46.70107" lon="-1.93404">
        <ele>2</ele>
        <time>2018-01-15T21:39:58Z</time>
      </trkpt>
      <trkpt lat="46.701" lon="-1.93405">
        <ele>2</ele>
        <time>2018-01-15T21:40:58Z</time>
      </trkpt>
      <trkpt lat="46.70092" lon="-1.93406">
        <ele>2</ele>
        <time>2018-01-15T21:41:58Z</time>
      </trkpt>
      <trkpt lat="46.70088" lon="-1.93406">
        <ele>2</ele>
        <time>2018-01-15T21:42:58Z</time>
      </trkpt>
      <trkpt lat="46.70085" lon="-1.93405">
        <ele>2</ele>
        <time>2018-01-15T21:43:58Z</time>
      </trkpt>
      <trkpt lat="46.70083" lon="-1.93405">
        <ele>2</ele>
        <time>2018-01-15T21:44:58Z</time>
      </trkpt>
      <trkpt lat="46.70062" lon="-1.93405">
        <ele>2</ele>
        <time>2018-01-15T21:45:58Z</time>
      </trkpt>
      <trkpt lat="46.70062" lon="-1.93406">
        <ele>2</ele>
        <time>2018-01-15T21:46:58Z</time>
      </trkpt>
      <trkpt lat="46.70062" lon="-1.93407">
        <ele>2</ele>
        <time>2018-01-15T21:47:58Z</time>
      </trkpt>
      <trkpt lat="46.70062" lon="-1.93408">
        <ele>2</ele>
        <time>2018-01-15T21:48:58Z</time>
      </trkpt>
      <trkpt lat="46.70062" lon="-1.93409">
        <ele>2</ele>
        <time>2018-01-15T21:49:58Z</time>
      </trkpt>
      <trkpt lat="46.70062" lon="-1.9341">
        <ele>2</ele>
        <time>2018-01-15T21:50:58Z</time>
      </trkpt>
      <trkpt lat="46.70061" lon="-1.9341">
        <ele>2</ele>
        <time>2018-01-15T21:51:58Z</time>
      </trkpt>
      <trkpt lat="46.70061" lon="-1.93411">
        <ele>2</ele>
        <time>2018-01-15T21:52:58Z</time>
      </trkpt>
      <trkpt lat="46.7006" lon="-1.93411">
        <ele>2</ele>
        <time>2018-01-15T21:53:58Z</time>
      </trkpt>
      <trkpt lat="46.7006" lon="-1.93412">
        <ele>2</ele>
        <time>2018-01-15T21:54:58Z</time>
      </trkpt>
      <trkpt lat="46.70059" lon="-1.93412">
        <ele>2</ele>
        <time>2018-01-15T21:55:58Z</time>
      </trkpt>
      <trkpt lat="46.70059" lon="-1.93413">
        <ele>2</ele>
        <time>2018-01-15T21:56:58Z</time>
      </trkpt>
      <trkpt lat="46.70058" lon="-1.93413">
        <ele>2</ele>
        <time>2018-01-15T21:57:58Z</time>
      </trkpt>
      <trkpt lat="46.70057" lon="-1.93413">
        <ele>2</ele>
        <time>2018-01-15T21:58:58Z</time>
      </trkpt>
      <trkpt lat="46.70056" lon="-1.93413">
        <ele>2</ele>
        <time>2018-01-15T21:59:58Z</time>
      </trkpt>
      <trkpt lat="46.70055" lon="-1.93413">
        <ele>2</ele>
        <time>2018-01-15T22:00:58Z</time>
      </trkpt>
      <trkpt lat="46.70055" lon="-1.93412">
        <ele>2</ele>
        <time>2018-01-15T22:01:58Z</time>
      </trkpt>
      <trkpt lat="46.70054" lon="-1.93412">
        <ele>2</ele>
        <time>2018-01-15T22:02:58Z</time>
      </trkpt>
      <trkpt lat="46.70054" lon="-1.93411">
        <ele>2</ele>
        <time>2018-01-15T22:03:58Z</time>
      </trkpt>
      <trkpt lat="46.70053" lon="-1.93411">
        <ele>2</ele>
        <time>2018-01-15T22:04:58Z</time>
      </trkpt>
      <trkpt lat="46.70053" lon="-1.9341">
        <ele>2</ele>
        <time>2018-01-15T22:05:58Z</time>
      </trkpt>
      <trkpt lat="46.70053" lon="-1.93409">
        <ele>2</ele>
        <time>2018-01-15T22:06:58Z</time>
      </trkpt>
      <trkpt lat="46.70052" lon="-1.93409">
        <ele>2</ele>
        <time>2018-01-15T22:07:58Z</time>
      </trkpt>
      <trkpt lat="46.70052" lon="-1.93408">
        <ele>2</ele>
        <time>2018-01-15T22:08:58Z</time>
      </trkpt>
      <trkpt lat="46.70052" lon="-1.93407">
        <ele>2</ele>
        <time>2018-01-15T22:09:58Z</time>
      </trkpt>
      <trkpt lat="46.70052" lon="-1.93406">
        <ele>2</ele>
        <time>2018-01-15T22:10:58Z</time>
      </trkpt>
      <trkpt lat="46.70052" lon="-1.93405">
        <ele>2</ele>
        <time>2018-01-15T22:11:58Z</time>
      </trkpt>
      <trkpt lat="46.70046" lon="-1.93402">
        <ele>2</ele>
        <time>2018-01-15T22:12:58Z</time>
      </trkpt>
      <trkpt lat="46.70043" lon="-1.93401">
        <ele>2</ele>
        <time>2018-01-15T22:13:58Z</time>
      </trkpt>
      <trkpt lat="46.70041" lon="-1.934">
        <ele>2</ele>
        <time>2018-01-15T22:14:58Z</time>
      </trkpt>
      <trkpt lat="46.70038" lon="-1.93398">
        <ele>2</ele>
        <time>2018-01-15T22:15:58Z</time>
      </trkpt>
      <trkpt lat="46.70036" lon="-1.93397">
        <ele>2</ele>
        <time>2018-01-15T22:16:58Z</time>
      </trkpt>
      <trkpt lat="46.70033" lon="-1.93394">
        <ele>2</ele>
        <time>2018-01-15T22:17:58Z</time>
      </trkpt>
      <trkpt lat="46.7003" lon="-1.93391">
        <ele>3</ele>
        <time>2018-01-15T22:18:58Z</time>
      </trkpt>
      <trkpt lat="46.70028" lon="-1.93388">
        <ele>3</ele>
        <time>2018-01-15T22:19:58Z</time>
      </trkpt>
      <trkpt lat="46.70025" lon="-1.93386">
        <ele>3</ele>
        <time>2018-01-15T22:20:58Z</time>
      </trkpt>
      <trkpt lat="46.70023" lon="-1.93384">
        <ele>3</ele>
        <time>2018-01-15T22:21:58Z</time>
      </trkpt>
      <trkpt lat="46.7002" lon="-1.93382">
        <ele>3</ele>
        <time>2018-01-15T22:22:58Z</time>
      </trkpt>
      <trkpt lat="46.70015" lon="-1.9338">
        <ele>3</ele>
        <time>2018-01-15T22:23:58Z</time>
      </trkpt>
      <trkpt lat="46.70002" lon="-1.93375">
        <ele>3</ele>
        <time>2018-01-15T22:24:58Z</time>
      </trkpt>
      <trkpt lat="46.69987" lon="-1.93369">
        <ele>3</ele>
        <time>2018-01-15T22:25:58Z</time>
      </trkpt>
      <trkpt lat="46.69982" lon="-1.93367">
        <ele>3</ele>
        <time>2018-01-15T22:26:58Z</time>
      </trkpt>
      <trkpt lat="46.69979" lon="-1.93366">
        <ele>3</ele>
        <time>2018-01-15T22:27:58Z</time>
      </trkpt>
      <trkpt lat="46.69978" lon="-1.93366">
        <ele>3</ele>
        <time>2018-01-15T22:28:58Z</time>
      </trkpt>
      <trkpt lat="46.69976" lon="-1.93367">
        <ele>4</ele>
        <time>2018-01-15T22:29:58Z</time>
      </trkpt>
      <trkpt lat="46.69973" lon="-1.93367">
        <ele>4</ele>
        <time>2018-01-15T22:30:58Z</time>
      </trkpt>
      <trkpt lat="46.69969" lon="-1.9337">
        <ele>4</ele>
        <time>2018-01-15T22:31:58Z</time>
      </trkpt>
      <trkpt lat="46.69963" lon="-1.93373">
        <ele>4</ele>
        <time>2018-01-15T22:32:58Z</time>
      </trkpt>
      <trkpt lat="46.69958" lon="-1.93375">
        <ele>4</ele>
        <time>2018-01-15T22:33:58Z</time>
      </trkpt>
      <trkpt lat="46.69953" lon="-1.93377">
        <ele>4</ele>
        <time>2018-01-15T22:34:58Z</time>
      </trkpt>
      <trkpt lat="46.69949" lon="-1.93379">
        <ele>4</ele>
        <time>2018-01-15T22:35:58Z</time>
      </trkpt>
      <trkpt lat="46.69944" lon="-1.93381">
        <ele>4</ele>
        <time>2018-01-15T22:36:58Z</time>
      </trkpt>
      <trkpt lat="46.69935" lon="-1.93382">
        <ele>4</ele>
        <time>2018-01-15T22:37:58Z</time>
      </trkpt>
      <trkpt lat="46.69925" lon="-1.93383">
        <ele>4</ele>
        <time>2018-01-15T22:38:58Z</time>
      </trkpt>
      <trkpt lat="46.69922" lon="-1.93383">
        <ele>4</ele>
        <time>2018-01-15T22:39:58Z</time>
      </trkpt>
      <trkpt lat="46.69915" lon="-1.93383">
        <ele>4</ele>
        <time>2018-01-15T22:40:58Z</time>
      </trkpt>
    </trkseg>
  </trk>
</gpx>